<?xml version="1.0" encoding="UTF-8" standalone="no" ?>
<gpx xmlns="http://www.topografix.com/GPX/1/1" xmlns:xsi="http://www.w3.org/2001/XMLSchema-instance" xsi:schemaLocation="http://www.topografix.com/GPX/1/1 http://www.topografix.com/GPX/1/1/gpx.xsd" version="1.1" creator="VisuGPX - https://www.visugpx.com">
  <metadata>
    <name>Col des fretes</name>
    <desc><![CDATA[Trace AlpineQuest 13/03/2021 10:48:33]]></desc>
  </metadata>
  <trk>
    <name><![CDATA[Col des fretes_1]]></name>
    <trkseg>
      <trkpt lat="45.5734" lon="6.78598">
        <ele>1828.586</ele>
        <time>2021-03-13T09:48:33Z</time>
      </trkpt>
      <trkpt lat="45.57341" lon="6.78599">
        <ele>1829.008</ele>
        <time>2021-03-13T09:48:38Z</time>
      </trkpt>
      <trkpt lat="45.57341" lon="6.78599">
        <ele>1829.752</ele>
        <time>2021-03-13T09:48:43Z</time>
      </trkpt>
      <trkpt lat="45.57342" lon="6.78601">
        <ele>1828.545</ele>
        <time>2021-03-13T09:48:48Z</time>
      </trkpt>
      <trkpt lat="45.57341" lon="6.78605">
        <ele>1828.545</ele>
        <time>2021-03-13T09:48:53Z</time>
      </trkpt>
      <trkpt lat="45.57341" lon="6.78609">
        <ele>1828.541</ele>
        <time>2021-03-13T09:48:58Z</time>
      </trkpt>
      <trkpt lat="45.57341" lon="6.78615">
        <ele>1828.304</ele>
        <time>2021-03-13T09:49:03Z</time>
      </trkpt>
      <trkpt lat="45.57342" lon="6.78621">
        <ele>1829.126</ele>
        <time>2021-03-13T09:49:08Z</time>
      </trkpt>
      <trkpt lat="45.57341" lon="6.78625">
        <ele>1829.037</ele>
        <time>2021-03-13T09:49:13Z</time>
      </trkpt>
      <trkpt lat="45.57341" lon="6.78629">
        <ele>1829.866</ele>
        <time>2021-03-13T09:49:18Z</time>
      </trkpt>
      <trkpt lat="45.5734" lon="6.78632">
        <ele>1830.073</ele>
        <time>2021-03-13T09:49:23Z</time>
      </trkpt>
      <trkpt lat="45.5734" lon="6.78637">
        <ele>1829.573</ele>
        <time>2021-03-13T09:49:28Z</time>
      </trkpt>
      <trkpt lat="45.57339" lon="6.78639">
        <ele>1830.073</ele>
        <time>2021-03-13T09:49:33Z</time>
      </trkpt>
      <trkpt lat="45.57339" lon="6.78644">
        <ele>1830.427</ele>
        <time>2021-03-13T09:49:38Z</time>
      </trkpt>
      <trkpt lat="45.57339" lon="6.78649">
        <ele>1830.554</ele>
        <time>2021-03-13T09:49:43Z</time>
      </trkpt>
      <trkpt lat="45.57339" lon="6.78654">
        <ele>1830.876</ele>
        <time>2021-03-13T09:49:48Z</time>
      </trkpt>
      <trkpt lat="45.5734" lon="6.78657">
        <ele>1831.01</ele>
        <time>2021-03-13T09:49:53Z</time>
      </trkpt>
      <trkpt lat="45.5734" lon="6.78662">
        <ele>1830.713</ele>
        <time>2021-03-13T09:49:58Z</time>
      </trkpt>
      <trkpt lat="45.5734" lon="6.78666">
        <ele>1831.362</ele>
        <time>2021-03-13T09:50:03Z</time>
      </trkpt>
      <trkpt lat="45.57341" lon="6.78672">
        <ele>1831.373</ele>
        <time>2021-03-13T09:50:08Z</time>
      </trkpt>
      <trkpt lat="45.57342" lon="6.78675">
        <ele>1832.415</ele>
        <time>2021-03-13T09:50:13Z</time>
      </trkpt>
      <trkpt lat="45.57341" lon="6.78675">
        <ele>1833.109</ele>
        <time>2021-03-13T09:50:18Z</time>
      </trkpt>
      <trkpt lat="45.5734" lon="6.78675">
        <ele>1833.154</ele>
        <time>2021-03-13T09:50:23Z</time>
      </trkpt>
      <trkpt lat="45.57341" lon="6.78679">
        <ele>1832.792</ele>
        <time>2021-03-13T09:50:28Z</time>
      </trkpt>
      <trkpt lat="45.57341" lon="6.78684">
        <ele>1833.073</ele>
        <time>2021-03-13T09:50:33Z</time>
      </trkpt>
      <trkpt lat="45.5734" lon="6.78688">
        <ele>1834.087</ele>
        <time>2021-03-13T09:50:38Z</time>
      </trkpt>
      <trkpt lat="45.5734" lon="6.78693">
        <ele>1835.097</ele>
        <time>2021-03-13T09:50:43Z</time>
      </trkpt>
      <trkpt lat="45.5734" lon="6.78695">
        <ele>1835.891</ele>
        <time>2021-03-13T09:50:48Z</time>
      </trkpt>
      <trkpt lat="45.5734" lon="6.78695">
        <ele>1835.811</ele>
        <time>2021-03-13T09:50:53Z</time>
      </trkpt>
      <trkpt lat="45.5734" lon="6.78695">
        <ele>1835.53</ele>
        <time>2021-03-13T09:50:58Z</time>
      </trkpt>
      <trkpt lat="45.5734" lon="6.78696">
        <ele>1835.365</ele>
        <time>2021-03-13T09:51:03Z</time>
      </trkpt>
      <trkpt lat="45.5734" lon="6.78696">
        <ele>1835.354</ele>
        <time>2021-03-13T09:51:08Z</time>
      </trkpt>
      <trkpt lat="45.5734" lon="6.78696">
        <ele>1835.351</ele>
        <time>2021-03-13T09:51:13Z</time>
      </trkpt>
      <trkpt lat="45.5734" lon="6.78696">
        <ele>1835.342</ele>
        <time>2021-03-13T09:51:18Z</time>
      </trkpt>
      <trkpt lat="45.5734" lon="6.78696">
        <ele>1834.474</ele>
        <time>2021-03-13T09:51:23Z</time>
      </trkpt>
      <trkpt lat="45.57339" lon="6.78697">
        <ele>1833.666</ele>
        <time>2021-03-13T09:51:28Z</time>
      </trkpt>
      <trkpt lat="45.57339" lon="6.78697">
        <ele>1832.626</ele>
        <time>2021-03-13T09:51:33Z</time>
      </trkpt>
      <trkpt lat="45.5734" lon="6.78696">
        <ele>1832.273</ele>
        <time>2021-03-13T09:51:38Z</time>
      </trkpt>
      <trkpt lat="45.5734" lon="6.78696">
        <ele>1832.318</ele>
        <time>2021-03-13T09:51:43Z</time>
      </trkpt>
      <trkpt lat="45.5734" lon="6.78696">
        <ele>1832.329</ele>
        <time>2021-03-13T09:51:48Z</time>
      </trkpt>
      <trkpt lat="45.5734" lon="6.78696">
        <ele>1832.245</ele>
        <time>2021-03-13T09:51:53Z</time>
      </trkpt>
      <trkpt lat="45.57339" lon="6.78697">
        <ele>1832.603</ele>
        <time>2021-03-13T09:51:58Z</time>
      </trkpt>
      <trkpt lat="45.57339" lon="6.78697">
        <ele>1832.445</ele>
        <time>2021-03-13T09:52:03Z</time>
      </trkpt>
      <trkpt lat="45.57339" lon="6.78703">
        <ele>1832.928</ele>
        <time>2021-03-13T09:52:08Z</time>
      </trkpt>
      <trkpt lat="45.57339" lon="6.78709">
        <ele>1833.099</ele>
        <time>2021-03-13T09:52:13Z</time>
      </trkpt>
      <trkpt lat="45.57339" lon="6.78716">
        <ele>1833.568</ele>
        <time>2021-03-13T09:52:18Z</time>
      </trkpt>
      <trkpt lat="45.57339" lon="6.78722">
        <ele>1834.878</ele>
        <time>2021-03-13T09:52:23Z</time>
      </trkpt>
      <trkpt lat="45.57339" lon="6.78727">
        <ele>1835.462</ele>
        <time>2021-03-13T09:52:28Z</time>
      </trkpt>
      <trkpt lat="45.57338" lon="6.78732">
        <ele>1836.174</ele>
        <time>2021-03-13T09:52:33Z</time>
      </trkpt>
      <trkpt lat="45.57338" lon="6.78738">
        <ele>1836.786</ele>
        <time>2021-03-13T09:52:38Z</time>
      </trkpt>
      <trkpt lat="45.57339" lon="6.78743">
        <ele>1837.309</ele>
        <time>2021-03-13T09:52:43Z</time>
      </trkpt>
      <trkpt lat="45.57339" lon="6.78748">
        <ele>1837.577</ele>
        <time>2021-03-13T09:52:48Z</time>
      </trkpt>
      <trkpt lat="45.57338" lon="6.78749">
        <ele>1836.386</ele>
        <time>2021-03-13T09:52:53Z</time>
      </trkpt>
      <trkpt lat="45.57338" lon="6.78749">
        <ele>1835.799</ele>
        <time>2021-03-13T09:52:58Z</time>
      </trkpt>
      <trkpt lat="45.57338" lon="6.78749">
        <ele>1835.689</ele>
        <time>2021-03-13T09:53:03Z</time>
      </trkpt>
      <trkpt lat="45.57338" lon="6.78753">
        <ele>1835.842</ele>
        <time>2021-03-13T09:53:08Z</time>
      </trkpt>
      <trkpt lat="45.57338" lon="6.78759">
        <ele>1836.35</ele>
        <time>2021-03-13T09:53:13Z</time>
      </trkpt>
      <trkpt lat="45.57339" lon="6.78764">
        <ele>1836.729</ele>
        <time>2021-03-13T09:53:18Z</time>
      </trkpt>
      <trkpt lat="45.5734" lon="6.78768">
        <ele>1837.561</ele>
        <time>2021-03-13T09:53:23Z</time>
      </trkpt>
      <trkpt lat="45.5734" lon="6.78771">
        <ele>1838.369</ele>
        <time>2021-03-13T09:53:28Z</time>
      </trkpt>
      <trkpt lat="45.5734" lon="6.78776">
        <ele>1839.386</ele>
        <time>2021-03-13T09:53:33Z</time>
      </trkpt>
      <trkpt lat="45.5734" lon="6.78779">
        <ele>1840.003</ele>
        <time>2021-03-13T09:53:38Z</time>
      </trkpt>
      <trkpt lat="45.5734" lon="6.78783">
        <ele>1840.773</ele>
        <time>2021-03-13T09:53:43Z</time>
      </trkpt>
      <trkpt lat="45.5734" lon="6.78787">
        <ele>1841.659</ele>
        <time>2021-03-13T09:53:48Z</time>
      </trkpt>
      <trkpt lat="45.57341" lon="6.78792">
        <ele>1842.048</ele>
        <time>2021-03-13T09:53:53Z</time>
      </trkpt>
      <trkpt lat="45.5734" lon="6.78796">
        <ele>1843.588</ele>
        <time>2021-03-13T09:53:58Z</time>
      </trkpt>
      <trkpt lat="45.57341" lon="6.788">
        <ele>1844.774</ele>
        <time>2021-03-13T09:54:03Z</time>
      </trkpt>
      <trkpt lat="45.57341" lon="6.78805">
        <ele>1846.423</ele>
        <time>2021-03-13T09:54:08Z</time>
      </trkpt>
      <trkpt lat="45.57341" lon="6.78809">
        <ele>1847.613</ele>
        <time>2021-03-13T09:54:13Z</time>
      </trkpt>
      <trkpt lat="45.57341" lon="6.78814">
        <ele>1848.446</ele>
        <time>2021-03-13T09:54:18Z</time>
      </trkpt>
      <trkpt lat="45.57341" lon="6.78814">
        <ele>1848.633</ele>
        <time>2021-03-13T09:54:23Z</time>
      </trkpt>
      <trkpt lat="45.57341" lon="6.78817">
        <ele>1849.905</ele>
        <time>2021-03-13T09:54:28Z</time>
      </trkpt>
      <trkpt lat="45.57342" lon="6.78822">
        <ele>1850.615</ele>
        <time>2021-03-13T09:54:33Z</time>
      </trkpt>
      <trkpt lat="45.57343" lon="6.78827">
        <ele>1851.648</ele>
        <time>2021-03-13T09:54:38Z</time>
      </trkpt>
      <trkpt lat="45.57343" lon="6.7883">
        <ele>1851.525</ele>
        <time>2021-03-13T09:54:43Z</time>
      </trkpt>
      <trkpt lat="45.57344" lon="6.78835">
        <ele>1853.109</ele>
        <time>2021-03-13T09:54:48Z</time>
      </trkpt>
      <trkpt lat="45.57345" lon="6.78836">
        <ele>1852.687</ele>
        <time>2021-03-13T09:54:53Z</time>
      </trkpt>
      <trkpt lat="45.57345" lon="6.78838">
        <ele>1852.734</ele>
        <time>2021-03-13T09:54:58Z</time>
      </trkpt>
      <trkpt lat="45.57345" lon="6.7884">
        <ele>1853.818</ele>
        <time>2021-03-13T09:55:03Z</time>
      </trkpt>
      <trkpt lat="45.57345" lon="6.78839">
        <ele>1854.621</ele>
        <time>2021-03-13T09:55:08Z</time>
      </trkpt>
      <trkpt lat="45.57345" lon="6.78839">
        <ele>1855.318</ele>
        <time>2021-03-13T09:55:13Z</time>
      </trkpt>
      <trkpt lat="45.57345" lon="6.7884">
        <ele>1855.59</ele>
        <time>2021-03-13T09:55:18Z</time>
      </trkpt>
      <trkpt lat="45.57346" lon="6.78843">
        <ele>1856.402</ele>
        <time>2021-03-13T09:55:23Z</time>
      </trkpt>
      <trkpt lat="45.57346" lon="6.78847">
        <ele>1856.649</ele>
        <time>2021-03-13T09:55:28Z</time>
      </trkpt>
      <trkpt lat="45.57347" lon="6.7885">
        <ele>1856.071</ele>
        <time>2021-03-13T09:55:33Z</time>
      </trkpt>
      <trkpt lat="45.57348" lon="6.78854">
        <ele>1856.194</ele>
        <time>2021-03-13T09:55:38Z</time>
      </trkpt>
      <trkpt lat="45.57349" lon="6.78858">
        <ele>1855.844</ele>
        <time>2021-03-13T09:55:43Z</time>
      </trkpt>
      <trkpt lat="45.5735" lon="6.78862">
        <ele>1857.068</ele>
        <time>2021-03-13T09:55:48Z</time>
      </trkpt>
      <trkpt lat="45.57351" lon="6.78866">
        <ele>1858.493</ele>
        <time>2021-03-13T09:55:53Z</time>
      </trkpt>
      <trkpt lat="45.57351" lon="6.78869">
        <ele>1858.946</ele>
        <time>2021-03-13T09:55:58Z</time>
      </trkpt>
      <trkpt lat="45.57351" lon="6.78873">
        <ele>1860.199</ele>
        <time>2021-03-13T09:56:03Z</time>
      </trkpt>
      <trkpt lat="45.57352" lon="6.78874">
        <ele>1860.417</ele>
        <time>2021-03-13T09:56:08Z</time>
      </trkpt>
      <trkpt lat="45.57352" lon="6.78877">
        <ele>1860.124</ele>
        <time>2021-03-13T09:56:13Z</time>
      </trkpt>
      <trkpt lat="45.57353" lon="6.78881">
        <ele>1860.279</ele>
        <time>2021-03-13T09:56:18Z</time>
      </trkpt>
      <trkpt lat="45.57353" lon="6.78885">
        <ele>1860.546</ele>
        <time>2021-03-13T09:56:23Z</time>
      </trkpt>
      <trkpt lat="45.57354" lon="6.7889">
        <ele>1860.736</ele>
        <time>2021-03-13T09:56:28Z</time>
      </trkpt>
      <trkpt lat="45.57355" lon="6.78894">
        <ele>1862.207</ele>
        <time>2021-03-13T09:56:33Z</time>
      </trkpt>
      <trkpt lat="45.57356" lon="6.78899">
        <ele>1862.227</ele>
        <time>2021-03-13T09:56:38Z</time>
      </trkpt>
      <trkpt lat="45.57356" lon="6.78903">
        <ele>1862.479</ele>
        <time>2021-03-13T09:56:43Z</time>
      </trkpt>
      <trkpt lat="45.57357" lon="6.78904">
        <ele>1861.647</ele>
        <time>2021-03-13T09:56:48Z</time>
      </trkpt>
      <trkpt lat="45.57356" lon="6.78904">
        <ele>1862.788</ele>
        <time>2021-03-13T09:56:53Z</time>
      </trkpt>
      <trkpt lat="45.57356" lon="6.78904">
        <ele>1862.815</ele>
        <time>2021-03-13T09:56:58Z</time>
      </trkpt>
      <trkpt lat="45.57356" lon="6.78904">
        <ele>1862.811</ele>
        <time>2021-03-13T09:57:03Z</time>
      </trkpt>
      <trkpt lat="45.57356" lon="6.78904">
        <ele>1862.806</ele>
        <time>2021-03-13T09:57:08Z</time>
      </trkpt>
      <trkpt lat="45.57356" lon="6.78906">
        <ele>1863.191</ele>
        <time>2021-03-13T09:57:13Z</time>
      </trkpt>
      <trkpt lat="45.57355" lon="6.7891">
        <ele>1863.217</ele>
        <time>2021-03-13T09:57:18Z</time>
      </trkpt>
      <trkpt lat="45.57355" lon="6.78911">
        <ele>1863.589</ele>
        <time>2021-03-13T09:57:23Z</time>
      </trkpt>
      <trkpt lat="45.57352" lon="6.78915">
        <ele>1862.925</ele>
        <time>2021-03-13T09:57:28Z</time>
      </trkpt>
      <trkpt lat="45.57351" lon="6.78919">
        <ele>1862.964</ele>
        <time>2021-03-13T09:57:33Z</time>
      </trkpt>
      <trkpt lat="45.57348" lon="6.78922">
        <ele>1864.337</ele>
        <time>2021-03-13T09:57:38Z</time>
      </trkpt>
      <trkpt lat="45.57345" lon="6.78924">
        <ele>1865.268</ele>
        <time>2021-03-13T09:57:43Z</time>
      </trkpt>
      <trkpt lat="45.57346" lon="6.78923">
        <ele>1864.209</ele>
        <time>2021-03-13T09:57:48Z</time>
      </trkpt>
      <trkpt lat="45.57345" lon="6.78924">
        <ele>1863.996</ele>
        <time>2021-03-13T09:57:53Z</time>
      </trkpt>
      <trkpt lat="45.57345" lon="6.78925">
        <ele>1863.922</ele>
        <time>2021-03-13T09:57:58Z</time>
      </trkpt>
      <trkpt lat="45.57343" lon="6.78928">
        <ele>1864.396</ele>
        <time>2021-03-13T09:58:03Z</time>
      </trkpt>
      <trkpt lat="45.57339" lon="6.7893">
        <ele>1866.051</ele>
        <time>2021-03-13T09:58:08Z</time>
      </trkpt>
      <trkpt lat="45.57337" lon="6.78931">
        <ele>1865.847</ele>
        <time>2021-03-13T09:58:13Z</time>
      </trkpt>
      <trkpt lat="45.57336" lon="6.78931">
        <ele>1866.363</ele>
        <time>2021-03-13T09:58:18Z</time>
      </trkpt>
      <trkpt lat="45.57336" lon="6.78931">
        <ele>1867.397</ele>
        <time>2021-03-13T09:58:23Z</time>
      </trkpt>
      <trkpt lat="45.57334" lon="6.78933">
        <ele>1868.123</ele>
        <time>2021-03-13T09:58:28Z</time>
      </trkpt>
      <trkpt lat="45.57331" lon="6.78933">
        <ele>1868.143</ele>
        <time>2021-03-13T09:58:33Z</time>
      </trkpt>
      <trkpt lat="45.57329" lon="6.78936">
        <ele>1868.796</ele>
        <time>2021-03-13T09:58:38Z</time>
      </trkpt>
      <trkpt lat="45.57327" lon="6.78938">
        <ele>1870.058</ele>
        <time>2021-03-13T09:58:43Z</time>
      </trkpt>
      <trkpt lat="45.57324" lon="6.78942">
        <ele>1871.357</ele>
        <time>2021-03-13T09:58:48Z</time>
      </trkpt>
      <trkpt lat="45.57322" lon="6.78946">
        <ele>1871.968</ele>
        <time>2021-03-13T09:58:53Z</time>
      </trkpt>
      <trkpt lat="45.57322" lon="6.78951">
        <ele>1873.182</ele>
        <time>2021-03-13T09:58:58Z</time>
      </trkpt>
      <trkpt lat="45.57322" lon="6.78954">
        <ele>1873.693</ele>
        <time>2021-03-13T09:59:03Z</time>
      </trkpt>
      <trkpt lat="45.57322" lon="6.78957">
        <ele>1874.405</ele>
        <time>2021-03-13T09:59:08Z</time>
      </trkpt>
      <trkpt lat="45.57321" lon="6.78961">
        <ele>1875.572</ele>
        <time>2021-03-13T09:59:13Z</time>
      </trkpt>
      <trkpt lat="45.57321" lon="6.78963">
        <ele>1875.949</ele>
        <time>2021-03-13T09:59:18Z</time>
      </trkpt>
      <trkpt lat="45.57321" lon="6.78967">
        <ele>1876.741</ele>
        <time>2021-03-13T09:59:23Z</time>
      </trkpt>
      <trkpt lat="45.5732" lon="6.78972">
        <ele>1877.143</ele>
        <time>2021-03-13T09:59:28Z</time>
      </trkpt>
      <trkpt lat="45.57318" lon="6.78974">
        <ele>1879.587</ele>
        <time>2021-03-13T09:59:33Z</time>
      </trkpt>
      <trkpt lat="45.57318" lon="6.78974">
        <ele>1880.112</ele>
        <time>2021-03-13T09:59:38Z</time>
      </trkpt>
      <trkpt lat="45.57318" lon="6.78973">
        <ele>1880.301</ele>
        <time>2021-03-13T09:59:43Z</time>
      </trkpt>
      <trkpt lat="45.57319" lon="6.78973">
        <ele>1880.309</ele>
        <time>2021-03-13T09:59:48Z</time>
      </trkpt>
      <trkpt lat="45.57319" lon="6.78973">
        <ele>1880.3</ele>
        <time>2021-03-13T09:59:53Z</time>
      </trkpt>
      <trkpt lat="45.57319" lon="6.78973">
        <ele>1880.292</ele>
        <time>2021-03-13T09:59:58Z</time>
      </trkpt>
      <trkpt lat="45.57319" lon="6.78973">
        <ele>1880.313</ele>
        <time>2021-03-13T10:00:03Z</time>
      </trkpt>
      <trkpt lat="45.57319" lon="6.78973">
        <ele>1880.311</ele>
        <time>2021-03-13T10:00:08Z</time>
      </trkpt>
      <trkpt lat="45.57319" lon="6.78973">
        <ele>1880.3</ele>
        <time>2021-03-13T10:00:13Z</time>
      </trkpt>
      <trkpt lat="45.57319" lon="6.78973">
        <ele>1880.288</ele>
        <time>2021-03-13T10:00:18Z</time>
      </trkpt>
      <trkpt lat="45.57319" lon="6.78973">
        <ele>1880.278</ele>
        <time>2021-03-13T10:00:23Z</time>
      </trkpt>
      <trkpt lat="45.57319" lon="6.78973">
        <ele>1880.268</ele>
        <time>2021-03-13T10:00:28Z</time>
      </trkpt>
      <trkpt lat="45.57319" lon="6.78973">
        <ele>1880.257</ele>
        <time>2021-03-13T10:00:33Z</time>
      </trkpt>
      <trkpt lat="45.57319" lon="6.78973">
        <ele>1880.249</ele>
        <time>2021-03-13T10:00:38Z</time>
      </trkpt>
      <trkpt lat="45.57318" lon="6.78974">
        <ele>1880.619</ele>
        <time>2021-03-13T10:00:43Z</time>
      </trkpt>
      <trkpt lat="45.57318" lon="6.78975">
        <ele>1880.741</ele>
        <time>2021-03-13T10:00:48Z</time>
      </trkpt>
      <trkpt lat="45.57316" lon="6.7898">
        <ele>1881.3</ele>
        <time>2021-03-13T10:00:53Z</time>
      </trkpt>
      <trkpt lat="45.57316" lon="6.78986">
        <ele>1881.752</ele>
        <time>2021-03-13T10:00:58Z</time>
      </trkpt>
      <trkpt lat="45.57316" lon="6.7899">
        <ele>1881.401</ele>
        <time>2021-03-13T10:01:03Z</time>
      </trkpt>
      <trkpt lat="45.57317" lon="6.78994">
        <ele>1881.46</ele>
        <time>2021-03-13T10:01:08Z</time>
      </trkpt>
      <trkpt lat="45.57316" lon="6.78998">
        <ele>1881.785</ele>
        <time>2021-03-13T10:01:13Z</time>
      </trkpt>
      <trkpt lat="45.57316" lon="6.79004">
        <ele>1882.427</ele>
        <time>2021-03-13T10:01:18Z</time>
      </trkpt>
      <trkpt lat="45.57314" lon="6.79009">
        <ele>1883.633</ele>
        <time>2021-03-13T10:01:23Z</time>
      </trkpt>
      <trkpt lat="45.57313" lon="6.79013">
        <ele>1884.194</ele>
        <time>2021-03-13T10:01:28Z</time>
      </trkpt>
      <trkpt lat="45.57313" lon="6.79017">
        <ele>1885.474</ele>
        <time>2021-03-13T10:01:33Z</time>
      </trkpt>
      <trkpt lat="45.57311" lon="6.79021">
        <ele>1885.71</ele>
        <time>2021-03-13T10:01:38Z</time>
      </trkpt>
      <trkpt lat="45.5731" lon="6.79025">
        <ele>1885.892</ele>
        <time>2021-03-13T10:01:43Z</time>
      </trkpt>
      <trkpt lat="45.57309" lon="6.79029">
        <ele>1886.904</ele>
        <time>2021-03-13T10:01:48Z</time>
      </trkpt>
      <trkpt lat="45.57308" lon="6.79032">
        <ele>1887.242</ele>
        <time>2021-03-13T10:01:53Z</time>
      </trkpt>
      <trkpt lat="45.57307" lon="6.79034">
        <ele>1887.602</ele>
        <time>2021-03-13T10:01:58Z</time>
      </trkpt>
      <trkpt lat="45.57307" lon="6.79035">
        <ele>1887.776</ele>
        <time>2021-03-13T10:02:03Z</time>
      </trkpt>
      <trkpt lat="45.57306" lon="6.79038">
        <ele>1888.119</ele>
        <time>2021-03-13T10:02:08Z</time>
      </trkpt>
      <trkpt lat="45.57305" lon="6.79042">
        <ele>1889.421</ele>
        <time>2021-03-13T10:02:13Z</time>
      </trkpt>
      <trkpt lat="45.57304" lon="6.79045">
        <ele>1889.547</ele>
        <time>2021-03-13T10:02:18Z</time>
      </trkpt>
      <trkpt lat="45.57303" lon="6.79049">
        <ele>1890.18</ele>
        <time>2021-03-13T10:02:23Z</time>
      </trkpt>
      <trkpt lat="45.57302" lon="6.79052">
        <ele>1889.818</ele>
        <time>2021-03-13T10:02:28Z</time>
      </trkpt>
      <trkpt lat="45.57301" lon="6.79055">
        <ele>1890.114</ele>
        <time>2021-03-13T10:02:33Z</time>
      </trkpt>
      <trkpt lat="45.573" lon="6.79059">
        <ele>1890.599</ele>
        <time>2021-03-13T10:02:38Z</time>
      </trkpt>
      <trkpt lat="45.57299" lon="6.79063">
        <ele>1890.147</ele>
        <time>2021-03-13T10:02:43Z</time>
      </trkpt>
      <trkpt lat="45.57298" lon="6.79067">
        <ele>1890.932</ele>
        <time>2021-03-13T10:02:48Z</time>
      </trkpt>
      <trkpt lat="45.57297" lon="6.79071">
        <ele>1891.82</ele>
        <time>2021-03-13T10:02:53Z</time>
      </trkpt>
      <trkpt lat="45.57298" lon="6.79074">
        <ele>1892.05</ele>
        <time>2021-03-13T10:02:58Z</time>
      </trkpt>
      <trkpt lat="45.57297" lon="6.79074">
        <ele>1892.103</ele>
        <time>2021-03-13T10:03:03Z</time>
      </trkpt>
      <trkpt lat="45.57297" lon="6.79075">
        <ele>1892.144</ele>
        <time>2021-03-13T10:03:08Z</time>
      </trkpt>
      <trkpt lat="45.57297" lon="6.79075">
        <ele>1892.27</ele>
        <time>2021-03-13T10:03:13Z</time>
      </trkpt>
      <trkpt lat="45.57297" lon="6.79076">
        <ele>1892.581</ele>
        <time>2021-03-13T10:03:18Z</time>
      </trkpt>
      <trkpt lat="45.57298" lon="6.79077">
        <ele>1891.495</ele>
        <time>2021-03-13T10:03:23Z</time>
      </trkpt>
      <trkpt lat="45.57298" lon="6.79077">
        <ele>1890.205</ele>
        <time>2021-03-13T10:03:28Z</time>
      </trkpt>
      <trkpt lat="45.57299" lon="6.79077">
        <ele>1890.089</ele>
        <time>2021-03-13T10:03:33Z</time>
      </trkpt>
      <trkpt lat="45.57299" lon="6.79081">
        <ele>1891.287</ele>
        <time>2021-03-13T10:03:38Z</time>
      </trkpt>
      <trkpt lat="45.57299" lon="6.79085">
        <ele>1892.802</ele>
        <time>2021-03-13T10:03:43Z</time>
      </trkpt>
      <trkpt lat="45.57299" lon="6.79089">
        <ele>1893.097</ele>
        <time>2021-03-13T10:03:48Z</time>
      </trkpt>
      <trkpt lat="45.573" lon="6.79093">
        <ele>1893.739</ele>
        <time>2021-03-13T10:03:53Z</time>
      </trkpt>
      <trkpt lat="45.573" lon="6.79097">
        <ele>1894.548</ele>
        <time>2021-03-13T10:03:58Z</time>
      </trkpt>
      <trkpt lat="45.573" lon="6.79101">
        <ele>1894.868</ele>
        <time>2021-03-13T10:04:03Z</time>
      </trkpt>
      <trkpt lat="45.573" lon="6.79105">
        <ele>1895.653</ele>
        <time>2021-03-13T10:04:08Z</time>
      </trkpt>
      <trkpt lat="45.573" lon="6.79109">
        <ele>1896.072</ele>
        <time>2021-03-13T10:04:13Z</time>
      </trkpt>
      <trkpt lat="45.573" lon="6.79112">
        <ele>1897.053</ele>
        <time>2021-03-13T10:04:18Z</time>
      </trkpt>
      <trkpt lat="45.573" lon="6.79115">
        <ele>1897.923</ele>
        <time>2021-03-13T10:04:23Z</time>
      </trkpt>
      <trkpt lat="45.573" lon="6.79119">
        <ele>1898.797</ele>
        <time>2021-03-13T10:04:28Z</time>
      </trkpt>
      <trkpt lat="45.573" lon="6.79123">
        <ele>1899.437</ele>
        <time>2021-03-13T10:04:33Z</time>
      </trkpt>
      <trkpt lat="45.573" lon="6.79126">
        <ele>1900.438</ele>
        <time>2021-03-13T10:04:38Z</time>
      </trkpt>
      <trkpt lat="45.573" lon="6.79129">
        <ele>1901.298</ele>
        <time>2021-03-13T10:04:43Z</time>
      </trkpt>
      <trkpt lat="45.573" lon="6.79131">
        <ele>1902.003</ele>
        <time>2021-03-13T10:04:48Z</time>
      </trkpt>
      <trkpt lat="45.57301" lon="6.79135">
        <ele>1903.448</ele>
        <time>2021-03-13T10:04:53Z</time>
      </trkpt>
      <trkpt lat="45.57301" lon="6.79138">
        <ele>1904.156</ele>
        <time>2021-03-13T10:04:58Z</time>
      </trkpt>
      <trkpt lat="45.573" lon="6.79141">
        <ele>1904.587</ele>
        <time>2021-03-13T10:05:03Z</time>
      </trkpt>
      <trkpt lat="45.57299" lon="6.79144">
        <ele>1905.295</ele>
        <time>2021-03-13T10:05:08Z</time>
      </trkpt>
      <trkpt lat="45.57299" lon="6.79148">
        <ele>1906.147</ele>
        <time>2021-03-13T10:05:13Z</time>
      </trkpt>
      <trkpt lat="45.57299" lon="6.79151">
        <ele>1907.091</ele>
        <time>2021-03-13T10:05:18Z</time>
      </trkpt>
      <trkpt lat="45.57299" lon="6.79155">
        <ele>1908.857</ele>
        <time>2021-03-13T10:05:23Z</time>
      </trkpt>
      <trkpt lat="45.57298" lon="6.79158">
        <ele>1910.462</ele>
        <time>2021-03-13T10:05:28Z</time>
      </trkpt>
      <trkpt lat="45.57297" lon="6.79162">
        <ele>1911.804</ele>
        <time>2021-03-13T10:05:33Z</time>
      </trkpt>
      <trkpt lat="45.57297" lon="6.79166">
        <ele>1912.948</ele>
        <time>2021-03-13T10:05:38Z</time>
      </trkpt>
      <trkpt lat="45.57296" lon="6.79168">
        <ele>1913.484</ele>
        <time>2021-03-13T10:05:43Z</time>
      </trkpt>
      <trkpt lat="45.57295" lon="6.79171">
        <ele>1914.666</ele>
        <time>2021-03-13T10:05:48Z</time>
      </trkpt>
      <trkpt lat="45.57294" lon="6.7917">
        <ele>1914.968</ele>
        <time>2021-03-13T10:05:53Z</time>
      </trkpt>
      <trkpt lat="45.57294" lon="6.79171">
        <ele>1914.722</ele>
        <time>2021-03-13T10:05:58Z</time>
      </trkpt>
      <trkpt lat="45.57295" lon="6.7917">
        <ele>1914.694</ele>
        <time>2021-03-13T10:06:03Z</time>
      </trkpt>
      <trkpt lat="45.57294" lon="6.79171">
        <ele>1913.828</ele>
        <time>2021-03-13T10:06:08Z</time>
      </trkpt>
      <trkpt lat="45.57294" lon="6.79171">
        <ele>1914.655</ele>
        <time>2021-03-13T10:06:13Z</time>
      </trkpt>
      <trkpt lat="45.57294" lon="6.7917">
        <ele>1914.844</ele>
        <time>2021-03-13T10:06:18Z</time>
      </trkpt>
      <trkpt lat="45.57292" lon="6.79171">
        <ele>1915.263</ele>
        <time>2021-03-13T10:06:23Z</time>
      </trkpt>
      <trkpt lat="45.57289" lon="6.79171">
        <ele>1915.557</ele>
        <time>2021-03-13T10:06:28Z</time>
      </trkpt>
      <trkpt lat="45.57285" lon="6.79172">
        <ele>1916.268</ele>
        <time>2021-03-13T10:06:33Z</time>
      </trkpt>
      <trkpt lat="45.57282" lon="6.79173">
        <ele>1917.255</ele>
        <time>2021-03-13T10:06:38Z</time>
      </trkpt>
      <trkpt lat="45.57278" lon="6.79175">
        <ele>1917.618</ele>
        <time>2021-03-13T10:06:43Z</time>
      </trkpt>
      <trkpt lat="45.57276" lon="6.79176">
        <ele>1918.051</ele>
        <time>2021-03-13T10:06:48Z</time>
      </trkpt>
      <trkpt lat="45.57273" lon="6.79179">
        <ele>1918.783</ele>
        <time>2021-03-13T10:06:54Z</time>
      </trkpt>
      <trkpt lat="45.57271" lon="6.79181">
        <ele>1919.37</ele>
        <time>2021-03-13T10:06:59Z</time>
      </trkpt>
      <trkpt lat="45.57268" lon="6.79183">
        <ele>1919.584</ele>
        <time>2021-03-13T10:07:04Z</time>
      </trkpt>
      <trkpt lat="45.57265" lon="6.79184">
        <ele>1920.432</ele>
        <time>2021-03-13T10:07:09Z</time>
      </trkpt>
      <trkpt lat="45.57263" lon="6.79186">
        <ele>1919.922</ele>
        <time>2021-03-13T10:07:14Z</time>
      </trkpt>
      <trkpt lat="45.57261" lon="6.7919">
        <ele>1920.945</ele>
        <time>2021-03-13T10:07:19Z</time>
      </trkpt>
      <trkpt lat="45.57261" lon="6.79193">
        <ele>1921.075</ele>
        <time>2021-03-13T10:07:24Z</time>
      </trkpt>
      <trkpt lat="45.5726" lon="6.79195">
        <ele>1921.064</ele>
        <time>2021-03-13T10:07:29Z</time>
      </trkpt>
      <trkpt lat="45.5726" lon="6.79195">
        <ele>1921.671</ele>
        <time>2021-03-13T10:07:34Z</time>
      </trkpt>
      <trkpt lat="45.57261" lon="6.79195">
        <ele>1921.928</ele>
        <time>2021-03-13T10:07:39Z</time>
      </trkpt>
      <trkpt lat="45.57261" lon="6.79195">
        <ele>1921.913</ele>
        <time>2021-03-13T10:07:44Z</time>
      </trkpt>
      <trkpt lat="45.5726" lon="6.79196">
        <ele>1922.294</ele>
        <time>2021-03-13T10:07:49Z</time>
      </trkpt>
      <trkpt lat="45.57261" lon="6.79201">
        <ele>1922.177</ele>
        <time>2021-03-13T10:07:54Z</time>
      </trkpt>
      <trkpt lat="45.57262" lon="6.79205">
        <ele>1924.559</ele>
        <time>2021-03-13T10:07:59Z</time>
      </trkpt>
      <trkpt lat="45.57263" lon="6.79208">
        <ele>1926.127</ele>
        <time>2021-03-13T10:08:04Z</time>
      </trkpt>
      <trkpt lat="45.57262" lon="6.79208">
        <ele>1925.806</ele>
        <time>2021-03-13T10:08:09Z</time>
      </trkpt>
      <trkpt lat="45.57262" lon="6.79209">
        <ele>1925.364</ele>
        <time>2021-03-13T10:08:14Z</time>
      </trkpt>
      <trkpt lat="45.57262" lon="6.79209">
        <ele>1925.367</ele>
        <time>2021-03-13T10:08:19Z</time>
      </trkpt>
      <trkpt lat="45.57262" lon="6.79209">
        <ele>1925.361</ele>
        <time>2021-03-13T10:08:24Z</time>
      </trkpt>
      <trkpt lat="45.57262" lon="6.79208">
        <ele>1924.366</ele>
        <time>2021-03-13T10:08:29Z</time>
      </trkpt>
      <trkpt lat="45.57263" lon="6.79211">
        <ele>1924.799</ele>
        <time>2021-03-13T10:08:34Z</time>
      </trkpt>
      <trkpt lat="45.57264" lon="6.79215">
        <ele>1924.557</ele>
        <time>2021-03-13T10:08:39Z</time>
      </trkpt>
      <trkpt lat="45.57265" lon="6.79219">
        <ele>1924.78</ele>
        <time>2021-03-13T10:08:44Z</time>
      </trkpt>
      <trkpt lat="45.57266" lon="6.79223">
        <ele>1925.072</ele>
        <time>2021-03-13T10:08:49Z</time>
      </trkpt>
      <trkpt lat="45.57267" lon="6.79226">
        <ele>1925.568</ele>
        <time>2021-03-13T10:08:54Z</time>
      </trkpt>
      <trkpt lat="45.57269" lon="6.7923">
        <ele>1926.601</ele>
        <time>2021-03-13T10:08:59Z</time>
      </trkpt>
      <trkpt lat="45.57269" lon="6.79231">
        <ele>1926.469</ele>
        <time>2021-03-13T10:09:04Z</time>
      </trkpt>
      <trkpt lat="45.57269" lon="6.79231">
        <ele>1926.828</ele>
        <time>2021-03-13T10:09:09Z</time>
      </trkpt>
      <trkpt lat="45.57269" lon="6.79232">
        <ele>1926.708</ele>
        <time>2021-03-13T10:09:14Z</time>
      </trkpt>
      <trkpt lat="45.57269" lon="6.79232">
        <ele>1926.689</ele>
        <time>2021-03-13T10:09:19Z</time>
      </trkpt>
      <trkpt lat="45.57269" lon="6.79232">
        <ele>1926.68</ele>
        <time>2021-03-13T10:09:24Z</time>
      </trkpt>
      <trkpt lat="45.5727" lon="6.79232">
        <ele>1926.986</ele>
        <time>2021-03-13T10:09:29Z</time>
      </trkpt>
      <trkpt lat="45.57269" lon="6.79233">
        <ele>1927.893</ele>
        <time>2021-03-13T10:09:34Z</time>
      </trkpt>
      <trkpt lat="45.5727" lon="6.79236">
        <ele>1928.227</ele>
        <time>2021-03-13T10:09:39Z</time>
      </trkpt>
      <trkpt lat="45.57271" lon="6.7924">
        <ele>1928.499</ele>
        <time>2021-03-13T10:09:44Z</time>
      </trkpt>
      <trkpt lat="45.57272" lon="6.79245">
        <ele>1928.835</ele>
        <time>2021-03-13T10:09:49Z</time>
      </trkpt>
      <trkpt lat="45.57273" lon="6.79249">
        <ele>1928.506</ele>
        <time>2021-03-13T10:09:54Z</time>
      </trkpt>
      <trkpt lat="45.57273" lon="6.79253">
        <ele>1929.055</ele>
        <time>2021-03-13T10:09:59Z</time>
      </trkpt>
      <trkpt lat="45.57274" lon="6.79257">
        <ele>1929.824</ele>
        <time>2021-03-13T10:10:04Z</time>
      </trkpt>
      <trkpt lat="45.57274" lon="6.7926">
        <ele>1931.252</ele>
        <time>2021-03-13T10:10:09Z</time>
      </trkpt>
      <trkpt lat="45.57275" lon="6.79264">
        <ele>1931.108</ele>
        <time>2021-03-13T10:10:14Z</time>
      </trkpt>
      <trkpt lat="45.57275" lon="6.79268">
        <ele>1931.759</ele>
        <time>2021-03-13T10:10:19Z</time>
      </trkpt>
      <trkpt lat="45.57275" lon="6.79271">
        <ele>1932.396</ele>
        <time>2021-03-13T10:10:24Z</time>
      </trkpt>
      <trkpt lat="45.57276" lon="6.79274">
        <ele>1932.428</ele>
        <time>2021-03-13T10:10:29Z</time>
      </trkpt>
      <trkpt lat="45.57277" lon="6.79278">
        <ele>1932.869</ele>
        <time>2021-03-13T10:10:34Z</time>
      </trkpt>
      <trkpt lat="45.57277" lon="6.7928">
        <ele>1933.233</ele>
        <time>2021-03-13T10:10:39Z</time>
      </trkpt>
      <trkpt lat="45.57277" lon="6.79283">
        <ele>1934.088</ele>
        <time>2021-03-13T10:10:44Z</time>
      </trkpt>
      <trkpt lat="45.57277" lon="6.79287">
        <ele>1935.314</ele>
        <time>2021-03-13T10:10:49Z</time>
      </trkpt>
      <trkpt lat="45.57277" lon="6.7929">
        <ele>1936.092</ele>
        <time>2021-03-13T10:10:54Z</time>
      </trkpt>
      <trkpt lat="45.57277" lon="6.79293">
        <ele>1937.694</ele>
        <time>2021-03-13T10:10:59Z</time>
      </trkpt>
      <trkpt lat="45.57277" lon="6.79296">
        <ele>1938.524</ele>
        <time>2021-03-13T10:11:04Z</time>
      </trkpt>
      <trkpt lat="45.57276" lon="6.793">
        <ele>1939.605</ele>
        <time>2021-03-13T10:11:09Z</time>
      </trkpt>
      <trkpt lat="45.57276" lon="6.79303">
        <ele>1940.528</ele>
        <time>2021-03-13T10:11:14Z</time>
      </trkpt>
      <trkpt lat="45.57276" lon="6.79307">
        <ele>1940.64</ele>
        <time>2021-03-13T10:11:19Z</time>
      </trkpt>
      <trkpt lat="45.57275" lon="6.7931">
        <ele>1941.885</ele>
        <time>2021-03-13T10:11:24Z</time>
      </trkpt>
      <trkpt lat="45.57273" lon="6.79313">
        <ele>1941.922</ele>
        <time>2021-03-13T10:11:29Z</time>
      </trkpt>
      <trkpt lat="45.57272" lon="6.79316">
        <ele>1943.985</ele>
        <time>2021-03-13T10:11:34Z</time>
      </trkpt>
      <trkpt lat="45.5727" lon="6.79319">
        <ele>1945.187</ele>
        <time>2021-03-13T10:11:39Z</time>
      </trkpt>
      <trkpt lat="45.57268" lon="6.7932">
        <ele>1945.935</ele>
        <time>2021-03-13T10:11:44Z</time>
      </trkpt>
      <trkpt lat="45.57268" lon="6.7932">
        <ele>1945.826</ele>
        <time>2021-03-13T10:11:49Z</time>
      </trkpt>
      <trkpt lat="45.57267" lon="6.79321">
        <ele>1947.211</ele>
        <time>2021-03-13T10:11:54Z</time>
      </trkpt>
      <trkpt lat="45.57262" lon="6.79322">
        <ele>1949.178</ele>
        <time>2021-03-13T10:11:59Z</time>
      </trkpt>
      <trkpt lat="45.5726" lon="6.79322">
        <ele>1950.223</ele>
        <time>2021-03-13T10:12:04Z</time>
      </trkpt>
      <trkpt lat="45.57258" lon="6.79322">
        <ele>1950.601</ele>
        <time>2021-03-13T10:12:09Z</time>
      </trkpt>
      <trkpt lat="45.57254" lon="6.79321">
        <ele>1951.214</ele>
        <time>2021-03-13T10:12:14Z</time>
      </trkpt>
      <trkpt lat="45.57252" lon="6.79321">
        <ele>1951.281</ele>
        <time>2021-03-13T10:12:19Z</time>
      </trkpt>
      <trkpt lat="45.57248" lon="6.7932">
        <ele>1952.062</ele>
        <time>2021-03-13T10:12:24Z</time>
      </trkpt>
      <trkpt lat="45.57245" lon="6.79319">
        <ele>1952.458</ele>
        <time>2021-03-13T10:12:29Z</time>
      </trkpt>
      <trkpt lat="45.57244" lon="6.79319">
        <ele>1952.157</ele>
        <time>2021-03-13T10:12:34Z</time>
      </trkpt>
      <trkpt lat="45.57243" lon="6.79319">
        <ele>1951.241</ele>
        <time>2021-03-13T10:12:39Z</time>
      </trkpt>
      <trkpt lat="45.5724" lon="6.79319">
        <ele>1951.442</ele>
        <time>2021-03-13T10:12:44Z</time>
      </trkpt>
      <trkpt lat="45.57235" lon="6.79318">
        <ele>1952.045</ele>
        <time>2021-03-13T10:12:49Z</time>
      </trkpt>
      <trkpt lat="45.57229" lon="6.79317">
        <ele>1952.32</ele>
        <time>2021-03-13T10:12:54Z</time>
      </trkpt>
      <trkpt lat="45.57224" lon="6.79315">
        <ele>1952.471</ele>
        <time>2021-03-13T10:12:59Z</time>
      </trkpt>
      <trkpt lat="45.57224" lon="6.79315">
        <ele>1952.311</ele>
        <time>2021-03-13T10:13:04Z</time>
      </trkpt>
      <trkpt lat="45.57222" lon="6.79314">
        <ele>1953.615</ele>
        <time>2021-03-13T10:13:09Z</time>
      </trkpt>
      <trkpt lat="45.57221" lon="6.79314">
        <ele>1953.788</ele>
        <time>2021-03-13T10:13:14Z</time>
      </trkpt>
      <trkpt lat="45.57219" lon="6.79313">
        <ele>1953.749</ele>
        <time>2021-03-13T10:13:19Z</time>
      </trkpt>
      <trkpt lat="45.57219" lon="6.79313">
        <ele>1954.355</ele>
        <time>2021-03-13T10:13:24Z</time>
      </trkpt>
      <trkpt lat="45.57222" lon="6.79311">
        <ele>1954.751</ele>
        <time>2021-03-13T10:13:29Z</time>
      </trkpt>
      <trkpt lat="45.57222" lon="6.79311">
        <ele>1954.995</ele>
        <time>2021-03-13T10:13:34Z</time>
      </trkpt>
      <trkpt lat="45.57222" lon="6.7931">
        <ele>1955.232</ele>
        <time>2021-03-13T10:13:39Z</time>
      </trkpt>
      <trkpt lat="45.57219" lon="6.79308">
        <ele>1955.324</ele>
        <time>2021-03-13T10:13:44Z</time>
      </trkpt>
      <trkpt lat="45.57215" lon="6.79306">
        <ele>1955.567</ele>
        <time>2021-03-13T10:13:49Z</time>
      </trkpt>
      <trkpt lat="45.57212" lon="6.79306">
        <ele>1955.238</ele>
        <time>2021-03-13T10:13:54Z</time>
      </trkpt>
      <trkpt lat="45.57209" lon="6.79306">
        <ele>1954.877</ele>
        <time>2021-03-13T10:13:59Z</time>
      </trkpt>
      <trkpt lat="45.57205" lon="6.79306">
        <ele>1954.972</ele>
        <time>2021-03-13T10:14:04Z</time>
      </trkpt>
      <trkpt lat="45.57203" lon="6.79307">
        <ele>1955.898</ele>
        <time>2021-03-13T10:14:09Z</time>
      </trkpt>
      <trkpt lat="45.57199" lon="6.79304">
        <ele>1956.635</ele>
        <time>2021-03-13T10:14:14Z</time>
      </trkpt>
      <trkpt lat="45.57198" lon="6.79303">
        <ele>1956.5</ele>
        <time>2021-03-13T10:14:19Z</time>
      </trkpt>
      <trkpt lat="45.57197" lon="6.79303">
        <ele>1956.477</ele>
        <time>2021-03-13T10:14:24Z</time>
      </trkpt>
      <trkpt lat="45.57194" lon="6.79304">
        <ele>1956.795</ele>
        <time>2021-03-13T10:14:29Z</time>
      </trkpt>
      <trkpt lat="45.57191" lon="6.79303">
        <ele>1957.321</ele>
        <time>2021-03-13T10:14:34Z</time>
      </trkpt>
      <trkpt lat="45.57187" lon="6.79302">
        <ele>1957.946</ele>
        <time>2021-03-13T10:14:39Z</time>
      </trkpt>
      <trkpt lat="45.57185" lon="6.79301">
        <ele>1957.822</ele>
        <time>2021-03-13T10:14:44Z</time>
      </trkpt>
      <trkpt lat="45.57185" lon="6.79301">
        <ele>1958.23</ele>
        <time>2021-03-13T10:14:49Z</time>
      </trkpt>
      <trkpt lat="45.57184" lon="6.79301">
        <ele>1958.186</ele>
        <time>2021-03-13T10:14:54Z</time>
      </trkpt>
      <trkpt lat="45.57182" lon="6.793">
        <ele>1958.959</ele>
        <time>2021-03-13T10:14:59Z</time>
      </trkpt>
      <trkpt lat="45.5718" lon="6.793">
        <ele>1959.047</ele>
        <time>2021-03-13T10:15:04Z</time>
      </trkpt>
      <trkpt lat="45.5718" lon="6.79301">
        <ele>1958.596</ele>
        <time>2021-03-13T10:15:09Z</time>
      </trkpt>
      <trkpt lat="45.57178" lon="6.79301">
        <ele>1958.26</ele>
        <time>2021-03-13T10:15:14Z</time>
      </trkpt>
      <trkpt lat="45.57178" lon="6.79302">
        <ele>1958.916</ele>
        <time>2021-03-13T10:15:19Z</time>
      </trkpt>
      <trkpt lat="45.57175" lon="6.79301">
        <ele>1959.43</ele>
        <time>2021-03-13T10:15:24Z</time>
      </trkpt>
      <trkpt lat="45.57173" lon="6.79301">
        <ele>1959.868</ele>
        <time>2021-03-13T10:15:29Z</time>
      </trkpt>
      <trkpt lat="45.57173" lon="6.793">
        <ele>1959.479</ele>
        <time>2021-03-13T10:15:34Z</time>
      </trkpt>
      <trkpt lat="45.57169" lon="6.793">
        <ele>1959.969</ele>
        <time>2021-03-13T10:15:39Z</time>
      </trkpt>
      <trkpt lat="45.57166" lon="6.79301">
        <ele>1959.956</ele>
        <time>2021-03-13T10:15:44Z</time>
      </trkpt>
      <trkpt lat="45.57163" lon="6.79302">
        <ele>1961.043</ele>
        <time>2021-03-13T10:15:49Z</time>
      </trkpt>
      <trkpt lat="45.57162" lon="6.79301">
        <ele>1961.121</ele>
        <time>2021-03-13T10:15:54Z</time>
      </trkpt>
      <trkpt lat="45.57161" lon="6.79301">
        <ele>1961.044</ele>
        <time>2021-03-13T10:15:59Z</time>
      </trkpt>
      <trkpt lat="45.57158" lon="6.79301">
        <ele>1961.786</ele>
        <time>2021-03-13T10:16:04Z</time>
      </trkpt>
      <trkpt lat="45.57155" lon="6.79302">
        <ele>1962.578</ele>
        <time>2021-03-13T10:16:09Z</time>
      </trkpt>
      <trkpt lat="45.57154" lon="6.79301">
        <ele>1963.39</ele>
        <time>2021-03-13T10:16:14Z</time>
      </trkpt>
      <trkpt lat="45.57154" lon="6.79302">
        <ele>1963.805</ele>
        <time>2021-03-13T10:16:19Z</time>
      </trkpt>
      <trkpt lat="45.57153" lon="6.79301">
        <ele>1962.895</ele>
        <time>2021-03-13T10:16:24Z</time>
      </trkpt>
      <trkpt lat="45.57152" lon="6.79301">
        <ele>1963.598</ele>
        <time>2021-03-13T10:16:29Z</time>
      </trkpt>
      <trkpt lat="45.57152" lon="6.79301">
        <ele>1963.394</ele>
        <time>2021-03-13T10:16:34Z</time>
      </trkpt>
      <trkpt lat="45.57152" lon="6.79301">
        <ele>1962.61</ele>
        <time>2021-03-13T10:16:39Z</time>
      </trkpt>
      <trkpt lat="45.57152" lon="6.79302">
        <ele>1962.566</ele>
        <time>2021-03-13T10:16:44Z</time>
      </trkpt>
      <trkpt lat="45.57151" lon="6.79302">
        <ele>1961.714</ele>
        <time>2021-03-13T10:16:49Z</time>
      </trkpt>
      <trkpt lat="45.57149" lon="6.79302">
        <ele>1962.423</ele>
        <time>2021-03-13T10:16:54Z</time>
      </trkpt>
      <trkpt lat="45.57146" lon="6.79303">
        <ele>1962.016</ele>
        <time>2021-03-13T10:16:59Z</time>
      </trkpt>
      <trkpt lat="45.57143" lon="6.79303">
        <ele>1962.068</ele>
        <time>2021-03-13T10:17:04Z</time>
      </trkpt>
      <trkpt lat="45.57139" lon="6.79303">
        <ele>1963.169</ele>
        <time>2021-03-13T10:17:09Z</time>
      </trkpt>
      <trkpt lat="45.57135" lon="6.79304">
        <ele>1964.447</ele>
        <time>2021-03-13T10:17:14Z</time>
      </trkpt>
      <trkpt lat="45.57132" lon="6.79305">
        <ele>1965.174</ele>
        <time>2021-03-13T10:17:19Z</time>
      </trkpt>
      <trkpt lat="45.57132" lon="6.79306">
        <ele>1964.846</ele>
        <time>2021-03-13T10:17:24Z</time>
      </trkpt>
      <trkpt lat="45.57131" lon="6.79307">
        <ele>1964.151</ele>
        <time>2021-03-13T10:17:29Z</time>
      </trkpt>
      <trkpt lat="45.57129" lon="6.79308">
        <ele>1964.495</ele>
        <time>2021-03-13T10:17:34Z</time>
      </trkpt>
      <trkpt lat="45.57129" lon="6.79308">
        <ele>1963.973</ele>
        <time>2021-03-13T10:17:39Z</time>
      </trkpt>
      <trkpt lat="45.57128" lon="6.79308">
        <ele>1963.487</ele>
        <time>2021-03-13T10:17:44Z</time>
      </trkpt>
      <trkpt lat="45.57128" lon="6.79308">
        <ele>1963.24</ele>
        <time>2021-03-13T10:17:49Z</time>
      </trkpt>
      <trkpt lat="45.57128" lon="6.79308">
        <ele>1963.903</ele>
        <time>2021-03-13T10:17:54Z</time>
      </trkpt>
      <trkpt lat="45.57127" lon="6.79308">
        <ele>1963.74</ele>
        <time>2021-03-13T10:17:59Z</time>
      </trkpt>
      <trkpt lat="45.57126" lon="6.79309">
        <ele>1963.961</ele>
        <time>2021-03-13T10:18:04Z</time>
      </trkpt>
      <trkpt lat="45.57123" lon="6.7931">
        <ele>1964.674</ele>
        <time>2021-03-13T10:18:09Z</time>
      </trkpt>
      <trkpt lat="45.5712" lon="6.79311">
        <ele>1965.509</ele>
        <time>2021-03-13T10:18:14Z</time>
      </trkpt>
      <trkpt lat="45.57117" lon="6.79313">
        <ele>1966.28</ele>
        <time>2021-03-13T10:18:19Z</time>
      </trkpt>
      <trkpt lat="45.57115" lon="6.79313">
        <ele>1966.319</ele>
        <time>2021-03-13T10:18:24Z</time>
      </trkpt>
      <trkpt lat="45.57113" lon="6.79314">
        <ele>1967.027</ele>
        <time>2021-03-13T10:18:29Z</time>
      </trkpt>
      <trkpt lat="45.5711" lon="6.79316">
        <ele>1967.81</ele>
        <time>2021-03-13T10:18:34Z</time>
      </trkpt>
      <trkpt lat="45.57108" lon="6.79317">
        <ele>1968.454</ele>
        <time>2021-03-13T10:18:39Z</time>
      </trkpt>
      <trkpt lat="45.57106" lon="6.79318">
        <ele>1969.72</ele>
        <time>2021-03-13T10:18:44Z</time>
      </trkpt>
      <trkpt lat="45.57103" lon="6.79319">
        <ele>1970.598</ele>
        <time>2021-03-13T10:18:49Z</time>
      </trkpt>
      <trkpt lat="45.571" lon="6.7932">
        <ele>1971.881</ele>
        <time>2021-03-13T10:18:54Z</time>
      </trkpt>
      <trkpt lat="45.57097" lon="6.79321">
        <ele>1972.979</ele>
        <time>2021-03-13T10:18:59Z</time>
      </trkpt>
      <trkpt lat="45.57095" lon="6.79322">
        <ele>1973.759</ele>
        <time>2021-03-13T10:19:04Z</time>
      </trkpt>
      <trkpt lat="45.57092" lon="6.79323">
        <ele>1974.969</ele>
        <time>2021-03-13T10:19:09Z</time>
      </trkpt>
      <trkpt lat="45.57089" lon="6.79324">
        <ele>1975.7</ele>
        <time>2021-03-13T10:19:14Z</time>
      </trkpt>
      <trkpt lat="45.57086" lon="6.79326">
        <ele>1976.371</ele>
        <time>2021-03-13T10:19:19Z</time>
      </trkpt>
      <trkpt lat="45.57084" lon="6.79328">
        <ele>1976.984</ele>
        <time>2021-03-13T10:19:24Z</time>
      </trkpt>
      <trkpt lat="45.57081" lon="6.79331">
        <ele>1978.131</ele>
        <time>2021-03-13T10:19:29Z</time>
      </trkpt>
      <trkpt lat="45.57079" lon="6.79334">
        <ele>1977.843</ele>
        <time>2021-03-13T10:19:34Z</time>
      </trkpt>
      <trkpt lat="45.57077" lon="6.79336">
        <ele>1977.717</ele>
        <time>2021-03-13T10:19:39Z</time>
      </trkpt>
      <trkpt lat="45.57077" lon="6.79337">
        <ele>1977.575</ele>
        <time>2021-03-13T10:19:44Z</time>
      </trkpt>
      <trkpt lat="45.57077" lon="6.79337">
        <ele>1977.303</ele>
        <time>2021-03-13T10:19:49Z</time>
      </trkpt>
      <trkpt lat="45.57076" lon="6.79337">
        <ele>1977.13</ele>
        <time>2021-03-13T10:19:54Z</time>
      </trkpt>
      <trkpt lat="45.57077" lon="6.79337">
        <ele>1977.599</ele>
        <time>2021-03-13T10:19:59Z</time>
      </trkpt>
      <trkpt lat="45.57077" lon="6.79337">
        <ele>1978.984</ele>
        <time>2021-03-13T10:20:04Z</time>
      </trkpt>
      <trkpt lat="45.57077" lon="6.79336">
        <ele>1978.04</ele>
        <time>2021-03-13T10:20:09Z</time>
      </trkpt>
      <trkpt lat="45.57076" lon="6.79338">
        <ele>1978.011</ele>
        <time>2021-03-13T10:20:14Z</time>
      </trkpt>
      <trkpt lat="45.57075" lon="6.79342">
        <ele>1978.103</ele>
        <time>2021-03-13T10:20:19Z</time>
      </trkpt>
      <trkpt lat="45.57075" lon="6.79346">
        <ele>1978.068</ele>
        <time>2021-03-13T10:20:24Z</time>
      </trkpt>
      <trkpt lat="45.57076" lon="6.7935">
        <ele>1978.292</ele>
        <time>2021-03-13T10:20:29Z</time>
      </trkpt>
      <trkpt lat="45.57076" lon="6.79352">
        <ele>1979.244</ele>
        <time>2021-03-13T10:20:34Z</time>
      </trkpt>
      <trkpt lat="45.57076" lon="6.79355">
        <ele>1979.604</ele>
        <time>2021-03-13T10:20:39Z</time>
      </trkpt>
      <trkpt lat="45.57077" lon="6.79357">
        <ele>1978.781</ele>
        <time>2021-03-13T10:20:44Z</time>
      </trkpt>
      <trkpt lat="45.5708" lon="6.7936">
        <ele>1978.674</ele>
        <time>2021-03-13T10:20:49Z</time>
      </trkpt>
      <trkpt lat="45.57081" lon="6.79363">
        <ele>1978.835</ele>
        <time>2021-03-13T10:20:54Z</time>
      </trkpt>
      <trkpt lat="45.57082" lon="6.79364">
        <ele>1978.98</ele>
        <time>2021-03-13T10:20:59Z</time>
      </trkpt>
      <trkpt lat="45.57085" lon="6.79365">
        <ele>1978.721</ele>
        <time>2021-03-13T10:21:04Z</time>
      </trkpt>
      <trkpt lat="45.57088" lon="6.79366">
        <ele>1978.669</ele>
        <time>2021-03-13T10:21:09Z</time>
      </trkpt>
      <trkpt lat="45.57091" lon="6.79367">
        <ele>1980.322</ele>
        <time>2021-03-13T10:21:14Z</time>
      </trkpt>
      <trkpt lat="45.57095" lon="6.7937">
        <ele>1980.65</ele>
        <time>2021-03-13T10:21:19Z</time>
      </trkpt>
      <trkpt lat="45.57099" lon="6.79371">
        <ele>1980.515</ele>
        <time>2021-03-13T10:21:24Z</time>
      </trkpt>
      <trkpt lat="45.57102" lon="6.79371">
        <ele>1980.935</ele>
        <time>2021-03-13T10:21:29Z</time>
      </trkpt>
      <trkpt lat="45.57104" lon="6.79371">
        <ele>1981.785</ele>
        <time>2021-03-13T10:21:34Z</time>
      </trkpt>
      <trkpt lat="45.57104" lon="6.79371">
        <ele>1982.079</ele>
        <time>2021-03-13T10:21:39Z</time>
      </trkpt>
      <trkpt lat="45.57105" lon="6.7937">
        <ele>1981.695</ele>
        <time>2021-03-13T10:21:44Z</time>
      </trkpt>
      <trkpt lat="45.57105" lon="6.7937">
        <ele>1981.434</ele>
        <time>2021-03-13T10:21:49Z</time>
      </trkpt>
      <trkpt lat="45.57105" lon="6.7937">
        <ele>1981.201</ele>
        <time>2021-03-13T10:21:54Z</time>
      </trkpt>
      <trkpt lat="45.57105" lon="6.7937">
        <ele>1981.185</ele>
        <time>2021-03-13T10:21:59Z</time>
      </trkpt>
      <trkpt lat="45.57105" lon="6.7937">
        <ele>1981.182</ele>
        <time>2021-03-13T10:22:04Z</time>
      </trkpt>
      <trkpt lat="45.57105" lon="6.7937">
        <ele>1981.225</ele>
        <time>2021-03-13T10:22:09Z</time>
      </trkpt>
      <trkpt lat="45.57108" lon="6.79371">
        <ele>1982</ele>
        <time>2021-03-13T10:22:14Z</time>
      </trkpt>
      <trkpt lat="45.5711" lon="6.79372">
        <ele>1982.223</ele>
        <time>2021-03-13T10:22:19Z</time>
      </trkpt>
      <trkpt lat="45.5711" lon="6.79372">
        <ele>1982.336</ele>
        <time>2021-03-13T10:22:24Z</time>
      </trkpt>
      <trkpt lat="45.5711" lon="6.79373">
        <ele>1981.497</ele>
        <time>2021-03-13T10:22:29Z</time>
      </trkpt>
      <trkpt lat="45.5711" lon="6.79373">
        <ele>1981.303</ele>
        <time>2021-03-13T10:22:34Z</time>
      </trkpt>
      <trkpt lat="45.5711" lon="6.79373">
        <ele>1981.637</ele>
        <time>2021-03-13T10:22:39Z</time>
      </trkpt>
      <trkpt lat="45.57112" lon="6.79372">
        <ele>1981.593</ele>
        <time>2021-03-13T10:22:44Z</time>
      </trkpt>
      <trkpt lat="45.57112" lon="6.79372">
        <ele>1982.178</ele>
        <time>2021-03-13T10:22:49Z</time>
      </trkpt>
      <trkpt lat="45.57114" lon="6.79373">
        <ele>1982.748</ele>
        <time>2021-03-13T10:22:54Z</time>
      </trkpt>
      <trkpt lat="45.57117" lon="6.79374">
        <ele>1984.173</ele>
        <time>2021-03-13T10:22:59Z</time>
      </trkpt>
      <trkpt lat="45.5712" lon="6.79375">
        <ele>1984.543</ele>
        <time>2021-03-13T10:23:04Z</time>
      </trkpt>
      <trkpt lat="45.57124" lon="6.79376">
        <ele>1984.555</ele>
        <time>2021-03-13T10:23:09Z</time>
      </trkpt>
      <trkpt lat="45.57128" lon="6.79376">
        <ele>1986.227</ele>
        <time>2021-03-13T10:23:14Z</time>
      </trkpt>
      <trkpt lat="45.57131" lon="6.79378">
        <ele>1987.365</ele>
        <time>2021-03-13T10:23:19Z</time>
      </trkpt>
      <trkpt lat="45.57134" lon="6.79379">
        <ele>1987.391</ele>
        <time>2021-03-13T10:23:24Z</time>
      </trkpt>
      <trkpt lat="45.57138" lon="6.7938">
        <ele>1988.207</ele>
        <time>2021-03-13T10:23:29Z</time>
      </trkpt>
      <trkpt lat="45.57141" lon="6.79382">
        <ele>1988.517</ele>
        <time>2021-03-13T10:23:34Z</time>
      </trkpt>
      <trkpt lat="45.57143" lon="6.79383">
        <ele>1988.89</ele>
        <time>2021-03-13T10:23:39Z</time>
      </trkpt>
      <trkpt lat="45.57144" lon="6.79384">
        <ele>1989.447</ele>
        <time>2021-03-13T10:23:44Z</time>
      </trkpt>
      <trkpt lat="45.57146" lon="6.79385">
        <ele>1988.819</ele>
        <time>2021-03-13T10:23:49Z</time>
      </trkpt>
      <trkpt lat="45.57148" lon="6.79387">
        <ele>1989.04</ele>
        <time>2021-03-13T10:23:54Z</time>
      </trkpt>
      <trkpt lat="45.5715" lon="6.79388">
        <ele>1989.03</ele>
        <time>2021-03-13T10:23:59Z</time>
      </trkpt>
      <trkpt lat="45.57152" lon="6.79391">
        <ele>1990.843</ele>
        <time>2021-03-13T10:24:04Z</time>
      </trkpt>
      <trkpt lat="45.57155" lon="6.79392">
        <ele>1992.021</ele>
        <time>2021-03-13T10:24:09Z</time>
      </trkpt>
      <trkpt lat="45.57157" lon="6.79394">
        <ele>1991.63</ele>
        <time>2021-03-13T10:24:14Z</time>
      </trkpt>
      <trkpt lat="45.5716" lon="6.79396">
        <ele>1991.563</ele>
        <time>2021-03-13T10:24:19Z</time>
      </trkpt>
      <trkpt lat="45.57164" lon="6.794">
        <ele>1992.684</ele>
        <time>2021-03-13T10:24:24Z</time>
      </trkpt>
      <trkpt lat="45.57165" lon="6.794">
        <ele>1992.379</ele>
        <time>2021-03-13T10:24:29Z</time>
      </trkpt>
      <trkpt lat="45.57165" lon="6.794">
        <ele>1992.162</ele>
        <time>2021-03-13T10:24:34Z</time>
      </trkpt>
      <trkpt lat="45.57168" lon="6.79403">
        <ele>1992.755</ele>
        <time>2021-03-13T10:24:39Z</time>
      </trkpt>
      <trkpt lat="45.57168" lon="6.79405">
        <ele>1993.774</ele>
        <time>2021-03-13T10:24:44Z</time>
      </trkpt>
      <trkpt lat="45.57168" lon="6.79406">
        <ele>1994.407</ele>
        <time>2021-03-13T10:24:49Z</time>
      </trkpt>
      <trkpt lat="45.5717" lon="6.79407">
        <ele>1994.35</ele>
        <time>2021-03-13T10:24:54Z</time>
      </trkpt>
      <trkpt lat="45.57173" lon="6.79409">
        <ele>1994.26</ele>
        <time>2021-03-13T10:24:59Z</time>
      </trkpt>
      <trkpt lat="45.57176" lon="6.79412">
        <ele>1994.218</ele>
        <time>2021-03-13T10:25:04Z</time>
      </trkpt>
      <trkpt lat="45.57179" lon="6.79414">
        <ele>1995.042</ele>
        <time>2021-03-13T10:25:09Z</time>
      </trkpt>
      <trkpt lat="45.57181" lon="6.79415">
        <ele>1995.707</ele>
        <time>2021-03-13T10:25:14Z</time>
      </trkpt>
      <trkpt lat="45.57185" lon="6.79417">
        <ele>1996.223</ele>
        <time>2021-03-13T10:25:19Z</time>
      </trkpt>
      <trkpt lat="45.57187" lon="6.79419">
        <ele>1996.325</ele>
        <time>2021-03-13T10:25:24Z</time>
      </trkpt>
      <trkpt lat="45.5719" lon="6.79422">
        <ele>1997.172</ele>
        <time>2021-03-13T10:25:29Z</time>
      </trkpt>
      <trkpt lat="45.57193" lon="6.79424">
        <ele>1996.712</ele>
        <time>2021-03-13T10:25:34Z</time>
      </trkpt>
      <trkpt lat="45.57196" lon="6.79427">
        <ele>1997.324</ele>
        <time>2021-03-13T10:25:39Z</time>
      </trkpt>
      <trkpt lat="45.57199" lon="6.79429">
        <ele>1997.113</ele>
        <time>2021-03-13T10:25:44Z</time>
      </trkpt>
      <trkpt lat="45.57202" lon="6.79431">
        <ele>1996.878</ele>
        <time>2021-03-13T10:25:49Z</time>
      </trkpt>
      <trkpt lat="45.57205" lon="6.79435">
        <ele>1997.463</ele>
        <time>2021-03-13T10:25:54Z</time>
      </trkpt>
      <trkpt lat="45.57208" lon="6.79439">
        <ele>1998.548</ele>
        <time>2021-03-13T10:25:59Z</time>
      </trkpt>
      <trkpt lat="45.57211" lon="6.7944">
        <ele>1999.039</ele>
        <time>2021-03-13T10:26:04Z</time>
      </trkpt>
      <trkpt lat="45.57215" lon="6.79443">
        <ele>2000.324</ele>
        <time>2021-03-13T10:26:09Z</time>
      </trkpt>
      <trkpt lat="45.5722" lon="6.79447">
        <ele>2000.71</ele>
        <time>2021-03-13T10:26:14Z</time>
      </trkpt>
      <trkpt lat="45.57223" lon="6.79449">
        <ele>2000.793</ele>
        <time>2021-03-13T10:26:19Z</time>
      </trkpt>
      <trkpt lat="45.57225" lon="6.79452">
        <ele>2000.78</ele>
        <time>2021-03-13T10:26:24Z</time>
      </trkpt>
      <trkpt lat="45.57229" lon="6.79455">
        <ele>1999.807</ele>
        <time>2021-03-13T10:26:29Z</time>
      </trkpt>
      <trkpt lat="45.57233" lon="6.79457">
        <ele>2000.758</ele>
        <time>2021-03-13T10:26:34Z</time>
      </trkpt>
      <trkpt lat="45.57233" lon="6.79456">
        <ele>2000.011</ele>
        <time>2021-03-13T10:26:39Z</time>
      </trkpt>
      <trkpt lat="45.57233" lon="6.79456">
        <ele>1999.72</ele>
        <time>2021-03-13T10:26:44Z</time>
      </trkpt>
      <trkpt lat="45.57233" lon="6.79456">
        <ele>1999.785</ele>
        <time>2021-03-13T10:26:49Z</time>
      </trkpt>
      <trkpt lat="45.57235" lon="6.79456">
        <ele>2000.237</ele>
        <time>2021-03-13T10:26:54Z</time>
      </trkpt>
      <trkpt lat="45.57235" lon="6.79456">
        <ele>2000.107</ele>
        <time>2021-03-13T10:26:59Z</time>
      </trkpt>
      <trkpt lat="45.57236" lon="6.79455">
        <ele>2000.397</ele>
        <time>2021-03-13T10:27:04Z</time>
      </trkpt>
      <trkpt lat="45.57236" lon="6.79456">
        <ele>2000.403</ele>
        <time>2021-03-13T10:27:09Z</time>
      </trkpt>
      <trkpt lat="45.57239" lon="6.79458">
        <ele>2001.535</ele>
        <time>2021-03-13T10:27:14Z</time>
      </trkpt>
      <trkpt lat="45.57242" lon="6.7946">
        <ele>2000.53</ele>
        <time>2021-03-13T10:27:19Z</time>
      </trkpt>
      <trkpt lat="45.57246" lon="6.79462">
        <ele>2001.155</ele>
        <time>2021-03-13T10:27:24Z</time>
      </trkpt>
      <trkpt lat="45.57249" lon="6.79462">
        <ele>2001.394</ele>
        <time>2021-03-13T10:27:29Z</time>
      </trkpt>
      <trkpt lat="45.57249" lon="6.79463">
        <ele>2002.573</ele>
        <time>2021-03-13T10:27:34Z</time>
      </trkpt>
      <trkpt lat="45.57251" lon="6.79463">
        <ele>2002.028</ele>
        <time>2021-03-13T10:27:39Z</time>
      </trkpt>
      <trkpt lat="45.57252" lon="6.79463">
        <ele>2001.213</ele>
        <time>2021-03-13T10:27:44Z</time>
      </trkpt>
      <trkpt lat="45.57253" lon="6.79463">
        <ele>2002.116</ele>
        <time>2021-03-13T10:27:49Z</time>
      </trkpt>
      <trkpt lat="45.57255" lon="6.79464">
        <ele>2002.143</ele>
        <time>2021-03-13T10:27:54Z</time>
      </trkpt>
      <trkpt lat="45.57258" lon="6.79466">
        <ele>2003.256</ele>
        <time>2021-03-13T10:27:59Z</time>
      </trkpt>
      <trkpt lat="45.57262" lon="6.79467">
        <ele>2003.448</ele>
        <time>2021-03-13T10:28:04Z</time>
      </trkpt>
      <trkpt lat="45.57266" lon="6.79469">
        <ele>2004.772</ele>
        <time>2021-03-13T10:28:09Z</time>
      </trkpt>
      <trkpt lat="45.5727" lon="6.79471">
        <ele>2005.738</ele>
        <time>2021-03-13T10:28:14Z</time>
      </trkpt>
      <trkpt lat="45.57273" lon="6.79473">
        <ele>2004.72</ele>
        <time>2021-03-13T10:28:19Z</time>
      </trkpt>
      <trkpt lat="45.57276" lon="6.79474">
        <ele>2003.286</ele>
        <time>2021-03-13T10:28:24Z</time>
      </trkpt>
      <trkpt lat="45.5728" lon="6.79476">
        <ele>2004.695</ele>
        <time>2021-03-13T10:28:29Z</time>
      </trkpt>
      <trkpt lat="45.57283" lon="6.79477">
        <ele>2004.748</ele>
        <time>2021-03-13T10:28:34Z</time>
      </trkpt>
      <trkpt lat="45.57287" lon="6.79478">
        <ele>2005.552</ele>
        <time>2021-03-13T10:28:39Z</time>
      </trkpt>
      <trkpt lat="45.57291" lon="6.79481">
        <ele>2005.114</ele>
        <time>2021-03-13T10:28:44Z</time>
      </trkpt>
      <trkpt lat="45.57294" lon="6.79483">
        <ele>2005.44</ele>
        <time>2021-03-13T10:28:49Z</time>
      </trkpt>
      <trkpt lat="45.57298" lon="6.79485">
        <ele>2006.919</ele>
        <time>2021-03-13T10:28:54Z</time>
      </trkpt>
      <trkpt lat="45.57297" lon="6.79485">
        <ele>2008.387</ele>
        <time>2021-03-13T10:28:59Z</time>
      </trkpt>
      <trkpt lat="45.57299" lon="6.79486">
        <ele>2007.677</ele>
        <time>2021-03-13T10:29:04Z</time>
      </trkpt>
      <trkpt lat="45.57301" lon="6.79485">
        <ele>2008.017</ele>
        <time>2021-03-13T10:29:09Z</time>
      </trkpt>
      <trkpt lat="45.57303" lon="6.79486">
        <ele>2009.359</ele>
        <time>2021-03-13T10:29:14Z</time>
      </trkpt>
      <trkpt lat="45.57304" lon="6.79488">
        <ele>2009.289</ele>
        <time>2021-03-13T10:29:19Z</time>
      </trkpt>
      <trkpt lat="45.57306" lon="6.7949">
        <ele>2009.573</ele>
        <time>2021-03-13T10:29:24Z</time>
      </trkpt>
      <trkpt lat="45.5731" lon="6.79493">
        <ele>2009.197</ele>
        <time>2021-03-13T10:29:29Z</time>
      </trkpt>
      <trkpt lat="45.57314" lon="6.79494">
        <ele>2009.5</ele>
        <time>2021-03-13T10:29:34Z</time>
      </trkpt>
      <trkpt lat="45.57317" lon="6.79497">
        <ele>2008.916</ele>
        <time>2021-03-13T10:29:39Z</time>
      </trkpt>
      <trkpt lat="45.57321" lon="6.795">
        <ele>2009.25</ele>
        <time>2021-03-13T10:29:44Z</time>
      </trkpt>
      <trkpt lat="45.57322" lon="6.79501">
        <ele>2009.301</ele>
        <time>2021-03-13T10:29:49Z</time>
      </trkpt>
      <trkpt lat="45.57323" lon="6.79502">
        <ele>2010.284</ele>
        <time>2021-03-13T10:29:54Z</time>
      </trkpt>
      <trkpt lat="45.57327" lon="6.79504">
        <ele>2012.056</ele>
        <time>2021-03-13T10:29:59Z</time>
      </trkpt>
      <trkpt lat="45.57328" lon="6.79505">
        <ele>2013.023</ele>
        <time>2021-03-13T10:30:04Z</time>
      </trkpt>
      <trkpt lat="45.57329" lon="6.79507">
        <ele>2012.928</ele>
        <time>2021-03-13T10:30:09Z</time>
      </trkpt>
      <trkpt lat="45.5733" lon="6.79508">
        <ele>2012.643</ele>
        <time>2021-03-13T10:30:14Z</time>
      </trkpt>
      <trkpt lat="45.57333" lon="6.7951">
        <ele>2013.412</ele>
        <time>2021-03-13T10:30:19Z</time>
      </trkpt>
      <trkpt lat="45.57335" lon="6.79511">
        <ele>2013.201</ele>
        <time>2021-03-13T10:30:24Z</time>
      </trkpt>
      <trkpt lat="45.57338" lon="6.79514">
        <ele>2014.044</ele>
        <time>2021-03-13T10:30:29Z</time>
      </trkpt>
      <trkpt lat="45.57339" lon="6.79517">
        <ele>2014.812</ele>
        <time>2021-03-13T10:30:34Z</time>
      </trkpt>
      <trkpt lat="45.57343" lon="6.79522">
        <ele>2014.376</ele>
        <time>2021-03-13T10:30:39Z</time>
      </trkpt>
      <trkpt lat="45.57347" lon="6.79528">
        <ele>2014.246</ele>
        <time>2021-03-13T10:30:44Z</time>
      </trkpt>
      <trkpt lat="45.57348" lon="6.79529">
        <ele>2014.45</ele>
        <time>2021-03-13T10:30:49Z</time>
      </trkpt>
      <trkpt lat="45.57349" lon="6.79531">
        <ele>2014.414</ele>
        <time>2021-03-13T10:30:54Z</time>
      </trkpt>
      <trkpt lat="45.57353" lon="6.79535">
        <ele>2013.678</ele>
        <time>2021-03-13T10:30:59Z</time>
      </trkpt>
      <trkpt lat="45.57356" lon="6.79538">
        <ele>2013.769</ele>
        <time>2021-03-13T10:31:04Z</time>
      </trkpt>
      <trkpt lat="45.5736" lon="6.79539">
        <ele>2015.081</ele>
        <time>2021-03-13T10:31:09Z</time>
      </trkpt>
      <trkpt lat="45.57363" lon="6.7954">
        <ele>2014.409</ele>
        <time>2021-03-13T10:31:14Z</time>
      </trkpt>
      <trkpt lat="45.57366" lon="6.7954">
        <ele>2014.338</ele>
        <time>2021-03-13T10:31:19Z</time>
      </trkpt>
      <trkpt lat="45.57366" lon="6.79541">
        <ele>2014.229</ele>
        <time>2021-03-13T10:31:24Z</time>
      </trkpt>
      <trkpt lat="45.57366" lon="6.79541">
        <ele>2014.225</ele>
        <time>2021-03-13T10:31:29Z</time>
      </trkpt>
      <trkpt lat="45.57366" lon="6.79541">
        <ele>2014.216</ele>
        <time>2021-03-13T10:31:34Z</time>
      </trkpt>
      <trkpt lat="45.57366" lon="6.79541">
        <ele>2014.252</ele>
        <time>2021-03-13T10:31:39Z</time>
      </trkpt>
      <trkpt lat="45.57365" lon="6.79543">
        <ele>2015.645</ele>
        <time>2021-03-13T10:31:44Z</time>
      </trkpt>
      <trkpt lat="45.57366" lon="6.79543">
        <ele>2015.546</ele>
        <time>2021-03-13T10:31:49Z</time>
      </trkpt>
      <trkpt lat="45.57366" lon="6.79544">
        <ele>2013.985</ele>
        <time>2021-03-13T10:31:54Z</time>
      </trkpt>
      <trkpt lat="45.57365" lon="6.79545">
        <ele>2013.993</ele>
        <time>2021-03-13T10:31:59Z</time>
      </trkpt>
      <trkpt lat="45.57366" lon="6.79544">
        <ele>2013.551</ele>
        <time>2021-03-13T10:32:04Z</time>
      </trkpt>
      <trkpt lat="45.57366" lon="6.79544">
        <ele>2013.511</ele>
        <time>2021-03-13T10:32:09Z</time>
      </trkpt>
      <trkpt lat="45.57368" lon="6.79545">
        <ele>2013.757</ele>
        <time>2021-03-13T10:32:14Z</time>
      </trkpt>
      <trkpt lat="45.5737" lon="6.79545">
        <ele>2013.666</ele>
        <time>2021-03-13T10:32:19Z</time>
      </trkpt>
      <trkpt lat="45.57372" lon="6.79545">
        <ele>2014.358</ele>
        <time>2021-03-13T10:32:24Z</time>
      </trkpt>
      <trkpt lat="45.57375" lon="6.79547">
        <ele>2014.713</ele>
        <time>2021-03-13T10:32:29Z</time>
      </trkpt>
      <trkpt lat="45.5738" lon="6.79548">
        <ele>2014.877</ele>
        <time>2021-03-13T10:32:34Z</time>
      </trkpt>
      <trkpt lat="45.57386" lon="6.79548">
        <ele>2016.226</ele>
        <time>2021-03-13T10:32:39Z</time>
      </trkpt>
      <trkpt lat="45.57389" lon="6.79549">
        <ele>2015.634</ele>
        <time>2021-03-13T10:32:44Z</time>
      </trkpt>
      <trkpt lat="45.57388" lon="6.79548">
        <ele>2016.347</ele>
        <time>2021-03-13T10:32:49Z</time>
      </trkpt>
      <trkpt lat="45.57388" lon="6.79548">
        <ele>2016.689</ele>
        <time>2021-03-13T10:32:54Z</time>
      </trkpt>
      <trkpt lat="45.57389" lon="6.79548">
        <ele>2016.751</ele>
        <time>2021-03-13T10:32:59Z</time>
      </trkpt>
      <trkpt lat="45.57392" lon="6.79548">
        <ele>2017.931</ele>
        <time>2021-03-13T10:33:04Z</time>
      </trkpt>
      <trkpt lat="45.57395" lon="6.79549">
        <ele>2017.846</ele>
        <time>2021-03-13T10:33:09Z</time>
      </trkpt>
      <trkpt lat="45.57399" lon="6.7955">
        <ele>2016.908</ele>
        <time>2021-03-13T10:33:14Z</time>
      </trkpt>
      <trkpt lat="45.57404" lon="6.7955">
        <ele>2017.912</ele>
        <time>2021-03-13T10:33:19Z</time>
      </trkpt>
      <trkpt lat="45.57408" lon="6.7955">
        <ele>2018.394</ele>
        <time>2021-03-13T10:33:24Z</time>
      </trkpt>
      <trkpt lat="45.57412" lon="6.79549">
        <ele>2019.431</ele>
        <time>2021-03-13T10:33:29Z</time>
      </trkpt>
      <trkpt lat="45.57416" lon="6.7955">
        <ele>2019.129</ele>
        <time>2021-03-13T10:33:34Z</time>
      </trkpt>
      <trkpt lat="45.5742" lon="6.7955">
        <ele>2019.317</ele>
        <time>2021-03-13T10:33:39Z</time>
      </trkpt>
      <trkpt lat="45.57422" lon="6.7955">
        <ele>2020.061</ele>
        <time>2021-03-13T10:33:44Z</time>
      </trkpt>
      <trkpt lat="45.57425" lon="6.79551">
        <ele>2019.92</ele>
        <time>2021-03-13T10:33:49Z</time>
      </trkpt>
      <trkpt lat="45.5743" lon="6.79552">
        <ele>2020.577</ele>
        <time>2021-03-13T10:33:54Z</time>
      </trkpt>
      <trkpt lat="45.57434" lon="6.79553">
        <ele>2021.918</ele>
        <time>2021-03-13T10:33:59Z</time>
      </trkpt>
      <trkpt lat="45.57438" lon="6.79554">
        <ele>2022.445</ele>
        <time>2021-03-13T10:34:04Z</time>
      </trkpt>
      <trkpt lat="45.57443" lon="6.79556">
        <ele>2022.878</ele>
        <time>2021-03-13T10:34:09Z</time>
      </trkpt>
      <trkpt lat="45.57447" lon="6.79558">
        <ele>2022.895</ele>
        <time>2021-03-13T10:34:14Z</time>
      </trkpt>
      <trkpt lat="45.57451" lon="6.7956">
        <ele>2023.471</ele>
        <time>2021-03-13T10:34:19Z</time>
      </trkpt>
      <trkpt lat="45.57455" lon="6.79563">
        <ele>2024.691</ele>
        <time>2021-03-13T10:34:24Z</time>
      </trkpt>
      <trkpt lat="45.57458" lon="6.79564">
        <ele>2025.863</ele>
        <time>2021-03-13T10:34:29Z</time>
      </trkpt>
      <trkpt lat="45.57462" lon="6.79566">
        <ele>2025.581</ele>
        <time>2021-03-13T10:34:34Z</time>
      </trkpt>
      <trkpt lat="45.57465" lon="6.79567">
        <ele>2025.774</ele>
        <time>2021-03-13T10:34:39Z</time>
      </trkpt>
      <trkpt lat="45.57469" lon="6.7957">
        <ele>2026.881</ele>
        <time>2021-03-13T10:34:44Z</time>
      </trkpt>
      <trkpt lat="45.57473" lon="6.79571">
        <ele>2027.719</ele>
        <time>2021-03-13T10:34:49Z</time>
      </trkpt>
      <trkpt lat="45.57477" lon="6.79573">
        <ele>2029.194</ele>
        <time>2021-03-13T10:34:54Z</time>
      </trkpt>
      <trkpt lat="45.5748" lon="6.79574">
        <ele>2028.713</ele>
        <time>2021-03-13T10:34:59Z</time>
      </trkpt>
      <trkpt lat="45.57485" lon="6.79575">
        <ele>2028.668</ele>
        <time>2021-03-13T10:35:04Z</time>
      </trkpt>
      <trkpt lat="45.57489" lon="6.79577">
        <ele>2029.459</ele>
        <time>2021-03-13T10:35:09Z</time>
      </trkpt>
      <trkpt lat="45.57492" lon="6.79581">
        <ele>2029.846</ele>
        <time>2021-03-13T10:35:14Z</time>
      </trkpt>
      <trkpt lat="45.57492" lon="6.79582">
        <ele>2029.405</ele>
        <time>2021-03-13T10:35:19Z</time>
      </trkpt>
      <trkpt lat="45.57494" lon="6.79585">
        <ele>2028.995</ele>
        <time>2021-03-13T10:35:24Z</time>
      </trkpt>
      <trkpt lat="45.57495" lon="6.79587">
        <ele>2030.338</ele>
        <time>2021-03-13T10:35:29Z</time>
      </trkpt>
      <trkpt lat="45.57498" lon="6.7959">
        <ele>2031.286</ele>
        <time>2021-03-13T10:35:34Z</time>
      </trkpt>
      <trkpt lat="45.57501" lon="6.79595">
        <ele>2032.565</ele>
        <time>2021-03-13T10:35:39Z</time>
      </trkpt>
      <trkpt lat="45.57502" lon="6.79599">
        <ele>2032.183</ele>
        <time>2021-03-13T10:35:44Z</time>
      </trkpt>
      <trkpt lat="45.57503" lon="6.79598">
        <ele>2032.313</ele>
        <time>2021-03-13T10:35:49Z</time>
      </trkpt>
      <trkpt lat="45.57503" lon="6.79598">
        <ele>2032.278</ele>
        <time>2021-03-13T10:35:54Z</time>
      </trkpt>
      <trkpt lat="45.57502" lon="6.79597">
        <ele>2032.075</ele>
        <time>2021-03-13T10:35:59Z</time>
      </trkpt>
      <trkpt lat="45.57502" lon="6.79597">
        <ele>2032.041</ele>
        <time>2021-03-13T10:36:04Z</time>
      </trkpt>
      <trkpt lat="45.57502" lon="6.79597">
        <ele>2032.035</ele>
        <time>2021-03-13T10:36:09Z</time>
      </trkpt>
      <trkpt lat="45.57502" lon="6.79597">
        <ele>2032.035</ele>
        <time>2021-03-13T10:36:14Z</time>
      </trkpt>
      <trkpt lat="45.57502" lon="6.79597">
        <ele>2032.234</ele>
        <time>2021-03-13T10:36:19Z</time>
      </trkpt>
      <trkpt lat="45.57502" lon="6.79597">
        <ele>2032.196</ele>
        <time>2021-03-13T10:36:24Z</time>
      </trkpt>
      <trkpt lat="45.57502" lon="6.79597">
        <ele>2032.189</ele>
        <time>2021-03-13T10:36:29Z</time>
      </trkpt>
      <trkpt lat="45.57502" lon="6.79597">
        <ele>2032.182</ele>
        <time>2021-03-13T10:36:34Z</time>
      </trkpt>
      <trkpt lat="45.57502" lon="6.79597">
        <ele>2032.181</ele>
        <time>2021-03-13T10:36:39Z</time>
      </trkpt>
      <trkpt lat="45.57502" lon="6.79597">
        <ele>2031.466</ele>
        <time>2021-03-13T10:36:44Z</time>
      </trkpt>
      <trkpt lat="45.57502" lon="6.79598">
        <ele>2031.359</ele>
        <time>2021-03-13T10:36:49Z</time>
      </trkpt>
      <trkpt lat="45.57502" lon="6.79598">
        <ele>2031.334</ele>
        <time>2021-03-13T10:36:54Z</time>
      </trkpt>
      <trkpt lat="45.57502" lon="6.79598">
        <ele>2031.338</ele>
        <time>2021-03-13T10:36:59Z</time>
      </trkpt>
      <trkpt lat="45.57502" lon="6.79598">
        <ele>2031.348</ele>
        <time>2021-03-13T10:37:04Z</time>
      </trkpt>
      <trkpt lat="45.57502" lon="6.79599">
        <ele>2030.836</ele>
        <time>2021-03-13T10:37:09Z</time>
      </trkpt>
      <trkpt lat="45.57502" lon="6.79599">
        <ele>2030.764</ele>
        <time>2021-03-13T10:37:14Z</time>
      </trkpt>
      <trkpt lat="45.57501" lon="6.79599">
        <ele>2029.933</ele>
        <time>2021-03-13T10:37:19Z</time>
      </trkpt>
      <trkpt lat="45.57501" lon="6.796">
        <ele>2030.187</ele>
        <time>2021-03-13T10:37:24Z</time>
      </trkpt>
      <trkpt lat="45.57501" lon="6.79601">
        <ele>2030.159</ele>
        <time>2021-03-13T10:37:29Z</time>
      </trkpt>
      <trkpt lat="45.57501" lon="6.79601">
        <ele>2030.171</ele>
        <time>2021-03-13T10:37:34Z</time>
      </trkpt>
      <trkpt lat="45.57501" lon="6.79601">
        <ele>2030.163</ele>
        <time>2021-03-13T10:37:39Z</time>
      </trkpt>
      <trkpt lat="45.57501" lon="6.79601">
        <ele>2030.162</ele>
        <time>2021-03-13T10:37:44Z</time>
      </trkpt>
      <trkpt lat="45.57501" lon="6.79601">
        <ele>2030.168</ele>
        <time>2021-03-13T10:37:49Z</time>
      </trkpt>
      <trkpt lat="45.57501" lon="6.79601">
        <ele>2030.163</ele>
        <time>2021-03-13T10:37:54Z</time>
      </trkpt>
      <trkpt lat="45.57501" lon="6.79601">
        <ele>2030.165</ele>
        <time>2021-03-13T10:37:59Z</time>
      </trkpt>
      <trkpt lat="45.57501" lon="6.79602">
        <ele>2031.117</ele>
        <time>2021-03-13T10:38:04Z</time>
      </trkpt>
      <trkpt lat="45.57502" lon="6.79602">
        <ele>2031.78</ele>
        <time>2021-03-13T10:38:09Z</time>
      </trkpt>
      <trkpt lat="45.57502" lon="6.79602">
        <ele>2032.125</ele>
        <time>2021-03-13T10:38:14Z</time>
      </trkpt>
      <trkpt lat="45.57503" lon="6.79602">
        <ele>2032.209</ele>
        <time>2021-03-13T10:38:19Z</time>
      </trkpt>
      <trkpt lat="45.57503" lon="6.79602">
        <ele>2032.22</ele>
        <time>2021-03-13T10:38:24Z</time>
      </trkpt>
      <trkpt lat="45.57503" lon="6.79602">
        <ele>2032.229</ele>
        <time>2021-03-13T10:38:29Z</time>
      </trkpt>
      <trkpt lat="45.57503" lon="6.79602">
        <ele>2032.228</ele>
        <time>2021-03-13T10:38:34Z</time>
      </trkpt>
      <trkpt lat="45.57503" lon="6.79602">
        <ele>2032.229</ele>
        <time>2021-03-13T10:38:39Z</time>
      </trkpt>
      <trkpt lat="45.57503" lon="6.79603">
        <ele>2031.752</ele>
        <time>2021-03-13T10:38:44Z</time>
      </trkpt>
      <trkpt lat="45.57505" lon="6.79606">
        <ele>2032.856</ele>
        <time>2021-03-13T10:38:49Z</time>
      </trkpt>
      <trkpt lat="45.57507" lon="6.7961">
        <ele>2031.304</ele>
        <time>2021-03-13T10:38:54Z</time>
      </trkpt>
      <trkpt lat="45.57508" lon="6.79609">
        <ele>2032.207</ele>
        <time>2021-03-13T10:38:59Z</time>
      </trkpt>
      <trkpt lat="45.57509" lon="6.79609">
        <ele>2032.415</ele>
        <time>2021-03-13T10:39:04Z</time>
      </trkpt>
      <trkpt lat="45.57509" lon="6.79609">
        <ele>2031.346</ele>
        <time>2021-03-13T10:39:09Z</time>
      </trkpt>
      <trkpt lat="45.5751" lon="6.79609">
        <ele>2031.583</ele>
        <time>2021-03-13T10:39:14Z</time>
      </trkpt>
      <trkpt lat="45.57511" lon="6.79609">
        <ele>2031.509</ele>
        <time>2021-03-13T10:39:19Z</time>
      </trkpt>
      <trkpt lat="45.57513" lon="6.79612">
        <ele>2031.082</ele>
        <time>2021-03-13T10:39:24Z</time>
      </trkpt>
      <trkpt lat="45.57514" lon="6.79615">
        <ele>2031.888</ele>
        <time>2021-03-13T10:39:29Z</time>
      </trkpt>
      <trkpt lat="45.57514" lon="6.79615">
        <ele>2031.943</ele>
        <time>2021-03-13T10:39:34Z</time>
      </trkpt>
      <trkpt lat="45.57515" lon="6.79615">
        <ele>2031.886</ele>
        <time>2021-03-13T10:39:39Z</time>
      </trkpt>
      <trkpt lat="45.57515" lon="6.79616">
        <ele>2031.673</ele>
        <time>2021-03-13T10:39:44Z</time>
      </trkpt>
      <trkpt lat="45.57517" lon="6.79619">
        <ele>2031.94</ele>
        <time>2021-03-13T10:39:49Z</time>
      </trkpt>
      <trkpt lat="45.57519" lon="6.79622">
        <ele>2033.137</ele>
        <time>2021-03-13T10:39:54Z</time>
      </trkpt>
      <trkpt lat="45.57522" lon="6.79626">
        <ele>2033.428</ele>
        <time>2021-03-13T10:39:59Z</time>
      </trkpt>
      <trkpt lat="45.57527" lon="6.79633">
        <ele>2033.902</ele>
        <time>2021-03-13T10:40:04Z</time>
      </trkpt>
      <trkpt lat="45.57532" lon="6.7964">
        <ele>2034.288</ele>
        <time>2021-03-13T10:40:09Z</time>
      </trkpt>
      <trkpt lat="45.57532" lon="6.7964">
        <ele>2034.284</ele>
        <time>2021-03-13T10:40:14Z</time>
      </trkpt>
      <trkpt lat="45.57532" lon="6.7964">
        <ele>2033.786</ele>
        <time>2021-03-13T10:40:19Z</time>
      </trkpt>
      <trkpt lat="45.57533" lon="6.7964">
        <ele>2033.926</ele>
        <time>2021-03-13T10:40:24Z</time>
      </trkpt>
      <trkpt lat="45.57533" lon="6.7964">
        <ele>2033.926</ele>
        <time>2021-03-13T10:40:29Z</time>
      </trkpt>
      <trkpt lat="45.57533" lon="6.7964">
        <ele>2033.935</ele>
        <time>2021-03-13T10:40:34Z</time>
      </trkpt>
      <trkpt lat="45.57533" lon="6.79641">
        <ele>2033.52</ele>
        <time>2021-03-13T10:40:39Z</time>
      </trkpt>
      <trkpt lat="45.57534" lon="6.79642">
        <ele>2033.393</ele>
        <time>2021-03-13T10:40:44Z</time>
      </trkpt>
      <trkpt lat="45.57537" lon="6.79646">
        <ele>2033.984</ele>
        <time>2021-03-13T10:40:49Z</time>
      </trkpt>
      <trkpt lat="45.5754" lon="6.79648">
        <ele>2033.947</ele>
        <time>2021-03-13T10:40:54Z</time>
      </trkpt>
      <trkpt lat="45.57543" lon="6.79653">
        <ele>2034.333</ele>
        <time>2021-03-13T10:40:59Z</time>
      </trkpt>
      <trkpt lat="45.57546" lon="6.79657">
        <ele>2035.219</ele>
        <time>2021-03-13T10:41:04Z</time>
      </trkpt>
      <trkpt lat="45.57546" lon="6.79659">
        <ele>2035.677</ele>
        <time>2021-03-13T10:41:09Z</time>
      </trkpt>
      <trkpt lat="45.57548" lon="6.79661">
        <ele>2035.277</ele>
        <time>2021-03-13T10:41:14Z</time>
      </trkpt>
      <trkpt lat="45.5755" lon="6.79668">
        <ele>2037.36</ele>
        <time>2021-03-13T10:41:19Z</time>
      </trkpt>
      <trkpt lat="45.57553" lon="6.79672">
        <ele>2038.052</ele>
        <time>2021-03-13T10:41:24Z</time>
      </trkpt>
      <trkpt lat="45.57554" lon="6.79673">
        <ele>2038.777</ele>
        <time>2021-03-13T10:41:29Z</time>
      </trkpt>
      <trkpt lat="45.57554" lon="6.79673">
        <ele>2039.018</ele>
        <time>2021-03-13T10:41:34Z</time>
      </trkpt>
      <trkpt lat="45.57554" lon="6.79674">
        <ele>2039.223</ele>
        <time>2021-03-13T10:41:39Z</time>
      </trkpt>
      <trkpt lat="45.57555" lon="6.79674">
        <ele>2037.552</ele>
        <time>2021-03-13T10:41:44Z</time>
      </trkpt>
      <trkpt lat="45.57557" lon="6.79676">
        <ele>2037.812</ele>
        <time>2021-03-13T10:41:49Z</time>
      </trkpt>
      <trkpt lat="45.57558" lon="6.79678">
        <ele>2037.742</ele>
        <time>2021-03-13T10:41:54Z</time>
      </trkpt>
      <trkpt lat="45.5756" lon="6.79681">
        <ele>2038.317</ele>
        <time>2021-03-13T10:41:59Z</time>
      </trkpt>
      <trkpt lat="45.57561" lon="6.79683">
        <ele>2039.183</ele>
        <time>2021-03-13T10:42:04Z</time>
      </trkpt>
      <trkpt lat="45.57561" lon="6.79684">
        <ele>2039.76</ele>
        <time>2021-03-13T10:42:09Z</time>
      </trkpt>
      <trkpt lat="45.57562" lon="6.79685">
        <ele>2040.404</ele>
        <time>2021-03-13T10:42:14Z</time>
      </trkpt>
      <trkpt lat="45.57563" lon="6.79686">
        <ele>2040.455</ele>
        <time>2021-03-13T10:42:19Z</time>
      </trkpt>
      <trkpt lat="45.57565" lon="6.79687">
        <ele>2038.917</ele>
        <time>2021-03-13T10:42:24Z</time>
      </trkpt>
      <trkpt lat="45.57565" lon="6.79686">
        <ele>2037.856</ele>
        <time>2021-03-13T10:42:29Z</time>
      </trkpt>
      <trkpt lat="45.57564" lon="6.79686">
        <ele>2038.595</ele>
        <time>2021-03-13T10:42:34Z</time>
      </trkpt>
      <trkpt lat="45.57564" lon="6.79687">
        <ele>2038.433</ele>
        <time>2021-03-13T10:42:39Z</time>
      </trkpt>
      <trkpt lat="45.57564" lon="6.79687">
        <ele>2037.972</ele>
        <time>2021-03-13T10:42:44Z</time>
      </trkpt>
      <trkpt lat="45.57565" lon="6.79686">
        <ele>2036.926</ele>
        <time>2021-03-13T10:42:49Z</time>
      </trkpt>
      <trkpt lat="45.57565" lon="6.79687">
        <ele>2037.228</ele>
        <time>2021-03-13T10:42:54Z</time>
      </trkpt>
      <trkpt lat="45.57566" lon="6.79689">
        <ele>2038.061</ele>
        <time>2021-03-13T10:42:59Z</time>
      </trkpt>
      <trkpt lat="45.57567" lon="6.79692">
        <ele>2040.133</ele>
        <time>2021-03-13T10:43:04Z</time>
      </trkpt>
      <trkpt lat="45.57568" lon="6.79692">
        <ele>2040.221</ele>
        <time>2021-03-13T10:43:09Z</time>
      </trkpt>
      <trkpt lat="45.57569" lon="6.79693">
        <ele>2040.076</ele>
        <time>2021-03-13T10:43:14Z</time>
      </trkpt>
      <trkpt lat="45.57571" lon="6.79695">
        <ele>2041.05</ele>
        <time>2021-03-13T10:43:19Z</time>
      </trkpt>
      <trkpt lat="45.57571" lon="6.79695">
        <ele>2042.124</ele>
        <time>2021-03-13T10:43:24Z</time>
      </trkpt>
      <trkpt lat="45.57572" lon="6.79695">
        <ele>2042.321</ele>
        <time>2021-03-13T10:43:29Z</time>
      </trkpt>
      <trkpt lat="45.57572" lon="6.79696">
        <ele>2041.471</ele>
        <time>2021-03-13T10:43:34Z</time>
      </trkpt>
      <trkpt lat="45.57572" lon="6.79696">
        <ele>2041.237</ele>
        <time>2021-03-13T10:43:39Z</time>
      </trkpt>
      <trkpt lat="45.57572" lon="6.79696">
        <ele>2041.323</ele>
        <time>2021-03-13T10:43:44Z</time>
      </trkpt>
      <trkpt lat="45.57572" lon="6.79696">
        <ele>2041.342</ele>
        <time>2021-03-13T10:43:49Z</time>
      </trkpt>
      <trkpt lat="45.57572" lon="6.79696">
        <ele>2041.349</ele>
        <time>2021-03-13T10:43:54Z</time>
      </trkpt>
      <trkpt lat="45.57573" lon="6.79697">
        <ele>2043.03</ele>
        <time>2021-03-13T10:43:59Z</time>
      </trkpt>
      <trkpt lat="45.57573" lon="6.79699">
        <ele>2043.484</ele>
        <time>2021-03-13T10:44:04Z</time>
      </trkpt>
      <trkpt lat="45.57576" lon="6.79701">
        <ele>2044.127</ele>
        <time>2021-03-13T10:44:09Z</time>
      </trkpt>
      <trkpt lat="45.57577" lon="6.79703">
        <ele>2045.437</ele>
        <time>2021-03-13T10:44:14Z</time>
      </trkpt>
      <trkpt lat="45.57579" lon="6.79705">
        <ele>2045.049</ele>
        <time>2021-03-13T10:44:19Z</time>
      </trkpt>
      <trkpt lat="45.57581" lon="6.79706">
        <ele>2045.002</ele>
        <time>2021-03-13T10:44:24Z</time>
      </trkpt>
      <trkpt lat="45.57584" lon="6.79709">
        <ele>2045.759</ele>
        <time>2021-03-13T10:44:29Z</time>
      </trkpt>
      <trkpt lat="45.57584" lon="6.79711">
        <ele>2046.945</ele>
        <time>2021-03-13T10:44:34Z</time>
      </trkpt>
      <trkpt lat="45.57584" lon="6.79713">
        <ele>2048.368</ele>
        <time>2021-03-13T10:44:39Z</time>
      </trkpt>
      <trkpt lat="45.57585" lon="6.79714">
        <ele>2048.497</ele>
        <time>2021-03-13T10:44:44Z</time>
      </trkpt>
      <trkpt lat="45.57586" lon="6.79716">
        <ele>2048.185</ele>
        <time>2021-03-13T10:44:49Z</time>
      </trkpt>
      <trkpt lat="45.57589" lon="6.79719">
        <ele>2048.258</ele>
        <time>2021-03-13T10:44:54Z</time>
      </trkpt>
      <trkpt lat="45.57592" lon="6.79723">
        <ele>2049.061</ele>
        <time>2021-03-13T10:44:59Z</time>
      </trkpt>
      <trkpt lat="45.57592" lon="6.79727">
        <ele>2049.94</ele>
        <time>2021-03-13T10:45:04Z</time>
      </trkpt>
      <trkpt lat="45.57592" lon="6.79731">
        <ele>2051.67</ele>
        <time>2021-03-13T10:45:09Z</time>
      </trkpt>
      <trkpt lat="45.57591" lon="6.79736">
        <ele>2051.431</ele>
        <time>2021-03-13T10:45:14Z</time>
      </trkpt>
      <trkpt lat="45.57588" lon="6.7974">
        <ele>2052.256</ele>
        <time>2021-03-13T10:45:19Z</time>
      </trkpt>
      <trkpt lat="45.57586" lon="6.79742">
        <ele>2054.159</ele>
        <time>2021-03-13T10:45:24Z</time>
      </trkpt>
      <trkpt lat="45.57585" lon="6.79743">
        <ele>2054.001</ele>
        <time>2021-03-13T10:45:29Z</time>
      </trkpt>
      <trkpt lat="45.57585" lon="6.79743">
        <ele>2054.256</ele>
        <time>2021-03-13T10:45:34Z</time>
      </trkpt>
      <trkpt lat="45.57585" lon="6.79743">
        <ele>2054.764</ele>
        <time>2021-03-13T10:45:39Z</time>
      </trkpt>
      <trkpt lat="45.57588" lon="6.79747">
        <ele>2054.843</ele>
        <time>2021-03-13T10:45:44Z</time>
      </trkpt>
      <trkpt lat="45.5759" lon="6.7975">
        <ele>2055.849</ele>
        <time>2021-03-13T10:45:49Z</time>
      </trkpt>
      <trkpt lat="45.57592" lon="6.79754">
        <ele>2056.513</ele>
        <time>2021-03-13T10:45:54Z</time>
      </trkpt>
      <trkpt lat="45.57594" lon="6.79757">
        <ele>2056.187</ele>
        <time>2021-03-13T10:45:59Z</time>
      </trkpt>
      <trkpt lat="45.57597" lon="6.79758">
        <ele>2057.093</ele>
        <time>2021-03-13T10:46:04Z</time>
      </trkpt>
      <trkpt lat="45.57597" lon="6.7976">
        <ele>2057.536</ele>
        <time>2021-03-13T10:46:09Z</time>
      </trkpt>
      <trkpt lat="45.57597" lon="6.79761">
        <ele>2058.543</ele>
        <time>2021-03-13T10:46:14Z</time>
      </trkpt>
      <trkpt lat="45.57593" lon="6.79765">
        <ele>2059.505</ele>
        <time>2021-03-13T10:46:19Z</time>
      </trkpt>
      <trkpt lat="45.5759" lon="6.79768">
        <ele>2061.828</ele>
        <time>2021-03-13T10:46:24Z</time>
      </trkpt>
      <trkpt lat="45.57586" lon="6.79773">
        <ele>2061.032</ele>
        <time>2021-03-13T10:46:29Z</time>
      </trkpt>
      <trkpt lat="45.57583" lon="6.79774">
        <ele>2063.026</ele>
        <time>2021-03-13T10:46:34Z</time>
      </trkpt>
      <trkpt lat="45.57582" lon="6.79774">
        <ele>2063.598</ele>
        <time>2021-03-13T10:46:39Z</time>
      </trkpt>
      <trkpt lat="45.57582" lon="6.79778">
        <ele>2064.159</ele>
        <time>2021-03-13T10:46:44Z</time>
      </trkpt>
      <trkpt lat="45.57585" lon="6.79785">
        <ele>2064.166</ele>
        <time>2021-03-13T10:46:49Z</time>
      </trkpt>
      <trkpt lat="45.57587" lon="6.79793">
        <ele>2065.157</ele>
        <time>2021-03-13T10:46:54Z</time>
      </trkpt>
      <trkpt lat="45.57589" lon="6.79796">
        <ele>2065.963</ele>
        <time>2021-03-13T10:46:59Z</time>
      </trkpt>
      <trkpt lat="45.57591" lon="6.79802">
        <ele>2067.575</ele>
        <time>2021-03-13T10:47:04Z</time>
      </trkpt>
      <trkpt lat="45.57594" lon="6.79805">
        <ele>2067.998</ele>
        <time>2021-03-13T10:47:09Z</time>
      </trkpt>
      <trkpt lat="45.57594" lon="6.79805">
        <ele>2067.531</ele>
        <time>2021-03-13T10:47:14Z</time>
      </trkpt>
      <trkpt lat="45.57595" lon="6.79805">
        <ele>2067.024</ele>
        <time>2021-03-13T10:47:19Z</time>
      </trkpt>
      <trkpt lat="45.57596" lon="6.79804">
        <ele>2066.386</ele>
        <time>2021-03-13T10:47:24Z</time>
      </trkpt>
      <trkpt lat="45.57596" lon="6.79804">
        <ele>2066.982</ele>
        <time>2021-03-13T10:47:29Z</time>
      </trkpt>
      <trkpt lat="45.57596" lon="6.79804">
        <ele>2066.383</ele>
        <time>2021-03-13T10:47:34Z</time>
      </trkpt>
      <trkpt lat="45.57596" lon="6.79804">
        <ele>2066.669</ele>
        <time>2021-03-13T10:47:39Z</time>
      </trkpt>
      <trkpt lat="45.57599" lon="6.79805">
        <ele>2067.113</ele>
        <time>2021-03-13T10:47:44Z</time>
      </trkpt>
      <trkpt lat="45.576" lon="6.79811">
        <ele>2067.673</ele>
        <time>2021-03-13T10:47:49Z</time>
      </trkpt>
      <trkpt lat="45.57601" lon="6.79817">
        <ele>2068.403</ele>
        <time>2021-03-13T10:47:54Z</time>
      </trkpt>
      <trkpt lat="45.57604" lon="6.79821">
        <ele>2069.856</ele>
        <time>2021-03-13T10:47:59Z</time>
      </trkpt>
      <trkpt lat="45.57607" lon="6.7982">
        <ele>2070.115</ele>
        <time>2021-03-13T10:48:04Z</time>
      </trkpt>
      <trkpt lat="45.57611" lon="6.79822">
        <ele>2071.766</ele>
        <time>2021-03-13T10:48:09Z</time>
      </trkpt>
      <trkpt lat="45.57615" lon="6.79824">
        <ele>2073.071</ele>
        <time>2021-03-13T10:48:14Z</time>
      </trkpt>
      <trkpt lat="45.57619" lon="6.79828">
        <ele>2073.769</ele>
        <time>2021-03-13T10:48:19Z</time>
      </trkpt>
      <trkpt lat="45.57621" lon="6.79827">
        <ele>2074.876</ele>
        <time>2021-03-13T10:48:24Z</time>
      </trkpt>
      <trkpt lat="45.57621" lon="6.79826">
        <ele>2074.42</ele>
        <time>2021-03-13T10:48:29Z</time>
      </trkpt>
      <trkpt lat="45.57621" lon="6.79825">
        <ele>2074.256</ele>
        <time>2021-03-13T10:48:34Z</time>
      </trkpt>
      <trkpt lat="45.57621" lon="6.79825">
        <ele>2074.253</ele>
        <time>2021-03-13T10:48:39Z</time>
      </trkpt>
      <trkpt lat="45.57621" lon="6.79825">
        <ele>2074.252</ele>
        <time>2021-03-13T10:48:44Z</time>
      </trkpt>
      <trkpt lat="45.57621" lon="6.79825">
        <ele>2074.253</ele>
        <time>2021-03-13T10:48:49Z</time>
      </trkpt>
      <trkpt lat="45.57621" lon="6.79825">
        <ele>2074.257</ele>
        <time>2021-03-13T10:48:54Z</time>
      </trkpt>
      <trkpt lat="45.57624" lon="6.79827">
        <ele>2074.822</ele>
        <time>2021-03-13T10:48:59Z</time>
      </trkpt>
      <trkpt lat="45.57626" lon="6.7983">
        <ele>2075.402</ele>
        <time>2021-03-13T10:49:04Z</time>
      </trkpt>
      <trkpt lat="45.57628" lon="6.79832">
        <ele>2076.423</ele>
        <time>2021-03-13T10:49:09Z</time>
      </trkpt>
      <trkpt lat="45.57629" lon="6.79835">
        <ele>2077.207</ele>
        <time>2021-03-13T10:49:14Z</time>
      </trkpt>
      <trkpt lat="45.5763" lon="6.79838">
        <ele>2078.262</ele>
        <time>2021-03-13T10:49:19Z</time>
      </trkpt>
      <trkpt lat="45.5763" lon="6.79839">
        <ele>2078.529</ele>
        <time>2021-03-13T10:49:24Z</time>
      </trkpt>
      <trkpt lat="45.5763" lon="6.79841">
        <ele>2080.022</ele>
        <time>2021-03-13T10:49:29Z</time>
      </trkpt>
      <trkpt lat="45.5763" lon="6.79842">
        <ele>2080.467</ele>
        <time>2021-03-13T10:49:34Z</time>
      </trkpt>
      <trkpt lat="45.57631" lon="6.79845">
        <ele>2081.464</ele>
        <time>2021-03-13T10:49:39Z</time>
      </trkpt>
      <trkpt lat="45.57632" lon="6.79849">
        <ele>2081.587</ele>
        <time>2021-03-13T10:49:44Z</time>
      </trkpt>
      <trkpt lat="45.57634" lon="6.79851">
        <ele>2081.754</ele>
        <time>2021-03-13T10:49:49Z</time>
      </trkpt>
      <trkpt lat="45.57635" lon="6.79854">
        <ele>2082.24</ele>
        <time>2021-03-13T10:49:54Z</time>
      </trkpt>
      <trkpt lat="45.57636" lon="6.79855">
        <ele>2082.404</ele>
        <time>2021-03-13T10:49:59Z</time>
      </trkpt>
      <trkpt lat="45.57636" lon="6.79858">
        <ele>2082.366</ele>
        <time>2021-03-13T10:50:04Z</time>
      </trkpt>
      <trkpt lat="45.57637" lon="6.79861">
        <ele>2083.478</ele>
        <time>2021-03-13T10:50:09Z</time>
      </trkpt>
      <trkpt lat="45.57637" lon="6.79863">
        <ele>2083.888</ele>
        <time>2021-03-13T10:50:14Z</time>
      </trkpt>
      <trkpt lat="45.57639" lon="6.79867">
        <ele>2085.332</ele>
        <time>2021-03-13T10:50:19Z</time>
      </trkpt>
      <trkpt lat="45.5764" lon="6.7987">
        <ele>2085.511</ele>
        <time>2021-03-13T10:50:24Z</time>
      </trkpt>
      <trkpt lat="45.57641" lon="6.7987">
        <ele>2084.167</ele>
        <time>2021-03-13T10:50:29Z</time>
      </trkpt>
      <trkpt lat="45.57641" lon="6.79871">
        <ele>2084.75</ele>
        <time>2021-03-13T10:50:34Z</time>
      </trkpt>
      <trkpt lat="45.57641" lon="6.79872">
        <ele>2084.458</ele>
        <time>2021-03-13T10:50:39Z</time>
      </trkpt>
      <trkpt lat="45.57642" lon="6.79874">
        <ele>2084.496</ele>
        <time>2021-03-13T10:50:44Z</time>
      </trkpt>
      <trkpt lat="45.57643" lon="6.79878">
        <ele>2085.257</ele>
        <time>2021-03-13T10:50:49Z</time>
      </trkpt>
      <trkpt lat="45.57642" lon="6.79876">
        <ele>2084.762</ele>
        <time>2021-03-13T10:50:54Z</time>
      </trkpt>
      <trkpt lat="45.57642" lon="6.79875">
        <ele>2085.173</ele>
        <time>2021-03-13T10:50:59Z</time>
      </trkpt>
      <trkpt lat="45.57642" lon="6.79875">
        <ele>2085.895</ele>
        <time>2021-03-13T10:51:04Z</time>
      </trkpt>
      <trkpt lat="45.57642" lon="6.79875">
        <ele>2085.736</ele>
        <time>2021-03-13T10:51:09Z</time>
      </trkpt>
      <trkpt lat="45.57642" lon="6.79875">
        <ele>2085.741</ele>
        <time>2021-03-13T10:51:14Z</time>
      </trkpt>
      <trkpt lat="45.57642" lon="6.79875">
        <ele>2085.732</ele>
        <time>2021-03-13T10:51:19Z</time>
      </trkpt>
      <trkpt lat="45.57643" lon="6.79879">
        <ele>2085.782</ele>
        <time>2021-03-13T10:51:24Z</time>
      </trkpt>
      <trkpt lat="45.57645" lon="6.79883">
        <ele>2086.208</ele>
        <time>2021-03-13T10:51:29Z</time>
      </trkpt>
      <trkpt lat="45.57646" lon="6.79884">
        <ele>2086.011</ele>
        <time>2021-03-13T10:51:34Z</time>
      </trkpt>
      <trkpt lat="45.57646" lon="6.79884">
        <ele>2085.405</ele>
        <time>2021-03-13T10:51:39Z</time>
      </trkpt>
      <trkpt lat="45.57648" lon="6.79887">
        <ele>2086.89</ele>
        <time>2021-03-13T10:51:44Z</time>
      </trkpt>
      <trkpt lat="45.57649" lon="6.79891">
        <ele>2088.236</ele>
        <time>2021-03-13T10:51:49Z</time>
      </trkpt>
      <trkpt lat="45.57651" lon="6.79896">
        <ele>2090.086</ele>
        <time>2021-03-13T10:51:54Z</time>
      </trkpt>
      <trkpt lat="45.57653" lon="6.79901">
        <ele>2089.812</ele>
        <time>2021-03-13T10:51:59Z</time>
      </trkpt>
      <trkpt lat="45.57652" lon="6.79902">
        <ele>2089.065</ele>
        <time>2021-03-13T10:52:04Z</time>
      </trkpt>
      <trkpt lat="45.57652" lon="6.79903">
        <ele>2088.516</ele>
        <time>2021-03-13T10:52:09Z</time>
      </trkpt>
      <trkpt lat="45.57653" lon="6.79906">
        <ele>2089.406</ele>
        <time>2021-03-13T10:52:14Z</time>
      </trkpt>
      <trkpt lat="45.57654" lon="6.79908">
        <ele>2089.688</ele>
        <time>2021-03-13T10:52:19Z</time>
      </trkpt>
      <trkpt lat="45.57656" lon="6.79909">
        <ele>2090.686</ele>
        <time>2021-03-13T10:52:24Z</time>
      </trkpt>
      <trkpt lat="45.57658" lon="6.79915">
        <ele>2092.526</ele>
        <time>2021-03-13T10:52:29Z</time>
      </trkpt>
      <trkpt lat="45.5766" lon="6.79921">
        <ele>2093.179</ele>
        <time>2021-03-13T10:52:34Z</time>
      </trkpt>
      <trkpt lat="45.57663" lon="6.79926">
        <ele>2093.43</ele>
        <time>2021-03-13T10:52:39Z</time>
      </trkpt>
      <trkpt lat="45.57666" lon="6.79932">
        <ele>2093.105</ele>
        <time>2021-03-13T10:52:44Z</time>
      </trkpt>
      <trkpt lat="45.57669" lon="6.79939">
        <ele>2094.184</ele>
        <time>2021-03-13T10:52:49Z</time>
      </trkpt>
      <trkpt lat="45.57671" lon="6.79945">
        <ele>2094.81</ele>
        <time>2021-03-13T10:52:54Z</time>
      </trkpt>
      <trkpt lat="45.5767" lon="6.79956">
        <ele>2095.151</ele>
        <time>2021-03-13T10:52:59Z</time>
      </trkpt>
      <trkpt lat="45.5767" lon="6.79963">
        <ele>2095.001</ele>
        <time>2021-03-13T10:53:04Z</time>
      </trkpt>
      <trkpt lat="45.5767" lon="6.79964">
        <ele>2094.46</ele>
        <time>2021-03-13T10:53:09Z</time>
      </trkpt>
      <trkpt lat="45.57671" lon="6.79966">
        <ele>2093.657</ele>
        <time>2021-03-13T10:53:14Z</time>
      </trkpt>
      <trkpt lat="45.57673" lon="6.79968">
        <ele>2093.56</ele>
        <time>2021-03-13T10:53:19Z</time>
      </trkpt>
      <trkpt lat="45.57678" lon="6.79971">
        <ele>2094.194</ele>
        <time>2021-03-13T10:53:24Z</time>
      </trkpt>
      <trkpt lat="45.57683" lon="6.79972">
        <ele>2093.07</ele>
        <time>2021-03-13T10:53:29Z</time>
      </trkpt>
      <trkpt lat="45.57689" lon="6.79972">
        <ele>2093.788</ele>
        <time>2021-03-13T10:53:34Z</time>
      </trkpt>
      <trkpt lat="45.57694" lon="6.79975">
        <ele>2093.776</ele>
        <time>2021-03-13T10:53:39Z</time>
      </trkpt>
      <trkpt lat="45.577" lon="6.79978">
        <ele>2093.719</ele>
        <time>2021-03-13T10:53:44Z</time>
      </trkpt>
      <trkpt lat="45.57704" lon="6.7998">
        <ele>2093.925</ele>
        <time>2021-03-13T10:53:49Z</time>
      </trkpt>
      <trkpt lat="45.57706" lon="6.79981">
        <ele>2094.339</ele>
        <time>2021-03-13T10:53:54Z</time>
      </trkpt>
      <trkpt lat="45.57705" lon="6.7998">
        <ele>2094.425</ele>
        <time>2021-03-13T10:53:59Z</time>
      </trkpt>
      <trkpt lat="45.57707" lon="6.7998">
        <ele>2092.577</ele>
        <time>2021-03-13T10:54:04Z</time>
      </trkpt>
      <trkpt lat="45.57712" lon="6.7998">
        <ele>2093.102</ele>
        <time>2021-03-13T10:54:09Z</time>
      </trkpt>
      <trkpt lat="45.57718" lon="6.7998">
        <ele>2093.184</ele>
        <time>2021-03-13T10:54:14Z</time>
      </trkpt>
      <trkpt lat="45.57724" lon="6.7998">
        <ele>2093.605</ele>
        <time>2021-03-13T10:54:19Z</time>
      </trkpt>
      <trkpt lat="45.57729" lon="6.79981">
        <ele>2094.538</ele>
        <time>2021-03-13T10:54:24Z</time>
      </trkpt>
      <trkpt lat="45.57733" lon="6.7998">
        <ele>2094.985</ele>
        <time>2021-03-13T10:54:29Z</time>
      </trkpt>
      <trkpt lat="45.57737" lon="6.79983">
        <ele>2095.527</ele>
        <time>2021-03-13T10:54:34Z</time>
      </trkpt>
      <trkpt lat="45.57737" lon="6.79986">
        <ele>2096.267</ele>
        <time>2021-03-13T10:54:39Z</time>
      </trkpt>
      <trkpt lat="45.57737" lon="6.79987">
        <ele>2096.255</ele>
        <time>2021-03-13T10:54:44Z</time>
      </trkpt>
      <trkpt lat="45.57738" lon="6.79987">
        <ele>2096.52</ele>
        <time>2021-03-13T10:54:49Z</time>
      </trkpt>
      <trkpt lat="45.57738" lon="6.79987">
        <ele>2096.527</ele>
        <time>2021-03-13T10:54:54Z</time>
      </trkpt>
      <trkpt lat="45.57738" lon="6.79987">
        <ele>2096.53</ele>
        <time>2021-03-13T10:54:59Z</time>
      </trkpt>
      <trkpt lat="45.57737" lon="6.79987">
        <ele>2096.684</ele>
        <time>2021-03-13T10:55:04Z</time>
      </trkpt>
      <trkpt lat="45.57737" lon="6.79987">
        <ele>2097.184</ele>
        <time>2021-03-13T10:55:09Z</time>
      </trkpt>
      <trkpt lat="45.57737" lon="6.79987">
        <ele>2098.251</ele>
        <time>2021-03-13T10:55:14Z</time>
      </trkpt>
      <trkpt lat="45.57737" lon="6.79987">
        <ele>2098.699</ele>
        <time>2021-03-13T10:55:19Z</time>
      </trkpt>
      <trkpt lat="45.57737" lon="6.79987">
        <ele>2098.761</ele>
        <time>2021-03-13T10:55:24Z</time>
      </trkpt>
      <trkpt lat="45.57737" lon="6.79987">
        <ele>2098.801</ele>
        <time>2021-03-13T10:55:29Z</time>
      </trkpt>
      <trkpt lat="45.57737" lon="6.79987">
        <ele>2098.809</ele>
        <time>2021-03-13T10:55:34Z</time>
      </trkpt>
      <trkpt lat="45.57737" lon="6.79987">
        <ele>2098.819</ele>
        <time>2021-03-13T10:55:39Z</time>
      </trkpt>
      <trkpt lat="45.57737" lon="6.79987">
        <ele>2098.824</ele>
        <time>2021-03-13T10:55:44Z</time>
      </trkpt>
      <trkpt lat="45.57737" lon="6.79987">
        <ele>2099.088</ele>
        <time>2021-03-13T10:55:49Z</time>
      </trkpt>
      <trkpt lat="45.57735" lon="6.79988">
        <ele>2097.408</ele>
        <time>2021-03-13T10:55:54Z</time>
      </trkpt>
      <trkpt lat="45.57736" lon="6.79987">
        <ele>2096.797</ele>
        <time>2021-03-13T10:55:59Z</time>
      </trkpt>
      <trkpt lat="45.57736" lon="6.79987">
        <ele>2097.053</ele>
        <time>2021-03-13T10:56:04Z</time>
      </trkpt>
      <trkpt lat="45.57735" lon="6.79987">
        <ele>2096.772</ele>
        <time>2021-03-13T10:56:09Z</time>
      </trkpt>
      <trkpt lat="45.57735" lon="6.79987">
        <ele>2096.766</ele>
        <time>2021-03-13T10:56:14Z</time>
      </trkpt>
      <trkpt lat="45.57735" lon="6.79987">
        <ele>2096.762</ele>
        <time>2021-03-13T10:56:19Z</time>
      </trkpt>
      <trkpt lat="45.57735" lon="6.79987">
        <ele>2095.696</ele>
        <time>2021-03-13T10:56:24Z</time>
      </trkpt>
      <trkpt lat="45.57735" lon="6.79987">
        <ele>2095.426</ele>
        <time>2021-03-13T10:56:29Z</time>
      </trkpt>
      <trkpt lat="45.57736" lon="6.79987">
        <ele>2095.657</ele>
        <time>2021-03-13T10:56:34Z</time>
      </trkpt>
      <trkpt lat="45.57736" lon="6.79987">
        <ele>2095.677</ele>
        <time>2021-03-13T10:56:39Z</time>
      </trkpt>
      <trkpt lat="45.57736" lon="6.79987">
        <ele>2095.678</ele>
        <time>2021-03-13T10:56:44Z</time>
      </trkpt>
      <trkpt lat="45.57736" lon="6.79987">
        <ele>2095.677</ele>
        <time>2021-03-13T10:56:49Z</time>
      </trkpt>
      <trkpt lat="45.57736" lon="6.79987">
        <ele>2095.673</ele>
        <time>2021-03-13T10:56:54Z</time>
      </trkpt>
      <trkpt lat="45.57736" lon="6.79987">
        <ele>2095.682</ele>
        <time>2021-03-13T10:56:59Z</time>
      </trkpt>
      <trkpt lat="45.57736" lon="6.79987">
        <ele>2095.707</ele>
        <time>2021-03-13T10:57:04Z</time>
      </trkpt>
      <trkpt lat="45.57736" lon="6.79988">
        <ele>2095.707</ele>
        <time>2021-03-13T10:57:09Z</time>
      </trkpt>
      <trkpt lat="45.57736" lon="6.79989">
        <ele>2095.743</ele>
        <time>2021-03-13T10:57:14Z</time>
      </trkpt>
      <trkpt lat="45.57736" lon="6.79988">
        <ele>2095.465</ele>
        <time>2021-03-13T10:57:19Z</time>
      </trkpt>
      <trkpt lat="45.57736" lon="6.79988">
        <ele>2096.109</ele>
        <time>2021-03-13T10:57:24Z</time>
      </trkpt>
      <trkpt lat="45.57736" lon="6.79988">
        <ele>2096.163</ele>
        <time>2021-03-13T10:57:29Z</time>
      </trkpt>
      <trkpt lat="45.57736" lon="6.79988">
        <ele>2096.17</ele>
        <time>2021-03-13T10:57:34Z</time>
      </trkpt>
      <trkpt lat="45.57736" lon="6.79988">
        <ele>2096.177</ele>
        <time>2021-03-13T10:57:39Z</time>
      </trkpt>
      <trkpt lat="45.57736" lon="6.79988">
        <ele>2096.176</ele>
        <time>2021-03-13T10:57:44Z</time>
      </trkpt>
      <trkpt lat="45.57736" lon="6.79988">
        <ele>2096.172</ele>
        <time>2021-03-13T10:57:49Z</time>
      </trkpt>
      <trkpt lat="45.57736" lon="6.79988">
        <ele>2096.178</ele>
        <time>2021-03-13T10:57:54Z</time>
      </trkpt>
      <trkpt lat="45.57736" lon="6.79988">
        <ele>2096.697</ele>
        <time>2021-03-13T10:57:59Z</time>
      </trkpt>
      <trkpt lat="45.57736" lon="6.79988">
        <ele>2096.299</ele>
        <time>2021-03-13T10:58:04Z</time>
      </trkpt>
      <trkpt lat="45.57735" lon="6.79988">
        <ele>2096.224</ele>
        <time>2021-03-13T10:58:09Z</time>
      </trkpt>
      <trkpt lat="45.57735" lon="6.79988">
        <ele>2096.397</ele>
        <time>2021-03-13T10:58:14Z</time>
      </trkpt>
      <trkpt lat="45.57736" lon="6.79988">
        <ele>2096.19</ele>
        <time>2021-03-13T10:58:19Z</time>
      </trkpt>
      <trkpt lat="45.57736" lon="6.79988">
        <ele>2096.187</ele>
        <time>2021-03-13T10:58:24Z</time>
      </trkpt>
      <trkpt lat="45.57736" lon="6.79988">
        <ele>2096.192</ele>
        <time>2021-03-13T10:58:29Z</time>
      </trkpt>
      <trkpt lat="45.57736" lon="6.79988">
        <ele>2096.23</ele>
        <time>2021-03-13T10:58:34Z</time>
      </trkpt>
      <trkpt lat="45.57735" lon="6.79988">
        <ele>2096.334</ele>
        <time>2021-03-13T10:58:39Z</time>
      </trkpt>
      <trkpt lat="45.57736" lon="6.79989">
        <ele>2096.516</ele>
        <time>2021-03-13T10:58:44Z</time>
      </trkpt>
      <trkpt lat="45.57737" lon="6.79993">
        <ele>2098.841</ele>
        <time>2021-03-13T10:58:49Z</time>
      </trkpt>
      <trkpt lat="45.57736" lon="6.79996">
        <ele>2100.184</ele>
        <time>2021-03-13T10:58:54Z</time>
      </trkpt>
      <trkpt lat="45.57736" lon="6.79997">
        <ele>2100.151</ele>
        <time>2021-03-13T10:58:59Z</time>
      </trkpt>
      <trkpt lat="45.57736" lon="6.79998">
        <ele>2100.093</ele>
        <time>2021-03-13T10:59:04Z</time>
      </trkpt>
      <trkpt lat="45.57736" lon="6.79997">
        <ele>2099.703</ele>
        <time>2021-03-13T10:59:09Z</time>
      </trkpt>
      <trkpt lat="45.57736" lon="6.79997">
        <ele>2099.757</ele>
        <time>2021-03-13T10:59:14Z</time>
      </trkpt>
      <trkpt lat="45.57736" lon="6.79997">
        <ele>2099.173</ele>
        <time>2021-03-13T10:59:19Z</time>
      </trkpt>
      <trkpt lat="45.57736" lon="6.79997">
        <ele>2098.92</ele>
        <time>2021-03-13T10:59:24Z</time>
      </trkpt>
      <trkpt lat="45.57736" lon="6.79997">
        <ele>2098.918</ele>
        <time>2021-03-13T10:59:29Z</time>
      </trkpt>
      <trkpt lat="45.57736" lon="6.79997">
        <ele>2098.907</ele>
        <time>2021-03-13T10:59:34Z</time>
      </trkpt>
      <trkpt lat="45.57736" lon="6.79997">
        <ele>2098.901</ele>
        <time>2021-03-13T10:59:39Z</time>
      </trkpt>
      <trkpt lat="45.57736" lon="6.79997">
        <ele>2098.901</ele>
        <time>2021-03-13T10:59:44Z</time>
      </trkpt>
      <trkpt lat="45.57736" lon="6.79997">
        <ele>2098.896</ele>
        <time>2021-03-13T10:59:49Z</time>
      </trkpt>
      <trkpt lat="45.57736" lon="6.79997">
        <ele>2098.895</ele>
        <time>2021-03-13T10:59:54Z</time>
      </trkpt>
      <trkpt lat="45.57736" lon="6.79997">
        <ele>2098.898</ele>
        <time>2021-03-13T10:59:59Z</time>
      </trkpt>
      <trkpt lat="45.57735" lon="6.79998">
        <ele>2098.275</ele>
        <time>2021-03-13T11:00:04Z</time>
      </trkpt>
      <trkpt lat="45.57734" lon="6.8">
        <ele>2098.421</ele>
        <time>2021-03-13T11:00:09Z</time>
      </trkpt>
      <trkpt lat="45.57732" lon="6.80002">
        <ele>2099.449</ele>
        <time>2021-03-13T11:00:14Z</time>
      </trkpt>
      <trkpt lat="45.57731" lon="6.80005">
        <ele>2099.908</ele>
        <time>2021-03-13T11:00:19Z</time>
      </trkpt>
      <trkpt lat="45.57729" lon="6.80008">
        <ele>2101.158</ele>
        <time>2021-03-13T11:00:24Z</time>
      </trkpt>
      <trkpt lat="45.57726" lon="6.80012">
        <ele>2101.778</ele>
        <time>2021-03-13T11:00:29Z</time>
      </trkpt>
      <trkpt lat="45.57723" lon="6.80016">
        <ele>2101.797</ele>
        <time>2021-03-13T11:00:34Z</time>
      </trkpt>
      <trkpt lat="45.57721" lon="6.8002">
        <ele>2102.22</ele>
        <time>2021-03-13T11:00:39Z</time>
      </trkpt>
      <trkpt lat="45.57718" lon="6.80023">
        <ele>2101.805</ele>
        <time>2021-03-13T11:00:44Z</time>
      </trkpt>
      <trkpt lat="45.57716" lon="6.80027">
        <ele>2102.169</ele>
        <time>2021-03-13T11:00:49Z</time>
      </trkpt>
      <trkpt lat="45.57713" lon="6.8003">
        <ele>2102.989</ele>
        <time>2021-03-13T11:00:54Z</time>
      </trkpt>
      <trkpt lat="45.5771" lon="6.80033">
        <ele>2104.121</ele>
        <time>2021-03-13T11:00:59Z</time>
      </trkpt>
      <trkpt lat="45.57707" lon="6.80036">
        <ele>2104.34</ele>
        <time>2021-03-13T11:01:04Z</time>
      </trkpt>
      <trkpt lat="45.57705" lon="6.80039">
        <ele>2104.334</ele>
        <time>2021-03-13T11:01:09Z</time>
      </trkpt>
      <trkpt lat="45.57702" lon="6.80043">
        <ele>2104.495</ele>
        <time>2021-03-13T11:01:14Z</time>
      </trkpt>
      <trkpt lat="45.57698" lon="6.80046">
        <ele>2105.341</ele>
        <time>2021-03-13T11:01:19Z</time>
      </trkpt>
      <trkpt lat="45.57696" lon="6.80049">
        <ele>2106.076</ele>
        <time>2021-03-13T11:01:24Z</time>
      </trkpt>
      <trkpt lat="45.57693" lon="6.80053">
        <ele>2105.339</ele>
        <time>2021-03-13T11:01:29Z</time>
      </trkpt>
      <trkpt lat="45.5769" lon="6.80056">
        <ele>2104.772</ele>
        <time>2021-03-13T11:01:34Z</time>
      </trkpt>
      <trkpt lat="45.57691" lon="6.80055">
        <ele>2104.772</ele>
        <time>2021-03-13T11:01:39Z</time>
      </trkpt>
      <trkpt lat="45.57689" lon="6.80058">
        <ele>2105.19</ele>
        <time>2021-03-13T11:01:44Z</time>
      </trkpt>
      <trkpt lat="45.57686" lon="6.8006">
        <ele>2106.564</ele>
        <time>2021-03-13T11:01:49Z</time>
      </trkpt>
      <trkpt lat="45.57682" lon="6.80062">
        <ele>2107.782</ele>
        <time>2021-03-13T11:01:54Z</time>
      </trkpt>
      <trkpt lat="45.57679" lon="6.80064">
        <ele>2107.843</ele>
        <time>2021-03-13T11:01:59Z</time>
      </trkpt>
      <trkpt lat="45.57675" lon="6.80066">
        <ele>2109.466</ele>
        <time>2021-03-13T11:02:04Z</time>
      </trkpt>
      <trkpt lat="45.57672" lon="6.80067">
        <ele>2109.845</ele>
        <time>2021-03-13T11:02:09Z</time>
      </trkpt>
      <trkpt lat="45.57668" lon="6.80068">
        <ele>2110.85</ele>
        <time>2021-03-13T11:02:14Z</time>
      </trkpt>
      <trkpt lat="45.57665" lon="6.8007">
        <ele>2110.846</ele>
        <time>2021-03-13T11:02:19Z</time>
      </trkpt>
      <trkpt lat="45.57662" lon="6.80071">
        <ele>2111.625</ele>
        <time>2021-03-13T11:02:24Z</time>
      </trkpt>
      <trkpt lat="45.57659" lon="6.80073">
        <ele>2111.95</ele>
        <time>2021-03-13T11:02:29Z</time>
      </trkpt>
      <trkpt lat="45.57655" lon="6.80075">
        <ele>2113.255</ele>
        <time>2021-03-13T11:02:34Z</time>
      </trkpt>
      <trkpt lat="45.57653" lon="6.80076">
        <ele>2114.355</ele>
        <time>2021-03-13T11:02:39Z</time>
      </trkpt>
      <trkpt lat="45.57654" lon="6.80076">
        <ele>2114.338</ele>
        <time>2021-03-13T11:02:44Z</time>
      </trkpt>
      <trkpt lat="45.57654" lon="6.80076">
        <ele>2113.494</ele>
        <time>2021-03-13T11:02:49Z</time>
      </trkpt>
      <trkpt lat="45.57654" lon="6.80077">
        <ele>2113.254</ele>
        <time>2021-03-13T11:02:54Z</time>
      </trkpt>
      <trkpt lat="45.57654" lon="6.80076">
        <ele>2112.468</ele>
        <time>2021-03-13T11:02:59Z</time>
      </trkpt>
      <trkpt lat="45.57651" lon="6.80077">
        <ele>2112.95</ele>
        <time>2021-03-13T11:03:04Z</time>
      </trkpt>
      <trkpt lat="45.57647" lon="6.80078">
        <ele>2114.037</ele>
        <time>2021-03-13T11:03:09Z</time>
      </trkpt>
      <trkpt lat="45.57643" lon="6.80078">
        <ele>2114.255</ele>
        <time>2021-03-13T11:03:14Z</time>
      </trkpt>
      <trkpt lat="45.57639" lon="6.80078">
        <ele>2114.905</ele>
        <time>2021-03-13T11:03:19Z</time>
      </trkpt>
      <trkpt lat="45.57636" lon="6.80078">
        <ele>2115.65</ele>
        <time>2021-03-13T11:03:24Z</time>
      </trkpt>
      <trkpt lat="45.57635" lon="6.80078">
        <ele>2117.261</ele>
        <time>2021-03-13T11:03:29Z</time>
      </trkpt>
      <trkpt lat="45.57635" lon="6.80078">
        <ele>2117.948</ele>
        <time>2021-03-13T11:03:34Z</time>
      </trkpt>
      <trkpt lat="45.57634" lon="6.80078">
        <ele>2116.367</ele>
        <time>2021-03-13T11:03:39Z</time>
      </trkpt>
      <trkpt lat="45.57631" lon="6.80078">
        <ele>2117.861</ele>
        <time>2021-03-13T11:03:44Z</time>
      </trkpt>
      <trkpt lat="45.57629" lon="6.80078">
        <ele>2118.912</ele>
        <time>2021-03-13T11:03:49Z</time>
      </trkpt>
      <trkpt lat="45.57627" lon="6.80079">
        <ele>2118.678</ele>
        <time>2021-03-13T11:03:54Z</time>
      </trkpt>
      <trkpt lat="45.57623" lon="6.80078">
        <ele>2119.233</ele>
        <time>2021-03-13T11:03:59Z</time>
      </trkpt>
      <trkpt lat="45.57621" lon="6.80079">
        <ele>2118.589</ele>
        <time>2021-03-13T11:04:04Z</time>
      </trkpt>
      <trkpt lat="45.57618" lon="6.80079">
        <ele>2118.65</ele>
        <time>2021-03-13T11:04:09Z</time>
      </trkpt>
      <trkpt lat="45.57615" lon="6.80079">
        <ele>2119.586</ele>
        <time>2021-03-13T11:04:14Z</time>
      </trkpt>
      <trkpt lat="45.57611" lon="6.8008">
        <ele>2119.907</ele>
        <time>2021-03-13T11:04:19Z</time>
      </trkpt>
      <trkpt lat="45.57609" lon="6.80081">
        <ele>2120.753</ele>
        <time>2021-03-13T11:04:24Z</time>
      </trkpt>
      <trkpt lat="45.57605" lon="6.80082">
        <ele>2120.673</ele>
        <time>2021-03-13T11:04:29Z</time>
      </trkpt>
      <trkpt lat="45.57601" lon="6.80082">
        <ele>2120.991</ele>
        <time>2021-03-13T11:04:34Z</time>
      </trkpt>
      <trkpt lat="45.57597" lon="6.80084">
        <ele>2121.054</ele>
        <time>2021-03-13T11:04:39Z</time>
      </trkpt>
      <trkpt lat="45.57593" lon="6.80085">
        <ele>2121.083</ele>
        <time>2021-03-13T11:04:44Z</time>
      </trkpt>
      <trkpt lat="45.5759" lon="6.80086">
        <ele>2121.833</ele>
        <time>2021-03-13T11:04:49Z</time>
      </trkpt>
      <trkpt lat="45.57589" lon="6.80086">
        <ele>2122.861</ele>
        <time>2021-03-13T11:04:54Z</time>
      </trkpt>
      <trkpt lat="45.57589" lon="6.80086">
        <ele>2122.105</ele>
        <time>2021-03-13T11:04:59Z</time>
      </trkpt>
      <trkpt lat="45.57589" lon="6.80087">
        <ele>2121.866</ele>
        <time>2021-03-13T11:05:04Z</time>
      </trkpt>
      <trkpt lat="45.57585" lon="6.80088">
        <ele>2123.274</ele>
        <time>2021-03-13T11:05:09Z</time>
      </trkpt>
      <trkpt lat="45.57582" lon="6.80091">
        <ele>2123.302</ele>
        <time>2021-03-13T11:05:14Z</time>
      </trkpt>
      <trkpt lat="45.57578" lon="6.80095">
        <ele>2124.42</ele>
        <time>2021-03-13T11:05:19Z</time>
      </trkpt>
      <trkpt lat="45.57576" lon="6.801">
        <ele>2124.873</ele>
        <time>2021-03-13T11:05:24Z</time>
      </trkpt>
      <trkpt lat="45.57575" lon="6.80106">
        <ele>2125.405</ele>
        <time>2021-03-13T11:05:29Z</time>
      </trkpt>
      <trkpt lat="45.57574" lon="6.80109">
        <ele>2125.611</ele>
        <time>2021-03-13T11:05:34Z</time>
      </trkpt>
      <trkpt lat="45.57571" lon="6.80113">
        <ele>2126.472</ele>
        <time>2021-03-13T11:05:39Z</time>
      </trkpt>
      <trkpt lat="45.57569" lon="6.80115">
        <ele>2127.217</ele>
        <time>2021-03-13T11:05:44Z</time>
      </trkpt>
      <trkpt lat="45.57571" lon="6.80116">
        <ele>2128.6</ele>
        <time>2021-03-13T11:05:49Z</time>
      </trkpt>
      <trkpt lat="45.57573" lon="6.80114">
        <ele>2128.73</ele>
        <time>2021-03-13T11:05:54Z</time>
      </trkpt>
      <trkpt lat="45.57576" lon="6.80115">
        <ele>2129.593</ele>
        <time>2021-03-13T11:05:59Z</time>
      </trkpt>
      <trkpt lat="45.57578" lon="6.80115">
        <ele>2130.238</ele>
        <time>2021-03-13T11:06:04Z</time>
      </trkpt>
      <trkpt lat="45.57576" lon="6.80117">
        <ele>2130.56</ele>
        <time>2021-03-13T11:06:09Z</time>
      </trkpt>
      <trkpt lat="45.57575" lon="6.80123">
        <ele>2131.51</ele>
        <time>2021-03-13T11:06:14Z</time>
      </trkpt>
      <trkpt lat="45.57575" lon="6.8013">
        <ele>2132.778</ele>
        <time>2021-03-13T11:06:19Z</time>
      </trkpt>
      <trkpt lat="45.57575" lon="6.80134">
        <ele>2133.686</ele>
        <time>2021-03-13T11:06:24Z</time>
      </trkpt>
      <trkpt lat="45.57575" lon="6.80134">
        <ele>2133.923</ele>
        <time>2021-03-13T11:06:29Z</time>
      </trkpt>
      <trkpt lat="45.57575" lon="6.80138">
        <ele>2135.088</ele>
        <time>2021-03-13T11:06:34Z</time>
      </trkpt>
      <trkpt lat="45.57575" lon="6.80144">
        <ele>2136.154</ele>
        <time>2021-03-13T11:06:39Z</time>
      </trkpt>
      <trkpt lat="45.57576" lon="6.80145">
        <ele>2134.416</ele>
        <time>2021-03-13T11:06:44Z</time>
      </trkpt>
      <trkpt lat="45.57576" lon="6.80145">
        <ele>2134.429</ele>
        <time>2021-03-13T11:06:49Z</time>
      </trkpt>
      <trkpt lat="45.57576" lon="6.80145">
        <ele>2134.109</ele>
        <time>2021-03-13T11:06:54Z</time>
      </trkpt>
      <trkpt lat="45.57576" lon="6.80145">
        <ele>2134.123</ele>
        <time>2021-03-13T11:06:59Z</time>
      </trkpt>
      <trkpt lat="45.57576" lon="6.80145">
        <ele>2134.125</ele>
        <time>2021-03-13T11:07:04Z</time>
      </trkpt>
      <trkpt lat="45.57576" lon="6.8015">
        <ele>2136.033</ele>
        <time>2021-03-13T11:07:09Z</time>
      </trkpt>
      <trkpt lat="45.57574" lon="6.80156">
        <ele>2137.325</ele>
        <time>2021-03-13T11:07:14Z</time>
      </trkpt>
      <trkpt lat="45.57573" lon="6.80157">
        <ele>2137.883</ele>
        <time>2021-03-13T11:07:19Z</time>
      </trkpt>
      <trkpt lat="45.57573" lon="6.80157">
        <ele>2137.35</ele>
        <time>2021-03-13T11:07:24Z</time>
      </trkpt>
      <trkpt lat="45.57572" lon="6.80164">
        <ele>2138.207</ele>
        <time>2021-03-13T11:07:29Z</time>
      </trkpt>
      <trkpt lat="45.57571" lon="6.8017">
        <ele>2138.428</ele>
        <time>2021-03-13T11:07:34Z</time>
      </trkpt>
      <trkpt lat="45.57571" lon="6.80171">
        <ele>2138.102</ele>
        <time>2021-03-13T11:07:39Z</time>
      </trkpt>
      <trkpt lat="45.57571" lon="6.80176">
        <ele>2138.848</ele>
        <time>2021-03-13T11:07:44Z</time>
      </trkpt>
      <trkpt lat="45.5757" lon="6.80183">
        <ele>2140.247</ele>
        <time>2021-03-13T11:07:49Z</time>
      </trkpt>
      <trkpt lat="45.5757" lon="6.8019">
        <ele>2141.93</ele>
        <time>2021-03-13T11:07:54Z</time>
      </trkpt>
      <trkpt lat="45.57569" lon="6.80197">
        <ele>2142.954</ele>
        <time>2021-03-13T11:07:59Z</time>
      </trkpt>
      <trkpt lat="45.57569" lon="6.80203">
        <ele>2143.826</ele>
        <time>2021-03-13T11:08:04Z</time>
      </trkpt>
      <trkpt lat="45.5757" lon="6.80207">
        <ele>2144.069</ele>
        <time>2021-03-13T11:08:09Z</time>
      </trkpt>
      <trkpt lat="45.5757" lon="6.80208">
        <ele>2142.498</ele>
        <time>2021-03-13T11:08:14Z</time>
      </trkpt>
      <trkpt lat="45.5757" lon="6.80208">
        <ele>2141.39</ele>
        <time>2021-03-13T11:08:19Z</time>
      </trkpt>
      <trkpt lat="45.5757" lon="6.80208">
        <ele>2141.315</ele>
        <time>2021-03-13T11:08:24Z</time>
      </trkpt>
      <trkpt lat="45.5757" lon="6.80208">
        <ele>2141.324</ele>
        <time>2021-03-13T11:08:29Z</time>
      </trkpt>
      <trkpt lat="45.5757" lon="6.80208">
        <ele>2141.326</ele>
        <time>2021-03-13T11:08:34Z</time>
      </trkpt>
      <trkpt lat="45.5757" lon="6.80208">
        <ele>2141.325</ele>
        <time>2021-03-13T11:08:39Z</time>
      </trkpt>
      <trkpt lat="45.5757" lon="6.80208">
        <ele>2141.328</ele>
        <time>2021-03-13T11:08:44Z</time>
      </trkpt>
      <trkpt lat="45.5757" lon="6.80208">
        <ele>2141.327</ele>
        <time>2021-03-13T11:08:49Z</time>
      </trkpt>
      <trkpt lat="45.5757" lon="6.80208">
        <ele>2141.333</ele>
        <time>2021-03-13T11:08:54Z</time>
      </trkpt>
      <trkpt lat="45.5757" lon="6.80209">
        <ele>2141.891</ele>
        <time>2021-03-13T11:08:59Z</time>
      </trkpt>
      <trkpt lat="45.57569" lon="6.8021">
        <ele>2143.317</ele>
        <time>2021-03-13T11:09:04Z</time>
      </trkpt>
      <trkpt lat="45.57568" lon="6.80211">
        <ele>2142.736</ele>
        <time>2021-03-13T11:09:09Z</time>
      </trkpt>
      <trkpt lat="45.57569" lon="6.80213">
        <ele>2142.253</ele>
        <time>2021-03-13T11:09:14Z</time>
      </trkpt>
      <trkpt lat="45.57569" lon="6.80218">
        <ele>2142.539</ele>
        <time>2021-03-13T11:09:19Z</time>
      </trkpt>
      <trkpt lat="45.57566" lon="6.80229">
        <ele>2142.26</ele>
        <time>2021-03-13T11:09:24Z</time>
      </trkpt>
      <trkpt lat="45.57564" lon="6.80237">
        <ele>2142.432</ele>
        <time>2021-03-13T11:09:29Z</time>
      </trkpt>
      <trkpt lat="45.57562" lon="6.80246">
        <ele>2143.367</ele>
        <time>2021-03-13T11:09:34Z</time>
      </trkpt>
      <trkpt lat="45.57562" lon="6.80247">
        <ele>2143.796</ele>
        <time>2021-03-13T11:09:39Z</time>
      </trkpt>
      <trkpt lat="45.5756" lon="6.80254">
        <ele>2143.888</ele>
        <time>2021-03-13T11:09:44Z</time>
      </trkpt>
      <trkpt lat="45.57558" lon="6.80261">
        <ele>2146.813</ele>
        <time>2021-03-13T11:09:49Z</time>
      </trkpt>
      <trkpt lat="45.57557" lon="6.80262">
        <ele>2145.907</ele>
        <time>2021-03-13T11:09:54Z</time>
      </trkpt>
      <trkpt lat="45.57552" lon="6.80265">
        <ele>2146.397</ele>
        <time>2021-03-13T11:09:59Z</time>
      </trkpt>
      <trkpt lat="45.57539" lon="6.80268">
        <ele>2144.367</ele>
        <time>2021-03-13T11:10:04Z</time>
      </trkpt>
      <trkpt lat="45.57538" lon="6.80269">
        <ele>2144.184</ele>
        <time>2021-03-13T11:10:09Z</time>
      </trkpt>
      <trkpt lat="45.57539" lon="6.80269">
        <ele>2143.986</ele>
        <time>2021-03-13T11:10:14Z</time>
      </trkpt>
      <trkpt lat="45.57546" lon="6.80265">
        <ele>2146.318</ele>
        <time>2021-03-13T11:10:19Z</time>
      </trkpt>
      <trkpt lat="45.57548" lon="6.80263">
        <ele>2146.563</ele>
        <time>2021-03-13T11:10:24Z</time>
      </trkpt>
      <trkpt lat="45.57548" lon="6.80263">
        <ele>2146.32</ele>
        <time>2021-03-13T11:10:29Z</time>
      </trkpt>
      <trkpt lat="45.57548" lon="6.80264">
        <ele>2146.741</ele>
        <time>2021-03-13T11:10:34Z</time>
      </trkpt>
      <trkpt lat="45.57548" lon="6.80265">
        <ele>2146.347</ele>
        <time>2021-03-13T11:10:39Z</time>
      </trkpt>
      <trkpt lat="45.57548" lon="6.80265">
        <ele>2146.11</ele>
        <time>2021-03-13T11:10:44Z</time>
      </trkpt>
      <trkpt lat="45.57548" lon="6.80266">
        <ele>2146.549</ele>
        <time>2021-03-13T11:10:49Z</time>
      </trkpt>
      <trkpt lat="45.57544" lon="6.80268">
        <ele>2145.349</ele>
        <time>2021-03-13T11:10:54Z</time>
      </trkpt>
      <trkpt lat="45.57537" lon="6.80268">
        <ele>2145.656</ele>
        <time>2021-03-13T11:10:59Z</time>
      </trkpt>
      <trkpt lat="45.57538" lon="6.80268">
        <ele>2146.209</ele>
        <time>2021-03-13T11:11:04Z</time>
      </trkpt>
      <trkpt lat="45.57538" lon="6.80268">
        <ele>2146.585</ele>
        <time>2021-03-13T11:11:09Z</time>
      </trkpt>
      <trkpt lat="45.57538" lon="6.80268">
        <ele>2146.601</ele>
        <time>2021-03-13T11:11:14Z</time>
      </trkpt>
      <trkpt lat="45.57538" lon="6.80268">
        <ele>2146.595</ele>
        <time>2021-03-13T11:11:19Z</time>
      </trkpt>
      <trkpt lat="45.57538" lon="6.80268">
        <ele>2146.59</ele>
        <time>2021-03-13T11:11:24Z</time>
      </trkpt>
      <trkpt lat="45.57538" lon="6.80269">
        <ele>2146.268</ele>
        <time>2021-03-13T11:11:29Z</time>
      </trkpt>
      <trkpt lat="45.57539" lon="6.80269">
        <ele>2145.486</ele>
        <time>2021-03-13T11:11:34Z</time>
      </trkpt>
      <trkpt lat="45.5754" lon="6.8027">
        <ele>2145.37</ele>
        <time>2021-03-13T11:11:39Z</time>
      </trkpt>
      <trkpt lat="45.57541" lon="6.8027">
        <ele>2145.063</ele>
        <time>2021-03-13T11:11:44Z</time>
      </trkpt>
      <trkpt lat="45.57541" lon="6.80269">
        <ele>2144.867</ele>
        <time>2021-03-13T11:11:49Z</time>
      </trkpt>
      <trkpt lat="45.57541" lon="6.8027">
        <ele>2145.105</ele>
        <time>2021-03-13T11:11:54Z</time>
      </trkpt>
      <trkpt lat="45.57541" lon="6.80271">
        <ele>2143.852</ele>
        <time>2021-03-13T11:11:59Z</time>
      </trkpt>
      <trkpt lat="45.57541" lon="6.80271">
        <ele>2144.817</ele>
        <time>2021-03-13T11:12:04Z</time>
      </trkpt>
      <trkpt lat="45.57542" lon="6.8027">
        <ele>2144.953</ele>
        <time>2021-03-13T11:12:09Z</time>
      </trkpt>
      <trkpt lat="45.57542" lon="6.80268">
        <ele>2145.683</ele>
        <time>2021-03-13T11:12:14Z</time>
      </trkpt>
      <trkpt lat="45.57541" lon="6.80269">
        <ele>2144.929</ele>
        <time>2021-03-13T11:12:19Z</time>
      </trkpt>
      <trkpt lat="45.57541" lon="6.80269">
        <ele>2144.122</ele>
        <time>2021-03-13T11:12:24Z</time>
      </trkpt>
      <trkpt lat="45.5754" lon="6.80268">
        <ele>2146.824</ele>
        <time>2021-03-13T11:12:29Z</time>
      </trkpt>
      <trkpt lat="45.57541" lon="6.80271">
        <ele>2145.646</ele>
        <time>2021-03-13T11:12:34Z</time>
      </trkpt>
      <trkpt lat="45.57542" lon="6.80272">
        <ele>2145.27</ele>
        <time>2021-03-13T11:12:39Z</time>
      </trkpt>
      <trkpt lat="45.57542" lon="6.8027">
        <ele>2145.408</ele>
        <time>2021-03-13T11:12:44Z</time>
      </trkpt>
      <trkpt lat="45.57538" lon="6.8027">
        <ele>2145.812</ele>
        <time>2021-03-13T11:12:49Z</time>
      </trkpt>
      <trkpt lat="45.57537" lon="6.80274">
        <ele>2145.614</ele>
        <time>2021-03-13T11:12:54Z</time>
      </trkpt>
      <trkpt lat="45.57537" lon="6.80274">
        <ele>2146.378</ele>
        <time>2021-03-13T11:12:59Z</time>
      </trkpt>
      <trkpt lat="45.57536" lon="6.80274">
        <ele>2146.823</ele>
        <time>2021-03-13T11:13:04Z</time>
      </trkpt>
      <trkpt lat="45.57536" lon="6.80274">
        <ele>2146.822</ele>
        <time>2021-03-13T11:13:09Z</time>
      </trkpt>
      <trkpt lat="45.57536" lon="6.80274">
        <ele>2146.821</ele>
        <time>2021-03-13T11:13:14Z</time>
      </trkpt>
      <trkpt lat="45.57536" lon="6.80274">
        <ele>2146.816</ele>
        <time>2021-03-13T11:13:19Z</time>
      </trkpt>
      <trkpt lat="45.57536" lon="6.80274">
        <ele>2146.815</ele>
        <time>2021-03-13T11:13:24Z</time>
      </trkpt>
      <trkpt lat="45.57536" lon="6.80274">
        <ele>2146.81</ele>
        <time>2021-03-13T11:13:29Z</time>
      </trkpt>
      <trkpt lat="45.57536" lon="6.80274">
        <ele>2146.804</ele>
        <time>2021-03-13T11:13:34Z</time>
      </trkpt>
      <trkpt lat="45.57539" lon="6.8027">
        <ele>2146.754</ele>
        <time>2021-03-13T11:13:39Z</time>
      </trkpt>
      <trkpt lat="45.57539" lon="6.80268">
        <ele>2146.867</ele>
        <time>2021-03-13T11:13:44Z</time>
      </trkpt>
      <trkpt lat="45.5754" lon="6.80268">
        <ele>2146.227</ele>
        <time>2021-03-13T11:13:49Z</time>
      </trkpt>
      <trkpt lat="45.5754" lon="6.80269">
        <ele>2146.176</ele>
        <time>2021-03-13T11:13:54Z</time>
      </trkpt>
      <trkpt lat="45.57542" lon="6.80269">
        <ele>2144.594</ele>
        <time>2021-03-13T11:13:59Z</time>
      </trkpt>
      <trkpt lat="45.57542" lon="6.80269">
        <ele>2143.887</ele>
        <time>2021-03-13T11:14:04Z</time>
      </trkpt>
      <trkpt lat="45.57542" lon="6.80269">
        <ele>2142.999</ele>
        <time>2021-03-13T11:14:09Z</time>
      </trkpt>
      <trkpt lat="45.57542" lon="6.80271">
        <ele>2144.184</ele>
        <time>2021-03-13T11:14:14Z</time>
      </trkpt>
      <trkpt lat="45.57542" lon="6.80272">
        <ele>2144.107</ele>
        <time>2021-03-13T11:14:19Z</time>
      </trkpt>
      <trkpt lat="45.57542" lon="6.8027">
        <ele>2144.186</ele>
        <time>2021-03-13T11:14:24Z</time>
      </trkpt>
      <trkpt lat="45.57542" lon="6.8027">
        <ele>2144.002</ele>
        <time>2021-03-13T11:14:29Z</time>
      </trkpt>
      <trkpt lat="45.57541" lon="6.8027">
        <ele>2143.96</ele>
        <time>2021-03-13T11:14:33Z</time>
      </trkpt>
      <trkpt lat="45.57541" lon="6.8027">
        <ele>2143.965</ele>
        <time>2021-03-13T11:14:39Z</time>
      </trkpt>
      <trkpt lat="45.57541" lon="6.8027">
        <ele>2143.956</ele>
        <time>2021-03-13T11:14:44Z</time>
      </trkpt>
      <trkpt lat="45.57541" lon="6.8027">
        <ele>2143.948</ele>
        <time>2021-03-13T11:14:49Z</time>
      </trkpt>
      <trkpt lat="45.57541" lon="6.8027">
        <ele>2143.944</ele>
        <time>2021-03-13T11:14:54Z</time>
      </trkpt>
      <trkpt lat="45.57541" lon="6.8027">
        <ele>2143.941</ele>
        <time>2021-03-13T11:14:59Z</time>
      </trkpt>
      <trkpt lat="45.57541" lon="6.8027">
        <ele>2143.928</ele>
        <time>2021-03-13T11:15:04Z</time>
      </trkpt>
      <trkpt lat="45.57541" lon="6.8027">
        <ele>2143.928</ele>
        <time>2021-03-13T11:15:09Z</time>
      </trkpt>
      <trkpt lat="45.57541" lon="6.8027">
        <ele>2143.928</ele>
        <time>2021-03-13T11:15:14Z</time>
      </trkpt>
      <trkpt lat="45.57541" lon="6.8027">
        <ele>2143.929</ele>
        <time>2021-03-13T11:15:19Z</time>
      </trkpt>
      <trkpt lat="45.57541" lon="6.8027">
        <ele>2143.93</ele>
        <time>2021-03-13T11:15:24Z</time>
      </trkpt>
      <trkpt lat="45.57541" lon="6.8027">
        <ele>2143.93</ele>
        <time>2021-03-13T11:15:29Z</time>
      </trkpt>
      <trkpt lat="45.57541" lon="6.8027">
        <ele>2143.928</ele>
        <time>2021-03-13T11:15:34Z</time>
      </trkpt>
      <trkpt lat="45.57541" lon="6.8027">
        <ele>2143.928</ele>
        <time>2021-03-13T11:15:39Z</time>
      </trkpt>
      <trkpt lat="45.57541" lon="6.8027">
        <ele>2143.932</ele>
        <time>2021-03-13T11:15:44Z</time>
      </trkpt>
      <trkpt lat="45.57541" lon="6.8027">
        <ele>2143.937</ele>
        <time>2021-03-13T11:15:49Z</time>
      </trkpt>
      <trkpt lat="45.57541" lon="6.8027">
        <ele>2143.946</ele>
        <time>2021-03-13T11:15:54Z</time>
      </trkpt>
      <trkpt lat="45.57541" lon="6.8027">
        <ele>2143.939</ele>
        <time>2021-03-13T11:15:59Z</time>
      </trkpt>
      <trkpt lat="45.57541" lon="6.8027">
        <ele>2143.941</ele>
        <time>2021-03-13T11:16:04Z</time>
      </trkpt>
      <trkpt lat="45.57541" lon="6.8027">
        <ele>2143.941</ele>
        <time>2021-03-13T11:16:09Z</time>
      </trkpt>
      <trkpt lat="45.57541" lon="6.8027">
        <ele>2143.938</ele>
        <time>2021-03-13T11:16:14Z</time>
      </trkpt>
      <trkpt lat="45.57541" lon="6.8027">
        <ele>2143.938</ele>
        <time>2021-03-13T11:16:19Z</time>
      </trkpt>
      <trkpt lat="45.57541" lon="6.8027">
        <ele>2143.936</ele>
        <time>2021-03-13T11:16:24Z</time>
      </trkpt>
      <trkpt lat="45.57541" lon="6.8027">
        <ele>2143.935</ele>
        <time>2021-03-13T11:16:29Z</time>
      </trkpt>
      <trkpt lat="45.57541" lon="6.8027">
        <ele>2143.936</ele>
        <time>2021-03-13T11:16:34Z</time>
      </trkpt>
      <trkpt lat="45.57541" lon="6.8027">
        <ele>2143.938</ele>
        <time>2021-03-13T11:16:38Z</time>
      </trkpt>
      <trkpt lat="45.57541" lon="6.8027">
        <ele>2143.935</ele>
        <time>2021-03-13T11:16:44Z</time>
      </trkpt>
      <trkpt lat="45.57541" lon="6.8027">
        <ele>2143.934</ele>
        <time>2021-03-13T11:16:49Z</time>
      </trkpt>
      <trkpt lat="45.57541" lon="6.8027">
        <ele>2143.937</ele>
        <time>2021-03-13T11:16:54Z</time>
      </trkpt>
      <trkpt lat="45.57541" lon="6.8027">
        <ele>2143.937</ele>
        <time>2021-03-13T11:16:59Z</time>
      </trkpt>
      <trkpt lat="45.57541" lon="6.8027">
        <ele>2143.939</ele>
        <time>2021-03-13T11:17:04Z</time>
      </trkpt>
      <trkpt lat="45.57541" lon="6.8027">
        <ele>2143.937</ele>
        <time>2021-03-13T11:17:09Z</time>
      </trkpt>
      <trkpt lat="45.57541" lon="6.8027">
        <ele>2143.937</ele>
        <time>2021-03-13T11:17:14Z</time>
      </trkpt>
      <trkpt lat="45.57541" lon="6.8027">
        <ele>2143.939</ele>
        <time>2021-03-13T11:17:19Z</time>
      </trkpt>
      <trkpt lat="45.57541" lon="6.8027">
        <ele>2143.933</ele>
        <time>2021-03-13T11:17:24Z</time>
      </trkpt>
      <trkpt lat="45.57541" lon="6.8027">
        <ele>2143.93</ele>
        <time>2021-03-13T11:17:29Z</time>
      </trkpt>
      <trkpt lat="45.57541" lon="6.8027">
        <ele>2143.93</ele>
        <time>2021-03-13T11:17:34Z</time>
      </trkpt>
      <trkpt lat="45.57541" lon="6.8027">
        <ele>2143.931</ele>
        <time>2021-03-13T11:17:39Z</time>
      </trkpt>
      <trkpt lat="45.57541" lon="6.8027">
        <ele>2143.928</ele>
        <time>2021-03-13T11:17:44Z</time>
      </trkpt>
      <trkpt lat="45.57541" lon="6.8027">
        <ele>2143.928</ele>
        <time>2021-03-13T11:17:49Z</time>
      </trkpt>
      <trkpt lat="45.57541" lon="6.8027">
        <ele>2143.922</ele>
        <time>2021-03-13T11:17:54Z</time>
      </trkpt>
      <trkpt lat="45.57541" lon="6.8027">
        <ele>2143.918</ele>
        <time>2021-03-13T11:17:59Z</time>
      </trkpt>
      <trkpt lat="45.57541" lon="6.8027">
        <ele>2143.917</ele>
        <time>2021-03-13T11:18:04Z</time>
      </trkpt>
      <trkpt lat="45.57541" lon="6.8027">
        <ele>2143.916</ele>
        <time>2021-03-13T11:18:09Z</time>
      </trkpt>
      <trkpt lat="45.57541" lon="6.8027">
        <ele>2143.913</ele>
        <time>2021-03-13T11:18:14Z</time>
      </trkpt>
      <trkpt lat="45.57541" lon="6.8027">
        <ele>2143.912</ele>
        <time>2021-03-13T11:18:19Z</time>
      </trkpt>
      <trkpt lat="45.57541" lon="6.8027">
        <ele>2143.913</ele>
        <time>2021-03-13T11:18:24Z</time>
      </trkpt>
      <trkpt lat="45.57541" lon="6.8027">
        <ele>2143.914</ele>
        <time>2021-03-13T11:18:29Z</time>
      </trkpt>
      <trkpt lat="45.57541" lon="6.8027">
        <ele>2143.914</ele>
        <time>2021-03-13T11:18:34Z</time>
      </trkpt>
      <trkpt lat="45.57541" lon="6.8027">
        <ele>2143.913</ele>
        <time>2021-03-13T11:18:39Z</time>
      </trkpt>
      <trkpt lat="45.57541" lon="6.8027">
        <ele>2143.913</ele>
        <time>2021-03-13T11:18:44Z</time>
      </trkpt>
      <trkpt lat="45.57541" lon="6.8027">
        <ele>2143.912</ele>
        <time>2021-03-13T11:18:49Z</time>
      </trkpt>
      <trkpt lat="45.57541" lon="6.8027">
        <ele>2143.914</ele>
        <time>2021-03-13T11:18:54Z</time>
      </trkpt>
      <trkpt lat="45.57541" lon="6.8027">
        <ele>2143.914</ele>
        <time>2021-03-13T11:18:59Z</time>
      </trkpt>
      <trkpt lat="45.57541" lon="6.8027">
        <ele>2143.912</ele>
        <time>2021-03-13T11:19:04Z</time>
      </trkpt>
      <trkpt lat="45.57541" lon="6.8027">
        <ele>2143.911</ele>
        <time>2021-03-13T11:19:09Z</time>
      </trkpt>
      <trkpt lat="45.57541" lon="6.8027">
        <ele>2143.913</ele>
        <time>2021-03-13T11:19:14Z</time>
      </trkpt>
      <trkpt lat="45.57541" lon="6.8027">
        <ele>2143.914</ele>
        <time>2021-03-13T11:19:19Z</time>
      </trkpt>
      <trkpt lat="45.57541" lon="6.8027">
        <ele>2143.914</ele>
        <time>2021-03-13T11:19:24Z</time>
      </trkpt>
      <trkpt lat="45.57541" lon="6.8027">
        <ele>2143.911</ele>
        <time>2021-03-13T11:19:29Z</time>
      </trkpt>
      <trkpt lat="45.57541" lon="6.8027">
        <ele>2143.911</ele>
        <time>2021-03-13T11:19:34Z</time>
      </trkpt>
      <trkpt lat="45.57541" lon="6.8027">
        <ele>2143.911</ele>
        <time>2021-03-13T11:19:39Z</time>
      </trkpt>
      <trkpt lat="45.57541" lon="6.8027">
        <ele>2143.911</ele>
        <time>2021-03-13T11:19:44Z</time>
      </trkpt>
      <trkpt lat="45.57541" lon="6.8027">
        <ele>2143.911</ele>
        <time>2021-03-13T11:19:49Z</time>
      </trkpt>
      <trkpt lat="45.57541" lon="6.8027">
        <ele>2143.911</ele>
        <time>2021-03-13T11:19:54Z</time>
      </trkpt>
      <trkpt lat="45.57541" lon="6.8027">
        <ele>2143.912</ele>
        <time>2021-03-13T11:19:59Z</time>
      </trkpt>
      <trkpt lat="45.57541" lon="6.8027">
        <ele>2143.91</ele>
        <time>2021-03-13T11:20:04Z</time>
      </trkpt>
      <trkpt lat="45.57541" lon="6.8027">
        <ele>2143.91</ele>
        <time>2021-03-13T11:20:09Z</time>
      </trkpt>
      <trkpt lat="45.57541" lon="6.8027">
        <ele>2143.911</ele>
        <time>2021-03-13T11:20:14Z</time>
      </trkpt>
      <trkpt lat="45.57541" lon="6.8027">
        <ele>2143.912</ele>
        <time>2021-03-13T11:20:19Z</time>
      </trkpt>
      <trkpt lat="45.57541" lon="6.8027">
        <ele>2143.913</ele>
        <time>2021-03-13T11:20:24Z</time>
      </trkpt>
      <trkpt lat="45.57541" lon="6.8027">
        <ele>2143.912</ele>
        <time>2021-03-13T11:20:29Z</time>
      </trkpt>
      <trkpt lat="45.57541" lon="6.8027">
        <ele>2143.912</ele>
        <time>2021-03-13T11:20:34Z</time>
      </trkpt>
      <trkpt lat="45.57541" lon="6.8027">
        <ele>2143.913</ele>
        <time>2021-03-13T11:20:39Z</time>
      </trkpt>
      <trkpt lat="45.57541" lon="6.8027">
        <ele>2143.913</ele>
        <time>2021-03-13T11:20:44Z</time>
      </trkpt>
      <trkpt lat="45.57541" lon="6.8027">
        <ele>2143.914</ele>
        <time>2021-03-13T11:20:49Z</time>
      </trkpt>
      <trkpt lat="45.57541" lon="6.8027">
        <ele>2143.915</ele>
        <time>2021-03-13T11:20:54Z</time>
      </trkpt>
      <trkpt lat="45.57541" lon="6.8027">
        <ele>2143.915</ele>
        <time>2021-03-13T11:20:59Z</time>
      </trkpt>
      <trkpt lat="45.57541" lon="6.8027">
        <ele>2143.917</ele>
        <time>2021-03-13T11:21:04Z</time>
      </trkpt>
      <trkpt lat="45.57541" lon="6.8027">
        <ele>2143.918</ele>
        <time>2021-03-13T11:21:09Z</time>
      </trkpt>
      <trkpt lat="45.57541" lon="6.8027">
        <ele>2143.917</ele>
        <time>2021-03-13T11:21:14Z</time>
      </trkpt>
      <trkpt lat="45.57541" lon="6.8027">
        <ele>2143.917</ele>
        <time>2021-03-13T11:21:19Z</time>
      </trkpt>
      <trkpt lat="45.57541" lon="6.8027">
        <ele>2143.917</ele>
        <time>2021-03-13T11:21:24Z</time>
      </trkpt>
      <trkpt lat="45.57541" lon="6.8027">
        <ele>2143.916</ele>
        <time>2021-03-13T11:21:29Z</time>
      </trkpt>
      <trkpt lat="45.57541" lon="6.8027">
        <ele>2143.916</ele>
        <time>2021-03-13T11:21:34Z</time>
      </trkpt>
      <trkpt lat="45.57541" lon="6.8027">
        <ele>2143.915</ele>
        <time>2021-03-13T11:21:39Z</time>
      </trkpt>
      <trkpt lat="45.57541" lon="6.8027">
        <ele>2143.914</ele>
        <time>2021-03-13T11:21:44Z</time>
      </trkpt>
      <trkpt lat="45.57541" lon="6.8027">
        <ele>2143.913</ele>
        <time>2021-03-13T11:21:49Z</time>
      </trkpt>
      <trkpt lat="45.57541" lon="6.8027">
        <ele>2143.914</ele>
        <time>2021-03-13T11:21:54Z</time>
      </trkpt>
      <trkpt lat="45.57541" lon="6.8027">
        <ele>2143.913</ele>
        <time>2021-03-13T11:21:59Z</time>
      </trkpt>
      <trkpt lat="45.57541" lon="6.8027">
        <ele>2143.914</ele>
        <time>2021-03-13T11:22:04Z</time>
      </trkpt>
      <trkpt lat="45.57541" lon="6.8027">
        <ele>2143.912</ele>
        <time>2021-03-13T11:22:09Z</time>
      </trkpt>
      <trkpt lat="45.57541" lon="6.8027">
        <ele>2143.912</ele>
        <time>2021-03-13T11:22:14Z</time>
      </trkpt>
      <trkpt lat="45.57541" lon="6.8027">
        <ele>2143.913</ele>
        <time>2021-03-13T11:22:19Z</time>
      </trkpt>
      <trkpt lat="45.57541" lon="6.8027">
        <ele>2143.914</ele>
        <time>2021-03-13T11:22:24Z</time>
      </trkpt>
      <trkpt lat="45.57541" lon="6.8027">
        <ele>2143.911</ele>
        <time>2021-03-13T11:22:29Z</time>
      </trkpt>
      <trkpt lat="45.57541" lon="6.8027">
        <ele>2143.912</ele>
        <time>2021-03-13T11:22:34Z</time>
      </trkpt>
      <trkpt lat="45.57541" lon="6.8027">
        <ele>2143.912</ele>
        <time>2021-03-13T11:22:39Z</time>
      </trkpt>
      <trkpt lat="45.57541" lon="6.8027">
        <ele>2143.912</ele>
        <time>2021-03-13T11:22:44Z</time>
      </trkpt>
      <trkpt lat="45.57541" lon="6.8027">
        <ele>2143.911</ele>
        <time>2021-03-13T11:22:49Z</time>
      </trkpt>
      <trkpt lat="45.57541" lon="6.8027">
        <ele>2143.91</ele>
        <time>2021-03-13T11:22:54Z</time>
      </trkpt>
      <trkpt lat="45.57541" lon="6.8027">
        <ele>2143.91</ele>
        <time>2021-03-13T11:22:59Z</time>
      </trkpt>
      <trkpt lat="45.57541" lon="6.8027">
        <ele>2143.909</ele>
        <time>2021-03-13T11:23:04Z</time>
      </trkpt>
      <trkpt lat="45.57541" lon="6.8027">
        <ele>2143.909</ele>
        <time>2021-03-13T11:23:09Z</time>
      </trkpt>
      <trkpt lat="45.57541" lon="6.8027">
        <ele>2143.907</ele>
        <time>2021-03-13T11:23:14Z</time>
      </trkpt>
      <trkpt lat="45.57541" lon="6.8027">
        <ele>2143.905</ele>
        <time>2021-03-13T11:23:19Z</time>
      </trkpt>
      <trkpt lat="45.57541" lon="6.8027">
        <ele>2143.906</ele>
        <time>2021-03-13T11:23:24Z</time>
      </trkpt>
      <trkpt lat="45.57541" lon="6.8027">
        <ele>2143.904</ele>
        <time>2021-03-13T11:23:29Z</time>
      </trkpt>
      <trkpt lat="45.57541" lon="6.8027">
        <ele>2143.901</ele>
        <time>2021-03-13T11:23:34Z</time>
      </trkpt>
      <trkpt lat="45.57541" lon="6.8027">
        <ele>2143.9</ele>
        <time>2021-03-13T11:23:39Z</time>
      </trkpt>
      <trkpt lat="45.57541" lon="6.8027">
        <ele>2143.897</ele>
        <time>2021-03-13T11:23:44Z</time>
      </trkpt>
      <trkpt lat="45.57541" lon="6.8027">
        <ele>2143.894</ele>
        <time>2021-03-13T11:23:49Z</time>
      </trkpt>
      <trkpt lat="45.57541" lon="6.8027">
        <ele>2143.889</ele>
        <time>2021-03-13T11:23:54Z</time>
      </trkpt>
      <trkpt lat="45.57541" lon="6.8027">
        <ele>2143.886</ele>
        <time>2021-03-13T11:23:59Z</time>
      </trkpt>
      <trkpt lat="45.57541" lon="6.8027">
        <ele>2143.885</ele>
        <time>2021-03-13T11:24:04Z</time>
      </trkpt>
      <trkpt lat="45.57541" lon="6.8027">
        <ele>2143.886</ele>
        <time>2021-03-13T11:24:09Z</time>
      </trkpt>
      <trkpt lat="45.57541" lon="6.8027">
        <ele>2143.892</ele>
        <time>2021-03-13T11:24:14Z</time>
      </trkpt>
      <trkpt lat="45.57541" lon="6.8027">
        <ele>2143.891</ele>
        <time>2021-03-13T11:24:19Z</time>
      </trkpt>
      <trkpt lat="45.57541" lon="6.8027">
        <ele>2143.894</ele>
        <time>2021-03-13T11:24:24Z</time>
      </trkpt>
      <trkpt lat="45.57541" lon="6.8027">
        <ele>2143.895</ele>
        <time>2021-03-13T11:24:29Z</time>
      </trkpt>
      <trkpt lat="45.57541" lon="6.8027">
        <ele>2143.898</ele>
        <time>2021-03-13T11:24:34Z</time>
      </trkpt>
      <trkpt lat="45.57541" lon="6.8027">
        <ele>2143.897</ele>
        <time>2021-03-13T11:24:39Z</time>
      </trkpt>
      <trkpt lat="45.57541" lon="6.8027">
        <ele>2143.9</ele>
        <time>2021-03-13T11:24:44Z</time>
      </trkpt>
      <trkpt lat="45.57541" lon="6.8027">
        <ele>2143.898</ele>
        <time>2021-03-13T11:24:49Z</time>
      </trkpt>
      <trkpt lat="45.57541" lon="6.8027">
        <ele>2143.901</ele>
        <time>2021-03-13T11:24:54Z</time>
      </trkpt>
      <trkpt lat="45.57541" lon="6.8027">
        <ele>2143.903</ele>
        <time>2021-03-13T11:24:59Z</time>
      </trkpt>
      <trkpt lat="45.57541" lon="6.8027">
        <ele>2143.904</ele>
        <time>2021-03-13T11:25:04Z</time>
      </trkpt>
      <trkpt lat="45.57541" lon="6.8027">
        <ele>2143.906</ele>
        <time>2021-03-13T11:25:09Z</time>
      </trkpt>
      <trkpt lat="45.57541" lon="6.8027">
        <ele>2143.906</ele>
        <time>2021-03-13T11:25:14Z</time>
      </trkpt>
      <trkpt lat="45.57541" lon="6.8027">
        <ele>2143.909</ele>
        <time>2021-03-13T11:25:19Z</time>
      </trkpt>
      <trkpt lat="45.57541" lon="6.8027">
        <ele>2143.909</ele>
        <time>2021-03-13T11:25:24Z</time>
      </trkpt>
      <trkpt lat="45.57541" lon="6.8027">
        <ele>2143.908</ele>
        <time>2021-03-13T11:25:29Z</time>
      </trkpt>
      <trkpt lat="45.57541" lon="6.8027">
        <ele>2143.905</ele>
        <time>2021-03-13T11:25:34Z</time>
      </trkpt>
      <trkpt lat="45.57541" lon="6.8027">
        <ele>2143.905</ele>
        <time>2021-03-13T11:25:39Z</time>
      </trkpt>
      <trkpt lat="45.57541" lon="6.8027">
        <ele>2143.901</ele>
        <time>2021-03-13T11:25:44Z</time>
      </trkpt>
      <trkpt lat="45.57541" lon="6.8027">
        <ele>2143.901</ele>
        <time>2021-03-13T11:25:49Z</time>
      </trkpt>
      <trkpt lat="45.57541" lon="6.8027">
        <ele>2143.901</ele>
        <time>2021-03-13T11:25:54Z</time>
      </trkpt>
      <trkpt lat="45.57541" lon="6.8027">
        <ele>2143.9</ele>
        <time>2021-03-13T11:25:59Z</time>
      </trkpt>
      <trkpt lat="45.57541" lon="6.8027">
        <ele>2143.901</ele>
        <time>2021-03-13T11:26:04Z</time>
      </trkpt>
      <trkpt lat="45.57541" lon="6.8027">
        <ele>2143.904</ele>
        <time>2021-03-13T11:26:09Z</time>
      </trkpt>
      <trkpt lat="45.57541" lon="6.8027">
        <ele>2143.904</ele>
        <time>2021-03-13T11:26:14Z</time>
      </trkpt>
      <trkpt lat="45.57541" lon="6.8027">
        <ele>2143.9</ele>
        <time>2021-03-13T11:26:19Z</time>
      </trkpt>
      <trkpt lat="45.57541" lon="6.8027">
        <ele>2143.896</ele>
        <time>2021-03-13T11:26:24Z</time>
      </trkpt>
      <trkpt lat="45.57541" lon="6.8027">
        <ele>2143.895</ele>
        <time>2021-03-13T11:26:29Z</time>
      </trkpt>
      <trkpt lat="45.57541" lon="6.8027">
        <ele>2143.893</ele>
        <time>2021-03-13T11:26:34Z</time>
      </trkpt>
      <trkpt lat="45.57541" lon="6.8027">
        <ele>2143.891</ele>
        <time>2021-03-13T11:26:39Z</time>
      </trkpt>
      <trkpt lat="45.57541" lon="6.8027">
        <ele>2143.89</ele>
        <time>2021-03-13T11:26:44Z</time>
      </trkpt>
      <trkpt lat="45.57541" lon="6.8027">
        <ele>2143.89</ele>
        <time>2021-03-13T11:26:49Z</time>
      </trkpt>
      <trkpt lat="45.57541" lon="6.8027">
        <ele>2143.892</ele>
        <time>2021-03-13T11:26:54Z</time>
      </trkpt>
      <trkpt lat="45.57541" lon="6.8027">
        <ele>2143.891</ele>
        <time>2021-03-13T11:26:59Z</time>
      </trkpt>
      <trkpt lat="45.57541" lon="6.8027">
        <ele>2143.891</ele>
        <time>2021-03-13T11:27:04Z</time>
      </trkpt>
      <trkpt lat="45.57541" lon="6.8027">
        <ele>2143.894</ele>
        <time>2021-03-13T11:27:09Z</time>
      </trkpt>
      <trkpt lat="45.57541" lon="6.8027">
        <ele>2143.892</ele>
        <time>2021-03-13T11:27:14Z</time>
      </trkpt>
      <trkpt lat="45.57541" lon="6.8027">
        <ele>2143.891</ele>
        <time>2021-03-13T11:27:19Z</time>
      </trkpt>
      <trkpt lat="45.57541" lon="6.8027">
        <ele>2143.89</ele>
        <time>2021-03-13T11:27:24Z</time>
      </trkpt>
      <trkpt lat="45.57541" lon="6.8027">
        <ele>2143.893</ele>
        <time>2021-03-13T11:27:29Z</time>
      </trkpt>
      <trkpt lat="45.57541" lon="6.8027">
        <ele>2143.893</ele>
        <time>2021-03-13T11:27:34Z</time>
      </trkpt>
      <trkpt lat="45.57541" lon="6.8027">
        <ele>2143.9</ele>
        <time>2021-03-13T11:27:39Z</time>
      </trkpt>
      <trkpt lat="45.57541" lon="6.8027">
        <ele>2143.897</ele>
        <time>2021-03-13T11:27:44Z</time>
      </trkpt>
      <trkpt lat="45.57541" lon="6.8027">
        <ele>2143.894</ele>
        <time>2021-03-13T11:27:49Z</time>
      </trkpt>
      <trkpt lat="45.57541" lon="6.8027">
        <ele>2143.893</ele>
        <time>2021-03-13T11:27:54Z</time>
      </trkpt>
      <trkpt lat="45.57541" lon="6.8027">
        <ele>2143.893</ele>
        <time>2021-03-13T11:27:59Z</time>
      </trkpt>
      <trkpt lat="45.57541" lon="6.80271">
        <ele>2142.171</ele>
        <time>2021-03-13T11:28:04Z</time>
      </trkpt>
      <trkpt lat="45.57541" lon="6.80272">
        <ele>2141.409</ele>
        <time>2021-03-13T11:28:09Z</time>
      </trkpt>
      <trkpt lat="45.57542" lon="6.80271">
        <ele>2141.143</ele>
        <time>2021-03-13T11:28:14Z</time>
      </trkpt>
      <trkpt lat="45.57537" lon="6.80269">
        <ele>2144.549</ele>
        <time>2021-03-13T11:28:19Z</time>
      </trkpt>
      <trkpt lat="45.57533" lon="6.80269">
        <ele>2145.31</ele>
        <time>2021-03-13T11:28:24Z</time>
      </trkpt>
      <trkpt lat="45.5753" lon="6.8027">
        <ele>2146.157</ele>
        <time>2021-03-13T11:28:29Z</time>
      </trkpt>
      <trkpt lat="45.57526" lon="6.80271">
        <ele>2144.996</ele>
        <time>2021-03-13T11:28:34Z</time>
      </trkpt>
      <trkpt lat="45.57523" lon="6.80266">
        <ele>2144.911</ele>
        <time>2021-03-13T11:28:39Z</time>
      </trkpt>
      <trkpt lat="45.57524" lon="6.80264">
        <ele>2144.963</ele>
        <time>2021-03-13T11:28:44Z</time>
      </trkpt>
      <trkpt lat="45.57523" lon="6.80266">
        <ele>2145.611</ele>
        <time>2021-03-13T11:28:49Z</time>
      </trkpt>
      <trkpt lat="45.57522" lon="6.80271">
        <ele>2146.159</ele>
        <time>2021-03-13T11:28:54Z</time>
      </trkpt>
      <trkpt lat="45.57519" lon="6.80275">
        <ele>2147.107</ele>
        <time>2021-03-13T11:28:59Z</time>
      </trkpt>
      <trkpt lat="45.57513" lon="6.80277">
        <ele>2146.135</ele>
        <time>2021-03-13T11:29:04Z</time>
      </trkpt>
      <trkpt lat="45.57509" lon="6.80278">
        <ele>2146.585</ele>
        <time>2021-03-13T11:29:09Z</time>
      </trkpt>
      <trkpt lat="45.57505" lon="6.80281">
        <ele>2147.767</ele>
        <time>2021-03-13T11:29:14Z</time>
      </trkpt>
      <trkpt lat="45.57505" lon="6.80282">
        <ele>2147.969</ele>
        <time>2021-03-13T11:29:19Z</time>
      </trkpt>
      <trkpt lat="45.57506" lon="6.8028">
        <ele>2147.594</ele>
        <time>2021-03-13T11:29:24Z</time>
      </trkpt>
      <trkpt lat="45.57506" lon="6.8028">
        <ele>2147.274</ele>
        <time>2021-03-13T11:29:29Z</time>
      </trkpt>
      <trkpt lat="45.57506" lon="6.8028">
        <ele>2147.265</ele>
        <time>2021-03-13T11:29:34Z</time>
      </trkpt>
      <trkpt lat="45.57506" lon="6.8028">
        <ele>2147.264</ele>
        <time>2021-03-13T11:29:39Z</time>
      </trkpt>
      <trkpt lat="45.57506" lon="6.8028">
        <ele>2147.258</ele>
        <time>2021-03-13T11:29:44Z</time>
      </trkpt>
      <trkpt lat="45.57506" lon="6.8028">
        <ele>2146.252</ele>
        <time>2021-03-13T11:29:49Z</time>
      </trkpt>
      <trkpt lat="45.57506" lon="6.8028">
        <ele>2145.7</ele>
        <time>2021-03-13T11:29:54Z</time>
      </trkpt>
      <trkpt lat="45.57506" lon="6.8028">
        <ele>2144.777</ele>
        <time>2021-03-13T11:29:59Z</time>
      </trkpt>
      <trkpt lat="45.57506" lon="6.8028">
        <ele>2144.742</ele>
        <time>2021-03-13T11:30:04Z</time>
      </trkpt>
      <trkpt lat="45.57506" lon="6.8028">
        <ele>2144.727</ele>
        <time>2021-03-13T11:30:09Z</time>
      </trkpt>
      <trkpt lat="45.57506" lon="6.8028">
        <ele>2144.712</ele>
        <time>2021-03-13T11:30:14Z</time>
      </trkpt>
      <trkpt lat="45.57506" lon="6.8028">
        <ele>2144.694</ele>
        <time>2021-03-13T11:30:19Z</time>
      </trkpt>
      <trkpt lat="45.57506" lon="6.8028">
        <ele>2144.682</ele>
        <time>2021-03-13T11:30:24Z</time>
      </trkpt>
      <trkpt lat="45.57506" lon="6.8028">
        <ele>2144.67</ele>
        <time>2021-03-13T11:30:29Z</time>
      </trkpt>
      <trkpt lat="45.57506" lon="6.80281">
        <ele>2144.255</ele>
        <time>2021-03-13T11:30:34Z</time>
      </trkpt>
      <trkpt lat="45.57506" lon="6.8028">
        <ele>2145.449</ele>
        <time>2021-03-13T11:30:39Z</time>
      </trkpt>
      <trkpt lat="45.57508" lon="6.80279">
        <ele>2144.51</ele>
        <time>2021-03-13T11:30:44Z</time>
      </trkpt>
      <trkpt lat="45.57514" lon="6.80278">
        <ele>2144.948</ele>
        <time>2021-03-13T11:30:49Z</time>
      </trkpt>
      <trkpt lat="45.57518" lon="6.80276">
        <ele>2146.631</ele>
        <time>2021-03-13T11:30:54Z</time>
      </trkpt>
      <trkpt lat="45.57524" lon="6.80273">
        <ele>2148.115</ele>
        <time>2021-03-13T11:30:59Z</time>
      </trkpt>
      <trkpt lat="45.5753" lon="6.80272">
        <ele>2148.862</ele>
        <time>2021-03-13T11:31:04Z</time>
      </trkpt>
      <trkpt lat="45.57535" lon="6.80268">
        <ele>2148.237</ele>
        <time>2021-03-13T11:31:09Z</time>
      </trkpt>
      <trkpt lat="45.57538" lon="6.80265">
        <ele>2147.301</ele>
        <time>2021-03-13T11:31:14Z</time>
      </trkpt>
      <trkpt lat="45.57543" lon="6.80263">
        <ele>2146.067</ele>
        <time>2021-03-13T11:31:19Z</time>
      </trkpt>
      <trkpt lat="45.57543" lon="6.80267">
        <ele>2146.341</ele>
        <time>2021-03-13T11:31:24Z</time>
      </trkpt>
      <trkpt lat="45.57543" lon="6.80268">
        <ele>2147.146</ele>
        <time>2021-03-13T11:31:29Z</time>
      </trkpt>
      <trkpt lat="45.57543" lon="6.80268">
        <ele>2147.708</ele>
        <time>2021-03-13T11:31:34Z</time>
      </trkpt>
      <trkpt lat="45.57544" lon="6.80268">
        <ele>2148.284</ele>
        <time>2021-03-13T11:31:39Z</time>
      </trkpt>
      <trkpt lat="45.57544" lon="6.80268">
        <ele>2148.198</ele>
        <time>2021-03-13T11:31:44Z</time>
      </trkpt>
      <trkpt lat="45.57544" lon="6.80268">
        <ele>2148.201</ele>
        <time>2021-03-13T11:31:49Z</time>
      </trkpt>
      <trkpt lat="45.57544" lon="6.80268">
        <ele>2148.184</ele>
        <time>2021-03-13T11:31:54Z</time>
      </trkpt>
      <trkpt lat="45.57544" lon="6.80268">
        <ele>2148.179</ele>
        <time>2021-03-13T11:31:59Z</time>
      </trkpt>
      <trkpt lat="45.57544" lon="6.80268">
        <ele>2148.178</ele>
        <time>2021-03-13T11:32:04Z</time>
      </trkpt>
      <trkpt lat="45.57544" lon="6.80268">
        <ele>2148.171</ele>
        <time>2021-03-13T11:32:09Z</time>
      </trkpt>
      <trkpt lat="45.57544" lon="6.80268">
        <ele>2148.152</ele>
        <time>2021-03-13T11:32:14Z</time>
      </trkpt>
      <trkpt lat="45.57544" lon="6.80268">
        <ele>2148.139</ele>
        <time>2021-03-13T11:32:19Z</time>
      </trkpt>
      <trkpt lat="45.57544" lon="6.80268">
        <ele>2148.129</ele>
        <time>2021-03-13T11:32:24Z</time>
      </trkpt>
      <trkpt lat="45.57544" lon="6.80268">
        <ele>2148.116</ele>
        <time>2021-03-13T11:32:29Z</time>
      </trkpt>
      <trkpt lat="45.57544" lon="6.80268">
        <ele>2148.103</ele>
        <time>2021-03-13T11:32:34Z</time>
      </trkpt>
      <trkpt lat="45.57544" lon="6.80268">
        <ele>2148.096</ele>
        <time>2021-03-13T11:32:39Z</time>
      </trkpt>
      <trkpt lat="45.57544" lon="6.80268">
        <ele>2148.088</ele>
        <time>2021-03-13T11:32:44Z</time>
      </trkpt>
      <trkpt lat="45.57544" lon="6.80268">
        <ele>2148.076</ele>
        <time>2021-03-13T11:32:49Z</time>
      </trkpt>
      <trkpt lat="45.57544" lon="6.80269">
        <ele>2148.072</ele>
        <time>2021-03-13T11:32:54Z</time>
      </trkpt>
      <trkpt lat="45.57544" lon="6.80269">
        <ele>2148.065</ele>
        <time>2021-03-13T11:32:59Z</time>
      </trkpt>
      <trkpt lat="45.57544" lon="6.80269">
        <ele>2148.063</ele>
        <time>2021-03-13T11:33:03Z</time>
      </trkpt>
      <trkpt lat="45.57544" lon="6.80269">
        <ele>2148.051</ele>
        <time>2021-03-13T11:33:09Z</time>
      </trkpt>
      <trkpt lat="45.57544" lon="6.80269">
        <ele>2148.042</ele>
        <time>2021-03-13T11:33:14Z</time>
      </trkpt>
      <trkpt lat="45.57544" lon="6.80269">
        <ele>2148.039</ele>
        <time>2021-03-13T11:33:19Z</time>
      </trkpt>
      <trkpt lat="45.57544" lon="6.80269">
        <ele>2148.026</ele>
        <time>2021-03-13T11:33:24Z</time>
      </trkpt>
      <trkpt lat="45.57544" lon="6.80269">
        <ele>2148.013</ele>
        <time>2021-03-13T11:33:29Z</time>
      </trkpt>
      <trkpt lat="45.57544" lon="6.80269">
        <ele>2148.011</ele>
        <time>2021-03-13T11:33:34Z</time>
      </trkpt>
      <trkpt lat="45.57544" lon="6.80269">
        <ele>2148.008</ele>
        <time>2021-03-13T11:33:39Z</time>
      </trkpt>
      <trkpt lat="45.57544" lon="6.80269">
        <ele>2148.003</ele>
        <time>2021-03-13T11:33:44Z</time>
      </trkpt>
      <trkpt lat="45.57544" lon="6.80269">
        <ele>2147.99</ele>
        <time>2021-03-13T11:33:49Z</time>
      </trkpt>
      <trkpt lat="45.57544" lon="6.80269">
        <ele>2147.98</ele>
        <time>2021-03-13T11:33:54Z</time>
      </trkpt>
      <trkpt lat="45.57544" lon="6.80269">
        <ele>2147.97</ele>
        <time>2021-03-13T11:33:59Z</time>
      </trkpt>
      <trkpt lat="45.57544" lon="6.80269">
        <ele>2147.962</ele>
        <time>2021-03-13T11:34:04Z</time>
      </trkpt>
      <trkpt lat="45.57544" lon="6.80269">
        <ele>2147.948</ele>
        <time>2021-03-13T11:34:09Z</time>
      </trkpt>
      <trkpt lat="45.57544" lon="6.80269">
        <ele>2147.943</ele>
        <time>2021-03-13T11:34:14Z</time>
      </trkpt>
      <trkpt lat="45.57544" lon="6.80269">
        <ele>2147.941</ele>
        <time>2021-03-13T11:34:19Z</time>
      </trkpt>
      <trkpt lat="45.57544" lon="6.80269">
        <ele>2147.936</ele>
        <time>2021-03-13T11:34:24Z</time>
      </trkpt>
      <trkpt lat="45.57544" lon="6.80269">
        <ele>2147.93</ele>
        <time>2021-03-13T11:34:29Z</time>
      </trkpt>
      <trkpt lat="45.57544" lon="6.80269">
        <ele>2147.924</ele>
        <time>2021-03-13T11:34:34Z</time>
      </trkpt>
      <trkpt lat="45.57544" lon="6.80269">
        <ele>2147.918</ele>
        <time>2021-03-13T11:34:39Z</time>
      </trkpt>
      <trkpt lat="45.57544" lon="6.80269">
        <ele>2147.91</ele>
        <time>2021-03-13T11:34:44Z</time>
      </trkpt>
      <trkpt lat="45.57544" lon="6.80269">
        <ele>2147.904</ele>
        <time>2021-03-13T11:34:49Z</time>
      </trkpt>
      <trkpt lat="45.57544" lon="6.80269">
        <ele>2147.893</ele>
        <time>2021-03-13T11:34:54Z</time>
      </trkpt>
      <trkpt lat="45.57544" lon="6.80269">
        <ele>2147.888</ele>
        <time>2021-03-13T11:34:59Z</time>
      </trkpt>
      <trkpt lat="45.57544" lon="6.8027">
        <ele>2146.207</ele>
        <time>2021-03-13T11:35:04Z</time>
      </trkpt>
      <trkpt lat="45.57543" lon="6.80273">
        <ele>2144.51</ele>
        <time>2021-03-13T11:35:09Z</time>
      </trkpt>
      <trkpt lat="45.57543" lon="6.8027">
        <ele>2145.526</ele>
        <time>2021-03-13T11:35:14Z</time>
      </trkpt>
      <trkpt lat="45.57543" lon="6.80271">
        <ele>2145.236</ele>
        <time>2021-03-13T11:35:19Z</time>
      </trkpt>
      <trkpt lat="45.57543" lon="6.80272">
        <ele>2144.493</ele>
        <time>2021-03-13T11:35:24Z</time>
      </trkpt>
      <trkpt lat="45.57543" lon="6.80272">
        <ele>2144.463</ele>
        <time>2021-03-13T11:35:29Z</time>
      </trkpt>
      <trkpt lat="45.57543" lon="6.80272">
        <ele>2144.449</ele>
        <time>2021-03-13T11:35:34Z</time>
      </trkpt>
      <trkpt lat="45.57542" lon="6.80271">
        <ele>2144.45</ele>
        <time>2021-03-13T11:35:39Z</time>
      </trkpt>
      <trkpt lat="45.57542" lon="6.80272">
        <ele>2143.834</ele>
        <time>2021-03-13T11:35:44Z</time>
      </trkpt>
      <trkpt lat="45.57542" lon="6.80271">
        <ele>2144.866</ele>
        <time>2021-03-13T11:35:49Z</time>
      </trkpt>
      <trkpt lat="45.57542" lon="6.80271">
        <ele>2144.878</ele>
        <time>2021-03-13T11:35:54Z</time>
      </trkpt>
      <trkpt lat="45.57542" lon="6.80271">
        <ele>2144.878</ele>
        <time>2021-03-13T11:35:59Z</time>
      </trkpt>
      <trkpt lat="45.57542" lon="6.8027">
        <ele>2144.12</ele>
        <time>2021-03-13T11:36:04Z</time>
      </trkpt>
      <trkpt lat="45.57542" lon="6.80269">
        <ele>2144.067</ele>
        <time>2021-03-13T11:36:09Z</time>
      </trkpt>
      <trkpt lat="45.57541" lon="6.8027">
        <ele>2143.546</ele>
        <time>2021-03-13T11:36:14Z</time>
      </trkpt>
      <trkpt lat="45.57539" lon="6.8027">
        <ele>2143.674</ele>
        <time>2021-03-13T11:36:19Z</time>
      </trkpt>
      <trkpt lat="45.57538" lon="6.80269">
        <ele>2144.559</ele>
        <time>2021-03-13T11:36:24Z</time>
      </trkpt>
      <trkpt lat="45.57538" lon="6.80268">
        <ele>2144.649</ele>
        <time>2021-03-13T11:36:29Z</time>
      </trkpt>
      <trkpt lat="45.57538" lon="6.80268">
        <ele>2144.078</ele>
        <time>2021-03-13T11:36:34Z</time>
      </trkpt>
      <trkpt lat="45.57538" lon="6.80269">
        <ele>2143.882</ele>
        <time>2021-03-13T11:36:39Z</time>
      </trkpt>
      <trkpt lat="45.57538" lon="6.80269">
        <ele>2144.057</ele>
        <time>2021-03-13T11:36:44Z</time>
      </trkpt>
      <trkpt lat="45.57538" lon="6.80269">
        <ele>2144.919</ele>
        <time>2021-03-13T11:36:49Z</time>
      </trkpt>
      <trkpt lat="45.57537" lon="6.80269">
        <ele>2144.895</ele>
        <time>2021-03-13T11:36:54Z</time>
      </trkpt>
      <trkpt lat="45.57536" lon="6.80269">
        <ele>2144.815</ele>
        <time>2021-03-13T11:36:59Z</time>
      </trkpt>
      <trkpt lat="45.57531" lon="6.8027">
        <ele>2146.989</ele>
        <time>2021-03-13T11:37:04Z</time>
      </trkpt>
      <trkpt lat="45.5753" lon="6.8027">
        <ele>2147.968</ele>
        <time>2021-03-13T11:37:09Z</time>
      </trkpt>
      <trkpt lat="45.57531" lon="6.8027">
        <ele>2147.703</ele>
        <time>2021-03-13T11:37:14Z</time>
      </trkpt>
      <trkpt lat="45.57531" lon="6.8027">
        <ele>2147.625</ele>
        <time>2021-03-13T11:37:19Z</time>
      </trkpt>
      <trkpt lat="45.57531" lon="6.8027">
        <ele>2147.591</ele>
        <time>2021-03-13T11:37:24Z</time>
      </trkpt>
      <trkpt lat="45.57531" lon="6.8027">
        <ele>2147.6</ele>
        <time>2021-03-13T11:37:29Z</time>
      </trkpt>
      <trkpt lat="45.57531" lon="6.8027">
        <ele>2147.594</ele>
        <time>2021-03-13T11:37:34Z</time>
      </trkpt>
      <trkpt lat="45.57531" lon="6.8027">
        <ele>2147.587</ele>
        <time>2021-03-13T11:37:39Z</time>
      </trkpt>
      <trkpt lat="45.57531" lon="6.8027">
        <ele>2147.583</ele>
        <time>2021-03-13T11:37:44Z</time>
      </trkpt>
      <trkpt lat="45.57531" lon="6.8027">
        <ele>2147.535</ele>
        <time>2021-03-13T11:37:49Z</time>
      </trkpt>
      <trkpt lat="45.57531" lon="6.8027">
        <ele>2147.526</ele>
        <time>2021-03-13T11:37:54Z</time>
      </trkpt>
      <trkpt lat="45.57531" lon="6.8027">
        <ele>2147.529</ele>
        <time>2021-03-13T11:37:59Z</time>
      </trkpt>
      <trkpt lat="45.57531" lon="6.8027">
        <ele>2147.532</ele>
        <time>2021-03-13T11:38:04Z</time>
      </trkpt>
      <trkpt lat="45.57531" lon="6.8027">
        <ele>2147.53</ele>
        <time>2021-03-13T11:38:09Z</time>
      </trkpt>
      <trkpt lat="45.57531" lon="6.8027">
        <ele>2147.534</ele>
        <time>2021-03-13T11:38:14Z</time>
      </trkpt>
      <trkpt lat="45.57531" lon="6.8027">
        <ele>2147.541</ele>
        <time>2021-03-13T11:38:19Z</time>
      </trkpt>
      <trkpt lat="45.57531" lon="6.8027">
        <ele>2147.54</ele>
        <time>2021-03-13T11:38:24Z</time>
      </trkpt>
      <trkpt lat="45.57531" lon="6.8027">
        <ele>2147.541</ele>
        <time>2021-03-13T11:38:29Z</time>
      </trkpt>
      <trkpt lat="45.57531" lon="6.8027">
        <ele>2147.534</ele>
        <time>2021-03-13T11:38:34Z</time>
      </trkpt>
      <trkpt lat="45.57531" lon="6.8027">
        <ele>2147.551</ele>
        <time>2021-03-13T11:38:39Z</time>
      </trkpt>
      <trkpt lat="45.57531" lon="6.8027">
        <ele>2147.554</ele>
        <time>2021-03-13T11:38:44Z</time>
      </trkpt>
      <trkpt lat="45.57531" lon="6.8027">
        <ele>2147.62</ele>
        <time>2021-03-13T11:38:49Z</time>
      </trkpt>
      <trkpt lat="45.57531" lon="6.80269">
        <ele>2147.266</ele>
        <time>2021-03-13T11:38:54Z</time>
      </trkpt>
      <trkpt lat="45.57531" lon="6.80268">
        <ele>2147.683</ele>
        <time>2021-03-13T11:38:59Z</time>
      </trkpt>
      <trkpt lat="45.57531" lon="6.80268">
        <ele>2147.699</ele>
        <time>2021-03-13T11:39:04Z</time>
      </trkpt>
      <trkpt lat="45.57531" lon="6.80268">
        <ele>2147.635</ele>
        <time>2021-03-13T11:39:09Z</time>
      </trkpt>
      <trkpt lat="45.57531" lon="6.80268">
        <ele>2148.399</ele>
        <time>2021-03-13T11:39:14Z</time>
      </trkpt>
      <trkpt lat="45.57531" lon="6.80268">
        <ele>2148.838</ele>
        <time>2021-03-13T11:39:19Z</time>
      </trkpt>
      <trkpt lat="45.57532" lon="6.80267">
        <ele>2149.263</ele>
        <time>2021-03-13T11:39:24Z</time>
      </trkpt>
      <trkpt lat="45.57532" lon="6.80266">
        <ele>2149.517</ele>
        <time>2021-03-13T11:39:29Z</time>
      </trkpt>
      <trkpt lat="45.57532" lon="6.80266">
        <ele>2149.544</ele>
        <time>2021-03-13T11:39:34Z</time>
      </trkpt>
      <trkpt lat="45.57534" lon="6.80264">
        <ele>2148.515</ele>
        <time>2021-03-13T11:39:39Z</time>
      </trkpt>
      <trkpt lat="45.57544" lon="6.80259">
        <ele>2146.639</ele>
        <time>2021-03-13T11:39:44Z</time>
      </trkpt>
      <trkpt lat="45.57542" lon="6.80264">
        <ele>2146.688</ele>
        <time>2021-03-13T11:39:49Z</time>
      </trkpt>
      <trkpt lat="45.5754" lon="6.80268">
        <ele>2145.973</ele>
        <time>2021-03-13T11:39:54Z</time>
      </trkpt>
      <trkpt lat="45.57539" lon="6.80269">
        <ele>2145.307</ele>
        <time>2021-03-13T11:39:59Z</time>
      </trkpt>
      <trkpt lat="45.57539" lon="6.80269">
        <ele>2144.706</ele>
        <time>2021-03-13T11:40:04Z</time>
      </trkpt>
      <trkpt lat="45.57539" lon="6.8027">
        <ele>2144.195</ele>
        <time>2021-03-13T11:40:09Z</time>
      </trkpt>
      <trkpt lat="45.57539" lon="6.8027">
        <ele>2144.094</ele>
        <time>2021-03-13T11:40:14Z</time>
      </trkpt>
      <trkpt lat="45.57538" lon="6.80267">
        <ele>2142.583</ele>
        <time>2021-03-13T11:40:19Z</time>
      </trkpt>
      <trkpt lat="45.57533" lon="6.80268">
        <ele>2143.314</ele>
        <time>2021-03-13T11:40:24Z</time>
      </trkpt>
      <trkpt lat="45.57529" lon="6.80271">
        <ele>2142.852</ele>
        <time>2021-03-13T11:40:29Z</time>
      </trkpt>
      <trkpt lat="45.57529" lon="6.80272">
        <ele>2143.145</ele>
        <time>2021-03-13T11:40:34Z</time>
      </trkpt>
      <trkpt lat="45.57528" lon="6.80272">
        <ele>2143.293</ele>
        <time>2021-03-13T11:40:39Z</time>
      </trkpt>
      <trkpt lat="45.57528" lon="6.80272">
        <ele>2143.364</ele>
        <time>2021-03-13T11:40:44Z</time>
      </trkpt>
      <trkpt lat="45.57528" lon="6.80272">
        <ele>2143.364</ele>
        <time>2021-03-13T11:40:49Z</time>
      </trkpt>
      <trkpt lat="45.57528" lon="6.80272">
        <ele>2143.363</ele>
        <time>2021-03-13T11:40:54Z</time>
      </trkpt>
      <trkpt lat="45.57528" lon="6.80272">
        <ele>2143.357</ele>
        <time>2021-03-13T11:40:59Z</time>
      </trkpt>
      <trkpt lat="45.57528" lon="6.80272">
        <ele>2143.358</ele>
        <time>2021-03-13T11:41:04Z</time>
      </trkpt>
      <trkpt lat="45.57528" lon="6.80272">
        <ele>2143.351</ele>
        <time>2021-03-13T11:41:09Z</time>
      </trkpt>
      <trkpt lat="45.57528" lon="6.80272">
        <ele>2143.347</ele>
        <time>2021-03-13T11:41:14Z</time>
      </trkpt>
      <trkpt lat="45.57528" lon="6.80272">
        <ele>2143.344</ele>
        <time>2021-03-13T11:41:19Z</time>
      </trkpt>
      <trkpt lat="45.57528" lon="6.80272">
        <ele>2143.347</ele>
        <time>2021-03-13T11:41:24Z</time>
      </trkpt>
      <trkpt lat="45.57528" lon="6.80272">
        <ele>2143.343</ele>
        <time>2021-03-13T11:41:29Z</time>
      </trkpt>
      <trkpt lat="45.57528" lon="6.80272">
        <ele>2143.338</ele>
        <time>2021-03-13T11:41:34Z</time>
      </trkpt>
      <trkpt lat="45.57528" lon="6.80272">
        <ele>2143.337</ele>
        <time>2021-03-13T11:41:39Z</time>
      </trkpt>
      <trkpt lat="45.57528" lon="6.80272">
        <ele>2143.336</ele>
        <time>2021-03-13T11:41:44Z</time>
      </trkpt>
      <trkpt lat="45.57528" lon="6.80272">
        <ele>2143.335</ele>
        <time>2021-03-13T11:41:49Z</time>
      </trkpt>
      <trkpt lat="45.57528" lon="6.80272">
        <ele>2143.326</ele>
        <time>2021-03-13T11:41:54Z</time>
      </trkpt>
      <trkpt lat="45.57528" lon="6.80272">
        <ele>2143.318</ele>
        <time>2021-03-13T11:41:59Z</time>
      </trkpt>
      <trkpt lat="45.57528" lon="6.80272">
        <ele>2143.309</ele>
        <time>2021-03-13T11:42:04Z</time>
      </trkpt>
      <trkpt lat="45.57528" lon="6.80272">
        <ele>2143.302</ele>
        <time>2021-03-13T11:42:09Z</time>
      </trkpt>
      <trkpt lat="45.57528" lon="6.80272">
        <ele>2143.297</ele>
        <time>2021-03-13T11:42:14Z</time>
      </trkpt>
      <trkpt lat="45.57528" lon="6.80272">
        <ele>2143.291</ele>
        <time>2021-03-13T11:42:19Z</time>
      </trkpt>
      <trkpt lat="45.57528" lon="6.80272">
        <ele>2143.289</ele>
        <time>2021-03-13T11:42:24Z</time>
      </trkpt>
      <trkpt lat="45.57528" lon="6.80272">
        <ele>2143.279</ele>
        <time>2021-03-13T11:42:29Z</time>
      </trkpt>
      <trkpt lat="45.57528" lon="6.80272">
        <ele>2143.269</ele>
        <time>2021-03-13T11:42:34Z</time>
      </trkpt>
      <trkpt lat="45.57528" lon="6.80272">
        <ele>2143.265</ele>
        <time>2021-03-13T11:42:39Z</time>
      </trkpt>
      <trkpt lat="45.57528" lon="6.80272">
        <ele>2143.263</ele>
        <time>2021-03-13T11:42:44Z</time>
      </trkpt>
      <trkpt lat="45.57528" lon="6.80272">
        <ele>2143.264</ele>
        <time>2021-03-13T11:42:49Z</time>
      </trkpt>
      <trkpt lat="45.57528" lon="6.80272">
        <ele>2143.063</ele>
        <time>2021-03-13T11:42:54Z</time>
      </trkpt>
      <trkpt lat="45.57528" lon="6.80272">
        <ele>2143.365</ele>
        <time>2021-03-13T11:42:59Z</time>
      </trkpt>
      <trkpt lat="45.57528" lon="6.80272">
        <ele>2143.341</ele>
        <time>2021-03-13T11:43:04Z</time>
      </trkpt>
      <trkpt lat="45.57527" lon="6.80274">
        <ele>2143.572</ele>
        <time>2021-03-13T11:43:09Z</time>
      </trkpt>
      <trkpt lat="45.57527" lon="6.80274">
        <ele>2143.948</ele>
        <time>2021-03-13T11:43:14Z</time>
      </trkpt>
      <trkpt lat="45.57526" lon="6.80276">
        <ele>2144.467</ele>
        <time>2021-03-13T11:43:19Z</time>
      </trkpt>
      <trkpt lat="45.57526" lon="6.80277">
        <ele>2144.513</ele>
        <time>2021-03-13T11:43:24Z</time>
      </trkpt>
      <trkpt lat="45.57524" lon="6.80282">
        <ele>2145.055</ele>
        <time>2021-03-13T11:43:29Z</time>
      </trkpt>
      <trkpt lat="45.57523" lon="6.80286">
        <ele>2146.147</ele>
        <time>2021-03-13T11:43:34Z</time>
      </trkpt>
      <trkpt lat="45.5752" lon="6.80293">
        <ele>2146.422</ele>
        <time>2021-03-13T11:43:39Z</time>
      </trkpt>
      <trkpt lat="45.57519" lon="6.80296">
        <ele>2147.492</ele>
        <time>2021-03-13T11:43:44Z</time>
      </trkpt>
      <trkpt lat="45.57517" lon="6.803">
        <ele>2149.25</ele>
        <time>2021-03-13T11:43:49Z</time>
      </trkpt>
      <trkpt lat="45.57518" lon="6.803">
        <ele>2149.301</ele>
        <time>2021-03-13T11:43:54Z</time>
      </trkpt>
      <trkpt lat="45.57517" lon="6.80303">
        <ele>2149.349</ele>
        <time>2021-03-13T11:43:59Z</time>
      </trkpt>
      <trkpt lat="45.57516" lon="6.80306">
        <ele>2150.071</ele>
        <time>2021-03-13T11:44:04Z</time>
      </trkpt>
      <trkpt lat="45.57515" lon="6.80311">
        <ele>2151.305</ele>
        <time>2021-03-13T11:44:09Z</time>
      </trkpt>
      <trkpt lat="45.57513" lon="6.80315">
        <ele>2152.258</ele>
        <time>2021-03-13T11:44:14Z</time>
      </trkpt>
      <trkpt lat="45.5751" lon="6.80318">
        <ele>2153.915</ele>
        <time>2021-03-13T11:44:19Z</time>
      </trkpt>
      <trkpt lat="45.57507" lon="6.80321">
        <ele>2154.653</ele>
        <time>2021-03-13T11:44:24Z</time>
      </trkpt>
      <trkpt lat="45.57504" lon="6.80324">
        <ele>2156.073</ele>
        <time>2021-03-13T11:44:29Z</time>
      </trkpt>
      <trkpt lat="45.57503" lon="6.80326">
        <ele>2156.555</ele>
        <time>2021-03-13T11:44:34Z</time>
      </trkpt>
      <trkpt lat="45.57507" lon="6.80329">
        <ele>2159.956</ele>
        <time>2021-03-13T11:44:39Z</time>
      </trkpt>
      <trkpt lat="45.57509" lon="6.80332">
        <ele>2159.953</ele>
        <time>2021-03-13T11:44:44Z</time>
      </trkpt>
      <trkpt lat="45.57512" lon="6.80336">
        <ele>2161.769</ele>
        <time>2021-03-13T11:44:49Z</time>
      </trkpt>
      <trkpt lat="45.57513" lon="6.80339">
        <ele>2162.535</ele>
        <time>2021-03-13T11:44:54Z</time>
      </trkpt>
      <trkpt lat="45.57513" lon="6.8034">
        <ele>2162.504</ele>
        <time>2021-03-13T11:44:59Z</time>
      </trkpt>
      <trkpt lat="45.57513" lon="6.8034">
        <ele>2162.534</ele>
        <time>2021-03-13T11:45:04Z</time>
      </trkpt>
      <trkpt lat="45.57513" lon="6.8034">
        <ele>2162.502</ele>
        <time>2021-03-13T11:45:09Z</time>
      </trkpt>
      <trkpt lat="45.57513" lon="6.8034">
        <ele>2162.497</ele>
        <time>2021-03-13T11:45:14Z</time>
      </trkpt>
      <trkpt lat="45.57513" lon="6.8034">
        <ele>2162.499</ele>
        <time>2021-03-13T11:45:19Z</time>
      </trkpt>
      <trkpt lat="45.57513" lon="6.80341">
        <ele>2162.478</ele>
        <time>2021-03-13T11:45:24Z</time>
      </trkpt>
      <trkpt lat="45.57515" lon="6.80345">
        <ele>2163.929</ele>
        <time>2021-03-13T11:45:29Z</time>
      </trkpt>
      <trkpt lat="45.57515" lon="6.80347">
        <ele>2164.011</ele>
        <time>2021-03-13T11:45:34Z</time>
      </trkpt>
      <trkpt lat="45.57516" lon="6.8035">
        <ele>2166.197</ele>
        <time>2021-03-13T11:45:39Z</time>
      </trkpt>
      <trkpt lat="45.57518" lon="6.80353">
        <ele>2167.042</ele>
        <time>2021-03-13T11:45:44Z</time>
      </trkpt>
      <trkpt lat="45.5752" lon="6.80357">
        <ele>2167.888</ele>
        <time>2021-03-13T11:45:49Z</time>
      </trkpt>
      <trkpt lat="45.57521" lon="6.80359">
        <ele>2168.687</ele>
        <time>2021-03-13T11:45:54Z</time>
      </trkpt>
      <trkpt lat="45.57521" lon="6.80359">
        <ele>2168.448</ele>
        <time>2021-03-13T11:45:59Z</time>
      </trkpt>
      <trkpt lat="45.57521" lon="6.8036">
        <ele>2168.136</ele>
        <time>2021-03-13T11:46:04Z</time>
      </trkpt>
      <trkpt lat="45.57522" lon="6.8036">
        <ele>2168.124</ele>
        <time>2021-03-13T11:46:09Z</time>
      </trkpt>
      <trkpt lat="45.57522" lon="6.8036">
        <ele>2168.123</ele>
        <time>2021-03-13T11:46:14Z</time>
      </trkpt>
      <trkpt lat="45.57522" lon="6.8036">
        <ele>2168.117</ele>
        <time>2021-03-13T11:46:19Z</time>
      </trkpt>
      <trkpt lat="45.57522" lon="6.8036">
        <ele>2168.103</ele>
        <time>2021-03-13T11:46:24Z</time>
      </trkpt>
      <trkpt lat="45.57521" lon="6.80361">
        <ele>2167.918</ele>
        <time>2021-03-13T11:46:29Z</time>
      </trkpt>
      <trkpt lat="45.57521" lon="6.80361">
        <ele>2168.474</ele>
        <time>2021-03-13T11:46:34Z</time>
      </trkpt>
      <trkpt lat="45.57521" lon="6.80361">
        <ele>2168.55</ele>
        <time>2021-03-13T11:46:39Z</time>
      </trkpt>
      <trkpt lat="45.57521" lon="6.80361">
        <ele>2168.536</ele>
        <time>2021-03-13T11:46:44Z</time>
      </trkpt>
      <trkpt lat="45.5752" lon="6.80361">
        <ele>2167.742</ele>
        <time>2021-03-13T11:46:49Z</time>
      </trkpt>
      <trkpt lat="45.57516" lon="6.80361">
        <ele>2168.055</ele>
        <time>2021-03-13T11:46:54Z</time>
      </trkpt>
      <trkpt lat="45.57512" lon="6.80362">
        <ele>2169.177</ele>
        <time>2021-03-13T11:46:59Z</time>
      </trkpt>
      <trkpt lat="45.57508" lon="6.80364">
        <ele>2169.963</ele>
        <time>2021-03-13T11:47:04Z</time>
      </trkpt>
      <trkpt lat="45.57507" lon="6.80366">
        <ele>2171.43</ele>
        <time>2021-03-13T11:47:09Z</time>
      </trkpt>
      <trkpt lat="45.57506" lon="6.80366">
        <ele>2171.791</ele>
        <time>2021-03-13T11:47:14Z</time>
      </trkpt>
      <trkpt lat="45.57508" lon="6.80367">
        <ele>2172.121</ele>
        <time>2021-03-13T11:47:19Z</time>
      </trkpt>
      <trkpt lat="45.57511" lon="6.8037">
        <ele>2174.092</ele>
        <time>2021-03-13T11:47:24Z</time>
      </trkpt>
      <trkpt lat="45.57514" lon="6.80375">
        <ele>2176.157</ele>
        <time>2021-03-13T11:47:29Z</time>
      </trkpt>
      <trkpt lat="45.57518" lon="6.8038">
        <ele>2177.115</ele>
        <time>2021-03-13T11:47:34Z</time>
      </trkpt>
      <trkpt lat="45.57521" lon="6.80385">
        <ele>2177.909</ele>
        <time>2021-03-13T11:47:39Z</time>
      </trkpt>
      <trkpt lat="45.57523" lon="6.8039">
        <ele>2179.181</ele>
        <time>2021-03-13T11:47:44Z</time>
      </trkpt>
      <trkpt lat="45.57524" lon="6.80394">
        <ele>2179.403</ele>
        <time>2021-03-13T11:47:49Z</time>
      </trkpt>
      <trkpt lat="45.57524" lon="6.80395">
        <ele>2178.897</ele>
        <time>2021-03-13T11:47:54Z</time>
      </trkpt>
      <trkpt lat="45.57524" lon="6.80395">
        <ele>2179.073</ele>
        <time>2021-03-13T11:47:59Z</time>
      </trkpt>
      <trkpt lat="45.57524" lon="6.80395">
        <ele>2178.911</ele>
        <time>2021-03-13T11:48:04Z</time>
      </trkpt>
      <trkpt lat="45.57524" lon="6.80395">
        <ele>2178.906</ele>
        <time>2021-03-13T11:48:09Z</time>
      </trkpt>
      <trkpt lat="45.57524" lon="6.80395">
        <ele>2178.895</ele>
        <time>2021-03-13T11:48:14Z</time>
      </trkpt>
      <trkpt lat="45.57524" lon="6.80395">
        <ele>2178.892</ele>
        <time>2021-03-13T11:48:19Z</time>
      </trkpt>
      <trkpt lat="45.57524" lon="6.80395">
        <ele>2178.901</ele>
        <time>2021-03-13T11:48:24Z</time>
      </trkpt>
      <trkpt lat="45.57524" lon="6.80395">
        <ele>2178.9</ele>
        <time>2021-03-13T11:48:29Z</time>
      </trkpt>
      <trkpt lat="45.57524" lon="6.80395">
        <ele>2178.895</ele>
        <time>2021-03-13T11:48:34Z</time>
      </trkpt>
      <trkpt lat="45.57524" lon="6.80395">
        <ele>2178.894</ele>
        <time>2021-03-13T11:48:39Z</time>
      </trkpt>
      <trkpt lat="45.57524" lon="6.80395">
        <ele>2178.894</ele>
        <time>2021-03-13T11:48:44Z</time>
      </trkpt>
      <trkpt lat="45.57524" lon="6.80395">
        <ele>2178.892</ele>
        <time>2021-03-13T11:48:49Z</time>
      </trkpt>
      <trkpt lat="45.57524" lon="6.80395">
        <ele>2178.893</ele>
        <time>2021-03-13T11:48:54Z</time>
      </trkpt>
      <trkpt lat="45.57524" lon="6.80395">
        <ele>2178.892</ele>
        <time>2021-03-13T11:48:59Z</time>
      </trkpt>
      <trkpt lat="45.57524" lon="6.80395">
        <ele>2178.889</ele>
        <time>2021-03-13T11:49:04Z</time>
      </trkpt>
      <trkpt lat="45.57524" lon="6.80395">
        <ele>2178.885</ele>
        <time>2021-03-13T11:49:09Z</time>
      </trkpt>
      <trkpt lat="45.57524" lon="6.80395">
        <ele>2178.884</ele>
        <time>2021-03-13T11:49:14Z</time>
      </trkpt>
      <trkpt lat="45.57524" lon="6.80395">
        <ele>2178.884</ele>
        <time>2021-03-13T11:49:19Z</time>
      </trkpt>
      <trkpt lat="45.57524" lon="6.80395">
        <ele>2178.889</ele>
        <time>2021-03-13T11:49:24Z</time>
      </trkpt>
      <trkpt lat="45.57524" lon="6.80395">
        <ele>2178.883</ele>
        <time>2021-03-13T11:49:29Z</time>
      </trkpt>
      <trkpt lat="45.57523" lon="6.80396">
        <ele>2179.06</ele>
        <time>2021-03-13T11:49:34Z</time>
      </trkpt>
      <trkpt lat="45.57519" lon="6.80389">
        <ele>2178.194</ele>
        <time>2021-03-13T11:49:39Z</time>
      </trkpt>
      <trkpt lat="45.57514" lon="6.80376">
        <ele>2175.636</ele>
        <time>2021-03-13T11:49:44Z</time>
      </trkpt>
      <trkpt lat="45.57512" lon="6.80373">
        <ele>2175.048</ele>
        <time>2021-03-13T11:49:49Z</time>
      </trkpt>
      <trkpt lat="45.57512" lon="6.80373">
        <ele>2174.404</ele>
        <time>2021-03-13T11:49:54Z</time>
      </trkpt>
      <trkpt lat="45.57512" lon="6.80374">
        <ele>2174.349</ele>
        <time>2021-03-13T11:49:59Z</time>
      </trkpt>
      <trkpt lat="45.57514" lon="6.80375">
        <ele>2175.413</ele>
        <time>2021-03-13T11:50:04Z</time>
      </trkpt>
      <trkpt lat="45.57516" lon="6.80374">
        <ele>2175.465</ele>
        <time>2021-03-13T11:50:09Z</time>
      </trkpt>
      <trkpt lat="45.57519" lon="6.80375">
        <ele>2176.509</ele>
        <time>2021-03-13T11:50:14Z</time>
      </trkpt>
      <trkpt lat="45.57519" lon="6.80375">
        <ele>2176.164</ele>
        <time>2021-03-13T11:50:19Z</time>
      </trkpt>
      <trkpt lat="45.5752" lon="6.80375">
        <ele>2175.864</ele>
        <time>2021-03-13T11:50:24Z</time>
      </trkpt>
      <trkpt lat="45.5752" lon="6.80377">
        <ele>2176.17</ele>
        <time>2021-03-13T11:50:29Z</time>
      </trkpt>
      <trkpt lat="45.5752" lon="6.80377">
        <ele>2175.99</ele>
        <time>2021-03-13T11:50:34Z</time>
      </trkpt>
      <trkpt lat="45.5752" lon="6.80378">
        <ele>2176.872</ele>
        <time>2021-03-13T11:50:39Z</time>
      </trkpt>
      <trkpt lat="45.57519" lon="6.80379">
        <ele>2177.4</ele>
        <time>2021-03-13T11:50:44Z</time>
      </trkpt>
      <trkpt lat="45.57521" lon="6.80383">
        <ele>2179</ele>
        <time>2021-03-13T11:50:49Z</time>
      </trkpt>
      <trkpt lat="45.57522" lon="6.80389">
        <ele>2181.411</ele>
        <time>2021-03-13T11:50:54Z</time>
      </trkpt>
      <trkpt lat="45.57522" lon="6.80391">
        <ele>2181.057</ele>
        <time>2021-03-13T11:50:59Z</time>
      </trkpt>
      <trkpt lat="45.57522" lon="6.80395">
        <ele>2182.797</ele>
        <time>2021-03-13T11:51:04Z</time>
      </trkpt>
      <trkpt lat="45.57522" lon="6.80398">
        <ele>2183.816</ele>
        <time>2021-03-13T11:51:09Z</time>
      </trkpt>
      <trkpt lat="45.57521" lon="6.80403">
        <ele>2184.213</ele>
        <time>2021-03-13T11:51:14Z</time>
      </trkpt>
      <trkpt lat="45.57521" lon="6.80408">
        <ele>2185.774</ele>
        <time>2021-03-13T11:51:19Z</time>
      </trkpt>
      <trkpt lat="45.57521" lon="6.80414">
        <ele>2187.274</ele>
        <time>2021-03-13T11:51:24Z</time>
      </trkpt>
      <trkpt lat="45.57521" lon="6.80419">
        <ele>2188.108</ele>
        <time>2021-03-13T11:51:29Z</time>
      </trkpt>
      <trkpt lat="45.57522" lon="6.80425">
        <ele>2188.786</ele>
        <time>2021-03-13T11:51:34Z</time>
      </trkpt>
      <trkpt lat="45.57522" lon="6.80431">
        <ele>2189.326</ele>
        <time>2021-03-13T11:51:39Z</time>
      </trkpt>
      <trkpt lat="45.57523" lon="6.80436">
        <ele>2190.751</ele>
        <time>2021-03-13T11:51:44Z</time>
      </trkpt>
      <trkpt lat="45.57523" lon="6.80441">
        <ele>2191.431</ele>
        <time>2021-03-13T11:51:49Z</time>
      </trkpt>
      <trkpt lat="45.57524" lon="6.80447">
        <ele>2191.03</ele>
        <time>2021-03-13T11:51:54Z</time>
      </trkpt>
      <trkpt lat="45.57524" lon="6.80452">
        <ele>2191.44</ele>
        <time>2021-03-13T11:51:59Z</time>
      </trkpt>
      <trkpt lat="45.57524" lon="6.80452">
        <ele>2191.625</ele>
        <time>2021-03-13T11:52:04Z</time>
      </trkpt>
      <trkpt lat="45.57524" lon="6.80456">
        <ele>2193.373</ele>
        <time>2021-03-13T11:52:09Z</time>
      </trkpt>
      <trkpt lat="45.57525" lon="6.80463">
        <ele>2193.937</ele>
        <time>2021-03-13T11:52:14Z</time>
      </trkpt>
      <trkpt lat="45.57526" lon="6.8047">
        <ele>2195.127</ele>
        <time>2021-03-13T11:52:19Z</time>
      </trkpt>
      <trkpt lat="45.57528" lon="6.80476">
        <ele>2195.59</ele>
        <time>2021-03-13T11:52:24Z</time>
      </trkpt>
      <trkpt lat="45.57529" lon="6.80483">
        <ele>2196.254</ele>
        <time>2021-03-13T11:52:29Z</time>
      </trkpt>
      <trkpt lat="45.5753" lon="6.8049">
        <ele>2196.198</ele>
        <time>2021-03-13T11:52:34Z</time>
      </trkpt>
      <trkpt lat="45.57531" lon="6.80496">
        <ele>2196.703</ele>
        <time>2021-03-13T11:52:39Z</time>
      </trkpt>
      <trkpt lat="45.57532" lon="6.80503">
        <ele>2197.981</ele>
        <time>2021-03-13T11:52:44Z</time>
      </trkpt>
      <trkpt lat="45.57534" lon="6.8051">
        <ele>2198.252</ele>
        <time>2021-03-13T11:52:49Z</time>
      </trkpt>
      <trkpt lat="45.57537" lon="6.80516">
        <ele>2199.355</ele>
        <time>2021-03-13T11:52:54Z</time>
      </trkpt>
      <trkpt lat="45.57539" lon="6.80522">
        <ele>2199.956</ele>
        <time>2021-03-13T11:52:59Z</time>
      </trkpt>
      <trkpt lat="45.57541" lon="6.80528">
        <ele>2201.007</ele>
        <time>2021-03-13T11:53:04Z</time>
      </trkpt>
      <trkpt lat="45.57544" lon="6.80534">
        <ele>2201.307</ele>
        <time>2021-03-13T11:53:09Z</time>
      </trkpt>
      <trkpt lat="45.57545" lon="6.80541">
        <ele>2201.676</ele>
        <time>2021-03-13T11:53:14Z</time>
      </trkpt>
      <trkpt lat="45.57546" lon="6.80548">
        <ele>2201.21</ele>
        <time>2021-03-13T11:53:19Z</time>
      </trkpt>
      <trkpt lat="45.57547" lon="6.80556">
        <ele>2201.332</ele>
        <time>2021-03-13T11:53:24Z</time>
      </trkpt>
      <trkpt lat="45.57547" lon="6.80559">
        <ele>2202.67</ele>
        <time>2021-03-13T11:53:29Z</time>
      </trkpt>
      <trkpt lat="45.57547" lon="6.80559">
        <ele>2201.625</ele>
        <time>2021-03-13T11:53:34Z</time>
      </trkpt>
      <trkpt lat="45.57547" lon="6.80559">
        <ele>2202.168</ele>
        <time>2021-03-13T11:53:39Z</time>
      </trkpt>
      <trkpt lat="45.57548" lon="6.80559">
        <ele>2201.861</ele>
        <time>2021-03-13T11:53:44Z</time>
      </trkpt>
      <trkpt lat="45.57547" lon="6.80559">
        <ele>2200.806</ele>
        <time>2021-03-13T11:53:49Z</time>
      </trkpt>
      <trkpt lat="45.57546" lon="6.80559">
        <ele>2200.709</ele>
        <time>2021-03-13T11:53:54Z</time>
      </trkpt>
      <trkpt lat="45.57546" lon="6.80559">
        <ele>2200.603</ele>
        <time>2021-03-13T11:53:59Z</time>
      </trkpt>
      <trkpt lat="45.57546" lon="6.80559">
        <ele>2200.603</ele>
        <time>2021-03-13T11:54:04Z</time>
      </trkpt>
      <trkpt lat="45.57546" lon="6.8056">
        <ele>2200.648</ele>
        <time>2021-03-13T11:54:09Z</time>
      </trkpt>
      <trkpt lat="45.57545" lon="6.80567">
        <ele>2201.034</ele>
        <time>2021-03-13T11:54:14Z</time>
      </trkpt>
      <trkpt lat="45.57544" lon="6.80572">
        <ele>2201.39</ele>
        <time>2021-03-13T11:54:19Z</time>
      </trkpt>
      <trkpt lat="45.57544" lon="6.80577">
        <ele>2200.192</ele>
        <time>2021-03-13T11:54:24Z</time>
      </trkpt>
      <trkpt lat="45.57543" lon="6.80582">
        <ele>2201.003</ele>
        <time>2021-03-13T11:54:29Z</time>
      </trkpt>
      <trkpt lat="45.57543" lon="6.80588">
        <ele>2200.09</ele>
        <time>2021-03-13T11:54:34Z</time>
      </trkpt>
      <trkpt lat="45.57542" lon="6.80594">
        <ele>2200.242</ele>
        <time>2021-03-13T11:54:39Z</time>
      </trkpt>
      <trkpt lat="45.5754" lon="6.80599">
        <ele>2201.649</ele>
        <time>2021-03-13T11:54:44Z</time>
      </trkpt>
      <trkpt lat="45.5754" lon="6.80603">
        <ele>2201.095</ele>
        <time>2021-03-13T11:54:49Z</time>
      </trkpt>
      <trkpt lat="45.5754" lon="6.80606">
        <ele>2201.423</ele>
        <time>2021-03-13T11:54:54Z</time>
      </trkpt>
      <trkpt lat="45.57539" lon="6.80613">
        <ele>2202.019</ele>
        <time>2021-03-13T11:54:59Z</time>
      </trkpt>
      <trkpt lat="45.57539" lon="6.80615">
        <ele>2202.472</ele>
        <time>2021-03-13T11:55:04Z</time>
      </trkpt>
      <trkpt lat="45.57538" lon="6.80615">
        <ele>2203.462</ele>
        <time>2021-03-13T11:55:09Z</time>
      </trkpt>
      <trkpt lat="45.57538" lon="6.80619">
        <ele>2203.653</ele>
        <time>2021-03-13T11:55:14Z</time>
      </trkpt>
      <trkpt lat="45.57538" lon="6.8062">
        <ele>2203.452</ele>
        <time>2021-03-13T11:55:19Z</time>
      </trkpt>
      <trkpt lat="45.57537" lon="6.80622">
        <ele>2204.415</ele>
        <time>2021-03-13T11:55:24Z</time>
      </trkpt>
      <trkpt lat="45.57536" lon="6.80624">
        <ele>2204.662</ele>
        <time>2021-03-13T11:55:29Z</time>
      </trkpt>
      <trkpt lat="45.57535" lon="6.80629">
        <ele>2206.059</ele>
        <time>2021-03-13T11:55:34Z</time>
      </trkpt>
      <trkpt lat="45.57535" lon="6.80634">
        <ele>2206.376</ele>
        <time>2021-03-13T11:55:39Z</time>
      </trkpt>
      <trkpt lat="45.57534" lon="6.80639">
        <ele>2205.477</ele>
        <time>2021-03-13T11:55:44Z</time>
      </trkpt>
      <trkpt lat="45.57533" lon="6.80643">
        <ele>2207.8</ele>
        <time>2021-03-13T11:55:49Z</time>
      </trkpt>
      <trkpt lat="45.57533" lon="6.80647">
        <ele>2207.355</ele>
        <time>2021-03-13T11:55:54Z</time>
      </trkpt>
      <trkpt lat="45.57532" lon="6.80651">
        <ele>2207.686</ele>
        <time>2021-03-13T11:55:59Z</time>
      </trkpt>
      <trkpt lat="45.57531" lon="6.80653">
        <ele>2208.943</ele>
        <time>2021-03-13T11:56:04Z</time>
      </trkpt>
      <trkpt lat="45.57531" lon="6.80655">
        <ele>2210.251</ele>
        <time>2021-03-13T11:56:09Z</time>
      </trkpt>
      <trkpt lat="45.57531" lon="6.80659">
        <ele>2211.641</ele>
        <time>2021-03-13T11:56:14Z</time>
      </trkpt>
      <trkpt lat="45.5753" lon="6.80662">
        <ele>2211.874</ele>
        <time>2021-03-13T11:56:19Z</time>
      </trkpt>
      <trkpt lat="45.57529" lon="6.80666">
        <ele>2213.362</ele>
        <time>2021-03-13T11:56:24Z</time>
      </trkpt>
      <trkpt lat="45.57529" lon="6.80669">
        <ele>2212.889</ele>
        <time>2021-03-13T11:56:29Z</time>
      </trkpt>
      <trkpt lat="45.57528" lon="6.80673">
        <ele>2213.159</ele>
        <time>2021-03-13T11:56:34Z</time>
      </trkpt>
      <trkpt lat="45.57526" lon="6.80677">
        <ele>2216.038</ele>
        <time>2021-03-13T11:56:39Z</time>
      </trkpt>
      <trkpt lat="45.57525" lon="6.8068">
        <ele>2217.43</ele>
        <time>2021-03-13T11:56:44Z</time>
      </trkpt>
      <trkpt lat="45.57524" lon="6.80683">
        <ele>2218.335</ele>
        <time>2021-03-13T11:56:49Z</time>
      </trkpt>
      <trkpt lat="45.57524" lon="6.80687">
        <ele>2218.143</ele>
        <time>2021-03-13T11:56:54Z</time>
      </trkpt>
      <trkpt lat="45.57524" lon="6.80689">
        <ele>2218.341</ele>
        <time>2021-03-13T11:56:59Z</time>
      </trkpt>
      <trkpt lat="45.57522" lon="6.80694">
        <ele>2218.593</ele>
        <time>2021-03-13T11:57:04Z</time>
      </trkpt>
      <trkpt lat="45.5752" lon="6.80698">
        <ele>2219.469</ele>
        <time>2021-03-13T11:57:09Z</time>
      </trkpt>
      <trkpt lat="45.57518" lon="6.807">
        <ele>2220.223</ele>
        <time>2021-03-13T11:57:14Z</time>
      </trkpt>
      <trkpt lat="45.57518" lon="6.80702">
        <ele>2221.184</ele>
        <time>2021-03-13T11:57:19Z</time>
      </trkpt>
      <trkpt lat="45.57518" lon="6.80702">
        <ele>2221.307</ele>
        <time>2021-03-13T11:57:24Z</time>
      </trkpt>
      <trkpt lat="45.57518" lon="6.80702">
        <ele>2221.736</ele>
        <time>2021-03-13T11:57:29Z</time>
      </trkpt>
      <trkpt lat="45.57518" lon="6.80702">
        <ele>2221.705</ele>
        <time>2021-03-13T11:57:34Z</time>
      </trkpt>
      <trkpt lat="45.57518" lon="6.80701">
        <ele>2221.494</ele>
        <time>2021-03-13T11:57:39Z</time>
      </trkpt>
      <trkpt lat="45.57518" lon="6.80701">
        <ele>2221.351</ele>
        <time>2021-03-13T11:57:44Z</time>
      </trkpt>
      <trkpt lat="45.57518" lon="6.80701">
        <ele>2221.344</ele>
        <time>2021-03-13T11:57:49Z</time>
      </trkpt>
      <trkpt lat="45.57518" lon="6.80701">
        <ele>2221.355</ele>
        <time>2021-03-13T11:57:54Z</time>
      </trkpt>
      <trkpt lat="45.57518" lon="6.80701">
        <ele>2221.352</ele>
        <time>2021-03-13T11:57:59Z</time>
      </trkpt>
      <trkpt lat="45.57518" lon="6.80701">
        <ele>2221.354</ele>
        <time>2021-03-13T11:58:04Z</time>
      </trkpt>
      <trkpt lat="45.57518" lon="6.80701">
        <ele>2221.36</ele>
        <time>2021-03-13T11:58:09Z</time>
      </trkpt>
      <trkpt lat="45.57518" lon="6.80701">
        <ele>2221.363</ele>
        <time>2021-03-13T11:58:14Z</time>
      </trkpt>
      <trkpt lat="45.57518" lon="6.80701">
        <ele>2221.361</ele>
        <time>2021-03-13T11:58:19Z</time>
      </trkpt>
      <trkpt lat="45.57518" lon="6.80701">
        <ele>2221.364</ele>
        <time>2021-03-13T11:58:24Z</time>
      </trkpt>
      <trkpt lat="45.57518" lon="6.80701">
        <ele>2221.368</ele>
        <time>2021-03-13T11:58:29Z</time>
      </trkpt>
      <trkpt lat="45.57518" lon="6.80702">
        <ele>2221.067</ele>
        <time>2021-03-13T11:58:34Z</time>
      </trkpt>
      <trkpt lat="45.57518" lon="6.80702">
        <ele>2222.049</ele>
        <time>2021-03-13T11:58:39Z</time>
      </trkpt>
      <trkpt lat="45.57518" lon="6.80702">
        <ele>2221.929</ele>
        <time>2021-03-13T11:58:44Z</time>
      </trkpt>
      <trkpt lat="45.57517" lon="6.80702">
        <ele>2222.4</ele>
        <time>2021-03-13T11:58:49Z</time>
      </trkpt>
      <trkpt lat="45.57518" lon="6.80703">
        <ele>2222.95</ele>
        <time>2021-03-13T11:58:54Z</time>
      </trkpt>
      <trkpt lat="45.57518" lon="6.80703">
        <ele>2222.852</ele>
        <time>2021-03-13T11:58:59Z</time>
      </trkpt>
      <trkpt lat="45.57518" lon="6.80701">
        <ele>2223.713</ele>
        <time>2021-03-13T11:59:04Z</time>
      </trkpt>
      <trkpt lat="45.57518" lon="6.80702">
        <ele>2222.909</ele>
        <time>2021-03-13T11:59:09Z</time>
      </trkpt>
      <trkpt lat="45.57517" lon="6.80702">
        <ele>2223.614</ele>
        <time>2021-03-13T11:59:14Z</time>
      </trkpt>
      <trkpt lat="45.57517" lon="6.80702">
        <ele>2223.924</ele>
        <time>2021-03-13T11:59:19Z</time>
      </trkpt>
      <trkpt lat="45.57517" lon="6.80702">
        <ele>2224.154</ele>
        <time>2021-03-13T11:59:24Z</time>
      </trkpt>
      <trkpt lat="45.57518" lon="6.80702">
        <ele>2224.185</ele>
        <time>2021-03-13T11:59:29Z</time>
      </trkpt>
      <trkpt lat="45.57518" lon="6.80702">
        <ele>2224.186</ele>
        <time>2021-03-13T11:59:34Z</time>
      </trkpt>
      <trkpt lat="45.57517" lon="6.80702">
        <ele>2224.19</ele>
        <time>2021-03-13T11:59:39Z</time>
      </trkpt>
      <trkpt lat="45.57517" lon="6.80702">
        <ele>2224.188</ele>
        <time>2021-03-13T11:59:44Z</time>
      </trkpt>
      <trkpt lat="45.57517" lon="6.80702">
        <ele>2224.131</ele>
        <time>2021-03-13T11:59:49Z</time>
      </trkpt>
      <trkpt lat="45.57517" lon="6.80702">
        <ele>2224.429</ele>
        <time>2021-03-13T11:59:54Z</time>
      </trkpt>
      <trkpt lat="45.57516" lon="6.80702">
        <ele>2224.498</ele>
        <time>2021-03-13T11:59:59Z</time>
      </trkpt>
      <trkpt lat="45.57516" lon="6.80702">
        <ele>2224.445</ele>
        <time>2021-03-13T12:00:04Z</time>
      </trkpt>
      <trkpt lat="45.57517" lon="6.80701">
        <ele>2223.663</ele>
        <time>2021-03-13T12:00:09Z</time>
      </trkpt>
      <trkpt lat="45.57517" lon="6.80702">
        <ele>2222.962</ele>
        <time>2021-03-13T12:00:14Z</time>
      </trkpt>
      <trkpt lat="45.57516" lon="6.80703">
        <ele>2222.904</ele>
        <time>2021-03-13T12:00:19Z</time>
      </trkpt>
      <trkpt lat="45.57516" lon="6.80703">
        <ele>2222.879</ele>
        <time>2021-03-13T12:00:24Z</time>
      </trkpt>
      <trkpt lat="45.57516" lon="6.80703">
        <ele>2222.874</ele>
        <time>2021-03-13T12:00:29Z</time>
      </trkpt>
      <trkpt lat="45.57516" lon="6.80703">
        <ele>2222.863</ele>
        <time>2021-03-13T12:00:34Z</time>
      </trkpt>
      <trkpt lat="45.57516" lon="6.80703">
        <ele>2222.85</ele>
        <time>2021-03-13T12:00:39Z</time>
      </trkpt>
      <trkpt lat="45.57516" lon="6.80703">
        <ele>2222.86</ele>
        <time>2021-03-13T12:00:44Z</time>
      </trkpt>
      <trkpt lat="45.57516" lon="6.80703">
        <ele>2222.852</ele>
        <time>2021-03-13T12:00:49Z</time>
      </trkpt>
      <trkpt lat="45.57516" lon="6.80703">
        <ele>2222.839</ele>
        <time>2021-03-13T12:00:54Z</time>
      </trkpt>
      <trkpt lat="45.57516" lon="6.80703">
        <ele>2222.827</ele>
        <time>2021-03-13T12:00:59Z</time>
      </trkpt>
      <trkpt lat="45.57516" lon="6.80703">
        <ele>2222.812</ele>
        <time>2021-03-13T12:01:04Z</time>
      </trkpt>
      <trkpt lat="45.57516" lon="6.80703">
        <ele>2222.798</ele>
        <time>2021-03-13T12:01:09Z</time>
      </trkpt>
      <trkpt lat="45.57516" lon="6.80703">
        <ele>2222.789</ele>
        <time>2021-03-13T12:01:14Z</time>
      </trkpt>
      <trkpt lat="45.57516" lon="6.80703">
        <ele>2222.778</ele>
        <time>2021-03-13T12:01:19Z</time>
      </trkpt>
      <trkpt lat="45.57516" lon="6.80703">
        <ele>2222.632</ele>
        <time>2021-03-13T12:01:24Z</time>
      </trkpt>
      <trkpt lat="45.57516" lon="6.80703">
        <ele>2222.117</ele>
        <time>2021-03-13T12:01:29Z</time>
      </trkpt>
      <trkpt lat="45.57517" lon="6.80703">
        <ele>2220.907</ele>
        <time>2021-03-13T12:01:34Z</time>
      </trkpt>
      <trkpt lat="45.57517" lon="6.80703">
        <ele>2220.832</ele>
        <time>2021-03-13T12:01:39Z</time>
      </trkpt>
      <trkpt lat="45.57517" lon="6.80703">
        <ele>2220.836</ele>
        <time>2021-03-13T12:01:44Z</time>
      </trkpt>
      <trkpt lat="45.57517" lon="6.80703">
        <ele>2220.83</ele>
        <time>2021-03-13T12:01:49Z</time>
      </trkpt>
      <trkpt lat="45.57517" lon="6.80703">
        <ele>2220.828</ele>
        <time>2021-03-13T12:01:54Z</time>
      </trkpt>
      <trkpt lat="45.57517" lon="6.80703">
        <ele>2220.811</ele>
        <time>2021-03-13T12:01:59Z</time>
      </trkpt>
      <trkpt lat="45.57517" lon="6.80703">
        <ele>2220.797</ele>
        <time>2021-03-13T12:02:04Z</time>
      </trkpt>
      <trkpt lat="45.57517" lon="6.80703">
        <ele>2220.244</ele>
        <time>2021-03-13T12:02:09Z</time>
      </trkpt>
      <trkpt lat="45.57517" lon="6.80702">
        <ele>2220.447</ele>
        <time>2021-03-13T12:02:14Z</time>
      </trkpt>
      <trkpt lat="45.57517" lon="6.80703">
        <ele>2220.059</ele>
        <time>2021-03-13T12:02:19Z</time>
      </trkpt>
      <trkpt lat="45.57517" lon="6.80703">
        <ele>2220.026</ele>
        <time>2021-03-13T12:02:24Z</time>
      </trkpt>
      <trkpt lat="45.57517" lon="6.80703">
        <ele>2220.004</ele>
        <time>2021-03-13T12:02:29Z</time>
      </trkpt>
      <trkpt lat="45.57517" lon="6.80703">
        <ele>2220.008</ele>
        <time>2021-03-13T12:02:34Z</time>
      </trkpt>
      <trkpt lat="45.57517" lon="6.80703">
        <ele>2220.003</ele>
        <time>2021-03-13T12:02:39Z</time>
      </trkpt>
      <trkpt lat="45.57517" lon="6.80703">
        <ele>2219.997</ele>
        <time>2021-03-13T12:02:44Z</time>
      </trkpt>
      <trkpt lat="45.57517" lon="6.80703">
        <ele>2219.992</ele>
        <time>2021-03-13T12:02:49Z</time>
      </trkpt>
      <trkpt lat="45.57517" lon="6.80703">
        <ele>2219.987</ele>
        <time>2021-03-13T12:02:54Z</time>
      </trkpt>
      <trkpt lat="45.57517" lon="6.80703">
        <ele>2219.976</ele>
        <time>2021-03-13T12:02:59Z</time>
      </trkpt>
      <trkpt lat="45.57517" lon="6.80703">
        <ele>2219.96</ele>
        <time>2021-03-13T12:03:04Z</time>
      </trkpt>
      <trkpt lat="45.57517" lon="6.80703">
        <ele>2219.97</ele>
        <time>2021-03-13T12:03:09Z</time>
      </trkpt>
      <trkpt lat="45.57517" lon="6.80703">
        <ele>2219.968</ele>
        <time>2021-03-13T12:03:14Z</time>
      </trkpt>
      <trkpt lat="45.57517" lon="6.80703">
        <ele>2219.961</ele>
        <time>2021-03-13T12:03:19Z</time>
      </trkpt>
      <trkpt lat="45.57517" lon="6.80703">
        <ele>2219.355</ele>
        <time>2021-03-13T12:03:24Z</time>
      </trkpt>
      <trkpt lat="45.57518" lon="6.80707">
        <ele>2219.453</ele>
        <time>2021-03-13T12:03:29Z</time>
      </trkpt>
      <trkpt lat="45.5752" lon="6.8071">
        <ele>2220.058</ele>
        <time>2021-03-13T12:03:34Z</time>
      </trkpt>
      <trkpt lat="45.57521" lon="6.80715">
        <ele>2221.824</ele>
        <time>2021-03-13T12:03:39Z</time>
      </trkpt>
      <trkpt lat="45.57522" lon="6.80719">
        <ele>2222.337</ele>
        <time>2021-03-13T12:03:44Z</time>
      </trkpt>
      <trkpt lat="45.57522" lon="6.80725">
        <ele>2222.994</ele>
        <time>2021-03-13T12:03:49Z</time>
      </trkpt>
      <trkpt lat="45.57522" lon="6.80729">
        <ele>2224.55</ele>
        <time>2021-03-13T12:03:54Z</time>
      </trkpt>
      <trkpt lat="45.57521" lon="6.80732">
        <ele>2226.632</ele>
        <time>2021-03-13T12:03:59Z</time>
      </trkpt>
      <trkpt lat="45.5752" lon="6.80737">
        <ele>2226.793</ele>
        <time>2021-03-13T12:04:04Z</time>
      </trkpt>
      <trkpt lat="45.57519" lon="6.80743">
        <ele>2228.174</ele>
        <time>2021-03-13T12:04:09Z</time>
      </trkpt>
      <trkpt lat="45.57517" lon="6.80748">
        <ele>2229.221</ele>
        <time>2021-03-13T12:04:14Z</time>
      </trkpt>
      <trkpt lat="45.57515" lon="6.80753">
        <ele>2229.226</ele>
        <time>2021-03-13T12:04:19Z</time>
      </trkpt>
      <trkpt lat="45.57513" lon="6.80757">
        <ele>2229.546</ele>
        <time>2021-03-13T12:04:24Z</time>
      </trkpt>
      <trkpt lat="45.57511" lon="6.80758">
        <ele>2230.004</ele>
        <time>2021-03-13T12:04:29Z</time>
      </trkpt>
      <trkpt lat="45.57509" lon="6.80761">
        <ele>2232.311</ele>
        <time>2021-03-13T12:04:34Z</time>
      </trkpt>
      <trkpt lat="45.57507" lon="6.80764">
        <ele>2232.48</ele>
        <time>2021-03-13T12:04:39Z</time>
      </trkpt>
      <trkpt lat="45.57505" lon="6.80768">
        <ele>2233.283</ele>
        <time>2021-03-13T12:04:44Z</time>
      </trkpt>
      <trkpt lat="45.57503" lon="6.80771">
        <ele>2233.364</ele>
        <time>2021-03-13T12:04:49Z</time>
      </trkpt>
      <trkpt lat="45.575" lon="6.80775">
        <ele>2234.311</ele>
        <time>2021-03-13T12:04:54Z</time>
      </trkpt>
      <trkpt lat="45.57498" lon="6.80777">
        <ele>2234.948</ele>
        <time>2021-03-13T12:04:59Z</time>
      </trkpt>
      <trkpt lat="45.57496" lon="6.80779">
        <ele>2233.907</ele>
        <time>2021-03-13T12:05:04Z</time>
      </trkpt>
      <trkpt lat="45.57494" lon="6.80781">
        <ele>2235.784</ele>
        <time>2021-03-13T12:05:09Z</time>
      </trkpt>
      <trkpt lat="45.57492" lon="6.80782">
        <ele>2235.484</ele>
        <time>2021-03-13T12:05:14Z</time>
      </trkpt>
      <trkpt lat="45.57493" lon="6.80782">
        <ele>2233.77</ele>
        <time>2021-03-13T12:05:19Z</time>
      </trkpt>
      <trkpt lat="45.57493" lon="6.80781">
        <ele>2233.888</ele>
        <time>2021-03-13T12:05:24Z</time>
      </trkpt>
      <trkpt lat="45.57492" lon="6.80781">
        <ele>2235.995</ele>
        <time>2021-03-13T12:05:29Z</time>
      </trkpt>
      <trkpt lat="45.57492" lon="6.80781">
        <ele>2236.406</ele>
        <time>2021-03-13T12:05:34Z</time>
      </trkpt>
      <trkpt lat="45.57492" lon="6.80781">
        <ele>2236.798</ele>
        <time>2021-03-13T12:05:39Z</time>
      </trkpt>
      <trkpt lat="45.57491" lon="6.80782">
        <ele>2236.599</ele>
        <time>2021-03-13T12:05:44Z</time>
      </trkpt>
      <trkpt lat="45.57489" lon="6.80783">
        <ele>2236.444</ele>
        <time>2021-03-13T12:05:49Z</time>
      </trkpt>
      <trkpt lat="45.57487" lon="6.80786">
        <ele>2236.762</ele>
        <time>2021-03-13T12:05:54Z</time>
      </trkpt>
      <trkpt lat="45.57484" lon="6.80787">
        <ele>2237.626</ele>
        <time>2021-03-13T12:05:59Z</time>
      </trkpt>
      <trkpt lat="45.57482" lon="6.80789">
        <ele>2238.152</ele>
        <time>2021-03-13T12:06:04Z</time>
      </trkpt>
      <trkpt lat="45.5748" lon="6.80792">
        <ele>2239.52</ele>
        <time>2021-03-13T12:06:09Z</time>
      </trkpt>
      <trkpt lat="45.57478" lon="6.80793">
        <ele>2239.441</ele>
        <time>2021-03-13T12:06:14Z</time>
      </trkpt>
      <trkpt lat="45.57475" lon="6.80795">
        <ele>2239.704</ele>
        <time>2021-03-13T12:06:19Z</time>
      </trkpt>
      <trkpt lat="45.57473" lon="6.80797">
        <ele>2240.078</ele>
        <time>2021-03-13T12:06:24Z</time>
      </trkpt>
      <trkpt lat="45.57471" lon="6.80799">
        <ele>2241.333</ele>
        <time>2021-03-13T12:06:29Z</time>
      </trkpt>
      <trkpt lat="45.57469" lon="6.808">
        <ele>2242.069</ele>
        <time>2021-03-13T12:06:34Z</time>
      </trkpt>
      <trkpt lat="45.57467" lon="6.80802">
        <ele>2242.139</ele>
        <time>2021-03-13T12:06:39Z</time>
      </trkpt>
      <trkpt lat="45.57465" lon="6.80803">
        <ele>2243.252</ele>
        <time>2021-03-13T12:06:44Z</time>
      </trkpt>
      <trkpt lat="45.57463" lon="6.80804">
        <ele>2244.101</ele>
        <time>2021-03-13T12:06:49Z</time>
      </trkpt>
      <trkpt lat="45.57462" lon="6.80803">
        <ele>2244.354</ele>
        <time>2021-03-13T12:06:54Z</time>
      </trkpt>
      <trkpt lat="45.57461" lon="6.80803">
        <ele>2244.587</ele>
        <time>2021-03-13T12:06:59Z</time>
      </trkpt>
      <trkpt lat="45.57459" lon="6.80804">
        <ele>2245.291</ele>
        <time>2021-03-13T12:07:04Z</time>
      </trkpt>
      <trkpt lat="45.57457" lon="6.80806">
        <ele>2246.957</ele>
        <time>2021-03-13T12:07:09Z</time>
      </trkpt>
      <trkpt lat="45.57457" lon="6.80806">
        <ele>2246.576</ele>
        <time>2021-03-13T12:07:14Z</time>
      </trkpt>
      <trkpt lat="45.57456" lon="6.80806">
        <ele>2246.734</ele>
        <time>2021-03-13T12:07:19Z</time>
      </trkpt>
      <trkpt lat="45.57456" lon="6.80806">
        <ele>2246.123</ele>
        <time>2021-03-13T12:07:24Z</time>
      </trkpt>
      <trkpt lat="45.57456" lon="6.80806">
        <ele>2246.119</ele>
        <time>2021-03-13T12:07:29Z</time>
      </trkpt>
      <trkpt lat="45.57455" lon="6.80807">
        <ele>2248.131</ele>
        <time>2021-03-13T12:07:34Z</time>
      </trkpt>
      <trkpt lat="45.57452" lon="6.80808">
        <ele>2248.88</ele>
        <time>2021-03-13T12:07:39Z</time>
      </trkpt>
      <trkpt lat="45.5745" lon="6.80809">
        <ele>2249.931</ele>
        <time>2021-03-13T12:07:44Z</time>
      </trkpt>
      <trkpt lat="45.57448" lon="6.8081">
        <ele>2251.379</ele>
        <time>2021-03-13T12:07:49Z</time>
      </trkpt>
      <trkpt lat="45.57445" lon="6.80812">
        <ele>2251.859</ele>
        <time>2021-03-13T12:07:54Z</time>
      </trkpt>
      <trkpt lat="45.57443" lon="6.80814">
        <ele>2252.36</ele>
        <time>2021-03-13T12:07:59Z</time>
      </trkpt>
      <trkpt lat="45.57441" lon="6.80815">
        <ele>2252.661</ele>
        <time>2021-03-13T12:08:04Z</time>
      </trkpt>
      <trkpt lat="45.57439" lon="6.80817">
        <ele>2253.055</ele>
        <time>2021-03-13T12:08:09Z</time>
      </trkpt>
      <trkpt lat="45.57438" lon="6.80817">
        <ele>2252.577</ele>
        <time>2021-03-13T12:08:14Z</time>
      </trkpt>
      <trkpt lat="45.57436" lon="6.80819">
        <ele>2254.442</ele>
        <time>2021-03-13T12:08:19Z</time>
      </trkpt>
      <trkpt lat="45.57433" lon="6.80822">
        <ele>2255.621</ele>
        <time>2021-03-13T12:08:24Z</time>
      </trkpt>
      <trkpt lat="45.5743" lon="6.80827">
        <ele>2256.707</ele>
        <time>2021-03-13T12:08:29Z</time>
      </trkpt>
      <trkpt lat="45.57429" lon="6.8083">
        <ele>2256.351</ele>
        <time>2021-03-13T12:08:34Z</time>
      </trkpt>
      <trkpt lat="45.57427" lon="6.80834">
        <ele>2254.907</ele>
        <time>2021-03-13T12:08:39Z</time>
      </trkpt>
      <trkpt lat="45.57427" lon="6.80835">
        <ele>2255.623</ele>
        <time>2021-03-13T12:08:44Z</time>
      </trkpt>
      <trkpt lat="45.57425" lon="6.80838">
        <ele>2256.62</ele>
        <time>2021-03-13T12:08:49Z</time>
      </trkpt>
      <trkpt lat="45.57423" lon="6.80841">
        <ele>2257.151</ele>
        <time>2021-03-13T12:08:54Z</time>
      </trkpt>
      <trkpt lat="45.5742" lon="6.80843">
        <ele>2257.863</ele>
        <time>2021-03-13T12:08:59Z</time>
      </trkpt>
      <trkpt lat="45.57419" lon="6.80844">
        <ele>2257.123</ele>
        <time>2021-03-13T12:09:04Z</time>
      </trkpt>
      <trkpt lat="45.57417" lon="6.80843">
        <ele>2257.493</ele>
        <time>2021-03-13T12:09:09Z</time>
      </trkpt>
      <trkpt lat="45.57415" lon="6.8084">
        <ele>2258.556</ele>
        <time>2021-03-13T12:09:14Z</time>
      </trkpt>
      <trkpt lat="45.57415" lon="6.8084">
        <ele>2259.969</ele>
        <time>2021-03-13T12:09:19Z</time>
      </trkpt>
      <trkpt lat="45.57415" lon="6.8084">
        <ele>2259.57</ele>
        <time>2021-03-13T12:09:24Z</time>
      </trkpt>
      <trkpt lat="45.57415" lon="6.80839">
        <ele>2259.159</ele>
        <time>2021-03-13T12:09:29Z</time>
      </trkpt>
      <trkpt lat="45.57415" lon="6.80839">
        <ele>2259.165</ele>
        <time>2021-03-13T12:09:34Z</time>
      </trkpt>
      <trkpt lat="45.57415" lon="6.80839">
        <ele>2259.166</ele>
        <time>2021-03-13T12:09:39Z</time>
      </trkpt>
      <trkpt lat="45.57415" lon="6.80839">
        <ele>2259.172</ele>
        <time>2021-03-13T12:09:44Z</time>
      </trkpt>
      <trkpt lat="45.57414" lon="6.80839">
        <ele>2258.961</ele>
        <time>2021-03-13T12:09:49Z</time>
      </trkpt>
      <trkpt lat="45.57412" lon="6.80839">
        <ele>2260.367</ele>
        <time>2021-03-13T12:09:54Z</time>
      </trkpt>
      <trkpt lat="45.57409" lon="6.80839">
        <ele>2261.129</ele>
        <time>2021-03-13T12:09:59Z</time>
      </trkpt>
      <trkpt lat="45.57407" lon="6.8084">
        <ele>2261.873</ele>
        <time>2021-03-13T12:10:04Z</time>
      </trkpt>
      <trkpt lat="45.57404" lon="6.80841">
        <ele>2262.621</ele>
        <time>2021-03-13T12:10:09Z</time>
      </trkpt>
      <trkpt lat="45.57402" lon="6.80841">
        <ele>2262.355</ele>
        <time>2021-03-13T12:10:14Z</time>
      </trkpt>
      <trkpt lat="45.574" lon="6.80842">
        <ele>2262.474</ele>
        <time>2021-03-13T12:10:19Z</time>
      </trkpt>
      <trkpt lat="45.57397" lon="6.80842">
        <ele>2262.973</ele>
        <time>2021-03-13T12:10:24Z</time>
      </trkpt>
      <trkpt lat="45.57397" lon="6.80842">
        <ele>2263.222</ele>
        <time>2021-03-13T12:10:29Z</time>
      </trkpt>
      <trkpt lat="45.57397" lon="6.80842">
        <ele>2263.05</ele>
        <time>2021-03-13T12:10:34Z</time>
      </trkpt>
      <trkpt lat="45.57398" lon="6.80841">
        <ele>2263.122</ele>
        <time>2021-03-13T12:10:39Z</time>
      </trkpt>
      <trkpt lat="45.57398" lon="6.80841">
        <ele>2263.123</ele>
        <time>2021-03-13T12:10:44Z</time>
      </trkpt>
      <trkpt lat="45.57398" lon="6.80841">
        <ele>2263.128</ele>
        <time>2021-03-13T12:10:49Z</time>
      </trkpt>
      <trkpt lat="45.57398" lon="6.80841">
        <ele>2263.131</ele>
        <time>2021-03-13T12:10:54Z</time>
      </trkpt>
      <trkpt lat="45.57398" lon="6.80841">
        <ele>2263.127</ele>
        <time>2021-03-13T12:10:59Z</time>
      </trkpt>
      <trkpt lat="45.57398" lon="6.80841">
        <ele>2263.13</ele>
        <time>2021-03-13T12:11:04Z</time>
      </trkpt>
      <trkpt lat="45.57398" lon="6.80841">
        <ele>2263.13</ele>
        <time>2021-03-13T12:11:09Z</time>
      </trkpt>
      <trkpt lat="45.57398" lon="6.80842">
        <ele>2263.135</ele>
        <time>2021-03-13T12:11:14Z</time>
      </trkpt>
      <trkpt lat="45.57398" lon="6.80842">
        <ele>2263.136</ele>
        <time>2021-03-13T12:11:19Z</time>
      </trkpt>
      <trkpt lat="45.57397" lon="6.80842">
        <ele>2263.136</ele>
        <time>2021-03-13T12:11:24Z</time>
      </trkpt>
      <trkpt lat="45.57397" lon="6.80842">
        <ele>2263.136</ele>
        <time>2021-03-13T12:11:29Z</time>
      </trkpt>
      <trkpt lat="45.57396" lon="6.80842">
        <ele>2262.749</ele>
        <time>2021-03-13T12:11:34Z</time>
      </trkpt>
      <trkpt lat="45.57394" lon="6.80842">
        <ele>2263.818</ele>
        <time>2021-03-13T12:11:39Z</time>
      </trkpt>
      <trkpt lat="45.57391" lon="6.80843">
        <ele>2264.397</ele>
        <time>2021-03-13T12:11:44Z</time>
      </trkpt>
      <trkpt lat="45.57388" lon="6.80843">
        <ele>2266.383</ele>
        <time>2021-03-13T12:11:49Z</time>
      </trkpt>
      <trkpt lat="45.57386" lon="6.80844">
        <ele>2266.965</ele>
        <time>2021-03-13T12:11:54Z</time>
      </trkpt>
      <trkpt lat="45.57383" lon="6.80844">
        <ele>2268.468</ele>
        <time>2021-03-13T12:11:59Z</time>
      </trkpt>
      <trkpt lat="45.57381" lon="6.80845">
        <ele>2269.64</ele>
        <time>2021-03-13T12:12:04Z</time>
      </trkpt>
      <trkpt lat="45.57378" lon="6.80846">
        <ele>2270.116</ele>
        <time>2021-03-13T12:12:09Z</time>
      </trkpt>
      <trkpt lat="45.57376" lon="6.80846">
        <ele>2270.525</ele>
        <time>2021-03-13T12:12:14Z</time>
      </trkpt>
      <trkpt lat="45.57374" lon="6.80847">
        <ele>2270.129</ele>
        <time>2021-03-13T12:12:19Z</time>
      </trkpt>
      <trkpt lat="45.57373" lon="6.80847">
        <ele>2269.471</ele>
        <time>2021-03-13T12:12:24Z</time>
      </trkpt>
      <trkpt lat="45.57373" lon="6.80846">
        <ele>2270.346</ele>
        <time>2021-03-13T12:12:29Z</time>
      </trkpt>
      <trkpt lat="45.57372" lon="6.80846">
        <ele>2271.727</ele>
        <time>2021-03-13T12:12:34Z</time>
      </trkpt>
      <trkpt lat="45.57372" lon="6.80846">
        <ele>2271.813</ele>
        <time>2021-03-13T12:12:39Z</time>
      </trkpt>
      <trkpt lat="45.57372" lon="6.80846">
        <ele>2271.805</ele>
        <time>2021-03-13T12:12:44Z</time>
      </trkpt>
      <trkpt lat="45.57372" lon="6.80846">
        <ele>2271.799</ele>
        <time>2021-03-13T12:12:49Z</time>
      </trkpt>
      <trkpt lat="45.57372" lon="6.80845">
        <ele>2272.632</ele>
        <time>2021-03-13T12:12:54Z</time>
      </trkpt>
      <trkpt lat="45.57371" lon="6.80844">
        <ele>2274.617</ele>
        <time>2021-03-13T12:12:59Z</time>
      </trkpt>
      <trkpt lat="45.57371" lon="6.80844">
        <ele>2274.93</ele>
        <time>2021-03-13T12:13:04Z</time>
      </trkpt>
      <trkpt lat="45.57371" lon="6.80844">
        <ele>2274.908</ele>
        <time>2021-03-13T12:13:09Z</time>
      </trkpt>
      <trkpt lat="45.57369" lon="6.80845">
        <ele>2273.197</ele>
        <time>2021-03-13T12:13:14Z</time>
      </trkpt>
      <trkpt lat="45.57367" lon="6.80846">
        <ele>2273.61</ele>
        <time>2021-03-13T12:13:19Z</time>
      </trkpt>
      <trkpt lat="45.57367" lon="6.80846">
        <ele>2272.761</ele>
        <time>2021-03-13T12:13:24Z</time>
      </trkpt>
      <trkpt lat="45.57363" lon="6.80846">
        <ele>2272.038</ele>
        <time>2021-03-13T12:13:29Z</time>
      </trkpt>
      <trkpt lat="45.5736" lon="6.80848">
        <ele>2273.055</ele>
        <time>2021-03-13T12:13:34Z</time>
      </trkpt>
      <trkpt lat="45.57358" lon="6.80849">
        <ele>2272.935</ele>
        <time>2021-03-13T12:13:39Z</time>
      </trkpt>
      <trkpt lat="45.57355" lon="6.8085">
        <ele>2273.455</ele>
        <time>2021-03-13T12:13:44Z</time>
      </trkpt>
      <trkpt lat="45.57352" lon="6.8085">
        <ele>2274.007</ele>
        <time>2021-03-13T12:13:49Z</time>
      </trkpt>
      <trkpt lat="45.5735" lon="6.8085">
        <ele>2274.44</ele>
        <time>2021-03-13T12:13:54Z</time>
      </trkpt>
      <trkpt lat="45.5735" lon="6.8085">
        <ele>2274.496</ele>
        <time>2021-03-13T12:13:59Z</time>
      </trkpt>
      <trkpt lat="45.57347" lon="6.80849">
        <ele>2275.896</ele>
        <time>2021-03-13T12:14:04Z</time>
      </trkpt>
      <trkpt lat="45.57344" lon="6.80849">
        <ele>2276.445</ele>
        <time>2021-03-13T12:14:09Z</time>
      </trkpt>
      <trkpt lat="45.57341" lon="6.80849">
        <ele>2277.175</ele>
        <time>2021-03-13T12:14:14Z</time>
      </trkpt>
      <trkpt lat="45.57338" lon="6.80848">
        <ele>2277.904</ele>
        <time>2021-03-13T12:14:19Z</time>
      </trkpt>
      <trkpt lat="45.57336" lon="6.80848">
        <ele>2278.487</ele>
        <time>2021-03-13T12:14:24Z</time>
      </trkpt>
      <trkpt lat="45.57335" lon="6.80848">
        <ele>2279.585</ele>
        <time>2021-03-13T12:14:29Z</time>
      </trkpt>
      <trkpt lat="45.57333" lon="6.80848">
        <ele>2278.394</ele>
        <time>2021-03-13T12:14:34Z</time>
      </trkpt>
      <trkpt lat="45.57332" lon="6.80848">
        <ele>2278.97</ele>
        <time>2021-03-13T12:14:39Z</time>
      </trkpt>
      <trkpt lat="45.57329" lon="6.80848">
        <ele>2280.103</ele>
        <time>2021-03-13T12:14:44Z</time>
      </trkpt>
      <trkpt lat="45.57327" lon="6.80848">
        <ele>2280.605</ele>
        <time>2021-03-13T12:14:49Z</time>
      </trkpt>
      <trkpt lat="45.57326" lon="6.80849">
        <ele>2281.475</ele>
        <time>2021-03-13T12:14:54Z</time>
      </trkpt>
      <trkpt lat="45.57324" lon="6.8085">
        <ele>2281.821</ele>
        <time>2021-03-13T12:14:59Z</time>
      </trkpt>
      <trkpt lat="45.57324" lon="6.8085">
        <ele>2281.843</ele>
        <time>2021-03-13T12:15:04Z</time>
      </trkpt>
      <trkpt lat="45.57321" lon="6.80851">
        <ele>2282.939</ele>
        <time>2021-03-13T12:15:09Z</time>
      </trkpt>
      <trkpt lat="45.57318" lon="6.80851">
        <ele>2284.539</ele>
        <time>2021-03-13T12:15:14Z</time>
      </trkpt>
      <trkpt lat="45.57314" lon="6.80852">
        <ele>2285.956</ele>
        <time>2021-03-13T12:15:19Z</time>
      </trkpt>
      <trkpt lat="45.57311" lon="6.80852">
        <ele>2286.724</ele>
        <time>2021-03-13T12:15:24Z</time>
      </trkpt>
      <trkpt lat="45.57309" lon="6.80853">
        <ele>2287.011</ele>
        <time>2021-03-13T12:15:29Z</time>
      </trkpt>
      <trkpt lat="45.57308" lon="6.80853">
        <ele>2287.115</ele>
        <time>2021-03-13T12:15:34Z</time>
      </trkpt>
      <trkpt lat="45.57308" lon="6.80853">
        <ele>2287.386</ele>
        <time>2021-03-13T12:15:39Z</time>
      </trkpt>
      <trkpt lat="45.57307" lon="6.80852">
        <ele>2288.642</ele>
        <time>2021-03-13T12:15:44Z</time>
      </trkpt>
      <trkpt lat="45.57305" lon="6.80853">
        <ele>2289.525</ele>
        <time>2021-03-13T12:15:49Z</time>
      </trkpt>
      <trkpt lat="45.57302" lon="6.80855">
        <ele>2290.235</ele>
        <time>2021-03-13T12:15:54Z</time>
      </trkpt>
      <trkpt lat="45.57299" lon="6.80857">
        <ele>2290.153</ele>
        <time>2021-03-13T12:15:59Z</time>
      </trkpt>
      <trkpt lat="45.57297" lon="6.80858">
        <ele>2291.126</ele>
        <time>2021-03-13T12:16:04Z</time>
      </trkpt>
      <trkpt lat="45.57294" lon="6.80858">
        <ele>2291.791</ele>
        <time>2021-03-13T12:16:09Z</time>
      </trkpt>
      <trkpt lat="45.57291" lon="6.80858">
        <ele>2292.785</ele>
        <time>2021-03-13T12:16:14Z</time>
      </trkpt>
      <trkpt lat="45.57289" lon="6.80857">
        <ele>2293.265</ele>
        <time>2021-03-13T12:16:19Z</time>
      </trkpt>
      <trkpt lat="45.57286" lon="6.80857">
        <ele>2293.366</ele>
        <time>2021-03-13T12:16:24Z</time>
      </trkpt>
      <trkpt lat="45.57283" lon="6.80857">
        <ele>2293.781</ele>
        <time>2021-03-13T12:16:29Z</time>
      </trkpt>
      <trkpt lat="45.5728" lon="6.80858">
        <ele>2294.46</ele>
        <time>2021-03-13T12:16:34Z</time>
      </trkpt>
      <trkpt lat="45.57276" lon="6.80858">
        <ele>2293.927</ele>
        <time>2021-03-13T12:16:39Z</time>
      </trkpt>
      <trkpt lat="45.57273" lon="6.80859">
        <ele>2294.456</ele>
        <time>2021-03-13T12:16:44Z</time>
      </trkpt>
      <trkpt lat="45.5727" lon="6.80861">
        <ele>2294.706</ele>
        <time>2021-03-13T12:16:49Z</time>
      </trkpt>
      <trkpt lat="45.57267" lon="6.80861">
        <ele>2296.237</ele>
        <time>2021-03-13T12:16:54Z</time>
      </trkpt>
      <trkpt lat="45.57266" lon="6.80862">
        <ele>2295.951</ele>
        <time>2021-03-13T12:16:59Z</time>
      </trkpt>
      <trkpt lat="45.57266" lon="6.80862">
        <ele>2295.468</ele>
        <time>2021-03-13T12:17:04Z</time>
      </trkpt>
      <trkpt lat="45.57266" lon="6.80862">
        <ele>2294.171</ele>
        <time>2021-03-13T12:17:09Z</time>
      </trkpt>
      <trkpt lat="45.57266" lon="6.80862">
        <ele>2294.212</ele>
        <time>2021-03-13T12:17:14Z</time>
      </trkpt>
      <trkpt lat="45.57266" lon="6.80862">
        <ele>2294.478</ele>
        <time>2021-03-13T12:17:19Z</time>
      </trkpt>
      <trkpt lat="45.57266" lon="6.80862">
        <ele>2295.013</ele>
        <time>2021-03-13T12:17:24Z</time>
      </trkpt>
      <trkpt lat="45.57265" lon="6.80862">
        <ele>2295.536</ele>
        <time>2021-03-13T12:17:29Z</time>
      </trkpt>
      <trkpt lat="45.57265" lon="6.80862">
        <ele>2295.346</ele>
        <time>2021-03-13T12:17:34Z</time>
      </trkpt>
      <trkpt lat="45.57265" lon="6.80863">
        <ele>2295.101</ele>
        <time>2021-03-13T12:17:39Z</time>
      </trkpt>
      <trkpt lat="45.57262" lon="6.80863">
        <ele>2297.142</ele>
        <time>2021-03-13T12:17:44Z</time>
      </trkpt>
      <trkpt lat="45.57259" lon="6.80864">
        <ele>2299.496</ele>
        <time>2021-03-13T12:17:49Z</time>
      </trkpt>
      <trkpt lat="45.57258" lon="6.80864">
        <ele>2299.29</ele>
        <time>2021-03-13T12:17:54Z</time>
      </trkpt>
      <trkpt lat="45.57256" lon="6.80866">
        <ele>2300.053</ele>
        <time>2021-03-13T12:17:59Z</time>
      </trkpt>
      <trkpt lat="45.57254" lon="6.80866">
        <ele>2300.003</ele>
        <time>2021-03-13T12:18:04Z</time>
      </trkpt>
      <trkpt lat="45.57251" lon="6.80867">
        <ele>2300.949</ele>
        <time>2021-03-13T12:18:09Z</time>
      </trkpt>
      <trkpt lat="45.57249" lon="6.80867">
        <ele>2300.744</ele>
        <time>2021-03-13T12:18:14Z</time>
      </trkpt>
      <trkpt lat="45.57249" lon="6.80867">
        <ele>2301.418</ele>
        <time>2021-03-13T12:18:19Z</time>
      </trkpt>
      <trkpt lat="45.57248" lon="6.80866">
        <ele>2300.564</ele>
        <time>2021-03-13T12:18:24Z</time>
      </trkpt>
      <trkpt lat="45.57247" lon="6.80866">
        <ele>2300.673</ele>
        <time>2021-03-13T12:18:29Z</time>
      </trkpt>
      <trkpt lat="45.57246" lon="6.80867">
        <ele>2300.324</ele>
        <time>2021-03-13T12:18:34Z</time>
      </trkpt>
      <trkpt lat="45.57246" lon="6.80866">
        <ele>2300.308</ele>
        <time>2021-03-13T12:18:39Z</time>
      </trkpt>
      <trkpt lat="45.57246" lon="6.80866">
        <ele>2300.233</ele>
        <time>2021-03-13T12:18:44Z</time>
      </trkpt>
      <trkpt lat="45.57246" lon="6.80867">
        <ele>2300.045</ele>
        <time>2021-03-13T12:18:49Z</time>
      </trkpt>
      <trkpt lat="45.57246" lon="6.80867">
        <ele>2300.435</ele>
        <time>2021-03-13T12:18:54Z</time>
      </trkpt>
      <trkpt lat="45.57246" lon="6.80866">
        <ele>2300.655</ele>
        <time>2021-03-13T12:18:59Z</time>
      </trkpt>
      <trkpt lat="45.57246" lon="6.80866">
        <ele>2300.658</ele>
        <time>2021-03-13T12:19:04Z</time>
      </trkpt>
      <trkpt lat="45.57244" lon="6.80867">
        <ele>2301.224</ele>
        <time>2021-03-13T12:19:09Z</time>
      </trkpt>
      <trkpt lat="45.57242" lon="6.80868">
        <ele>2301.547</ele>
        <time>2021-03-13T12:19:14Z</time>
      </trkpt>
      <trkpt lat="45.5724" lon="6.80869">
        <ele>2301.772</ele>
        <time>2021-03-13T12:19:19Z</time>
      </trkpt>
      <trkpt lat="45.57241" lon="6.80869">
        <ele>2301.989</ele>
        <time>2021-03-13T12:19:24Z</time>
      </trkpt>
      <trkpt lat="45.57239" lon="6.80869">
        <ele>2303.47</ele>
        <time>2021-03-13T12:19:29Z</time>
      </trkpt>
      <trkpt lat="45.57236" lon="6.80869">
        <ele>2304.703</ele>
        <time>2021-03-13T12:19:34Z</time>
      </trkpt>
      <trkpt lat="45.57233" lon="6.80869">
        <ele>2305.463</ele>
        <time>2021-03-13T12:19:39Z</time>
      </trkpt>
      <trkpt lat="45.57231" lon="6.8087">
        <ele>2306.275</ele>
        <time>2021-03-13T12:19:44Z</time>
      </trkpt>
      <trkpt lat="45.57228" lon="6.80869">
        <ele>2306.815</ele>
        <time>2021-03-13T12:19:49Z</time>
      </trkpt>
      <trkpt lat="45.57225" lon="6.8087">
        <ele>2307.646</ele>
        <time>2021-03-13T12:19:54Z</time>
      </trkpt>
      <trkpt lat="45.57222" lon="6.80869">
        <ele>2308</ele>
        <time>2021-03-13T12:19:59Z</time>
      </trkpt>
      <trkpt lat="45.57219" lon="6.80869">
        <ele>2308.979</ele>
        <time>2021-03-13T12:20:04Z</time>
      </trkpt>
      <trkpt lat="45.57216" lon="6.80869">
        <ele>2310.108</ele>
        <time>2021-03-13T12:20:09Z</time>
      </trkpt>
      <trkpt lat="45.57214" lon="6.80869">
        <ele>2310.82</ele>
        <time>2021-03-13T12:20:14Z</time>
      </trkpt>
      <trkpt lat="45.57211" lon="6.80868">
        <ele>2310.828</ele>
        <time>2021-03-13T12:20:19Z</time>
      </trkpt>
      <trkpt lat="45.57208" lon="6.80868">
        <ele>2311.233</ele>
        <time>2021-03-13T12:20:24Z</time>
      </trkpt>
      <trkpt lat="45.57205" lon="6.80868">
        <ele>2311.296</ele>
        <time>2021-03-13T12:20:29Z</time>
      </trkpt>
      <trkpt lat="45.57202" lon="6.80868">
        <ele>2312.185</ele>
        <time>2021-03-13T12:20:34Z</time>
      </trkpt>
      <trkpt lat="45.57199" lon="6.80867">
        <ele>2313.6</ele>
        <time>2021-03-13T12:20:39Z</time>
      </trkpt>
      <trkpt lat="45.57196" lon="6.80867">
        <ele>2313.858</ele>
        <time>2021-03-13T12:20:44Z</time>
      </trkpt>
      <trkpt lat="45.57196" lon="6.80867">
        <ele>2314.736</ele>
        <time>2021-03-13T12:20:49Z</time>
      </trkpt>
      <trkpt lat="45.57196" lon="6.80867">
        <ele>2314.258</ele>
        <time>2021-03-13T12:20:54Z</time>
      </trkpt>
      <trkpt lat="45.57196" lon="6.80867">
        <ele>2313.862</ele>
        <time>2021-03-13T12:20:59Z</time>
      </trkpt>
      <trkpt lat="45.57196" lon="6.80867">
        <ele>2313.854</ele>
        <time>2021-03-13T12:21:04Z</time>
      </trkpt>
      <trkpt lat="45.57196" lon="6.80867">
        <ele>2313.391</ele>
        <time>2021-03-13T12:21:09Z</time>
      </trkpt>
      <trkpt lat="45.57196" lon="6.80867">
        <ele>2312.686</ele>
        <time>2021-03-13T12:21:14Z</time>
      </trkpt>
      <trkpt lat="45.57197" lon="6.80867">
        <ele>2312.689</ele>
        <time>2021-03-13T12:21:19Z</time>
      </trkpt>
      <trkpt lat="45.57197" lon="6.80868">
        <ele>2312.717</ele>
        <time>2021-03-13T12:21:24Z</time>
      </trkpt>
      <trkpt lat="45.57197" lon="6.80867">
        <ele>2312.775</ele>
        <time>2021-03-13T12:21:29Z</time>
      </trkpt>
      <trkpt lat="45.57197" lon="6.80867">
        <ele>2312.486</ele>
        <time>2021-03-13T12:21:34Z</time>
      </trkpt>
      <trkpt lat="45.57197" lon="6.80867">
        <ele>2312.751</ele>
        <time>2021-03-13T12:21:39Z</time>
      </trkpt>
      <trkpt lat="45.57195" lon="6.80867">
        <ele>2312.406</ele>
        <time>2021-03-13T12:21:44Z</time>
      </trkpt>
      <trkpt lat="45.57193" lon="6.80867">
        <ele>2313.282</ele>
        <time>2021-03-13T12:21:49Z</time>
      </trkpt>
      <trkpt lat="45.5719" lon="6.80867">
        <ele>2313.772</ele>
        <time>2021-03-13T12:21:54Z</time>
      </trkpt>
      <trkpt lat="45.57187" lon="6.80867">
        <ele>2313.95</ele>
        <time>2021-03-13T12:21:59Z</time>
      </trkpt>
      <trkpt lat="45.57185" lon="6.80866">
        <ele>2314.778</ele>
        <time>2021-03-13T12:22:04Z</time>
      </trkpt>
      <trkpt lat="45.57182" lon="6.80866">
        <ele>2315.524</ele>
        <time>2021-03-13T12:22:09Z</time>
      </trkpt>
      <trkpt lat="45.57179" lon="6.80864">
        <ele>2316.482</ele>
        <time>2021-03-13T12:22:14Z</time>
      </trkpt>
      <trkpt lat="45.57176" lon="6.80861">
        <ele>2317.078</ele>
        <time>2021-03-13T12:22:19Z</time>
      </trkpt>
      <trkpt lat="45.57174" lon="6.80859">
        <ele>2317.751</ele>
        <time>2021-03-13T12:22:24Z</time>
      </trkpt>
      <trkpt lat="45.57171" lon="6.80857">
        <ele>2318.274</ele>
        <time>2021-03-13T12:22:29Z</time>
      </trkpt>
      <trkpt lat="45.57168" lon="6.80854">
        <ele>2318.354</ele>
        <time>2021-03-13T12:22:34Z</time>
      </trkpt>
      <trkpt lat="45.57165" lon="6.80851">
        <ele>2318.97</ele>
        <time>2021-03-13T12:22:39Z</time>
      </trkpt>
      <trkpt lat="45.57163" lon="6.80848">
        <ele>2319.85</ele>
        <time>2021-03-13T12:22:44Z</time>
      </trkpt>
      <trkpt lat="45.5716" lon="6.80844">
        <ele>2319.845</ele>
        <time>2021-03-13T12:22:49Z</time>
      </trkpt>
      <trkpt lat="45.57158" lon="6.8084">
        <ele>2320.156</ele>
        <time>2021-03-13T12:22:54Z</time>
      </trkpt>
      <trkpt lat="45.57157" lon="6.80836">
        <ele>2320.465</ele>
        <time>2021-03-13T12:22:59Z</time>
      </trkpt>
      <trkpt lat="45.57155" lon="6.80832">
        <ele>2320.514</ele>
        <time>2021-03-13T12:23:04Z</time>
      </trkpt>
      <trkpt lat="45.57153" lon="6.80829">
        <ele>2321.573</ele>
        <time>2021-03-13T12:23:09Z</time>
      </trkpt>
      <trkpt lat="45.57152" lon="6.80827">
        <ele>2322.359</ele>
        <time>2021-03-13T12:23:14Z</time>
      </trkpt>
      <trkpt lat="45.57151" lon="6.80825">
        <ele>2324.118</ele>
        <time>2021-03-13T12:23:19Z</time>
      </trkpt>
      <trkpt lat="45.57151" lon="6.80823">
        <ele>2326.002</ele>
        <time>2021-03-13T12:23:24Z</time>
      </trkpt>
      <trkpt lat="45.57151" lon="6.80822">
        <ele>2326.614</ele>
        <time>2021-03-13T12:23:29Z</time>
      </trkpt>
      <trkpt lat="45.57151" lon="6.80821">
        <ele>2326.647</ele>
        <time>2021-03-13T12:23:34Z</time>
      </trkpt>
      <trkpt lat="45.57151" lon="6.80821">
        <ele>2326.656</ele>
        <time>2021-03-13T12:23:39Z</time>
      </trkpt>
      <trkpt lat="45.57151" lon="6.80821">
        <ele>2326.663</ele>
        <time>2021-03-13T12:23:44Z</time>
      </trkpt>
      <trkpt lat="45.57151" lon="6.80821">
        <ele>2326.673</ele>
        <time>2021-03-13T12:23:49Z</time>
      </trkpt>
      <trkpt lat="45.57151" lon="6.80821">
        <ele>2326.68</ele>
        <time>2021-03-13T12:23:54Z</time>
      </trkpt>
      <trkpt lat="45.57151" lon="6.80821">
        <ele>2326.685</ele>
        <time>2021-03-13T12:23:59Z</time>
      </trkpt>
      <trkpt lat="45.57151" lon="6.80821">
        <ele>2326.69</ele>
        <time>2021-03-13T12:24:04Z</time>
      </trkpt>
      <trkpt lat="45.57151" lon="6.80821">
        <ele>2326.687</ele>
        <time>2021-03-13T12:24:09Z</time>
      </trkpt>
      <trkpt lat="45.57151" lon="6.80821">
        <ele>2326.686</ele>
        <time>2021-03-13T12:24:14Z</time>
      </trkpt>
      <trkpt lat="45.5715" lon="6.80819">
        <ele>2326.259</ele>
        <time>2021-03-13T12:24:19Z</time>
      </trkpt>
      <trkpt lat="45.57148" lon="6.80815">
        <ele>2325.775</ele>
        <time>2021-03-13T12:24:24Z</time>
      </trkpt>
      <trkpt lat="45.57146" lon="6.8081">
        <ele>2325.515</ele>
        <time>2021-03-13T12:24:29Z</time>
      </trkpt>
      <trkpt lat="45.57143" lon="6.80811">
        <ele>2327.375</ele>
        <time>2021-03-13T12:24:34Z</time>
      </trkpt>
      <trkpt lat="45.57142" lon="6.80811">
        <ele>2327.414</ele>
        <time>2021-03-13T12:24:39Z</time>
      </trkpt>
      <trkpt lat="45.57141" lon="6.80806">
        <ele>2330.308</ele>
        <time>2021-03-13T12:24:44Z</time>
      </trkpt>
      <trkpt lat="45.57139" lon="6.80802">
        <ele>2332.979</ele>
        <time>2021-03-13T12:24:49Z</time>
      </trkpt>
      <trkpt lat="45.57135" lon="6.808">
        <ele>2335.693</ele>
        <time>2021-03-13T12:24:54Z</time>
      </trkpt>
      <trkpt lat="45.57134" lon="6.80799">
        <ele>2337.207</ele>
        <time>2021-03-13T12:24:59Z</time>
      </trkpt>
      <trkpt lat="45.57135" lon="6.80797">
        <ele>2339.939</ele>
        <time>2021-03-13T12:25:04Z</time>
      </trkpt>
      <trkpt lat="45.57135" lon="6.80797">
        <ele>2340.221</ele>
        <time>2021-03-13T12:25:09Z</time>
      </trkpt>
      <trkpt lat="45.57135" lon="6.80797">
        <ele>2339.98</ele>
        <time>2021-03-13T12:25:14Z</time>
      </trkpt>
      <trkpt lat="45.57135" lon="6.80797">
        <ele>2339.995</ele>
        <time>2021-03-13T12:25:19Z</time>
      </trkpt>
      <trkpt lat="45.57135" lon="6.80796">
        <ele>2339.836</ele>
        <time>2021-03-13T12:25:24Z</time>
      </trkpt>
      <trkpt lat="45.57133" lon="6.80793">
        <ele>2341.151</ele>
        <time>2021-03-13T12:25:29Z</time>
      </trkpt>
      <trkpt lat="45.57131" lon="6.80791">
        <ele>2339.717</ele>
        <time>2021-03-13T12:25:34Z</time>
      </trkpt>
      <trkpt lat="45.57131" lon="6.80796">
        <ele>2340.854</ele>
        <time>2021-03-13T12:25:39Z</time>
      </trkpt>
      <trkpt lat="45.57129" lon="6.80796">
        <ele>2341.248</ele>
        <time>2021-03-13T12:25:44Z</time>
      </trkpt>
      <trkpt lat="45.57127" lon="6.80794">
        <ele>2341.331</ele>
        <time>2021-03-13T12:25:49Z</time>
      </trkpt>
      <trkpt lat="45.57125" lon="6.8079">
        <ele>2343.198</ele>
        <time>2021-03-13T12:25:54Z</time>
      </trkpt>
      <trkpt lat="45.57125" lon="6.80789">
        <ele>2345.214</ele>
        <time>2021-03-13T12:25:59Z</time>
      </trkpt>
      <trkpt lat="45.57125" lon="6.80789">
        <ele>2345.443</ele>
        <time>2021-03-13T12:26:04Z</time>
      </trkpt>
      <trkpt lat="45.57125" lon="6.80789">
        <ele>2345.101</ele>
        <time>2021-03-13T12:26:09Z</time>
      </trkpt>
      <trkpt lat="45.57125" lon="6.80788">
        <ele>2344.47</ele>
        <time>2021-03-13T12:26:14Z</time>
      </trkpt>
      <trkpt lat="45.57125" lon="6.80788">
        <ele>2343.812</ele>
        <time>2021-03-13T12:26:19Z</time>
      </trkpt>
      <trkpt lat="45.57125" lon="6.80788">
        <ele>2343.838</ele>
        <time>2021-03-13T12:26:24Z</time>
      </trkpt>
      <trkpt lat="45.57125" lon="6.80788">
        <ele>2343.852</ele>
        <time>2021-03-13T12:26:29Z</time>
      </trkpt>
      <trkpt lat="45.57125" lon="6.80788">
        <ele>2343.859</ele>
        <time>2021-03-13T12:26:34Z</time>
      </trkpt>
      <trkpt lat="45.57125" lon="6.80788">
        <ele>2343.87</ele>
        <time>2021-03-13T12:26:39Z</time>
      </trkpt>
      <trkpt lat="45.57125" lon="6.80788">
        <ele>2343.887</ele>
        <time>2021-03-13T12:26:44Z</time>
      </trkpt>
      <trkpt lat="45.57125" lon="6.80788">
        <ele>2343.902</ele>
        <time>2021-03-13T12:26:49Z</time>
      </trkpt>
      <trkpt lat="45.57125" lon="6.80788">
        <ele>2343.913</ele>
        <time>2021-03-13T12:26:54Z</time>
      </trkpt>
      <trkpt lat="45.57125" lon="6.80788">
        <ele>2343.927</ele>
        <time>2021-03-13T12:26:59Z</time>
      </trkpt>
      <trkpt lat="45.57125" lon="6.80788">
        <ele>2343.948</ele>
        <time>2021-03-13T12:27:04Z</time>
      </trkpt>
      <trkpt lat="45.57125" lon="6.80788">
        <ele>2343.967</ele>
        <time>2021-03-13T12:27:09Z</time>
      </trkpt>
      <trkpt lat="45.57125" lon="6.80788">
        <ele>2343.98</ele>
        <time>2021-03-13T12:27:14Z</time>
      </trkpt>
      <trkpt lat="45.57125" lon="6.80788">
        <ele>2343.99</ele>
        <time>2021-03-13T12:27:19Z</time>
      </trkpt>
      <trkpt lat="45.57125" lon="6.80788">
        <ele>2344.003</ele>
        <time>2021-03-13T12:27:24Z</time>
      </trkpt>
      <trkpt lat="45.57125" lon="6.80788">
        <ele>2344.01</ele>
        <time>2021-03-13T12:27:29Z</time>
      </trkpt>
      <trkpt lat="45.57125" lon="6.80788">
        <ele>2344.011</ele>
        <time>2021-03-13T12:27:34Z</time>
      </trkpt>
      <trkpt lat="45.57125" lon="6.80788">
        <ele>2344.006</ele>
        <time>2021-03-13T12:27:39Z</time>
      </trkpt>
      <trkpt lat="45.57125" lon="6.80787">
        <ele>2343.629</ele>
        <time>2021-03-13T12:27:44Z</time>
      </trkpt>
      <trkpt lat="45.57125" lon="6.80788">
        <ele>2343.029</ele>
        <time>2021-03-13T12:27:49Z</time>
      </trkpt>
      <trkpt lat="45.57125" lon="6.80788">
        <ele>2344.329</ele>
        <time>2021-03-13T12:27:54Z</time>
      </trkpt>
      <trkpt lat="45.57126" lon="6.80788">
        <ele>2344.102</ele>
        <time>2021-03-13T12:27:59Z</time>
      </trkpt>
      <trkpt lat="45.57126" lon="6.80788">
        <ele>2344.269</ele>
        <time>2021-03-13T12:28:04Z</time>
      </trkpt>
      <trkpt lat="45.57126" lon="6.80788">
        <ele>2343.645</ele>
        <time>2021-03-13T12:28:09Z</time>
      </trkpt>
      <trkpt lat="45.57125" lon="6.80789">
        <ele>2343.249</ele>
        <time>2021-03-13T12:28:14Z</time>
      </trkpt>
      <trkpt lat="45.57125" lon="6.80787">
        <ele>2344.932</ele>
        <time>2021-03-13T12:28:19Z</time>
      </trkpt>
      <trkpt lat="45.57124" lon="6.80784">
        <ele>2343.086</ele>
        <time>2021-03-13T12:28:24Z</time>
      </trkpt>
      <trkpt lat="45.57124" lon="6.80781">
        <ele>2341.981</ele>
        <time>2021-03-13T12:28:29Z</time>
      </trkpt>
      <trkpt lat="45.57123" lon="6.80778">
        <ele>2342.595</ele>
        <time>2021-03-13T12:28:34Z</time>
      </trkpt>
      <trkpt lat="45.57123" lon="6.80776">
        <ele>2343.087</ele>
        <time>2021-03-13T12:28:39Z</time>
      </trkpt>
      <trkpt lat="45.57123" lon="6.80776">
        <ele>2341.81</ele>
        <time>2021-03-13T12:28:44Z</time>
      </trkpt>
      <trkpt lat="45.57123" lon="6.80776">
        <ele>2342.099</ele>
        <time>2021-03-13T12:28:49Z</time>
      </trkpt>
      <trkpt lat="45.57123" lon="6.80776">
        <ele>2342.213</ele>
        <time>2021-03-13T12:28:54Z</time>
      </trkpt>
      <trkpt lat="45.57123" lon="6.80777">
        <ele>2342.615</ele>
        <time>2021-03-13T12:28:59Z</time>
      </trkpt>
      <trkpt lat="45.57122" lon="6.80777">
        <ele>2343.393</ele>
        <time>2021-03-13T12:29:04Z</time>
      </trkpt>
      <trkpt lat="45.57122" lon="6.80777">
        <ele>2342.977</ele>
        <time>2021-03-13T12:29:09Z</time>
      </trkpt>
      <trkpt lat="45.57122" lon="6.80777">
        <ele>2343.904</ele>
        <time>2021-03-13T12:29:14Z</time>
      </trkpt>
      <trkpt lat="45.57122" lon="6.80777">
        <ele>2343.833</ele>
        <time>2021-03-13T12:29:19Z</time>
      </trkpt>
      <trkpt lat="45.57122" lon="6.80777">
        <ele>2343.853</ele>
        <time>2021-03-13T12:29:24Z</time>
      </trkpt>
      <trkpt lat="45.57122" lon="6.80777">
        <ele>2343.876</ele>
        <time>2021-03-13T12:29:29Z</time>
      </trkpt>
      <trkpt lat="45.57122" lon="6.80777">
        <ele>2343.882</ele>
        <time>2021-03-13T12:29:34Z</time>
      </trkpt>
      <trkpt lat="45.5712" lon="6.80779">
        <ele>2343.59</ele>
        <time>2021-03-13T12:29:39Z</time>
      </trkpt>
      <trkpt lat="45.57117" lon="6.80781">
        <ele>2344.241</ele>
        <time>2021-03-13T12:29:44Z</time>
      </trkpt>
      <trkpt lat="45.57117" lon="6.80781">
        <ele>2344.543</ele>
        <time>2021-03-13T12:29:49Z</time>
      </trkpt>
      <trkpt lat="45.57116" lon="6.8078">
        <ele>2345.222</ele>
        <time>2021-03-13T12:29:54Z</time>
      </trkpt>
      <trkpt lat="45.5711" lon="6.80779">
        <ele>2345.585</ele>
        <time>2021-03-13T12:29:59Z</time>
      </trkpt>
      <trkpt lat="45.57107" lon="6.80779">
        <ele>2346.151</ele>
        <time>2021-03-13T12:30:04Z</time>
      </trkpt>
      <trkpt lat="45.57107" lon="6.80779">
        <ele>2345.73</ele>
        <time>2021-03-13T12:30:09Z</time>
      </trkpt>
      <trkpt lat="45.57107" lon="6.80779">
        <ele>2345.435</ele>
        <time>2021-03-13T12:30:14Z</time>
      </trkpt>
      <trkpt lat="45.57107" lon="6.80779">
        <ele>2345.509</ele>
        <time>2021-03-13T12:30:19Z</time>
      </trkpt>
      <trkpt lat="45.57107" lon="6.80779">
        <ele>2345.514</ele>
        <time>2021-03-13T12:30:24Z</time>
      </trkpt>
      <trkpt lat="45.57107" lon="6.80779">
        <ele>2345.509</ele>
        <time>2021-03-13T12:30:29Z</time>
      </trkpt>
      <trkpt lat="45.57106" lon="6.8078">
        <ele>2346.149</ele>
        <time>2021-03-13T12:30:34Z</time>
      </trkpt>
      <trkpt lat="45.57105" lon="6.80782">
        <ele>2348.043</ele>
        <time>2021-03-13T12:30:39Z</time>
      </trkpt>
      <trkpt lat="45.57104" lon="6.80785">
        <ele>2348.479</ele>
        <time>2021-03-13T12:30:44Z</time>
      </trkpt>
      <trkpt lat="45.57104" lon="6.80786">
        <ele>2349.403</ele>
        <time>2021-03-13T12:30:49Z</time>
      </trkpt>
      <trkpt lat="45.57104" lon="6.80789">
        <ele>2349.592</ele>
        <time>2021-03-13T12:30:54Z</time>
      </trkpt>
      <trkpt lat="45.57104" lon="6.80794">
        <ele>2351.317</ele>
        <time>2021-03-13T12:30:59Z</time>
      </trkpt>
      <trkpt lat="45.57104" lon="6.80798">
        <ele>2353.158</ele>
        <time>2021-03-13T12:31:04Z</time>
      </trkpt>
      <trkpt lat="45.57105" lon="6.80802">
        <ele>2354.586</ele>
        <time>2021-03-13T12:31:09Z</time>
      </trkpt>
      <trkpt lat="45.57105" lon="6.80805">
        <ele>2355.069</ele>
        <time>2021-03-13T12:31:14Z</time>
      </trkpt>
      <trkpt lat="45.57105" lon="6.80808">
        <ele>2354.309</ele>
        <time>2021-03-13T12:31:19Z</time>
      </trkpt>
      <trkpt lat="45.57105" lon="6.8081">
        <ele>2354.473</ele>
        <time>2021-03-13T12:31:24Z</time>
      </trkpt>
      <trkpt lat="45.57106" lon="6.80813">
        <ele>2355.608</ele>
        <time>2021-03-13T12:31:29Z</time>
      </trkpt>
      <trkpt lat="45.57107" lon="6.80818">
        <ele>2358.204</ele>
        <time>2021-03-13T12:31:34Z</time>
      </trkpt>
      <trkpt lat="45.57107" lon="6.80824">
        <ele>2358.361</ele>
        <time>2021-03-13T12:31:39Z</time>
      </trkpt>
      <trkpt lat="45.57108" lon="6.8083">
        <ele>2358.89</ele>
        <time>2021-03-13T12:31:44Z</time>
      </trkpt>
      <trkpt lat="45.5711" lon="6.80835">
        <ele>2359.003</ele>
        <time>2021-03-13T12:31:49Z</time>
      </trkpt>
      <trkpt lat="45.57111" lon="6.80839">
        <ele>2359.795</ele>
        <time>2021-03-13T12:31:54Z</time>
      </trkpt>
      <trkpt lat="45.57113" lon="6.80845">
        <ele>2360.759</ele>
        <time>2021-03-13T12:31:59Z</time>
      </trkpt>
      <trkpt lat="45.57113" lon="6.80849">
        <ele>2361.931</ele>
        <time>2021-03-13T12:32:04Z</time>
      </trkpt>
      <trkpt lat="45.57112" lon="6.80851">
        <ele>2360.705</ele>
        <time>2021-03-13T12:32:09Z</time>
      </trkpt>
      <trkpt lat="45.57113" lon="6.80856">
        <ele>2362.149</ele>
        <time>2021-03-13T12:32:14Z</time>
      </trkpt>
      <trkpt lat="45.57114" lon="6.80861">
        <ele>2362.923</ele>
        <time>2021-03-13T12:32:19Z</time>
      </trkpt>
      <trkpt lat="45.57114" lon="6.80862">
        <ele>2362.439</ele>
        <time>2021-03-13T12:32:24Z</time>
      </trkpt>
      <trkpt lat="45.57116" lon="6.80865">
        <ele>2361.22</ele>
        <time>2021-03-13T12:32:29Z</time>
      </trkpt>
      <trkpt lat="45.57118" lon="6.80869">
        <ele>2362.102</ele>
        <time>2021-03-13T12:32:34Z</time>
      </trkpt>
      <trkpt lat="45.5712" lon="6.80873">
        <ele>2362.899</ele>
        <time>2021-03-13T12:32:39Z</time>
      </trkpt>
      <trkpt lat="45.57121" lon="6.80878">
        <ele>2362.954</ele>
        <time>2021-03-13T12:32:44Z</time>
      </trkpt>
      <trkpt lat="45.57122" lon="6.80884">
        <ele>2364.035</ele>
        <time>2021-03-13T12:32:49Z</time>
      </trkpt>
      <trkpt lat="45.57123" lon="6.80889">
        <ele>2365.386</ele>
        <time>2021-03-13T12:32:54Z</time>
      </trkpt>
      <trkpt lat="45.57123" lon="6.80894">
        <ele>2365.63</ele>
        <time>2021-03-13T12:32:59Z</time>
      </trkpt>
      <trkpt lat="45.57124" lon="6.80899">
        <ele>2366.01</ele>
        <time>2021-03-13T12:33:04Z</time>
      </trkpt>
      <trkpt lat="45.57124" lon="6.80904">
        <ele>2367.164</ele>
        <time>2021-03-13T12:33:09Z</time>
      </trkpt>
      <trkpt lat="45.57123" lon="6.80903">
        <ele>2366.999</ele>
        <time>2021-03-13T12:33:14Z</time>
      </trkpt>
      <trkpt lat="45.57123" lon="6.80903">
        <ele>2366.999</ele>
        <time>2021-03-13T12:33:19Z</time>
      </trkpt>
      <trkpt lat="45.57123" lon="6.80903">
        <ele>2367.379</ele>
        <time>2021-03-13T12:33:24Z</time>
      </trkpt>
      <trkpt lat="45.57124" lon="6.80902">
        <ele>2367.911</ele>
        <time>2021-03-13T12:33:29Z</time>
      </trkpt>
      <trkpt lat="45.57124" lon="6.80902">
        <ele>2367.91</ele>
        <time>2021-03-13T12:33:34Z</time>
      </trkpt>
      <trkpt lat="45.57124" lon="6.80902">
        <ele>2367.966</ele>
        <time>2021-03-13T12:33:39Z</time>
      </trkpt>
      <trkpt lat="45.57124" lon="6.80902">
        <ele>2368.54</ele>
        <time>2021-03-13T12:33:44Z</time>
      </trkpt>
      <trkpt lat="45.57121" lon="6.80904">
        <ele>2369.475</ele>
        <time>2021-03-13T12:33:49Z</time>
      </trkpt>
      <trkpt lat="45.5712" lon="6.80905">
        <ele>2369.897</ele>
        <time>2021-03-13T12:33:54Z</time>
      </trkpt>
      <trkpt lat="45.57117" lon="6.80906">
        <ele>2369.152</ele>
        <time>2021-03-13T12:33:59Z</time>
      </trkpt>
      <trkpt lat="45.57114" lon="6.80906">
        <ele>2370.195</ele>
        <time>2021-03-13T12:34:04Z</time>
      </trkpt>
      <trkpt lat="45.57111" lon="6.80904">
        <ele>2368.696</ele>
        <time>2021-03-13T12:34:09Z</time>
      </trkpt>
      <trkpt lat="45.57109" lon="6.80895">
        <ele>2367.78</ele>
        <time>2021-03-13T12:34:14Z</time>
      </trkpt>
      <trkpt lat="45.57106" lon="6.8089">
        <ele>2367.405</ele>
        <time>2021-03-13T12:34:19Z</time>
      </trkpt>
      <trkpt lat="45.57104" lon="6.80884">
        <ele>2368.096</ele>
        <time>2021-03-13T12:34:24Z</time>
      </trkpt>
      <trkpt lat="45.57102" lon="6.80879">
        <ele>2369.215</ele>
        <time>2021-03-13T12:34:29Z</time>
      </trkpt>
      <trkpt lat="45.57099" lon="6.80875">
        <ele>2369.615</ele>
        <time>2021-03-13T12:34:34Z</time>
      </trkpt>
      <trkpt lat="45.57095" lon="6.80872">
        <ele>2369.373</ele>
        <time>2021-03-13T12:34:39Z</time>
      </trkpt>
      <trkpt lat="45.57091" lon="6.80872">
        <ele>2369.704</ele>
        <time>2021-03-13T12:34:44Z</time>
      </trkpt>
      <trkpt lat="45.57089" lon="6.80872">
        <ele>2369.34</ele>
        <time>2021-03-13T12:34:49Z</time>
      </trkpt>
      <trkpt lat="45.57083" lon="6.80871">
        <ele>2369.628</ele>
        <time>2021-03-13T12:34:54Z</time>
      </trkpt>
      <trkpt lat="45.57079" lon="6.80866">
        <ele>2369.868</ele>
        <time>2021-03-13T12:34:59Z</time>
      </trkpt>
      <trkpt lat="45.57078" lon="6.80865">
        <ele>2370.4</ele>
        <time>2021-03-13T12:35:04Z</time>
      </trkpt>
      <trkpt lat="45.57078" lon="6.80864">
        <ele>2370.692</ele>
        <time>2021-03-13T12:35:09Z</time>
      </trkpt>
      <trkpt lat="45.57077" lon="6.80863">
        <ele>2372.357</ele>
        <time>2021-03-13T12:35:14Z</time>
      </trkpt>
      <trkpt lat="45.57075" lon="6.80858">
        <ele>2373.146</ele>
        <time>2021-03-13T12:35:19Z</time>
      </trkpt>
      <trkpt lat="45.57071" lon="6.80856">
        <ele>2372.684</ele>
        <time>2021-03-13T12:35:24Z</time>
      </trkpt>
      <trkpt lat="45.57068" lon="6.80859">
        <ele>2373.298</ele>
        <time>2021-03-13T12:35:29Z</time>
      </trkpt>
      <trkpt lat="45.57065" lon="6.80856">
        <ele>2373.113</ele>
        <time>2021-03-13T12:35:34Z</time>
      </trkpt>
      <trkpt lat="45.57065" lon="6.80849">
        <ele>2373.02</ele>
        <time>2021-03-13T12:35:39Z</time>
      </trkpt>
      <trkpt lat="45.57064" lon="6.80843">
        <ele>2373.005</ele>
        <time>2021-03-13T12:35:44Z</time>
      </trkpt>
      <trkpt lat="45.5706" lon="6.80839">
        <ele>2373.005</ele>
        <time>2021-03-13T12:35:49Z</time>
      </trkpt>
      <trkpt lat="45.57057" lon="6.80835">
        <ele>2373.628</ele>
        <time>2021-03-13T12:35:54Z</time>
      </trkpt>
      <trkpt lat="45.57053" lon="6.80831">
        <ele>2372.94</ele>
        <time>2021-03-13T12:35:59Z</time>
      </trkpt>
      <trkpt lat="45.5705" lon="6.80825">
        <ele>2373.467</ele>
        <time>2021-03-13T12:36:04Z</time>
      </trkpt>
      <trkpt lat="45.57047" lon="6.80821">
        <ele>2374.193</ele>
        <time>2021-03-13T12:36:09Z</time>
      </trkpt>
      <trkpt lat="45.57043" lon="6.80816">
        <ele>2375.271</ele>
        <time>2021-03-13T12:36:14Z</time>
      </trkpt>
      <trkpt lat="45.5704" lon="6.80812">
        <ele>2375.703</ele>
        <time>2021-03-13T12:36:19Z</time>
      </trkpt>
      <trkpt lat="45.57037" lon="6.80809">
        <ele>2376.442</ele>
        <time>2021-03-13T12:36:24Z</time>
      </trkpt>
      <trkpt lat="45.57035" lon="6.80808">
        <ele>2377.139</ele>
        <time>2021-03-13T12:36:29Z</time>
      </trkpt>
      <trkpt lat="45.57032" lon="6.80805">
        <ele>2378.118</ele>
        <time>2021-03-13T12:36:34Z</time>
      </trkpt>
      <trkpt lat="45.57028" lon="6.80803">
        <ele>2378.465</ele>
        <time>2021-03-13T12:36:39Z</time>
      </trkpt>
      <trkpt lat="45.57024" lon="6.808">
        <ele>2379.236</ele>
        <time>2021-03-13T12:36:44Z</time>
      </trkpt>
      <trkpt lat="45.57019" lon="6.80798">
        <ele>2380.451</ele>
        <time>2021-03-13T12:36:49Z</time>
      </trkpt>
      <trkpt lat="45.57015" lon="6.80795">
        <ele>2381.055</ele>
        <time>2021-03-13T12:36:54Z</time>
      </trkpt>
      <trkpt lat="45.57011" lon="6.80793">
        <ele>2382.587</ele>
        <time>2021-03-13T12:36:59Z</time>
      </trkpt>
      <trkpt lat="45.57007" lon="6.80792">
        <ele>2383.023</ele>
        <time>2021-03-13T12:37:04Z</time>
      </trkpt>
      <trkpt lat="45.57007" lon="6.80791">
        <ele>2383.74</ele>
        <time>2021-03-13T12:37:09Z</time>
      </trkpt>
      <trkpt lat="45.57007" lon="6.8079">
        <ele>2384.053</ele>
        <time>2021-03-13T12:37:14Z</time>
      </trkpt>
      <trkpt lat="45.57007" lon="6.8079">
        <ele>2384.243</ele>
        <time>2021-03-13T12:37:19Z</time>
      </trkpt>
      <trkpt lat="45.57007" lon="6.8079">
        <ele>2384.26</ele>
        <time>2021-03-13T12:37:24Z</time>
      </trkpt>
      <trkpt lat="45.57007" lon="6.8079">
        <ele>2384.266</ele>
        <time>2021-03-13T12:37:29Z</time>
      </trkpt>
      <trkpt lat="45.57007" lon="6.80791">
        <ele>2384.761</ele>
        <time>2021-03-13T12:37:34Z</time>
      </trkpt>
      <trkpt lat="45.57007" lon="6.80791">
        <ele>2384.462</ele>
        <time>2021-03-13T12:37:39Z</time>
      </trkpt>
      <trkpt lat="45.57007" lon="6.80791">
        <ele>2384.101</ele>
        <time>2021-03-13T12:37:44Z</time>
      </trkpt>
      <trkpt lat="45.57007" lon="6.80791">
        <ele>2384.086</ele>
        <time>2021-03-13T12:37:49Z</time>
      </trkpt>
      <trkpt lat="45.57007" lon="6.80791">
        <ele>2384.085</ele>
        <time>2021-03-13T12:37:54Z</time>
      </trkpt>
      <trkpt lat="45.57007" lon="6.80791">
        <ele>2384.084</ele>
        <time>2021-03-13T12:37:59Z</time>
      </trkpt>
      <trkpt lat="45.57006" lon="6.8079">
        <ele>2383.615</ele>
        <time>2021-03-13T12:38:04Z</time>
      </trkpt>
      <trkpt lat="45.57006" lon="6.8079">
        <ele>2382.933</ele>
        <time>2021-03-13T12:38:09Z</time>
      </trkpt>
      <trkpt lat="45.57005" lon="6.8079">
        <ele>2383.053</ele>
        <time>2021-03-13T12:38:14Z</time>
      </trkpt>
      <trkpt lat="45.57005" lon="6.8079">
        <ele>2383.396</ele>
        <time>2021-03-13T12:38:19Z</time>
      </trkpt>
      <trkpt lat="45.57005" lon="6.8079">
        <ele>2383.939</ele>
        <time>2021-03-13T12:38:24Z</time>
      </trkpt>
      <trkpt lat="45.57003" lon="6.80792">
        <ele>2385.47</ele>
        <time>2021-03-13T12:38:29Z</time>
      </trkpt>
      <trkpt lat="45.56998" lon="6.80793">
        <ele>2384.633</ele>
        <time>2021-03-13T12:38:34Z</time>
      </trkpt>
      <trkpt lat="45.56994" lon="6.8079">
        <ele>2384.347</ele>
        <time>2021-03-13T12:38:39Z</time>
      </trkpt>
      <trkpt lat="45.56994" lon="6.8079">
        <ele>2386.449</ele>
        <time>2021-03-13T12:38:44Z</time>
      </trkpt>
      <trkpt lat="45.56995" lon="6.8079">
        <ele>2384.897</ele>
        <time>2021-03-13T12:38:49Z</time>
      </trkpt>
      <trkpt lat="45.56994" lon="6.80788">
        <ele>2385.989</ele>
        <time>2021-03-13T12:38:54Z</time>
      </trkpt>
      <trkpt lat="45.56992" lon="6.80787">
        <ele>2386.326</ele>
        <time>2021-03-13T12:38:59Z</time>
      </trkpt>
      <trkpt lat="45.56993" lon="6.80788">
        <ele>2386.2</ele>
        <time>2021-03-13T12:39:04Z</time>
      </trkpt>
      <trkpt lat="45.56999" lon="6.80788">
        <ele>2386.205</ele>
        <time>2021-03-13T12:39:09Z</time>
      </trkpt>
      <trkpt lat="45.57004" lon="6.80785">
        <ele>2386.479</ele>
        <time>2021-03-13T12:39:14Z</time>
      </trkpt>
      <trkpt lat="45.57007" lon="6.80783">
        <ele>2386.455</ele>
        <time>2021-03-13T12:39:19Z</time>
      </trkpt>
      <trkpt lat="45.57007" lon="6.80783">
        <ele>2386.886</ele>
        <time>2021-03-13T12:39:24Z</time>
      </trkpt>
      <trkpt lat="45.57007" lon="6.80783">
        <ele>2388.461</ele>
        <time>2021-03-13T12:39:29Z</time>
      </trkpt>
      <trkpt lat="45.57007" lon="6.80783">
        <ele>2388.483</ele>
        <time>2021-03-13T12:39:34Z</time>
      </trkpt>
      <trkpt lat="45.57007" lon="6.80784">
        <ele>2387.272</ele>
        <time>2021-03-13T12:39:39Z</time>
      </trkpt>
      <trkpt lat="45.57008" lon="6.80782">
        <ele>2386.04</ele>
        <time>2021-03-13T12:39:44Z</time>
      </trkpt>
      <trkpt lat="45.57009" lon="6.8078">
        <ele>2385.179</ele>
        <time>2021-03-13T12:39:49Z</time>
      </trkpt>
      <trkpt lat="45.57008" lon="6.80781">
        <ele>2386.041</ele>
        <time>2021-03-13T12:39:54Z</time>
      </trkpt>
      <trkpt lat="45.57008" lon="6.8078">
        <ele>2385.372</ele>
        <time>2021-03-13T12:39:59Z</time>
      </trkpt>
      <trkpt lat="45.57008" lon="6.8078">
        <ele>2386.233</ele>
        <time>2021-03-13T12:40:04Z</time>
      </trkpt>
      <trkpt lat="45.57008" lon="6.8078">
        <ele>2385.78</ele>
        <time>2021-03-13T12:40:09Z</time>
      </trkpt>
      <trkpt lat="45.57007" lon="6.8078">
        <ele>2385.739</ele>
        <time>2021-03-13T12:40:14Z</time>
      </trkpt>
      <trkpt lat="45.57007" lon="6.80781">
        <ele>2385.259</ele>
        <time>2021-03-13T12:40:19Z</time>
      </trkpt>
      <trkpt lat="45.57007" lon="6.80781">
        <ele>2385.141</ele>
        <time>2021-03-13T12:40:24Z</time>
      </trkpt>
      <trkpt lat="45.57007" lon="6.80782">
        <ele>2385.393</ele>
        <time>2021-03-13T12:40:29Z</time>
      </trkpt>
      <trkpt lat="45.57007" lon="6.80783">
        <ele>2386.897</ele>
        <time>2021-03-13T12:40:34Z</time>
      </trkpt>
      <trkpt lat="45.57008" lon="6.80783">
        <ele>2386.02</ele>
        <time>2021-03-13T12:40:39Z</time>
      </trkpt>
      <trkpt lat="45.57008" lon="6.80783">
        <ele>2386.117</ele>
        <time>2021-03-13T12:40:44Z</time>
      </trkpt>
      <trkpt lat="45.57008" lon="6.80784">
        <ele>2387.034</ele>
        <time>2021-03-13T12:40:49Z</time>
      </trkpt>
      <trkpt lat="45.57008" lon="6.80785">
        <ele>2387.456</ele>
        <time>2021-03-13T12:40:54Z</time>
      </trkpt>
      <trkpt lat="45.57008" lon="6.80784">
        <ele>2387.531</ele>
        <time>2021-03-13T12:40:59Z</time>
      </trkpt>
      <trkpt lat="45.57008" lon="6.80783">
        <ele>2385.761</ele>
        <time>2021-03-13T12:41:04Z</time>
      </trkpt>
      <trkpt lat="45.57008" lon="6.80783">
        <ele>2385.059</ele>
        <time>2021-03-13T12:41:09Z</time>
      </trkpt>
      <trkpt lat="45.57007" lon="6.80783">
        <ele>2384.617</ele>
        <time>2021-03-13T12:41:14Z</time>
      </trkpt>
      <trkpt lat="45.57007" lon="6.80782">
        <ele>2384.148</ele>
        <time>2021-03-13T12:41:19Z</time>
      </trkpt>
      <trkpt lat="45.57008" lon="6.80782">
        <ele>2383.31</ele>
        <time>2021-03-13T12:41:24Z</time>
      </trkpt>
      <trkpt lat="45.57008" lon="6.80782">
        <ele>2383.321</ele>
        <time>2021-03-13T12:41:29Z</time>
      </trkpt>
      <trkpt lat="45.57008" lon="6.80782">
        <ele>2383.318</ele>
        <time>2021-03-13T12:41:34Z</time>
      </trkpt>
      <trkpt lat="45.57008" lon="6.80782">
        <ele>2383.315</ele>
        <time>2021-03-13T12:41:39Z</time>
      </trkpt>
      <trkpt lat="45.57008" lon="6.80782">
        <ele>2383.317</ele>
        <time>2021-03-13T12:41:44Z</time>
      </trkpt>
      <trkpt lat="45.57007" lon="6.80782">
        <ele>2382.345</ele>
        <time>2021-03-13T12:41:49Z</time>
      </trkpt>
      <trkpt lat="45.57007" lon="6.80782">
        <ele>2382.13</ele>
        <time>2021-03-13T12:41:54Z</time>
      </trkpt>
      <trkpt lat="45.57007" lon="6.80783">
        <ele>2381.806</ele>
        <time>2021-03-13T12:41:59Z</time>
      </trkpt>
      <trkpt lat="45.57007" lon="6.80783">
        <ele>2381.772</ele>
        <time>2021-03-13T12:42:04Z</time>
      </trkpt>
      <trkpt lat="45.57007" lon="6.80783">
        <ele>2381.794</ele>
        <time>2021-03-13T12:42:09Z</time>
      </trkpt>
      <trkpt lat="45.57007" lon="6.80783">
        <ele>2381.823</ele>
        <time>2021-03-13T12:42:14Z</time>
      </trkpt>
      <trkpt lat="45.57007" lon="6.80783">
        <ele>2383.388</ele>
        <time>2021-03-13T12:42:19Z</time>
      </trkpt>
      <trkpt lat="45.57007" lon="6.80783">
        <ele>2384.917</ele>
        <time>2021-03-13T12:42:24Z</time>
      </trkpt>
      <trkpt lat="45.57007" lon="6.80783">
        <ele>2385.384</ele>
        <time>2021-03-13T12:42:29Z</time>
      </trkpt>
      <trkpt lat="45.57005" lon="6.80785">
        <ele>2386.181</ele>
        <time>2021-03-13T12:42:34Z</time>
      </trkpt>
      <trkpt lat="45.57003" lon="6.80791">
        <ele>2385.648</ele>
        <time>2021-03-13T12:42:39Z</time>
      </trkpt>
      <trkpt lat="45.57003" lon="6.8079">
        <ele>2386.669</ele>
        <time>2021-03-13T12:42:44Z</time>
      </trkpt>
      <trkpt lat="45.57003" lon="6.8079">
        <ele>2387.19</ele>
        <time>2021-03-13T12:42:49Z</time>
      </trkpt>
      <trkpt lat="45.57003" lon="6.8079">
        <ele>2386.787</ele>
        <time>2021-03-13T12:42:54Z</time>
      </trkpt>
      <trkpt lat="45.57003" lon="6.80791">
        <ele>2386.546</ele>
        <time>2021-03-13T12:42:59Z</time>
      </trkpt>
      <trkpt lat="45.57003" lon="6.80791">
        <ele>2386.756</ele>
        <time>2021-03-13T12:43:04Z</time>
      </trkpt>
      <trkpt lat="45.57004" lon="6.80792">
        <ele>2386.816</ele>
        <time>2021-03-13T12:43:09Z</time>
      </trkpt>
      <trkpt lat="45.57003" lon="6.80791">
        <ele>2385.494</ele>
        <time>2021-03-13T12:43:14Z</time>
      </trkpt>
      <trkpt lat="45.57003" lon="6.80791">
        <ele>2384.781</ele>
        <time>2021-03-13T12:43:19Z</time>
      </trkpt>
      <trkpt lat="45.57003" lon="6.80791">
        <ele>2385.128</ele>
        <time>2021-03-13T12:43:24Z</time>
      </trkpt>
      <trkpt lat="45.57003" lon="6.80789">
        <ele>2386.612</ele>
        <time>2021-03-13T12:43:29Z</time>
      </trkpt>
      <trkpt lat="45.57003" lon="6.80786">
        <ele>2385.704</ele>
        <time>2021-03-13T12:43:34Z</time>
      </trkpt>
      <trkpt lat="45.57002" lon="6.80784">
        <ele>2384.947</ele>
        <time>2021-03-13T12:43:39Z</time>
      </trkpt>
      <trkpt lat="45.57001" lon="6.80782">
        <ele>2384.601</ele>
        <time>2021-03-13T12:43:44Z</time>
      </trkpt>
      <trkpt lat="45.57001" lon="6.80782">
        <ele>2384.744</ele>
        <time>2021-03-13T12:43:49Z</time>
      </trkpt>
      <trkpt lat="45.57001" lon="6.80783">
        <ele>2384.869</ele>
        <time>2021-03-13T12:43:54Z</time>
      </trkpt>
      <trkpt lat="45.57001" lon="6.80783">
        <ele>2385.43</ele>
        <time>2021-03-13T12:43:59Z</time>
      </trkpt>
      <trkpt lat="45.57001" lon="6.80783">
        <ele>2385.965</ele>
        <time>2021-03-13T12:44:04Z</time>
      </trkpt>
      <trkpt lat="45.57002" lon="6.80784">
        <ele>2387.686</ele>
        <time>2021-03-13T12:44:09Z</time>
      </trkpt>
      <trkpt lat="45.57002" lon="6.80783">
        <ele>2387.661</ele>
        <time>2021-03-13T12:44:14Z</time>
      </trkpt>
      <trkpt lat="45.57002" lon="6.80782">
        <ele>2387.758</ele>
        <time>2021-03-13T12:44:19Z</time>
      </trkpt>
      <trkpt lat="45.57002" lon="6.80782">
        <ele>2387.774</ele>
        <time>2021-03-13T12:44:24Z</time>
      </trkpt>
      <trkpt lat="45.57002" lon="6.80782">
        <ele>2387.777</ele>
        <time>2021-03-13T12:44:29Z</time>
      </trkpt>
      <trkpt lat="45.57001" lon="6.80781">
        <ele>2387.043</ele>
        <time>2021-03-13T12:44:34Z</time>
      </trkpt>
      <trkpt lat="45.57001" lon="6.8078">
        <ele>2385.563</ele>
        <time>2021-03-13T12:44:39Z</time>
      </trkpt>
      <trkpt lat="45.57001" lon="6.80779">
        <ele>2384.154</ele>
        <time>2021-03-13T12:44:44Z</time>
      </trkpt>
      <trkpt lat="45.57001" lon="6.80779">
        <ele>2384.016</ele>
        <time>2021-03-13T12:44:49Z</time>
      </trkpt>
      <trkpt lat="45.57001" lon="6.80781">
        <ele>2384.663</ele>
        <time>2021-03-13T12:44:54Z</time>
      </trkpt>
      <trkpt lat="45.57002" lon="6.80781">
        <ele>2385.138</ele>
        <time>2021-03-13T12:44:59Z</time>
      </trkpt>
      <trkpt lat="45.57002" lon="6.80781">
        <ele>2385.701</ele>
        <time>2021-03-13T12:45:04Z</time>
      </trkpt>
      <trkpt lat="45.57002" lon="6.80781">
        <ele>2385.697</ele>
        <time>2021-03-13T12:45:09Z</time>
      </trkpt>
      <trkpt lat="45.57002" lon="6.80781">
        <ele>2385.691</ele>
        <time>2021-03-13T12:45:14Z</time>
      </trkpt>
      <trkpt lat="45.57002" lon="6.80781">
        <ele>2385.687</ele>
        <time>2021-03-13T12:45:19Z</time>
      </trkpt>
      <trkpt lat="45.57002" lon="6.80781">
        <ele>2385.681</ele>
        <time>2021-03-13T12:45:24Z</time>
      </trkpt>
      <trkpt lat="45.57002" lon="6.80781">
        <ele>2385.67</ele>
        <time>2021-03-13T12:45:29Z</time>
      </trkpt>
      <trkpt lat="45.57002" lon="6.80781">
        <ele>2385.668</ele>
        <time>2021-03-13T12:45:34Z</time>
      </trkpt>
      <trkpt lat="45.57002" lon="6.80781">
        <ele>2385.67</ele>
        <time>2021-03-13T12:45:39Z</time>
      </trkpt>
      <trkpt lat="45.57002" lon="6.80781">
        <ele>2385.671</ele>
        <time>2021-03-13T12:45:44Z</time>
      </trkpt>
      <trkpt lat="45.57002" lon="6.80781">
        <ele>2385.667</ele>
        <time>2021-03-13T12:45:49Z</time>
      </trkpt>
      <trkpt lat="45.57002" lon="6.80781">
        <ele>2385.658</ele>
        <time>2021-03-13T12:45:54Z</time>
      </trkpt>
      <trkpt lat="45.57002" lon="6.80781">
        <ele>2385.657</ele>
        <time>2021-03-13T12:45:59Z</time>
      </trkpt>
      <trkpt lat="45.57002" lon="6.80781">
        <ele>2385.657</ele>
        <time>2021-03-13T12:46:04Z</time>
      </trkpt>
      <trkpt lat="45.57002" lon="6.80781">
        <ele>2385.652</ele>
        <time>2021-03-13T12:46:09Z</time>
      </trkpt>
      <trkpt lat="45.57002" lon="6.80781">
        <ele>2385.646</ele>
        <time>2021-03-13T12:46:14Z</time>
      </trkpt>
      <trkpt lat="45.57002" lon="6.80781">
        <ele>2385.647</ele>
        <time>2021-03-13T12:46:19Z</time>
      </trkpt>
      <trkpt lat="45.57002" lon="6.80781">
        <ele>2385.654</ele>
        <time>2021-03-13T12:46:24Z</time>
      </trkpt>
      <trkpt lat="45.57002" lon="6.80781">
        <ele>2385.658</ele>
        <time>2021-03-13T12:46:29Z</time>
      </trkpt>
      <trkpt lat="45.57002" lon="6.80781">
        <ele>2385.663</ele>
        <time>2021-03-13T12:46:34Z</time>
      </trkpt>
      <trkpt lat="45.57002" lon="6.80781">
        <ele>2385.667</ele>
        <time>2021-03-13T12:46:39Z</time>
      </trkpt>
      <trkpt lat="45.57002" lon="6.80781">
        <ele>2385.425</ele>
        <time>2021-03-13T12:46:44Z</time>
      </trkpt>
      <trkpt lat="45.57004" lon="6.80786">
        <ele>2385.901</ele>
        <time>2021-03-13T12:46:49Z</time>
      </trkpt>
      <trkpt lat="45.57003" lon="6.80786">
        <ele>2386.037</ele>
        <time>2021-03-13T12:46:54Z</time>
      </trkpt>
      <trkpt lat="45.57002" lon="6.80786">
        <ele>2385.995</ele>
        <time>2021-03-13T12:46:59Z</time>
      </trkpt>
      <trkpt lat="45.57" lon="6.80785">
        <ele>2385.631</ele>
        <time>2021-03-13T12:47:04Z</time>
      </trkpt>
      <trkpt lat="45.57001" lon="6.80783">
        <ele>2387.422</ele>
        <time>2021-03-13T12:47:09Z</time>
      </trkpt>
      <trkpt lat="45.57002" lon="6.80783">
        <ele>2386.765</ele>
        <time>2021-03-13T12:47:14Z</time>
      </trkpt>
      <trkpt lat="45.57001" lon="6.80783">
        <ele>2386.118</ele>
        <time>2021-03-13T12:47:19Z</time>
      </trkpt>
      <trkpt lat="45.56999" lon="6.80781">
        <ele>2386.171</ele>
        <time>2021-03-13T12:47:24Z</time>
      </trkpt>
      <trkpt lat="45.56999" lon="6.8078">
        <ele>2386.528</ele>
        <time>2021-03-13T12:47:29Z</time>
      </trkpt>
      <trkpt lat="45.56999" lon="6.8078">
        <ele>2387.9</ele>
        <time>2021-03-13T12:47:34Z</time>
      </trkpt>
      <trkpt lat="45.56999" lon="6.8078">
        <ele>2388.681</ele>
        <time>2021-03-13T12:47:39Z</time>
      </trkpt>
      <trkpt lat="45.56999" lon="6.8078">
        <ele>2388.804</ele>
        <time>2021-03-13T12:47:44Z</time>
      </trkpt>
      <trkpt lat="45.56999" lon="6.8078">
        <ele>2388.809</ele>
        <time>2021-03-13T12:47:49Z</time>
      </trkpt>
      <trkpt lat="45.56999" lon="6.8078">
        <ele>2388.815</ele>
        <time>2021-03-13T12:47:54Z</time>
      </trkpt>
      <trkpt lat="45.56999" lon="6.8078">
        <ele>2388.82</ele>
        <time>2021-03-13T12:47:59Z</time>
      </trkpt>
      <trkpt lat="45.56999" lon="6.8078">
        <ele>2388.833</ele>
        <time>2021-03-13T12:48:04Z</time>
      </trkpt>
      <trkpt lat="45.56999" lon="6.8078">
        <ele>2388.842</ele>
        <time>2021-03-13T12:48:09Z</time>
      </trkpt>
      <trkpt lat="45.56999" lon="6.8078">
        <ele>2388.855</ele>
        <time>2021-03-13T12:48:14Z</time>
      </trkpt>
      <trkpt lat="45.56999" lon="6.8078">
        <ele>2388.875</ele>
        <time>2021-03-13T12:48:19Z</time>
      </trkpt>
      <trkpt lat="45.56999" lon="6.8078">
        <ele>2388.885</ele>
        <time>2021-03-13T12:48:24Z</time>
      </trkpt>
      <trkpt lat="45.56999" lon="6.8078">
        <ele>2389.712</ele>
        <time>2021-03-13T12:48:29Z</time>
      </trkpt>
      <trkpt lat="45.57" lon="6.80782">
        <ele>2388.432</ele>
        <time>2021-03-13T12:48:34Z</time>
      </trkpt>
      <trkpt lat="45.57001" lon="6.80782">
        <ele>2388.067</ele>
        <time>2021-03-13T12:48:39Z</time>
      </trkpt>
      <trkpt lat="45.57001" lon="6.80782">
        <ele>2387.995</ele>
        <time>2021-03-13T12:48:44Z</time>
      </trkpt>
      <trkpt lat="45.57001" lon="6.80782">
        <ele>2387.984</ele>
        <time>2021-03-13T12:48:49Z</time>
      </trkpt>
      <trkpt lat="45.57001" lon="6.80782">
        <ele>2387.975</ele>
        <time>2021-03-13T12:48:54Z</time>
      </trkpt>
      <trkpt lat="45.57001" lon="6.80782">
        <ele>2387.969</ele>
        <time>2021-03-13T12:48:59Z</time>
      </trkpt>
      <trkpt lat="45.57001" lon="6.80782">
        <ele>2387.967</ele>
        <time>2021-03-13T12:49:04Z</time>
      </trkpt>
      <trkpt lat="45.57001" lon="6.80782">
        <ele>2388.847</ele>
        <time>2021-03-13T12:49:09Z</time>
      </trkpt>
      <trkpt lat="45.57" lon="6.80786">
        <ele>2388.313</ele>
        <time>2021-03-13T12:49:14Z</time>
      </trkpt>
      <trkpt lat="45.56999" lon="6.80791">
        <ele>2389.591</ele>
        <time>2021-03-13T12:49:19Z</time>
      </trkpt>
      <trkpt lat="45.56999" lon="6.80792">
        <ele>2389.198</ele>
        <time>2021-03-13T12:49:24Z</time>
      </trkpt>
      <trkpt lat="45.56999" lon="6.80793">
        <ele>2388.597</ele>
        <time>2021-03-13T12:49:29Z</time>
      </trkpt>
      <trkpt lat="45.57" lon="6.80792">
        <ele>2385.174</ele>
        <time>2021-03-13T12:49:34Z</time>
      </trkpt>
      <trkpt lat="45.56998" lon="6.80793">
        <ele>2384.413</ele>
        <time>2021-03-13T12:49:39Z</time>
      </trkpt>
      <trkpt lat="45.56997" lon="6.80794">
        <ele>2384.558</ele>
        <time>2021-03-13T12:49:44Z</time>
      </trkpt>
      <trkpt lat="45.56997" lon="6.80792">
        <ele>2383.401</ele>
        <time>2021-03-13T12:49:49Z</time>
      </trkpt>
      <trkpt lat="45.56996" lon="6.80792">
        <ele>2381.736</ele>
        <time>2021-03-13T12:49:54Z</time>
      </trkpt>
      <trkpt lat="45.56996" lon="6.80792">
        <ele>2381.051</ele>
        <time>2021-03-13T12:49:59Z</time>
      </trkpt>
      <trkpt lat="45.56996" lon="6.80792">
        <ele>2380.432</ele>
        <time>2021-03-13T12:50:04Z</time>
      </trkpt>
      <trkpt lat="45.56995" lon="6.80794">
        <ele>2380.416</ele>
        <time>2021-03-13T12:50:09Z</time>
      </trkpt>
      <trkpt lat="45.56994" lon="6.80793">
        <ele>2379.865</ele>
        <time>2021-03-13T12:50:14Z</time>
      </trkpt>
      <trkpt lat="45.56994" lon="6.80793">
        <ele>2379.564</ele>
        <time>2021-03-13T12:50:19Z</time>
      </trkpt>
      <trkpt lat="45.56993" lon="6.80793">
        <ele>2379.91</ele>
        <time>2021-03-13T12:50:24Z</time>
      </trkpt>
      <trkpt lat="45.56993" lon="6.80789">
        <ele>2379.925</ele>
        <time>2021-03-13T12:50:29Z</time>
      </trkpt>
      <trkpt lat="45.56994" lon="6.80788">
        <ele>2382.629</ele>
        <time>2021-03-13T12:50:34Z</time>
      </trkpt>
      <trkpt lat="45.56996" lon="6.80788">
        <ele>2384.352</ele>
        <time>2021-03-13T12:50:39Z</time>
      </trkpt>
      <trkpt lat="45.56999" lon="6.80785">
        <ele>2384.602</ele>
        <time>2021-03-13T12:50:44Z</time>
      </trkpt>
      <trkpt lat="45.56999" lon="6.80783">
        <ele>2384.937</ele>
        <time>2021-03-13T12:50:49Z</time>
      </trkpt>
      <trkpt lat="45.56999" lon="6.80782">
        <ele>2385.2</ele>
        <time>2021-03-13T12:50:54Z</time>
      </trkpt>
      <trkpt lat="45.56999" lon="6.80781">
        <ele>2386.333</ele>
        <time>2021-03-13T12:50:59Z</time>
      </trkpt>
      <trkpt lat="45.56999" lon="6.80781">
        <ele>2387.221</ele>
        <time>2021-03-13T12:51:04Z</time>
      </trkpt>
      <trkpt lat="45.56999" lon="6.80781">
        <ele>2387.396</ele>
        <time>2021-03-13T12:51:09Z</time>
      </trkpt>
      <trkpt lat="45.56999" lon="6.80781">
        <ele>2387.45</ele>
        <time>2021-03-13T12:51:14Z</time>
      </trkpt>
      <trkpt lat="45.56999" lon="6.80781">
        <ele>2387.458</ele>
        <time>2021-03-13T12:51:19Z</time>
      </trkpt>
      <trkpt lat="45.56999" lon="6.80781">
        <ele>2387.464</ele>
        <time>2021-03-13T12:51:24Z</time>
      </trkpt>
      <trkpt lat="45.56999" lon="6.80781">
        <ele>2387.47</ele>
        <time>2021-03-13T12:51:29Z</time>
      </trkpt>
      <trkpt lat="45.56999" lon="6.80781">
        <ele>2387.477</ele>
        <time>2021-03-13T12:51:34Z</time>
      </trkpt>
      <trkpt lat="45.56999" lon="6.80781">
        <ele>2387.482</ele>
        <time>2021-03-13T12:51:39Z</time>
      </trkpt>
      <trkpt lat="45.56999" lon="6.80781">
        <ele>2387.488</ele>
        <time>2021-03-13T12:51:44Z</time>
      </trkpt>
      <trkpt lat="45.56999" lon="6.80781">
        <ele>2387.489</ele>
        <time>2021-03-13T12:51:49Z</time>
      </trkpt>
      <trkpt lat="45.56999" lon="6.80781">
        <ele>2387.488</ele>
        <time>2021-03-13T12:51:54Z</time>
      </trkpt>
      <trkpt lat="45.56999" lon="6.80781">
        <ele>2387.488</ele>
        <time>2021-03-13T12:51:59Z</time>
      </trkpt>
      <trkpt lat="45.56999" lon="6.80781">
        <ele>2387.49</ele>
        <time>2021-03-13T12:52:04Z</time>
      </trkpt>
      <trkpt lat="45.56999" lon="6.80781">
        <ele>2387.485</ele>
        <time>2021-03-13T12:52:09Z</time>
      </trkpt>
      <trkpt lat="45.56999" lon="6.80781">
        <ele>2387.492</ele>
        <time>2021-03-13T12:52:14Z</time>
      </trkpt>
      <trkpt lat="45.56999" lon="6.80781">
        <ele>2387.494</ele>
        <time>2021-03-13T12:52:19Z</time>
      </trkpt>
      <trkpt lat="45.56999" lon="6.80781">
        <ele>2387.499</ele>
        <time>2021-03-13T12:52:24Z</time>
      </trkpt>
      <trkpt lat="45.56999" lon="6.80781">
        <ele>2387.498</ele>
        <time>2021-03-13T12:52:29Z</time>
      </trkpt>
      <trkpt lat="45.56999" lon="6.80781">
        <ele>2387.485</ele>
        <time>2021-03-13T12:52:34Z</time>
      </trkpt>
      <trkpt lat="45.56999" lon="6.80781">
        <ele>2387.481</ele>
        <time>2021-03-13T12:52:39Z</time>
      </trkpt>
      <trkpt lat="45.56999" lon="6.80781">
        <ele>2387.477</ele>
        <time>2021-03-13T12:52:44Z</time>
      </trkpt>
      <trkpt lat="45.56999" lon="6.80781">
        <ele>2387.47</ele>
        <time>2021-03-13T12:52:49Z</time>
      </trkpt>
      <trkpt lat="45.56999" lon="6.80781">
        <ele>2387.468</ele>
        <time>2021-03-13T12:52:54Z</time>
      </trkpt>
      <trkpt lat="45.56999" lon="6.80781">
        <ele>2387.473</ele>
        <time>2021-03-13T12:52:59Z</time>
      </trkpt>
      <trkpt lat="45.56999" lon="6.80781">
        <ele>2387.473</ele>
        <time>2021-03-13T12:53:04Z</time>
      </trkpt>
      <trkpt lat="45.56999" lon="6.80781">
        <ele>2387.476</ele>
        <time>2021-03-13T12:53:09Z</time>
      </trkpt>
      <trkpt lat="45.56999" lon="6.80781">
        <ele>2387.481</ele>
        <time>2021-03-13T12:53:14Z</time>
      </trkpt>
      <trkpt lat="45.56999" lon="6.80781">
        <ele>2387.478</ele>
        <time>2021-03-13T12:53:19Z</time>
      </trkpt>
      <trkpt lat="45.56999" lon="6.80781">
        <ele>2387.475</ele>
        <time>2021-03-13T12:53:24Z</time>
      </trkpt>
      <trkpt lat="45.56999" lon="6.80781">
        <ele>2387.478</ele>
        <time>2021-03-13T12:53:29Z</time>
      </trkpt>
      <trkpt lat="45.56998" lon="6.80779">
        <ele>2387.544</ele>
        <time>2021-03-13T12:53:34Z</time>
      </trkpt>
      <trkpt lat="45.57003" lon="6.80784">
        <ele>2386.636</ele>
        <time>2021-03-13T12:53:39Z</time>
      </trkpt>
      <trkpt lat="45.57006" lon="6.80787">
        <ele>2384.815</ele>
        <time>2021-03-13T12:53:44Z</time>
      </trkpt>
      <trkpt lat="45.57005" lon="6.80788">
        <ele>2384.995</ele>
        <time>2021-03-13T12:53:49Z</time>
      </trkpt>
      <trkpt lat="45.57005" lon="6.80788">
        <ele>2384.554</ele>
        <time>2021-03-13T12:53:54Z</time>
      </trkpt>
      <trkpt lat="45.57006" lon="6.8079">
        <ele>2384.751</ele>
        <time>2021-03-13T12:53:59Z</time>
      </trkpt>
      <trkpt lat="45.57006" lon="6.8079">
        <ele>2385.802</ele>
        <time>2021-03-13T12:54:04Z</time>
      </trkpt>
      <trkpt lat="45.57006" lon="6.80789">
        <ele>2383.388</ele>
        <time>2021-03-13T12:54:09Z</time>
      </trkpt>
      <trkpt lat="45.57005" lon="6.80788">
        <ele>2383.618</ele>
        <time>2021-03-13T12:54:14Z</time>
      </trkpt>
      <trkpt lat="45.57005" lon="6.80789">
        <ele>2383.534</ele>
        <time>2021-03-13T12:54:19Z</time>
      </trkpt>
      <trkpt lat="45.57005" lon="6.80789">
        <ele>2385.295</ele>
        <time>2021-03-13T12:54:24Z</time>
      </trkpt>
      <trkpt lat="45.57006" lon="6.80789">
        <ele>2386.351</ele>
        <time>2021-03-13T12:54:29Z</time>
      </trkpt>
      <trkpt lat="45.57005" lon="6.80789">
        <ele>2385.528</ele>
        <time>2021-03-13T12:54:34Z</time>
      </trkpt>
      <trkpt lat="45.57005" lon="6.80789">
        <ele>2385.275</ele>
        <time>2021-03-13T12:54:39Z</time>
      </trkpt>
      <trkpt lat="45.57005" lon="6.80789">
        <ele>2385.236</ele>
        <time>2021-03-13T12:54:44Z</time>
      </trkpt>
      <trkpt lat="45.57005" lon="6.80789">
        <ele>2385.247</ele>
        <time>2021-03-13T12:54:49Z</time>
      </trkpt>
      <trkpt lat="45.57005" lon="6.80789">
        <ele>2385.249</ele>
        <time>2021-03-13T12:54:54Z</time>
      </trkpt>
      <trkpt lat="45.57005" lon="6.80789">
        <ele>2385.241</ele>
        <time>2021-03-13T12:54:59Z</time>
      </trkpt>
      <trkpt lat="45.57006" lon="6.80791">
        <ele>2385.069</ele>
        <time>2021-03-13T12:55:04Z</time>
      </trkpt>
      <trkpt lat="45.57006" lon="6.80791">
        <ele>2385.725</ele>
        <time>2021-03-13T12:55:09Z</time>
      </trkpt>
      <trkpt lat="45.57006" lon="6.80791">
        <ele>2385.943</ele>
        <time>2021-03-13T12:55:14Z</time>
      </trkpt>
      <trkpt lat="45.57006" lon="6.80791">
        <ele>2385.986</ele>
        <time>2021-03-13T12:55:19Z</time>
      </trkpt>
      <trkpt lat="45.57006" lon="6.80791">
        <ele>2386.001</ele>
        <time>2021-03-13T12:55:24Z</time>
      </trkpt>
      <trkpt lat="45.57006" lon="6.80792">
        <ele>2386.354</ele>
        <time>2021-03-13T12:55:29Z</time>
      </trkpt>
      <trkpt lat="45.57006" lon="6.80792">
        <ele>2386.055</ele>
        <time>2021-03-13T12:55:34Z</time>
      </trkpt>
      <trkpt lat="45.57006" lon="6.80793">
        <ele>2385.634</ele>
        <time>2021-03-13T12:55:39Z</time>
      </trkpt>
      <trkpt lat="45.57005" lon="6.80793">
        <ele>2385.415</ele>
        <time>2021-03-13T12:55:44Z</time>
      </trkpt>
      <trkpt lat="45.57005" lon="6.80792">
        <ele>2385.834</ele>
        <time>2021-03-13T12:55:49Z</time>
      </trkpt>
      <trkpt lat="45.57006" lon="6.80791">
        <ele>2384.074</ele>
        <time>2021-03-13T12:55:54Z</time>
      </trkpt>
      <trkpt lat="45.57005" lon="6.80792">
        <ele>2382.9</ele>
        <time>2021-03-13T12:55:59Z</time>
      </trkpt>
      <trkpt lat="45.57005" lon="6.8079">
        <ele>2382.624</ele>
        <time>2021-03-13T12:56:04Z</time>
      </trkpt>
      <trkpt lat="45.57006" lon="6.8079">
        <ele>2383.936</ele>
        <time>2021-03-13T12:56:09Z</time>
      </trkpt>
      <trkpt lat="45.57005" lon="6.80791">
        <ele>2383.02</ele>
        <time>2021-03-13T12:56:14Z</time>
      </trkpt>
      <trkpt lat="45.57005" lon="6.8079">
        <ele>2382.45</ele>
        <time>2021-03-13T12:56:19Z</time>
      </trkpt>
      <trkpt lat="45.57005" lon="6.8079">
        <ele>2382.086</ele>
        <time>2021-03-13T12:56:24Z</time>
      </trkpt>
      <trkpt lat="45.57005" lon="6.80789">
        <ele>2382.192</ele>
        <time>2021-03-13T12:56:29Z</time>
      </trkpt>
      <trkpt lat="45.57004" lon="6.80789">
        <ele>2382.088</ele>
        <time>2021-03-13T12:56:34Z</time>
      </trkpt>
      <trkpt lat="45.57005" lon="6.8079">
        <ele>2382.141</ele>
        <time>2021-03-13T12:56:39Z</time>
      </trkpt>
      <trkpt lat="45.57005" lon="6.8079">
        <ele>2382.293</ele>
        <time>2021-03-13T12:56:44Z</time>
      </trkpt>
      <trkpt lat="45.57005" lon="6.8079">
        <ele>2382.293</ele>
        <time>2021-03-13T12:56:49Z</time>
      </trkpt>
      <trkpt lat="45.57005" lon="6.8079">
        <ele>2382.294</ele>
        <time>2021-03-13T12:56:54Z</time>
      </trkpt>
      <trkpt lat="45.57005" lon="6.8079">
        <ele>2382.285</ele>
        <time>2021-03-13T12:56:59Z</time>
      </trkpt>
      <trkpt lat="45.57005" lon="6.80788">
        <ele>2381.046</ele>
        <time>2021-03-13T12:57:04Z</time>
      </trkpt>
      <trkpt lat="45.57005" lon="6.80788">
        <ele>2380.739</ele>
        <time>2021-03-13T12:57:09Z</time>
      </trkpt>
      <trkpt lat="45.57005" lon="6.80788">
        <ele>2380.614</ele>
        <time>2021-03-13T12:57:14Z</time>
      </trkpt>
      <trkpt lat="45.57005" lon="6.80788">
        <ele>2382.045</ele>
        <time>2021-03-13T12:57:19Z</time>
      </trkpt>
      <trkpt lat="45.57005" lon="6.80789">
        <ele>2382.455</ele>
        <time>2021-03-13T12:57:24Z</time>
      </trkpt>
      <trkpt lat="45.57005" lon="6.80788">
        <ele>2382.841</ele>
        <time>2021-03-13T12:57:29Z</time>
      </trkpt>
      <trkpt lat="45.57005" lon="6.80788">
        <ele>2382.853</ele>
        <time>2021-03-13T12:57:34Z</time>
      </trkpt>
      <trkpt lat="45.57005" lon="6.80788">
        <ele>2382.844</ele>
        <time>2021-03-13T12:57:39Z</time>
      </trkpt>
      <trkpt lat="45.57004" lon="6.80789">
        <ele>2383.005</ele>
        <time>2021-03-13T12:57:44Z</time>
      </trkpt>
      <trkpt lat="45.57004" lon="6.80789">
        <ele>2383.622</ele>
        <time>2021-03-13T12:57:49Z</time>
      </trkpt>
      <trkpt lat="45.57005" lon="6.8079">
        <ele>2382.575</ele>
        <time>2021-03-13T12:57:54Z</time>
      </trkpt>
      <trkpt lat="45.57005" lon="6.8079">
        <ele>2383.645</ele>
        <time>2021-03-13T12:57:59Z</time>
      </trkpt>
      <trkpt lat="45.57005" lon="6.8079">
        <ele>2383.504</ele>
        <time>2021-03-13T12:58:04Z</time>
      </trkpt>
      <trkpt lat="45.57006" lon="6.8079">
        <ele>2384.786</ele>
        <time>2021-03-13T12:58:09Z</time>
      </trkpt>
      <trkpt lat="45.57006" lon="6.8079">
        <ele>2386.919</ele>
        <time>2021-03-13T12:58:14Z</time>
      </trkpt>
      <trkpt lat="45.57005" lon="6.8079">
        <ele>2387.011</ele>
        <time>2021-03-13T12:58:19Z</time>
      </trkpt>
      <trkpt lat="45.57005" lon="6.8079">
        <ele>2387.075</ele>
        <time>2021-03-13T12:58:24Z</time>
      </trkpt>
      <trkpt lat="45.57005" lon="6.8079">
        <ele>2387.08</ele>
        <time>2021-03-13T12:58:29Z</time>
      </trkpt>
      <trkpt lat="45.57005" lon="6.8079">
        <ele>2387.07</ele>
        <time>2021-03-13T12:58:34Z</time>
      </trkpt>
      <trkpt lat="45.57005" lon="6.8079">
        <ele>2387.068</ele>
        <time>2021-03-13T12:58:39Z</time>
      </trkpt>
      <trkpt lat="45.57005" lon="6.8079">
        <ele>2387.077</ele>
        <time>2021-03-13T12:58:44Z</time>
      </trkpt>
      <trkpt lat="45.57005" lon="6.8079">
        <ele>2387.086</ele>
        <time>2021-03-13T12:58:49Z</time>
      </trkpt>
      <trkpt lat="45.57005" lon="6.8079">
        <ele>2387.084</ele>
        <time>2021-03-13T12:58:54Z</time>
      </trkpt>
      <trkpt lat="45.57005" lon="6.8079">
        <ele>2387.07</ele>
        <time>2021-03-13T12:58:59Z</time>
      </trkpt>
      <trkpt lat="45.57005" lon="6.8079">
        <ele>2387.073</ele>
        <time>2021-03-13T12:59:04Z</time>
      </trkpt>
      <trkpt lat="45.57005" lon="6.8079">
        <ele>2387.079</ele>
        <time>2021-03-13T12:59:09Z</time>
      </trkpt>
      <trkpt lat="45.57005" lon="6.8079">
        <ele>2387.085</ele>
        <time>2021-03-13T12:59:14Z</time>
      </trkpt>
      <trkpt lat="45.57005" lon="6.8079">
        <ele>2387.094</ele>
        <time>2021-03-13T12:59:19Z</time>
      </trkpt>
      <trkpt lat="45.57005" lon="6.8079">
        <ele>2387.1</ele>
        <time>2021-03-13T12:59:24Z</time>
      </trkpt>
      <trkpt lat="45.57005" lon="6.8079">
        <ele>2387.109</ele>
        <time>2021-03-13T12:59:29Z</time>
      </trkpt>
      <trkpt lat="45.57005" lon="6.8079">
        <ele>2387.096</ele>
        <time>2021-03-13T12:59:34Z</time>
      </trkpt>
      <trkpt lat="45.57005" lon="6.8079">
        <ele>2387.098</ele>
        <time>2021-03-13T12:59:39Z</time>
      </trkpt>
      <trkpt lat="45.57005" lon="6.8079">
        <ele>2387.11</ele>
        <time>2021-03-13T12:59:44Z</time>
      </trkpt>
      <trkpt lat="45.57006" lon="6.80791">
        <ele>2386.743</ele>
        <time>2021-03-13T12:59:49Z</time>
      </trkpt>
      <trkpt lat="45.57006" lon="6.8079">
        <ele>2386.101</ele>
        <time>2021-03-13T12:59:54Z</time>
      </trkpt>
      <trkpt lat="45.57006" lon="6.80789">
        <ele>2386.225</ele>
        <time>2021-03-13T12:59:59Z</time>
      </trkpt>
      <trkpt lat="45.57006" lon="6.80791">
        <ele>2388.577</ele>
        <time>2021-03-13T13:00:04Z</time>
      </trkpt>
      <trkpt lat="45.57006" lon="6.80791">
        <ele>2389.418</ele>
        <time>2021-03-13T13:00:09Z</time>
      </trkpt>
      <trkpt lat="45.57006" lon="6.8079">
        <ele>2385.723</ele>
        <time>2021-03-13T13:00:14Z</time>
      </trkpt>
      <trkpt lat="45.57006" lon="6.8079">
        <ele>2383.151</ele>
        <time>2021-03-13T13:00:19Z</time>
      </trkpt>
      <trkpt lat="45.57006" lon="6.80789">
        <ele>2382.547</ele>
        <time>2021-03-13T13:00:24Z</time>
      </trkpt>
      <trkpt lat="45.57006" lon="6.80789">
        <ele>2382.559</ele>
        <time>2021-03-13T13:00:29Z</time>
      </trkpt>
      <trkpt lat="45.57006" lon="6.80789">
        <ele>2382.554</ele>
        <time>2021-03-13T13:00:34Z</time>
      </trkpt>
      <trkpt lat="45.57005" lon="6.80789">
        <ele>2382.461</ele>
        <time>2021-03-13T13:00:39Z</time>
      </trkpt>
      <trkpt lat="45.57006" lon="6.8079">
        <ele>2383.553</ele>
        <time>2021-03-13T13:00:44Z</time>
      </trkpt>
      <trkpt lat="45.57006" lon="6.8079">
        <ele>2385.119</ele>
        <time>2021-03-13T13:00:49Z</time>
      </trkpt>
      <trkpt lat="45.57006" lon="6.8079">
        <ele>2385.215</ele>
        <time>2021-03-13T13:00:54Z</time>
      </trkpt>
      <trkpt lat="45.57006" lon="6.8079">
        <ele>2385.213</ele>
        <time>2021-03-13T13:00:59Z</time>
      </trkpt>
      <trkpt lat="45.57006" lon="6.8079">
        <ele>2385.211</ele>
        <time>2021-03-13T13:01:04Z</time>
      </trkpt>
      <trkpt lat="45.57006" lon="6.8079">
        <ele>2385.207</ele>
        <time>2021-03-13T13:01:09Z</time>
      </trkpt>
      <trkpt lat="45.57006" lon="6.8079">
        <ele>2385.201</ele>
        <time>2021-03-13T13:01:14Z</time>
      </trkpt>
      <trkpt lat="45.57006" lon="6.8079">
        <ele>2386.992</ele>
        <time>2021-03-13T13:01:19Z</time>
      </trkpt>
      <trkpt lat="45.57006" lon="6.8079">
        <ele>2388.07</ele>
        <time>2021-03-13T13:01:24Z</time>
      </trkpt>
      <trkpt lat="45.57006" lon="6.8079">
        <ele>2388.283</ele>
        <time>2021-03-13T13:01:29Z</time>
      </trkpt>
      <trkpt lat="45.57006" lon="6.80791">
        <ele>2388.621</ele>
        <time>2021-03-13T13:01:34Z</time>
      </trkpt>
      <trkpt lat="45.57006" lon="6.80791">
        <ele>2390.402</ele>
        <time>2021-03-13T13:01:39Z</time>
      </trkpt>
      <trkpt lat="45.57006" lon="6.80791">
        <ele>2391.597</ele>
        <time>2021-03-13T13:01:44Z</time>
      </trkpt>
      <trkpt lat="45.57006" lon="6.80791">
        <ele>2391.639</ele>
        <time>2021-03-13T13:01:49Z</time>
      </trkpt>
      <trkpt lat="45.57006" lon="6.80791">
        <ele>2391.649</ele>
        <time>2021-03-13T13:01:54Z</time>
      </trkpt>
      <trkpt lat="45.57006" lon="6.80791">
        <ele>2391.657</ele>
        <time>2021-03-13T13:01:59Z</time>
      </trkpt>
      <trkpt lat="45.57006" lon="6.80791">
        <ele>2391.66</ele>
        <time>2021-03-13T13:02:04Z</time>
      </trkpt>
      <trkpt lat="45.57006" lon="6.80791">
        <ele>2391.66</ele>
        <time>2021-03-13T13:02:09Z</time>
      </trkpt>
      <trkpt lat="45.57006" lon="6.80791">
        <ele>2391.65</ele>
        <time>2021-03-13T13:02:14Z</time>
      </trkpt>
      <trkpt lat="45.57006" lon="6.80791">
        <ele>2391.643</ele>
        <time>2021-03-13T13:02:19Z</time>
      </trkpt>
      <trkpt lat="45.57005" lon="6.80792">
        <ele>2391.37</ele>
        <time>2021-03-13T13:02:24Z</time>
      </trkpt>
      <trkpt lat="45.57005" lon="6.80793">
        <ele>2390.455</ele>
        <time>2021-03-13T13:02:29Z</time>
      </trkpt>
      <trkpt lat="45.57005" lon="6.80792">
        <ele>2388.895</ele>
        <time>2021-03-13T13:02:34Z</time>
      </trkpt>
      <trkpt lat="45.57005" lon="6.80792">
        <ele>2388.857</ele>
        <time>2021-03-13T13:02:39Z</time>
      </trkpt>
      <trkpt lat="45.57005" lon="6.80792">
        <ele>2388.865</ele>
        <time>2021-03-13T13:02:44Z</time>
      </trkpt>
      <trkpt lat="45.57005" lon="6.80792">
        <ele>2388.873</ele>
        <time>2021-03-13T13:02:49Z</time>
      </trkpt>
      <trkpt lat="45.57005" lon="6.80792">
        <ele>2388.883</ele>
        <time>2021-03-13T13:02:54Z</time>
      </trkpt>
      <trkpt lat="45.57005" lon="6.80792">
        <ele>2388.882</ele>
        <time>2021-03-13T13:02:59Z</time>
      </trkpt>
      <trkpt lat="45.57005" lon="6.80792">
        <ele>2388.887</ele>
        <time>2021-03-13T13:03:04Z</time>
      </trkpt>
      <trkpt lat="45.57005" lon="6.80792">
        <ele>2388.894</ele>
        <time>2021-03-13T13:03:09Z</time>
      </trkpt>
      <trkpt lat="45.57005" lon="6.80792">
        <ele>2388.897</ele>
        <time>2021-03-13T13:03:14Z</time>
      </trkpt>
      <trkpt lat="45.57005" lon="6.80793">
        <ele>2388.131</ele>
        <time>2021-03-13T13:03:19Z</time>
      </trkpt>
      <trkpt lat="45.57005" lon="6.80793">
        <ele>2386.479</ele>
        <time>2021-03-13T13:03:24Z</time>
      </trkpt>
      <trkpt lat="45.57005" lon="6.80795">
        <ele>2386.01</ele>
        <time>2021-03-13T13:03:29Z</time>
      </trkpt>
      <trkpt lat="45.57004" lon="6.80796">
        <ele>2387.031</ele>
        <time>2021-03-13T13:03:34Z</time>
      </trkpt>
      <trkpt lat="45.57002" lon="6.80794">
        <ele>2385.198</ele>
        <time>2021-03-13T13:03:39Z</time>
      </trkpt>
      <trkpt lat="45.57002" lon="6.80788">
        <ele>2384.53</ele>
        <time>2021-03-13T13:03:44Z</time>
      </trkpt>
      <trkpt lat="45.57003" lon="6.80785">
        <ele>2384.442</ele>
        <time>2021-03-13T13:03:49Z</time>
      </trkpt>
      <trkpt lat="45.57004" lon="6.80784">
        <ele>2384.573</ele>
        <time>2021-03-13T13:03:54Z</time>
      </trkpt>
      <trkpt lat="45.57005" lon="6.80785">
        <ele>2385.204</ele>
        <time>2021-03-13T13:03:59Z</time>
      </trkpt>
      <trkpt lat="45.57005" lon="6.80785">
        <ele>2385.394</ele>
        <time>2021-03-13T13:04:04Z</time>
      </trkpt>
      <trkpt lat="45.57004" lon="6.80785">
        <ele>2386.044</ele>
        <time>2021-03-13T13:04:09Z</time>
      </trkpt>
      <trkpt lat="45.57004" lon="6.80785">
        <ele>2386.086</ele>
        <time>2021-03-13T13:04:14Z</time>
      </trkpt>
      <trkpt lat="45.57005" lon="6.80785">
        <ele>2386.193</ele>
        <time>2021-03-13T13:04:19Z</time>
      </trkpt>
      <trkpt lat="45.57005" lon="6.80785">
        <ele>2386.199</ele>
        <time>2021-03-13T13:04:24Z</time>
      </trkpt>
      <trkpt lat="45.57005" lon="6.80785">
        <ele>2386.209</ele>
        <time>2021-03-13T13:04:29Z</time>
      </trkpt>
      <trkpt lat="45.57005" lon="6.80785">
        <ele>2386.21</ele>
        <time>2021-03-13T13:04:34Z</time>
      </trkpt>
      <trkpt lat="45.57005" lon="6.80785">
        <ele>2386.205</ele>
        <time>2021-03-13T13:04:39Z</time>
      </trkpt>
      <trkpt lat="45.57005" lon="6.80785">
        <ele>2386.205</ele>
        <time>2021-03-13T13:04:44Z</time>
      </trkpt>
      <trkpt lat="45.57005" lon="6.80785">
        <ele>2386.202</ele>
        <time>2021-03-13T13:04:49Z</time>
      </trkpt>
      <trkpt lat="45.57005" lon="6.80785">
        <ele>2386.071</ele>
        <time>2021-03-13T13:04:54Z</time>
      </trkpt>
      <trkpt lat="45.57006" lon="6.80785">
        <ele>2386.053</ele>
        <time>2021-03-13T13:04:59Z</time>
      </trkpt>
      <trkpt lat="45.57006" lon="6.80785">
        <ele>2386.228</ele>
        <time>2021-03-13T13:05:04Z</time>
      </trkpt>
      <trkpt lat="45.57006" lon="6.80785">
        <ele>2386.237</ele>
        <time>2021-03-13T13:05:09Z</time>
      </trkpt>
      <trkpt lat="45.57006" lon="6.80785">
        <ele>2386.242</ele>
        <time>2021-03-13T13:05:14Z</time>
      </trkpt>
      <trkpt lat="45.57006" lon="6.80785">
        <ele>2386.239</ele>
        <time>2021-03-13T13:05:19Z</time>
      </trkpt>
      <trkpt lat="45.57006" lon="6.80785">
        <ele>2386.244</ele>
        <time>2021-03-13T13:05:24Z</time>
      </trkpt>
      <trkpt lat="45.57006" lon="6.80784">
        <ele>2386.436</ele>
        <time>2021-03-13T13:05:29Z</time>
      </trkpt>
      <trkpt lat="45.57006" lon="6.80784">
        <ele>2386.314</ele>
        <time>2021-03-13T13:05:34Z</time>
      </trkpt>
      <trkpt lat="45.57007" lon="6.80785">
        <ele>2386.109</ele>
        <time>2021-03-13T13:05:39Z</time>
      </trkpt>
      <trkpt lat="45.57007" lon="6.80785">
        <ele>2386.099</ele>
        <time>2021-03-13T13:05:44Z</time>
      </trkpt>
      <trkpt lat="45.57007" lon="6.80785">
        <ele>2386.099</ele>
        <time>2021-03-13T13:05:49Z</time>
      </trkpt>
      <trkpt lat="45.57006" lon="6.80785">
        <ele>2385.182</ele>
        <time>2021-03-13T13:05:54Z</time>
      </trkpt>
      <trkpt lat="45.57006" lon="6.80785">
        <ele>2385.633</ele>
        <time>2021-03-13T13:05:59Z</time>
      </trkpt>
      <trkpt lat="45.57006" lon="6.80785">
        <ele>2385.826</ele>
        <time>2021-03-13T13:06:04Z</time>
      </trkpt>
      <trkpt lat="45.57006" lon="6.80785">
        <ele>2385.829</ele>
        <time>2021-03-13T13:06:09Z</time>
      </trkpt>
      <trkpt lat="45.57006" lon="6.80785">
        <ele>2385.828</ele>
        <time>2021-03-13T13:06:14Z</time>
      </trkpt>
      <trkpt lat="45.57006" lon="6.80785">
        <ele>2385.828</ele>
        <time>2021-03-13T13:06:19Z</time>
      </trkpt>
      <trkpt lat="45.57006" lon="6.80785">
        <ele>2385.825</ele>
        <time>2021-03-13T13:06:24Z</time>
      </trkpt>
      <trkpt lat="45.57006" lon="6.80785">
        <ele>2385.825</ele>
        <time>2021-03-13T13:06:29Z</time>
      </trkpt>
      <trkpt lat="45.57006" lon="6.80785">
        <ele>2385.825</ele>
        <time>2021-03-13T13:06:34Z</time>
      </trkpt>
      <trkpt lat="45.57006" lon="6.80785">
        <ele>2385.824</ele>
        <time>2021-03-13T13:06:39Z</time>
      </trkpt>
      <trkpt lat="45.57006" lon="6.80785">
        <ele>2385.827</ele>
        <time>2021-03-13T13:06:44Z</time>
      </trkpt>
      <trkpt lat="45.57006" lon="6.80785">
        <ele>2385.836</ele>
        <time>2021-03-13T13:06:49Z</time>
      </trkpt>
      <trkpt lat="45.57006" lon="6.80786">
        <ele>2385.69</ele>
        <time>2021-03-13T13:06:54Z</time>
      </trkpt>
      <trkpt lat="45.57006" lon="6.80787">
        <ele>2385.348</ele>
        <time>2021-03-13T13:06:59Z</time>
      </trkpt>
      <trkpt lat="45.57006" lon="6.80786">
        <ele>2385.302</ele>
        <time>2021-03-13T13:07:04Z</time>
      </trkpt>
      <trkpt lat="45.57006" lon="6.80786">
        <ele>2385.858</ele>
        <time>2021-03-13T13:07:09Z</time>
      </trkpt>
      <trkpt lat="45.57005" lon="6.80786">
        <ele>2386.021</ele>
        <time>2021-03-13T13:07:14Z</time>
      </trkpt>
      <trkpt lat="45.57005" lon="6.80786">
        <ele>2386.073</ele>
        <time>2021-03-13T13:07:19Z</time>
      </trkpt>
      <trkpt lat="45.57005" lon="6.80786">
        <ele>2386.072</ele>
        <time>2021-03-13T13:07:24Z</time>
      </trkpt>
      <trkpt lat="45.57005" lon="6.80787">
        <ele>2386.034</ele>
        <time>2021-03-13T13:07:29Z</time>
      </trkpt>
      <trkpt lat="45.57006" lon="6.80787">
        <ele>2385.892</ele>
        <time>2021-03-13T13:07:34Z</time>
      </trkpt>
      <trkpt lat="45.57005" lon="6.80787">
        <ele>2386.133</ele>
        <time>2021-03-13T13:07:39Z</time>
      </trkpt>
      <trkpt lat="45.57005" lon="6.80787">
        <ele>2386.154</ele>
        <time>2021-03-13T13:07:44Z</time>
      </trkpt>
      <trkpt lat="45.57005" lon="6.80787">
        <ele>2386.195</ele>
        <time>2021-03-13T13:07:49Z</time>
      </trkpt>
      <trkpt lat="45.57006" lon="6.80786">
        <ele>2387.311</ele>
        <time>2021-03-13T13:07:54Z</time>
      </trkpt>
      <trkpt lat="45.57006" lon="6.80786">
        <ele>2387.552</ele>
        <time>2021-03-13T13:07:59Z</time>
      </trkpt>
      <trkpt lat="45.57006" lon="6.80786">
        <ele>2387.396</ele>
        <time>2021-03-13T13:08:04Z</time>
      </trkpt>
      <trkpt lat="45.57006" lon="6.80786">
        <ele>2387.409</ele>
        <time>2021-03-13T13:08:09Z</time>
      </trkpt>
      <trkpt lat="45.57006" lon="6.80786">
        <ele>2387.409</ele>
        <time>2021-03-13T13:08:14Z</time>
      </trkpt>
      <trkpt lat="45.57006" lon="6.80786">
        <ele>2387.406</ele>
        <time>2021-03-13T13:08:19Z</time>
      </trkpt>
      <trkpt lat="45.57006" lon="6.80786">
        <ele>2387.404</ele>
        <time>2021-03-13T13:08:24Z</time>
      </trkpt>
      <trkpt lat="45.57006" lon="6.80786">
        <ele>2387.403</ele>
        <time>2021-03-13T13:08:29Z</time>
      </trkpt>
      <trkpt lat="45.57006" lon="6.80786">
        <ele>2387.4</ele>
        <time>2021-03-13T13:08:34Z</time>
      </trkpt>
      <trkpt lat="45.57005" lon="6.80786">
        <ele>2387.031</ele>
        <time>2021-03-13T13:08:39Z</time>
      </trkpt>
      <trkpt lat="45.57004" lon="6.80786">
        <ele>2386.069</ele>
        <time>2021-03-13T13:08:44Z</time>
      </trkpt>
      <trkpt lat="45.57004" lon="6.80786">
        <ele>2385.112</ele>
        <time>2021-03-13T13:08:49Z</time>
      </trkpt>
      <trkpt lat="45.57004" lon="6.80786">
        <ele>2385.117</ele>
        <time>2021-03-13T13:08:54Z</time>
      </trkpt>
      <trkpt lat="45.57005" lon="6.80786">
        <ele>2385.112</ele>
        <time>2021-03-13T13:08:59Z</time>
      </trkpt>
      <trkpt lat="45.57005" lon="6.80786">
        <ele>2385.112</ele>
        <time>2021-03-13T13:09:04Z</time>
      </trkpt>
      <trkpt lat="45.57005" lon="6.80786">
        <ele>2385.115</ele>
        <time>2021-03-13T13:09:09Z</time>
      </trkpt>
      <trkpt lat="45.57003" lon="6.80786">
        <ele>2385.463</ele>
        <time>2021-03-13T13:09:14Z</time>
      </trkpt>
      <trkpt lat="45.56999" lon="6.8079">
        <ele>2385.403</ele>
        <time>2021-03-13T13:09:19Z</time>
      </trkpt>
      <trkpt lat="45.56997" lon="6.80791">
        <ele>2385.138</ele>
        <time>2021-03-13T13:09:24Z</time>
      </trkpt>
      <trkpt lat="45.57002" lon="6.80786">
        <ele>2384.29</ele>
        <time>2021-03-13T13:09:29Z</time>
      </trkpt>
      <trkpt lat="45.57005" lon="6.80786">
        <ele>2384.272</ele>
        <time>2021-03-13T13:09:34Z</time>
      </trkpt>
      <trkpt lat="45.57005" lon="6.80786">
        <ele>2383.82</ele>
        <time>2021-03-13T13:09:39Z</time>
      </trkpt>
      <trkpt lat="45.57004" lon="6.80785">
        <ele>2384.649</ele>
        <time>2021-03-13T13:09:44Z</time>
      </trkpt>
      <trkpt lat="45.57004" lon="6.80785">
        <ele>2385.14</ele>
        <time>2021-03-13T13:09:49Z</time>
      </trkpt>
      <trkpt lat="45.57005" lon="6.80785">
        <ele>2385.49</ele>
        <time>2021-03-13T13:09:54Z</time>
      </trkpt>
      <trkpt lat="45.57005" lon="6.80785">
        <ele>2385.675</ele>
        <time>2021-03-13T13:09:59Z</time>
      </trkpt>
      <trkpt lat="45.57005" lon="6.80785">
        <ele>2385.673</ele>
        <time>2021-03-13T13:10:04Z</time>
      </trkpt>
      <trkpt lat="45.57005" lon="6.80785">
        <ele>2385.671</ele>
        <time>2021-03-13T13:10:09Z</time>
      </trkpt>
      <trkpt lat="45.57005" lon="6.80785">
        <ele>2385.672</ele>
        <time>2021-03-13T13:10:14Z</time>
      </trkpt>
      <trkpt lat="45.57005" lon="6.80785">
        <ele>2385.671</ele>
        <time>2021-03-13T13:10:19Z</time>
      </trkpt>
      <trkpt lat="45.57004" lon="6.80785">
        <ele>2385.326</ele>
        <time>2021-03-13T13:10:24Z</time>
      </trkpt>
      <trkpt lat="45.57004" lon="6.80785">
        <ele>2385.245</ele>
        <time>2021-03-13T13:10:29Z</time>
      </trkpt>
      <trkpt lat="45.57004" lon="6.80784">
        <ele>2385.762</ele>
        <time>2021-03-13T13:10:34Z</time>
      </trkpt>
      <trkpt lat="45.57001" lon="6.80788">
        <ele>2387.383</ele>
        <time>2021-03-13T13:10:39Z</time>
      </trkpt>
      <trkpt lat="45.57001" lon="6.80788">
        <ele>2386.913</ele>
        <time>2021-03-13T13:10:44Z</time>
      </trkpt>
      <trkpt lat="45.57001" lon="6.80789">
        <ele>2387.143</ele>
        <time>2021-03-13T13:10:49Z</time>
      </trkpt>
      <trkpt lat="45.57001" lon="6.8079">
        <ele>2387.63</ele>
        <time>2021-03-13T13:10:54Z</time>
      </trkpt>
      <trkpt lat="45.57002" lon="6.80794">
        <ele>2387.486</ele>
        <time>2021-03-13T13:10:59Z</time>
      </trkpt>
      <trkpt lat="45.57005" lon="6.80799">
        <ele>2386.912</ele>
        <time>2021-03-13T13:11:04Z</time>
      </trkpt>
      <trkpt lat="45.5701" lon="6.80803">
        <ele>2385.808</ele>
        <time>2021-03-13T13:11:09Z</time>
      </trkpt>
      <trkpt lat="45.57009" lon="6.80801">
        <ele>2384.615</ele>
        <time>2021-03-13T13:11:14Z</time>
      </trkpt>
      <trkpt lat="45.57009" lon="6.80801">
        <ele>2384.412</ele>
        <time>2021-03-13T13:11:19Z</time>
      </trkpt>
      <trkpt lat="45.57009" lon="6.80801">
        <ele>2383.474</ele>
        <time>2021-03-13T13:11:24Z</time>
      </trkpt>
      <trkpt lat="45.5701" lon="6.80801">
        <ele>2383.161</ele>
        <time>2021-03-13T13:11:29Z</time>
      </trkpt>
      <trkpt lat="45.5701" lon="6.808">
        <ele>2383.17</ele>
        <time>2021-03-13T13:11:34Z</time>
      </trkpt>
      <trkpt lat="45.57009" lon="6.80801">
        <ele>2383.491</ele>
        <time>2021-03-13T13:11:39Z</time>
      </trkpt>
      <trkpt lat="45.57008" lon="6.808">
        <ele>2382.324</ele>
        <time>2021-03-13T13:11:44Z</time>
      </trkpt>
      <trkpt lat="45.57008" lon="6.80801">
        <ele>2383.822</ele>
        <time>2021-03-13T13:11:49Z</time>
      </trkpt>
      <trkpt lat="45.57008" lon="6.80802">
        <ele>2384.056</ele>
        <time>2021-03-13T13:11:54Z</time>
      </trkpt>
      <trkpt lat="45.57008" lon="6.80802">
        <ele>2384.043</ele>
        <time>2021-03-13T13:11:59Z</time>
      </trkpt>
      <trkpt lat="45.57008" lon="6.80802">
        <ele>2384.043</ele>
        <time>2021-03-13T13:12:04Z</time>
      </trkpt>
      <trkpt lat="45.57008" lon="6.80802">
        <ele>2384.042</ele>
        <time>2021-03-13T13:12:09Z</time>
      </trkpt>
      <trkpt lat="45.57008" lon="6.80802">
        <ele>2384.034</ele>
        <time>2021-03-13T13:12:14Z</time>
      </trkpt>
      <trkpt lat="45.57008" lon="6.80802">
        <ele>2384.039</ele>
        <time>2021-03-13T13:12:19Z</time>
      </trkpt>
      <trkpt lat="45.57008" lon="6.80802">
        <ele>2384.042</ele>
        <time>2021-03-13T13:12:24Z</time>
      </trkpt>
      <trkpt lat="45.57008" lon="6.80802">
        <ele>2384.046</ele>
        <time>2021-03-13T13:12:29Z</time>
      </trkpt>
      <trkpt lat="45.57008" lon="6.80802">
        <ele>2384.278</ele>
        <time>2021-03-13T13:12:34Z</time>
      </trkpt>
      <trkpt lat="45.57008" lon="6.80801">
        <ele>2382.903</ele>
        <time>2021-03-13T13:12:39Z</time>
      </trkpt>
      <trkpt lat="45.57008" lon="6.808">
        <ele>2382.464</ele>
        <time>2021-03-13T13:12:44Z</time>
      </trkpt>
      <trkpt lat="45.57008" lon="6.808">
        <ele>2382.47</ele>
        <time>2021-03-13T13:12:49Z</time>
      </trkpt>
      <trkpt lat="45.57008" lon="6.808">
        <ele>2382.469</ele>
        <time>2021-03-13T13:12:54Z</time>
      </trkpt>
      <trkpt lat="45.57008" lon="6.808">
        <ele>2382.47</ele>
        <time>2021-03-13T13:12:59Z</time>
      </trkpt>
      <trkpt lat="45.57008" lon="6.808">
        <ele>2382.48</ele>
        <time>2021-03-13T13:13:04Z</time>
      </trkpt>
      <trkpt lat="45.57008" lon="6.808">
        <ele>2382.491</ele>
        <time>2021-03-13T13:13:09Z</time>
      </trkpt>
      <trkpt lat="45.57008" lon="6.808">
        <ele>2382.496</ele>
        <time>2021-03-13T13:13:14Z</time>
      </trkpt>
      <trkpt lat="45.57008" lon="6.808">
        <ele>2382.503</ele>
        <time>2021-03-13T13:13:19Z</time>
      </trkpt>
      <trkpt lat="45.57008" lon="6.808">
        <ele>2382.509</ele>
        <time>2021-03-13T13:13:24Z</time>
      </trkpt>
      <trkpt lat="45.57007" lon="6.808">
        <ele>2382.475</ele>
        <time>2021-03-13T13:13:29Z</time>
      </trkpt>
      <trkpt lat="45.57008" lon="6.80801">
        <ele>2382.503</ele>
        <time>2021-03-13T13:13:34Z</time>
      </trkpt>
      <trkpt lat="45.57008" lon="6.80802">
        <ele>2382.903</ele>
        <time>2021-03-13T13:13:39Z</time>
      </trkpt>
      <trkpt lat="45.57008" lon="6.80802">
        <ele>2384.156</ele>
        <time>2021-03-13T13:13:44Z</time>
      </trkpt>
      <trkpt lat="45.57008" lon="6.80802">
        <ele>2385.678</ele>
        <time>2021-03-13T13:13:49Z</time>
      </trkpt>
      <trkpt lat="45.57008" lon="6.80802">
        <ele>2385.03</ele>
        <time>2021-03-13T13:13:54Z</time>
      </trkpt>
      <trkpt lat="45.57008" lon="6.80802">
        <ele>2385.044</ele>
        <time>2021-03-13T13:13:59Z</time>
      </trkpt>
      <trkpt lat="45.57009" lon="6.80802">
        <ele>2384.979</ele>
        <time>2021-03-13T13:14:04Z</time>
      </trkpt>
      <trkpt lat="45.57008" lon="6.80802">
        <ele>2385.12</ele>
        <time>2021-03-13T13:14:09Z</time>
      </trkpt>
      <trkpt lat="45.57008" lon="6.80802">
        <ele>2385.128</ele>
        <time>2021-03-13T13:14:14Z</time>
      </trkpt>
      <trkpt lat="45.57008" lon="6.80802">
        <ele>2385.128</ele>
        <time>2021-03-13T13:14:19Z</time>
      </trkpt>
      <trkpt lat="45.57009" lon="6.80802">
        <ele>2385.137</ele>
        <time>2021-03-13T13:14:24Z</time>
      </trkpt>
      <trkpt lat="45.57014" lon="6.808">
        <ele>2385.287</ele>
        <time>2021-03-13T13:14:29Z</time>
      </trkpt>
      <trkpt lat="45.57023" lon="6.80803">
        <ele>2384.482</ele>
        <time>2021-03-13T13:14:34Z</time>
      </trkpt>
      <trkpt lat="45.57034" lon="6.80814">
        <ele>2383.482</ele>
        <time>2021-03-13T13:14:39Z</time>
      </trkpt>
      <trkpt lat="45.5705" lon="6.80824">
        <ele>2381.14</ele>
        <time>2021-03-13T13:14:44Z</time>
      </trkpt>
      <trkpt lat="45.57061" lon="6.80847">
        <ele>2377.962</ele>
        <time>2021-03-13T13:14:49Z</time>
      </trkpt>
      <trkpt lat="45.57075" lon="6.80869">
        <ele>2376.006</ele>
        <time>2021-03-13T13:14:54Z</time>
      </trkpt>
      <trkpt lat="45.57094" lon="6.80889">
        <ele>2372.401</ele>
        <time>2021-03-13T13:14:59Z</time>
      </trkpt>
      <trkpt lat="45.5711" lon="6.80907">
        <ele>2370.093</ele>
        <time>2021-03-13T13:15:04Z</time>
      </trkpt>
      <trkpt lat="45.57123" lon="6.80895">
        <ele>2364.872</ele>
        <time>2021-03-13T13:15:09Z</time>
      </trkpt>
      <trkpt lat="45.57117" lon="6.80867">
        <ele>2361.795</ele>
        <time>2021-03-13T13:15:14Z</time>
      </trkpt>
      <trkpt lat="45.5711" lon="6.80838">
        <ele>2357.004</ele>
        <time>2021-03-13T13:15:19Z</time>
      </trkpt>
      <trkpt lat="45.57105" lon="6.8081">
        <ele>2353.296</ele>
        <time>2021-03-13T13:15:24Z</time>
      </trkpt>
      <trkpt lat="45.57095" lon="6.80785">
        <ele>2349.851</ele>
        <time>2021-03-13T13:15:29Z</time>
      </trkpt>
      <trkpt lat="45.57096" lon="6.80782">
        <ele>2350.447</ele>
        <time>2021-03-13T13:15:34Z</time>
      </trkpt>
      <trkpt lat="45.57096" lon="6.80782">
        <ele>2350.532</ele>
        <time>2021-03-13T13:15:39Z</time>
      </trkpt>
      <trkpt lat="45.57098" lon="6.80782">
        <ele>2350.667</ele>
        <time>2021-03-13T13:15:44Z</time>
      </trkpt>
      <trkpt lat="45.57102" lon="6.80782">
        <ele>2349.675</ele>
        <time>2021-03-13T13:15:49Z</time>
      </trkpt>
      <trkpt lat="45.57106" lon="6.80783">
        <ele>2349.177</ele>
        <time>2021-03-13T13:15:54Z</time>
      </trkpt>
      <trkpt lat="45.57106" lon="6.80783">
        <ele>2348.872</ele>
        <time>2021-03-13T13:15:59Z</time>
      </trkpt>
      <trkpt lat="45.57107" lon="6.80783">
        <ele>2349.13</ele>
        <time>2021-03-13T13:16:04Z</time>
      </trkpt>
      <trkpt lat="45.57113" lon="6.8078">
        <ele>2346.101</ele>
        <time>2021-03-13T13:16:09Z</time>
      </trkpt>
      <trkpt lat="45.57124" lon="6.80787">
        <ele>2341.945</ele>
        <time>2021-03-13T13:16:14Z</time>
      </trkpt>
      <trkpt lat="45.57135" lon="6.80802">
        <ele>2336.421</ele>
        <time>2021-03-13T13:16:19Z</time>
      </trkpt>
      <trkpt lat="45.57141" lon="6.80815">
        <ele>2334.719</ele>
        <time>2021-03-13T13:16:24Z</time>
      </trkpt>
      <trkpt lat="45.5715" lon="6.80823">
        <ele>2331.909</ele>
        <time>2021-03-13T13:16:29Z</time>
      </trkpt>
      <trkpt lat="45.57159" lon="6.80843">
        <ele>2329.152</ele>
        <time>2021-03-13T13:16:34Z</time>
      </trkpt>
      <trkpt lat="45.57168" lon="6.80858">
        <ele>2326.15</ele>
        <time>2021-03-13T13:16:39Z</time>
      </trkpt>
      <trkpt lat="45.5719" lon="6.80874">
        <ele>2319.371</ele>
        <time>2021-03-13T13:16:44Z</time>
      </trkpt>
      <trkpt lat="45.57207" lon="6.80895">
        <ele>2316.958</ele>
        <time>2021-03-13T13:16:49Z</time>
      </trkpt>
      <trkpt lat="45.5723" lon="6.80916">
        <ele>2313.11</ele>
        <time>2021-03-13T13:16:54Z</time>
      </trkpt>
      <trkpt lat="45.57247" lon="6.80931">
        <ele>2312.461</ele>
        <time>2021-03-13T13:16:59Z</time>
      </trkpt>
      <trkpt lat="45.57266" lon="6.80918">
        <ele>2304.292</ele>
        <time>2021-03-13T13:17:04Z</time>
      </trkpt>
      <trkpt lat="45.57283" lon="6.80898">
        <ele>2295.479</ele>
        <time>2021-03-13T13:17:09Z</time>
      </trkpt>
      <trkpt lat="45.573" lon="6.80876">
        <ele>2290.529</ele>
        <time>2021-03-13T13:17:14Z</time>
      </trkpt>
      <trkpt lat="45.57303" lon="6.8086">
        <ele>2287.799</ele>
        <time>2021-03-13T13:17:19Z</time>
      </trkpt>
      <trkpt lat="45.57303" lon="6.8086">
        <ele>2287.178</ele>
        <time>2021-03-13T13:17:24Z</time>
      </trkpt>
      <trkpt lat="45.57302" lon="6.80859">
        <ele>2286.957</ele>
        <time>2021-03-13T13:17:29Z</time>
      </trkpt>
      <trkpt lat="45.57302" lon="6.80859">
        <ele>2286.976</ele>
        <time>2021-03-13T13:17:34Z</time>
      </trkpt>
      <trkpt lat="45.57302" lon="6.80859">
        <ele>2286.981</ele>
        <time>2021-03-13T13:17:39Z</time>
      </trkpt>
      <trkpt lat="45.57304" lon="6.80854">
        <ele>2285.045</ele>
        <time>2021-03-13T13:17:44Z</time>
      </trkpt>
      <trkpt lat="45.57317" lon="6.80861">
        <ele>2282.517</ele>
        <time>2021-03-13T13:17:49Z</time>
      </trkpt>
      <trkpt lat="45.57325" lon="6.80867">
        <ele>2283.615</ele>
        <time>2021-03-13T13:17:54Z</time>
      </trkpt>
      <trkpt lat="45.57328" lon="6.80869">
        <ele>2282.878</ele>
        <time>2021-03-13T13:17:59Z</time>
      </trkpt>
      <trkpt lat="45.57338" lon="6.80854">
        <ele>2277.455</ele>
        <time>2021-03-13T13:18:04Z</time>
      </trkpt>
      <trkpt lat="45.57357" lon="6.80859">
        <ele>2275.141</ele>
        <time>2021-03-13T13:18:09Z</time>
      </trkpt>
      <trkpt lat="45.57371" lon="6.80845">
        <ele>2267.843</ele>
        <time>2021-03-13T13:18:14Z</time>
      </trkpt>
      <trkpt lat="45.57387" lon="6.80853">
        <ele>2267.961</ele>
        <time>2021-03-13T13:18:19Z</time>
      </trkpt>
      <trkpt lat="45.57392" lon="6.80858">
        <ele>2268.074</ele>
        <time>2021-03-13T13:18:24Z</time>
      </trkpt>
      <trkpt lat="45.57392" lon="6.80858">
        <ele>2269.218</ele>
        <time>2021-03-13T13:18:29Z</time>
      </trkpt>
      <trkpt lat="45.57392" lon="6.80858">
        <ele>2269.47</ele>
        <time>2021-03-13T13:18:34Z</time>
      </trkpt>
      <trkpt lat="45.57392" lon="6.80858">
        <ele>2269.527</ele>
        <time>2021-03-13T13:18:39Z</time>
      </trkpt>
      <trkpt lat="45.57392" lon="6.80858">
        <ele>2269.527</ele>
        <time>2021-03-13T13:18:44Z</time>
      </trkpt>
      <trkpt lat="45.57392" lon="6.80858">
        <ele>2269.531</ele>
        <time>2021-03-13T13:18:49Z</time>
      </trkpt>
      <trkpt lat="45.57394" lon="6.80858">
        <ele>2269.204</ele>
        <time>2021-03-13T13:18:54Z</time>
      </trkpt>
      <trkpt lat="45.57405" lon="6.80842">
        <ele>2261.924</ele>
        <time>2021-03-13T13:18:59Z</time>
      </trkpt>
      <trkpt lat="45.57424" lon="6.80833">
        <ele>2255.596</ele>
        <time>2021-03-13T13:19:04Z</time>
      </trkpt>
      <trkpt lat="45.57443" lon="6.80839">
        <ele>2251.099</ele>
        <time>2021-03-13T13:19:09Z</time>
      </trkpt>
      <trkpt lat="45.57454" lon="6.80809">
        <ele>2245.392</ele>
        <time>2021-03-13T13:19:14Z</time>
      </trkpt>
      <trkpt lat="45.57457" lon="6.80802">
        <ele>2245.467</ele>
        <time>2021-03-13T13:19:19Z</time>
      </trkpt>
      <trkpt lat="45.57457" lon="6.80802">
        <ele>2246.061</ele>
        <time>2021-03-13T13:19:24Z</time>
      </trkpt>
      <trkpt lat="45.57458" lon="6.80801">
        <ele>2246.775</ele>
        <time>2021-03-13T13:19:29Z</time>
      </trkpt>
      <trkpt lat="45.57458" lon="6.80801">
        <ele>2246.777</ele>
        <time>2021-03-13T13:19:34Z</time>
      </trkpt>
      <trkpt lat="45.57458" lon="6.80801">
        <ele>2246.775</ele>
        <time>2021-03-13T13:19:39Z</time>
      </trkpt>
      <trkpt lat="45.57458" lon="6.80801">
        <ele>2246.779</ele>
        <time>2021-03-13T13:19:44Z</time>
      </trkpt>
      <trkpt lat="45.57458" lon="6.80801">
        <ele>2246.774</ele>
        <time>2021-03-13T13:19:49Z</time>
      </trkpt>
      <trkpt lat="45.57458" lon="6.80801">
        <ele>2246.78</ele>
        <time>2021-03-13T13:19:54Z</time>
      </trkpt>
      <trkpt lat="45.57465" lon="6.80805">
        <ele>2245.639</ele>
        <time>2021-03-13T13:19:59Z</time>
      </trkpt>
      <trkpt lat="45.5749" lon="6.80804">
        <ele>2240.523</ele>
        <time>2021-03-13T13:20:04Z</time>
      </trkpt>
      <trkpt lat="45.57513" lon="6.80784">
        <ele>2233.366</ele>
        <time>2021-03-13T13:20:09Z</time>
      </trkpt>
      <trkpt lat="45.57533" lon="6.80782">
        <ele>2232.162</ele>
        <time>2021-03-13T13:20:14Z</time>
      </trkpt>
      <trkpt lat="45.57532" lon="6.80782">
        <ele>2232.389</ele>
        <time>2021-03-13T13:20:19Z</time>
      </trkpt>
      <trkpt lat="45.57532" lon="6.80781">
        <ele>2231.562</ele>
        <time>2021-03-13T13:20:24Z</time>
      </trkpt>
      <trkpt lat="45.57531" lon="6.80781">
        <ele>2231.764</ele>
        <time>2021-03-13T13:20:29Z</time>
      </trkpt>
      <trkpt lat="45.57528" lon="6.80777">
        <ele>2230.579</ele>
        <time>2021-03-13T13:20:34Z</time>
      </trkpt>
      <trkpt lat="45.5752" lon="6.80763">
        <ele>2229.92</ele>
        <time>2021-03-13T13:20:39Z</time>
      </trkpt>
      <trkpt lat="45.57519" lon="6.80746">
        <ele>2227.113</ele>
        <time>2021-03-13T13:20:44Z</time>
      </trkpt>
      <trkpt lat="45.57523" lon="6.80729">
        <ele>2224.593</ele>
        <time>2021-03-13T13:20:49Z</time>
      </trkpt>
      <trkpt lat="45.57524" lon="6.80709">
        <ele>2220.501</ele>
        <time>2021-03-13T13:20:54Z</time>
      </trkpt>
      <trkpt lat="45.57534" lon="6.80689">
        <ele>2215.173</ele>
        <time>2021-03-13T13:20:59Z</time>
      </trkpt>
      <trkpt lat="45.57535" lon="6.8066">
        <ele>2208.405</ele>
        <time>2021-03-13T13:21:04Z</time>
      </trkpt>
      <trkpt lat="45.57539" lon="6.80618">
        <ele>2199.873</ele>
        <time>2021-03-13T13:21:09Z</time>
      </trkpt>
      <trkpt lat="45.57552" lon="6.80574">
        <ele>2193.604</ele>
        <time>2021-03-13T13:21:14Z</time>
      </trkpt>
      <trkpt lat="45.57561" lon="6.80535">
        <ele>2190.995</ele>
        <time>2021-03-13T13:21:19Z</time>
      </trkpt>
      <trkpt lat="45.57555" lon="6.80502">
        <ele>2188.485</ele>
        <time>2021-03-13T13:21:24Z</time>
      </trkpt>
      <trkpt lat="45.57557" lon="6.80487">
        <ele>2186.443</ele>
        <time>2021-03-13T13:21:29Z</time>
      </trkpt>
      <trkpt lat="45.57557" lon="6.80487">
        <ele>2186.271</ele>
        <time>2021-03-13T13:21:34Z</time>
      </trkpt>
      <trkpt lat="45.57557" lon="6.80487">
        <ele>2185.494</ele>
        <time>2021-03-13T13:21:39Z</time>
      </trkpt>
      <trkpt lat="45.57557" lon="6.80487">
        <ele>2185.438</ele>
        <time>2021-03-13T13:21:44Z</time>
      </trkpt>
      <trkpt lat="45.57556" lon="6.80486">
        <ele>2184.998</ele>
        <time>2021-03-13T13:21:49Z</time>
      </trkpt>
      <trkpt lat="45.57551" lon="6.80476">
        <ele>2183.741</ele>
        <time>2021-03-13T13:21:54Z</time>
      </trkpt>
      <trkpt lat="45.57541" lon="6.80463">
        <ele>2179.812</ele>
        <time>2021-03-13T13:21:59Z</time>
      </trkpt>
      <trkpt lat="45.57532" lon="6.80438">
        <ele>2173.122</ele>
        <time>2021-03-13T13:22:04Z</time>
      </trkpt>
      <trkpt lat="45.57541" lon="6.80416">
        <ele>2170.725</ele>
        <time>2021-03-13T13:22:09Z</time>
      </trkpt>
      <trkpt lat="45.57535" lon="6.80397">
        <ele>2165.858</ele>
        <time>2021-03-13T13:22:14Z</time>
      </trkpt>
      <trkpt lat="45.57529" lon="6.8037">
        <ele>2160.296</ele>
        <time>2021-03-13T13:22:19Z</time>
      </trkpt>
      <trkpt lat="45.57542" lon="6.8034">
        <ele>2150.301</ele>
        <time>2021-03-13T13:22:24Z</time>
      </trkpt>
      <trkpt lat="45.57546" lon="6.80311">
        <ele>2146.101</ele>
        <time>2021-03-13T13:22:29Z</time>
      </trkpt>
      <trkpt lat="45.57556" lon="6.80283">
        <ele>2143.093</ele>
        <time>2021-03-13T13:22:34Z</time>
      </trkpt>
      <trkpt lat="45.57557" lon="6.80279">
        <ele>2143.082</ele>
        <time>2021-03-13T13:22:39Z</time>
      </trkpt>
      <trkpt lat="45.57557" lon="6.80284">
        <ele>2142.733</ele>
        <time>2021-03-13T13:22:44Z</time>
      </trkpt>
      <trkpt lat="45.57554" lon="6.80285">
        <ele>2142.787</ele>
        <time>2021-03-13T13:22:49Z</time>
      </trkpt>
      <trkpt lat="45.57551" lon="6.80283">
        <ele>2142.875</ele>
        <time>2021-03-13T13:22:54Z</time>
      </trkpt>
      <trkpt lat="45.57549" lon="6.80272">
        <ele>2141.739</ele>
        <time>2021-03-13T13:22:59Z</time>
      </trkpt>
      <trkpt lat="45.57552" lon="6.80255">
        <ele>2140.442</ele>
        <time>2021-03-13T13:23:04Z</time>
      </trkpt>
      <trkpt lat="45.57564" lon="6.80229">
        <ele>2136.457</ele>
        <time>2021-03-13T13:23:09Z</time>
      </trkpt>
      <trkpt lat="45.57564" lon="6.80208">
        <ele>2135.121</ele>
        <time>2021-03-13T13:23:14Z</time>
      </trkpt>
      <trkpt lat="45.57557" lon="6.80193">
        <ele>2132.46</ele>
        <time>2021-03-13T13:23:19Z</time>
      </trkpt>
      <trkpt lat="45.57552" lon="6.80169">
        <ele>2129.439</ele>
        <time>2021-03-13T13:23:24Z</time>
      </trkpt>
      <trkpt lat="45.57555" lon="6.8014">
        <ele>2125.027</ele>
        <time>2021-03-13T13:23:29Z</time>
      </trkpt>
      <trkpt lat="45.57564" lon="6.80109">
        <ele>2120.106</ele>
        <time>2021-03-13T13:23:34Z</time>
      </trkpt>
      <trkpt lat="45.57579" lon="6.80086">
        <ele>2115.932</ele>
        <time>2021-03-13T13:23:39Z</time>
      </trkpt>
      <trkpt lat="45.57579" lon="6.80083">
        <ele>2116.044</ele>
        <time>2021-03-13T13:23:44Z</time>
      </trkpt>
      <trkpt lat="45.57579" lon="6.80083">
        <ele>2115.536</ele>
        <time>2021-03-13T13:23:49Z</time>
      </trkpt>
      <trkpt lat="45.57579" lon="6.80083">
        <ele>2115.576</ele>
        <time>2021-03-13T13:23:54Z</time>
      </trkpt>
      <trkpt lat="45.57579" lon="6.8008">
        <ele>2115.303</ele>
        <time>2021-03-13T13:23:59Z</time>
      </trkpt>
      <trkpt lat="45.57573" lon="6.80052">
        <ele>2110.337</ele>
        <time>2021-03-13T13:24:04Z</time>
      </trkpt>
      <trkpt lat="45.57574" lon="6.80022">
        <ele>2104.538</ele>
        <time>2021-03-13T13:24:09Z</time>
      </trkpt>
      <trkpt lat="45.57573" lon="6.79993">
        <ele>2099.211</ele>
        <time>2021-03-13T13:24:14Z</time>
      </trkpt>
      <trkpt lat="45.57576" lon="6.79964">
        <ele>2092.943</ele>
        <time>2021-03-13T13:24:19Z</time>
      </trkpt>
      <trkpt lat="45.57571" lon="6.79939">
        <ele>2089.371</ele>
        <time>2021-03-13T13:24:24Z</time>
      </trkpt>
      <trkpt lat="45.57578" lon="6.7992">
        <ele>2084.352</ele>
        <time>2021-03-13T13:24:29Z</time>
      </trkpt>
      <trkpt lat="45.57599" lon="6.79905">
        <ele>2080.39</ele>
        <time>2021-03-13T13:24:34Z</time>
      </trkpt>
      <trkpt lat="45.5761" lon="6.79891">
        <ele>2080.164</ele>
        <time>2021-03-13T13:24:39Z</time>
      </trkpt>
      <trkpt lat="45.57615" lon="6.79878">
        <ele>2079.433</ele>
        <time>2021-03-13T13:24:44Z</time>
      </trkpt>
      <trkpt lat="45.5762" lon="6.79871">
        <ele>2079.149</ele>
        <time>2021-03-13T13:24:49Z</time>
      </trkpt>
      <trkpt lat="45.5762" lon="6.79872">
        <ele>2079.435</ele>
        <time>2021-03-13T13:24:54Z</time>
      </trkpt>
      <trkpt lat="45.57621" lon="6.79872">
        <ele>2079.689</ele>
        <time>2021-03-13T13:24:59Z</time>
      </trkpt>
      <trkpt lat="45.57621" lon="6.79872">
        <ele>2079.761</ele>
        <time>2021-03-13T13:25:04Z</time>
      </trkpt>
      <trkpt lat="45.57621" lon="6.79872">
        <ele>2079.289</ele>
        <time>2021-03-13T13:25:09Z</time>
      </trkpt>
      <trkpt lat="45.57614" lon="6.79855">
        <ele>2075.75</ele>
        <time>2021-03-13T13:25:14Z</time>
      </trkpt>
      <trkpt lat="45.57606" lon="6.79831">
        <ele>2069.599</ele>
        <time>2021-03-13T13:25:19Z</time>
      </trkpt>
      <trkpt lat="45.57583" lon="6.79813">
        <ele>2065</ele>
        <time>2021-03-13T13:25:24Z</time>
      </trkpt>
      <trkpt lat="45.5757" lon="6.7979">
        <ele>2064.972</ele>
        <time>2021-03-13T13:25:29Z</time>
      </trkpt>
      <trkpt lat="45.5757" lon="6.79788">
        <ele>2065.555</ele>
        <time>2021-03-13T13:25:34Z</time>
      </trkpt>
      <trkpt lat="45.5757" lon="6.79788">
        <ele>2065.5</ele>
        <time>2021-03-13T13:25:39Z</time>
      </trkpt>
      <trkpt lat="45.5757" lon="6.79788">
        <ele>2065.326</ele>
        <time>2021-03-13T13:25:44Z</time>
      </trkpt>
      <trkpt lat="45.57569" lon="6.79787">
        <ele>2065.202</ele>
        <time>2021-03-13T13:25:49Z</time>
      </trkpt>
      <trkpt lat="45.57566" lon="6.79781">
        <ele>2063.234</ele>
        <time>2021-03-13T13:25:54Z</time>
      </trkpt>
      <trkpt lat="45.57551" lon="6.79771">
        <ele>2058.171</ele>
        <time>2021-03-13T13:25:59Z</time>
      </trkpt>
      <trkpt lat="45.57548" lon="6.79749">
        <ele>2051.759</ele>
        <time>2021-03-13T13:26:04Z</time>
      </trkpt>
      <trkpt lat="45.57546" lon="6.7972">
        <ele>2044.136</ele>
        <time>2021-03-13T13:26:09Z</time>
      </trkpt>
      <trkpt lat="45.57549" lon="6.79693">
        <ele>2037.571</ele>
        <time>2021-03-13T13:26:14Z</time>
      </trkpt>
      <trkpt lat="45.57537" lon="6.79657">
        <ele>2033.81</ele>
        <time>2021-03-13T13:26:19Z</time>
      </trkpt>
      <trkpt lat="45.57527" lon="6.79629">
        <ele>2032.149</ele>
        <time>2021-03-13T13:26:24Z</time>
      </trkpt>
      <trkpt lat="45.57515" lon="6.79609">
        <ele>2030.883</ele>
        <time>2021-03-13T13:26:29Z</time>
      </trkpt>
      <trkpt lat="45.57501" lon="6.79594">
        <ele>2029.583</ele>
        <time>2021-03-13T13:26:34Z</time>
      </trkpt>
      <trkpt lat="45.57493" lon="6.79593">
        <ele>2028.911</ele>
        <time>2021-03-13T13:26:39Z</time>
      </trkpt>
      <trkpt lat="45.57494" lon="6.79595">
        <ele>2028.58</ele>
        <time>2021-03-13T13:26:44Z</time>
      </trkpt>
      <trkpt lat="45.57494" lon="6.7959">
        <ele>2028.095</ele>
        <time>2021-03-13T13:26:49Z</time>
      </trkpt>
      <trkpt lat="45.5748" lon="6.79572">
        <ele>2025.93</ele>
        <time>2021-03-13T13:26:54Z</time>
      </trkpt>
      <trkpt lat="45.57453" lon="6.79556">
        <ele>2022.708</ele>
        <time>2021-03-13T13:26:59Z</time>
      </trkpt>
      <trkpt lat="45.57426" lon="6.79547">
        <ele>2019.358</ele>
        <time>2021-03-13T13:27:04Z</time>
      </trkpt>
      <trkpt lat="45.57391" lon="6.79545">
        <ele>2015.384</ele>
        <time>2021-03-13T13:27:09Z</time>
      </trkpt>
      <trkpt lat="45.57359" lon="6.79536">
        <ele>2013.655</ele>
        <time>2021-03-13T13:27:14Z</time>
      </trkpt>
      <trkpt lat="45.57337" lon="6.79515">
        <ele>2012.97</ele>
        <time>2021-03-13T13:27:19Z</time>
      </trkpt>
      <trkpt lat="45.57315" lon="6.79493">
        <ele>2009.865</ele>
        <time>2021-03-13T13:27:24Z</time>
      </trkpt>
      <trkpt lat="45.57287" lon="6.79478">
        <ele>2007.337</ele>
        <time>2021-03-13T13:27:29Z</time>
      </trkpt>
      <trkpt lat="45.5726" lon="6.79469">
        <ele>2004.331</ele>
        <time>2021-03-13T13:27:34Z</time>
      </trkpt>
      <trkpt lat="45.57233" lon="6.79458">
        <ele>2001.109</ele>
        <time>2021-03-13T13:27:39Z</time>
      </trkpt>
      <trkpt lat="45.57207" lon="6.79445">
        <ele>1998.27</ele>
        <time>2021-03-13T13:27:44Z</time>
      </trkpt>
      <trkpt lat="45.57187" lon="6.79427">
        <ele>1996.441</ele>
        <time>2021-03-13T13:27:49Z</time>
      </trkpt>
      <trkpt lat="45.57167" lon="6.79401">
        <ele>1993.085</ele>
        <time>2021-03-13T13:27:54Z</time>
      </trkpt>
      <trkpt lat="45.57142" lon="6.79383">
        <ele>1988.208</ele>
        <time>2021-03-13T13:27:59Z</time>
      </trkpt>
      <trkpt lat="45.57117" lon="6.79375">
        <ele>1983.606</ele>
        <time>2021-03-13T13:28:04Z</time>
      </trkpt>
      <trkpt lat="45.5709" lon="6.79366">
        <ele>1979.62</ele>
        <time>2021-03-13T13:28:09Z</time>
      </trkpt>
      <trkpt lat="45.57079" lon="6.7934">
        <ele>1975.932</ele>
        <time>2021-03-13T13:28:14Z</time>
      </trkpt>
      <trkpt lat="45.57102" lon="6.79331">
        <ele>1967.161</ele>
        <time>2021-03-13T13:28:19Z</time>
      </trkpt>
      <trkpt lat="45.57135" lon="6.79316">
        <ele>1960.068</ele>
        <time>2021-03-13T13:28:24Z</time>
      </trkpt>
      <trkpt lat="45.57164" lon="6.79305">
        <ele>1956.342</ele>
        <time>2021-03-13T13:28:29Z</time>
      </trkpt>
      <trkpt lat="45.57195" lon="6.79311">
        <ele>1953.104</ele>
        <time>2021-03-13T13:28:34Z</time>
      </trkpt>
      <trkpt lat="45.57227" lon="6.79325">
        <ele>1950.676</ele>
        <time>2021-03-13T13:28:39Z</time>
      </trkpt>
      <trkpt lat="45.5725" lon="6.79322">
        <ele>1947.882</ele>
        <time>2021-03-13T13:28:44Z</time>
      </trkpt>
      <trkpt lat="45.57253" lon="6.79317">
        <ele>1947.01</ele>
        <time>2021-03-13T13:28:49Z</time>
      </trkpt>
      <trkpt lat="45.57253" lon="6.79317">
        <ele>1947.198</ele>
        <time>2021-03-13T13:28:54Z</time>
      </trkpt>
      <trkpt lat="45.57253" lon="6.79318">
        <ele>1947.249</ele>
        <time>2021-03-13T13:28:59Z</time>
      </trkpt>
      <trkpt lat="45.57254" lon="6.79318">
        <ele>1947.415</ele>
        <time>2021-03-13T13:29:04Z</time>
      </trkpt>
      <trkpt lat="45.57258" lon="6.79319">
        <ele>1947.364</ele>
        <time>2021-03-13T13:29:09Z</time>
      </trkpt>
      <trkpt lat="45.57272" lon="6.79302">
        <ele>1942.255</ele>
        <time>2021-03-13T13:29:14Z</time>
      </trkpt>
      <trkpt lat="45.57273" lon="6.79269">
        <ele>1935.82</ele>
        <time>2021-03-13T13:29:19Z</time>
      </trkpt>
      <trkpt lat="45.57267" lon="6.79242">
        <ele>1930.077</ele>
        <time>2021-03-13T13:29:24Z</time>
      </trkpt>
      <trkpt lat="45.57266" lon="6.79242">
        <ele>1930.602</ele>
        <time>2021-03-13T13:29:29Z</time>
      </trkpt>
      <trkpt lat="45.57266" lon="6.79242">
        <ele>1930.385</ele>
        <time>2021-03-13T13:29:34Z</time>
      </trkpt>
      <trkpt lat="45.57264" lon="6.79238">
        <ele>1928.842</ele>
        <time>2021-03-13T13:29:39Z</time>
      </trkpt>
      <trkpt lat="45.57257" lon="6.79211">
        <ele>1922.229</ele>
        <time>2021-03-13T13:29:44Z</time>
      </trkpt>
      <trkpt lat="45.5724" lon="6.79178">
        <ele>1915.588</ele>
        <time>2021-03-13T13:29:49Z</time>
      </trkpt>
      <trkpt lat="45.57227" lon="6.79145">
        <ele>1906.899</ele>
        <time>2021-03-13T13:29:54Z</time>
      </trkpt>
      <trkpt lat="45.5721" lon="6.791">
        <ele>1895.951</ele>
        <time>2021-03-13T13:29:59Z</time>
      </trkpt>
      <trkpt lat="45.57189" lon="6.79062">
        <ele>1891.915</ele>
        <time>2021-03-13T13:30:04Z</time>
      </trkpt>
      <trkpt lat="45.57181" lon="6.79022">
        <ele>1884.845</ele>
        <time>2021-03-13T13:30:09Z</time>
      </trkpt>
      <trkpt lat="45.57178" lon="6.7902">
        <ele>1884.936</ele>
        <time>2021-03-13T13:30:14Z</time>
      </trkpt>
      <trkpt lat="45.57177" lon="6.79018">
        <ele>1884.674</ele>
        <time>2021-03-13T13:30:19Z</time>
      </trkpt>
      <trkpt lat="45.57177" lon="6.79019">
        <ele>1884.103</ele>
        <time>2021-03-13T13:30:24Z</time>
      </trkpt>
      <trkpt lat="45.57177" lon="6.79019">
        <ele>1884.069</ele>
        <time>2021-03-13T13:30:29Z</time>
      </trkpt>
      <trkpt lat="45.57177" lon="6.79019">
        <ele>1884.015</ele>
        <time>2021-03-13T13:30:34Z</time>
      </trkpt>
      <trkpt lat="45.57176" lon="6.79009">
        <ele>1881.985</ele>
        <time>2021-03-13T13:30:39Z</time>
      </trkpt>
      <trkpt lat="45.5717" lon="6.78987">
        <ele>1878.439</ele>
        <time>2021-03-13T13:30:44Z</time>
      </trkpt>
      <trkpt lat="45.57158" lon="6.78971">
        <ele>1874.05</ele>
        <time>2021-03-13T13:30:49Z</time>
      </trkpt>
      <trkpt lat="45.57144" lon="6.78945">
        <ele>1868.189</ele>
        <time>2021-03-13T13:30:54Z</time>
      </trkpt>
      <trkpt lat="45.57127" lon="6.78922">
        <ele>1863.064</ele>
        <time>2021-03-13T13:30:59Z</time>
      </trkpt>
      <trkpt lat="45.57112" lon="6.78902">
        <ele>1857.664</ele>
        <time>2021-03-13T13:31:04Z</time>
      </trkpt>
      <trkpt lat="45.57098" lon="6.78874">
        <ele>1854.297</ele>
        <time>2021-03-13T13:31:09Z</time>
      </trkpt>
      <trkpt lat="45.57094" lon="6.78872">
        <ele>1853.442</ele>
        <time>2021-03-13T13:31:14Z</time>
      </trkpt>
      <trkpt lat="45.57094" lon="6.78872">
        <ele>1852.687</ele>
        <time>2021-03-13T13:31:19Z</time>
      </trkpt>
      <trkpt lat="45.57094" lon="6.78872">
        <ele>1852.438</ele>
        <time>2021-03-13T13:31:24Z</time>
      </trkpt>
      <trkpt lat="45.57095" lon="6.78869">
        <ele>1852.021</ele>
        <time>2021-03-13T13:31:29Z</time>
      </trkpt>
      <trkpt lat="45.57088" lon="6.78848">
        <ele>1847.631</ele>
        <time>2021-03-13T13:31:34Z</time>
      </trkpt>
      <trkpt lat="45.5708" lon="6.78813">
        <ele>1840.24</ele>
        <time>2021-03-13T13:31:39Z</time>
      </trkpt>
      <trkpt lat="45.57087" lon="6.7877">
        <ele>1836.8</ele>
        <time>2021-03-13T13:31:44Z</time>
      </trkpt>
      <trkpt lat="45.5709" lon="6.78748">
        <ele>1833.41</ele>
        <time>2021-03-13T13:31:49Z</time>
      </trkpt>
      <trkpt lat="45.57097" lon="6.78711">
        <ele>1827.692</ele>
        <time>2021-03-13T13:31:54Z</time>
      </trkpt>
      <trkpt lat="45.57111" lon="6.78675">
        <ele>1825.564</ele>
        <time>2021-03-13T13:31:59Z</time>
      </trkpt>
      <trkpt lat="45.57132" lon="6.78657">
        <ele>1823.302</ele>
        <time>2021-03-13T13:32:04Z</time>
      </trkpt>
      <trkpt lat="45.57158" lon="6.78639">
        <ele>1820.814</ele>
        <time>2021-03-13T13:32:09Z</time>
      </trkpt>
      <trkpt lat="45.57181" lon="6.78611">
        <ele>1817.641</ele>
        <time>2021-03-13T13:32:14Z</time>
      </trkpt>
      <trkpt lat="45.57207" lon="6.78589">
        <ele>1812.615</ele>
        <time>2021-03-13T13:32:19Z</time>
      </trkpt>
      <trkpt lat="45.5723" lon="6.7856">
        <ele>1806.73</ele>
        <time>2021-03-13T13:32:24Z</time>
      </trkpt>
      <trkpt lat="45.57245" lon="6.78523">
        <ele>1799.772</ele>
        <time>2021-03-13T13:32:29Z</time>
      </trkpt>
      <trkpt lat="45.57259" lon="6.78481">
        <ele>1796.293</ele>
        <time>2021-03-13T13:32:34Z</time>
      </trkpt>
      <trkpt lat="45.57274" lon="6.78436">
        <ele>1793.117</ele>
        <time>2021-03-13T13:32:39Z</time>
      </trkpt>
      <trkpt lat="45.57282" lon="6.78416">
        <ele>1793.057</ele>
        <time>2021-03-13T13:32:44Z</time>
      </trkpt>
      <trkpt lat="45.5728" lon="6.7841">
        <ele>1792.871</ele>
        <time>2021-03-13T13:32:49Z</time>
      </trkpt>
      <trkpt lat="45.57279" lon="6.78408">
        <ele>1792.137</ele>
        <time>2021-03-13T13:32:54Z</time>
      </trkpt>
      <trkpt lat="45.57278" lon="6.78407">
        <ele>1792.672</ele>
        <time>2021-03-13T13:32:59Z</time>
      </trkpt>
      <trkpt lat="45.57278" lon="6.78407">
        <ele>1792.614</ele>
        <time>2021-03-13T13:33:04Z</time>
      </trkpt>
      <trkpt lat="45.57278" lon="6.78407">
        <ele>1792.629</ele>
        <time>2021-03-13T13:33:09Z</time>
      </trkpt>
      <trkpt lat="45.57278" lon="6.78407">
        <ele>1792.621</ele>
        <time>2021-03-13T13:33:14Z</time>
      </trkpt>
      <trkpt lat="45.57278" lon="6.78407">
        <ele>1792.62</ele>
        <time>2021-03-13T13:33:19Z</time>
      </trkpt>
      <trkpt lat="45.57277" lon="6.78407">
        <ele>1793.136</ele>
        <time>2021-03-13T13:33:24Z</time>
      </trkpt>
      <trkpt lat="45.57278" lon="6.78406">
        <ele>1793.882</ele>
        <time>2021-03-13T13:33:29Z</time>
      </trkpt>
      <trkpt lat="45.57289" lon="6.78386">
        <ele>1788.152</ele>
        <time>2021-03-13T13:33:34Z</time>
      </trkpt>
      <trkpt lat="45.57301" lon="6.78364">
        <ele>1783.147</ele>
        <time>2021-03-13T13:33:39Z</time>
      </trkpt>
      <trkpt lat="45.57308" lon="6.7834">
        <ele>1778.623</ele>
        <time>2021-03-13T13:33:44Z</time>
      </trkpt>
      <trkpt lat="45.57319" lon="6.78318">
        <ele>1771.243</ele>
        <time>2021-03-13T13:33:49Z</time>
      </trkpt>
      <trkpt lat="45.5734" lon="6.78298">
        <ele>1763.743</ele>
        <time>2021-03-13T13:33:54Z</time>
      </trkpt>
      <trkpt lat="45.5737" lon="6.78295">
        <ele>1760.758</ele>
        <time>2021-03-13T13:33:59Z</time>
      </trkpt>
      <trkpt lat="45.57393" lon="6.783">
        <ele>1758.454</ele>
        <time>2021-03-13T13:34:04Z</time>
      </trkpt>
      <trkpt lat="45.57423" lon="6.78289">
        <ele>1752.712</ele>
        <time>2021-03-13T13:34:09Z</time>
      </trkpt>
      <trkpt lat="45.57456" lon="6.78277">
        <ele>1749.3</ele>
        <time>2021-03-13T13:34:14Z</time>
      </trkpt>
      <trkpt lat="45.57486" lon="6.78265">
        <ele>1743.454</ele>
        <time>2021-03-13T13:34:19Z</time>
      </trkpt>
      <trkpt lat="45.57515" lon="6.78249">
        <ele>1740.08</ele>
        <time>2021-03-13T13:34:24Z</time>
      </trkpt>
      <trkpt lat="45.57526" lon="6.782">
        <ele>1735.611</ele>
        <time>2021-03-13T13:34:29Z</time>
      </trkpt>
      <trkpt lat="45.57533" lon="6.78162">
        <ele>1731.93</ele>
        <time>2021-03-13T13:34:34Z</time>
      </trkpt>
      <trkpt lat="45.57538" lon="6.78133">
        <ele>1729.289</ele>
        <time>2021-03-13T13:34:39Z</time>
      </trkpt>
      <trkpt lat="45.57533" lon="6.78119">
        <ele>1728.329</ele>
        <time>2021-03-13T13:34:44Z</time>
      </trkpt>
      <trkpt lat="45.57533" lon="6.78119">
        <ele>1728.159</ele>
        <time>2021-03-13T13:34:49Z</time>
      </trkpt>
      <trkpt lat="45.57533" lon="6.78118">
        <ele>1727.538</ele>
        <time>2021-03-13T13:34:54Z</time>
      </trkpt>
      <trkpt lat="45.57533" lon="6.78118">
        <ele>1726.495</ele>
        <time>2021-03-13T13:34:59Z</time>
      </trkpt>
      <trkpt lat="45.57533" lon="6.78118">
        <ele>1726.43</ele>
        <time>2021-03-13T13:35:04Z</time>
      </trkpt>
      <trkpt lat="45.57533" lon="6.78118">
        <ele>1726.431</ele>
        <time>2021-03-13T13:35:09Z</time>
      </trkpt>
      <trkpt lat="45.57537" lon="6.78109">
        <ele>1725.146</ele>
        <time>2021-03-13T13:35:14Z</time>
      </trkpt>
      <trkpt lat="45.57548" lon="6.78085">
        <ele>1722.064</ele>
        <time>2021-03-13T13:35:19Z</time>
      </trkpt>
      <trkpt lat="45.57559" lon="6.78055">
        <ele>1719.305</ele>
        <time>2021-03-13T13:35:24Z</time>
      </trkpt>
      <trkpt lat="45.57565" lon="6.7804">
        <ele>1719.498</ele>
        <time>2021-03-13T13:35:29Z</time>
      </trkpt>
      <trkpt lat="45.57565" lon="6.78042">
        <ele>1719.71</ele>
        <time>2021-03-13T13:35:34Z</time>
      </trkpt>
      <trkpt lat="45.57565" lon="6.78043">
        <ele>1720.462</ele>
        <time>2021-03-13T13:35:39Z</time>
      </trkpt>
      <trkpt lat="45.57564" lon="6.78044">
        <ele>1720.362</ele>
        <time>2021-03-13T13:35:44Z</time>
      </trkpt>
      <trkpt lat="45.57564" lon="6.78044">
        <ele>1720.354</ele>
        <time>2021-03-13T13:35:49Z</time>
      </trkpt>
      <trkpt lat="45.57564" lon="6.78043">
        <ele>1721.815</ele>
        <time>2021-03-13T13:35:54Z</time>
      </trkpt>
      <trkpt lat="45.57564" lon="6.78043">
        <ele>1722.129</ele>
        <time>2021-03-13T13:35:59Z</time>
      </trkpt>
      <trkpt lat="45.57564" lon="6.78043">
        <ele>1722.09</ele>
        <time>2021-03-13T13:36:04Z</time>
      </trkpt>
      <trkpt lat="45.57564" lon="6.78043">
        <ele>1722.059</ele>
        <time>2021-03-13T13:36:09Z</time>
      </trkpt>
      <trkpt lat="45.57563" lon="6.78043">
        <ele>1722.055</ele>
        <time>2021-03-13T13:36:14Z</time>
      </trkpt>
      <trkpt lat="45.57563" lon="6.78043">
        <ele>1722.043</ele>
        <time>2021-03-13T13:36:19Z</time>
      </trkpt>
      <trkpt lat="45.57563" lon="6.78043">
        <ele>1724.018</ele>
        <time>2021-03-13T13:36:24Z</time>
      </trkpt>
      <trkpt lat="45.57563" lon="6.78043">
        <ele>1724.579</ele>
        <time>2021-03-13T13:36:29Z</time>
      </trkpt>
      <trkpt lat="45.57563" lon="6.78043">
        <ele>1722.848</ele>
        <time>2021-03-13T13:36:34Z</time>
      </trkpt>
      <trkpt lat="45.57563" lon="6.78043">
        <ele>1722.738</ele>
        <time>2021-03-13T13:36:39Z</time>
      </trkpt>
      <trkpt lat="45.57563" lon="6.78043">
        <ele>1722.733</ele>
        <time>2021-03-13T13:36:44Z</time>
      </trkpt>
      <trkpt lat="45.57563" lon="6.78043">
        <ele>1722.725</ele>
        <time>2021-03-13T13:36:49Z</time>
      </trkpt>
      <trkpt lat="45.57563" lon="6.78043">
        <ele>1722.732</ele>
        <time>2021-03-13T13:36:54Z</time>
      </trkpt>
      <trkpt lat="45.57563" lon="6.78043">
        <ele>1722.712</ele>
        <time>2021-03-13T13:36:59Z</time>
      </trkpt>
      <trkpt lat="45.57563" lon="6.78043">
        <ele>1722.684</ele>
        <time>2021-03-13T13:37:04Z</time>
      </trkpt>
      <trkpt lat="45.57564" lon="6.78044">
        <ele>1721.533</ele>
        <time>2021-03-13T13:37:09Z</time>
      </trkpt>
      <trkpt lat="45.57565" lon="6.78044">
        <ele>1720.919</ele>
        <time>2021-03-13T13:37:14Z</time>
      </trkpt>
      <trkpt lat="45.57565" lon="6.78044">
        <ele>1721.15</ele>
        <time>2021-03-13T13:37:19Z</time>
      </trkpt>
      <trkpt lat="45.57565" lon="6.78043">
        <ele>1719.986</ele>
        <time>2021-03-13T13:37:24Z</time>
      </trkpt>
      <trkpt lat="45.57565" lon="6.78046">
        <ele>1720.117</ele>
        <time>2021-03-13T13:37:29Z</time>
      </trkpt>
      <trkpt lat="45.57568" lon="6.78054">
        <ele>1718.073</ele>
        <time>2021-03-13T13:37:34Z</time>
      </trkpt>
      <trkpt lat="45.57572" lon="6.78048">
        <ele>1717.51</ele>
        <time>2021-03-13T13:37:39Z</time>
      </trkpt>
      <trkpt lat="45.57577" lon="6.7804">
        <ele>1718.766</ele>
        <time>2021-03-13T13:37:44Z</time>
      </trkpt>
      <trkpt lat="45.57583" lon="6.78035">
        <ele>1719.889</ele>
        <time>2021-03-13T13:37:49Z</time>
      </trkpt>
      <trkpt lat="45.57588" lon="6.78029">
        <ele>1720.009</ele>
        <time>2021-03-13T13:37:54Z</time>
      </trkpt>
      <trkpt lat="45.57591" lon="6.78022">
        <ele>1720.543</ele>
        <time>2021-03-13T13:37:59Z</time>
      </trkpt>
      <trkpt lat="45.5759" lon="6.78021">
        <ele>1720.727</ele>
        <time>2021-03-13T13:38:04Z</time>
      </trkpt>
      <trkpt lat="45.57591" lon="6.7802">
        <ele>1721.702</ele>
        <time>2021-03-13T13:38:09Z</time>
      </trkpt>
      <trkpt lat="45.57595" lon="6.78016">
        <ele>1722.136</ele>
        <time>2021-03-13T13:38:14Z</time>
      </trkpt>
      <trkpt lat="45.57598" lon="6.78012">
        <ele>1721.675</ele>
        <time>2021-03-13T13:38:19Z</time>
      </trkpt>
      <trkpt lat="45.576" lon="6.78007">
        <ele>1720.469</ele>
        <time>2021-03-13T13:38:24Z</time>
      </trkpt>
      <trkpt lat="45.57604" lon="6.78005">
        <ele>1716.672</ele>
        <time>2021-03-13T13:38:29Z</time>
      </trkpt>
      <trkpt lat="45.57602" lon="6.78004">
        <ele>1716.683</ele>
        <time>2021-03-13T13:38:34Z</time>
      </trkpt>
      <trkpt lat="45.57601" lon="6.78003">
        <ele>1716.946</ele>
        <time>2021-03-13T13:38:39Z</time>
      </trkpt>
      <trkpt lat="45.57601" lon="6.78003">
        <ele>1716.416</ele>
        <time>2021-03-13T13:38:44Z</time>
      </trkpt>
      <trkpt lat="45.57602" lon="6.78004">
        <ele>1716.145</ele>
        <time>2021-03-13T13:38:49Z</time>
      </trkpt>
      <trkpt lat="45.57602" lon="6.78004">
        <ele>1716.139</ele>
        <time>2021-03-13T13:38:54Z</time>
      </trkpt>
      <trkpt lat="45.57602" lon="6.78004">
        <ele>1716.135</ele>
        <time>2021-03-13T13:38:59Z</time>
      </trkpt>
      <trkpt lat="45.57602" lon="6.78004">
        <ele>1716.135</ele>
        <time>2021-03-13T13:39:04Z</time>
      </trkpt>
      <trkpt lat="45.57602" lon="6.78004">
        <ele>1716.134</ele>
        <time>2021-03-13T13:39:09Z</time>
      </trkpt>
      <trkpt lat="45.57602" lon="6.78004">
        <ele>1716.139</ele>
        <time>2021-03-13T13:39:14Z</time>
      </trkpt>
      <trkpt lat="45.57602" lon="6.78004">
        <ele>1716.139</ele>
        <time>2021-03-13T13:39:19Z</time>
      </trkpt>
    </trkseg>
  </trk>
</gpx>